<?xml version="1.0" encoding="UTF-8" standalone="no" ?>
<gpx xmlns="http://www.topografix.com/GPX/1/1" xmlns:xsi="http://www.w3.org/2001/XMLSchema-instance" xsi:schemaLocation="http://www.topografix.com/GPX/1/1 http://www.topografix.com/GPX/1/1/gpx.xsd" version="1.1" creator="VisuGPX - https://www.visugpx.com">
  <metadata>
    <name>VTT du mercredi 18 octobre 2017 (sans Jacques)</name>
    <desc><![CDATA[Beau temps et terrain sec. On avait déjà fait ce parcours le 28 septembre 2016 dans le même sens lequel s'inspirait de celui du 7 septembre 2016 fait en sens contraire (sans Christian pour cause de problème scapulaire). Quelques commentaires :
La mare du km 8,5 est asséchée.
Au km 12,5 on a continué tout droit au lieu de rester sur le chemin blanc, c'était bien. Puis au km 13,3 on a pris une ligne de coupe pour arriver sur la route : bien cette fois mais à éviter par temps humide.
Après une grimpette, au km 15 un secteur boueux et caillouteux, mais on ne peut pas l'éviter.
Chute de JF sans conséquence
]]></desc>
  </metadata>
  <trk>
    <name><![CDATA[2017-10-18 09:45]]></name>
    <desc><![CDATA[<p>Heure de départ: 10/18/2017 09:45<br/>Heure d'arrivée: 10/18/2017 11:51<br/>Distance: 23 km (02:06)<br/>Temps déplacement: 01:52<br/>Vitesse moyenne: 10,88 km/h<br/>Vitesse moyenne mouv.: 12,25 km/h<br/>Vitesse Max.: 39,92 km/h<br/>Altitude minimale: 232 m<br/>Altitude maximale: 346 m<br/>Vitesse de montée: 177,3 m/h<br/>Vitesse de descente: -464,4 m/h<br/>Gain d'altitude: 168 m<br/>Perte d'altitude: -195 m<br/>Temps de montée: 00:56<br/>Temps de descente: 00:25<br/></p><hr align="center" width="480" style="height: 2px; width: 517px"/>]]></desc>
    <trkseg>
      <trkpt lat="47.69043" lon="6.05118">
        <ele>261.75</ele>
        <time>2017-10-18T07:45:01Z</time>
      </trkpt>
      <trkpt lat="47.6905" lon="6.05121">
        <ele>268.61</ele>
        <time>2017-10-18T07:45:05Z</time>
      </trkpt>
      <trkpt lat="47.69056" lon="6.05124">
        <ele>267.77</ele>
        <time>2017-10-18T07:45:08Z</time>
      </trkpt>
      <trkpt lat="47.69061" lon="6.05127">
        <ele>267.76</ele>
        <time>2017-10-18T07:45:11Z</time>
      </trkpt>
      <trkpt lat="47.69066" lon="6.05131">
        <ele>266.38</ele>
        <time>2017-10-18T07:45:14Z</time>
      </trkpt>
      <trkpt lat="47.69071" lon="6.05135">
        <ele>265.73</ele>
        <time>2017-10-18T07:45:17Z</time>
      </trkpt>
      <trkpt lat="47.69076" lon="6.05139">
        <ele>265.18</ele>
        <time>2017-10-18T07:45:20Z</time>
      </trkpt>
      <trkpt lat="47.69081" lon="6.05142">
        <ele>264.83</ele>
        <time>2017-10-18T07:45:23Z</time>
      </trkpt>
      <trkpt lat="47.69086" lon="6.05145">
        <ele>263.63</ele>
        <time>2017-10-18T07:45:26Z</time>
      </trkpt>
      <trkpt lat="47.69091" lon="6.05148">
        <ele>263.38</ele>
        <time>2017-10-18T07:45:28Z</time>
      </trkpt>
      <trkpt lat="47.69096" lon="6.05152">
        <ele>262.87</ele>
        <time>2017-10-18T07:45:31Z</time>
      </trkpt>
      <trkpt lat="47.691" lon="6.05156">
        <ele>262.82</ele>
        <time>2017-10-18T07:45:33Z</time>
      </trkpt>
      <trkpt lat="47.69104" lon="6.05159">
        <ele>262.78</ele>
        <time>2017-10-18T07:45:35Z</time>
      </trkpt>
      <trkpt lat="47.69109" lon="6.05162">
        <ele>262.72</ele>
        <time>2017-10-18T07:45:37Z</time>
      </trkpt>
      <trkpt lat="47.69114" lon="6.05165">
        <ele>262.65</ele>
        <time>2017-10-18T07:45:39Z</time>
      </trkpt>
      <trkpt lat="47.69118" lon="6.05169">
        <ele>262.57</ele>
        <time>2017-10-18T07:45:41Z</time>
      </trkpt>
      <trkpt lat="47.69123" lon="6.05173">
        <ele>262.48</ele>
        <time>2017-10-18T07:45:43Z</time>
      </trkpt>
      <trkpt lat="47.69127" lon="6.05176">
        <ele>262.39</ele>
        <time>2017-10-18T07:45:45Z</time>
      </trkpt>
      <trkpt lat="47.69132" lon="6.05181">
        <ele>262.23</ele>
        <time>2017-10-18T07:45:48Z</time>
      </trkpt>
      <trkpt lat="47.69137" lon="6.05186">
        <ele>262.05</ele>
        <time>2017-10-18T07:45:51Z</time>
      </trkpt>
      <trkpt lat="47.69143" lon="6.05191">
        <ele>261.93</ele>
        <time>2017-10-18T07:45:53Z</time>
      </trkpt>
      <trkpt lat="47.69148" lon="6.05195">
        <ele>261.8</ele>
        <time>2017-10-18T07:45:55Z</time>
      </trkpt>
      <trkpt lat="47.69154" lon="6.05199">
        <ele>261.68</ele>
        <time>2017-10-18T07:45:57Z</time>
      </trkpt>
      <trkpt lat="47.69159" lon="6.05205">
        <ele>261.55</ele>
        <time>2017-10-18T07:45:59Z</time>
      </trkpt>
      <trkpt lat="47.69165" lon="6.0521">
        <ele>261.43</ele>
        <time>2017-10-18T07:46:01Z</time>
      </trkpt>
      <trkpt lat="47.6917" lon="6.05217">
        <ele>261.31</ele>
        <time>2017-10-18T07:46:03Z</time>
      </trkpt>
      <trkpt lat="47.69176" lon="6.05224">
        <ele>260.39</ele>
        <time>2017-10-18T07:46:05Z</time>
      </trkpt>
      <trkpt lat="47.69182" lon="6.05232">
        <ele>259.59</ele>
        <time>2017-10-18T07:46:07Z</time>
      </trkpt>
      <trkpt lat="47.69188" lon="6.05239">
        <ele>259.03</ele>
        <time>2017-10-18T07:46:09Z</time>
      </trkpt>
      <trkpt lat="47.69194" lon="6.05245">
        <ele>258.71</ele>
        <time>2017-10-18T07:46:11Z</time>
      </trkpt>
      <trkpt lat="47.692" lon="6.05251">
        <ele>258.65</ele>
        <time>2017-10-18T07:46:13Z</time>
      </trkpt>
      <trkpt lat="47.69206" lon="6.05257">
        <ele>258.6</ele>
        <time>2017-10-18T07:46:15Z</time>
      </trkpt>
      <trkpt lat="47.69211" lon="6.05262">
        <ele>258.56</ele>
        <time>2017-10-18T07:46:17Z</time>
      </trkpt>
      <trkpt lat="47.69216" lon="6.05268">
        <ele>258.52</ele>
        <time>2017-10-18T07:46:19Z</time>
      </trkpt>
      <trkpt lat="47.69222" lon="6.05274">
        <ele>258.47</ele>
        <time>2017-10-18T07:46:21Z</time>
      </trkpt>
      <trkpt lat="47.69228" lon="6.0528">
        <ele>258.42</ele>
        <time>2017-10-18T07:46:23Z</time>
      </trkpt>
      <trkpt lat="47.69234" lon="6.05286">
        <ele>258.37</ele>
        <time>2017-10-18T07:46:25Z</time>
      </trkpt>
      <trkpt lat="47.6924" lon="6.05293">
        <ele>258.32</ele>
        <time>2017-10-18T07:46:27Z</time>
      </trkpt>
      <trkpt lat="47.69247" lon="6.053">
        <ele>257.89</ele>
        <time>2017-10-18T07:46:29Z</time>
      </trkpt>
      <trkpt lat="47.69253" lon="6.05306">
        <ele>257.78</ele>
        <time>2017-10-18T07:46:31Z</time>
      </trkpt>
      <trkpt lat="47.69259" lon="6.05313">
        <ele>257.73</ele>
        <time>2017-10-18T07:46:33Z</time>
      </trkpt>
      <trkpt lat="47.69265" lon="6.05319">
        <ele>257.7</ele>
        <time>2017-10-18T07:46:35Z</time>
      </trkpt>
      <trkpt lat="47.69272" lon="6.05324">
        <ele>257.52</ele>
        <time>2017-10-18T07:46:37Z</time>
      </trkpt>
      <trkpt lat="47.69279" lon="6.0533">
        <ele>257.48</ele>
        <time>2017-10-18T07:46:39Z</time>
      </trkpt>
      <trkpt lat="47.69286" lon="6.05335">
        <ele>257.45</ele>
        <time>2017-10-18T07:46:41Z</time>
      </trkpt>
      <trkpt lat="47.69293" lon="6.05341">
        <ele>257.42</ele>
        <time>2017-10-18T07:46:43Z</time>
      </trkpt>
      <trkpt lat="47.69299" lon="6.05346">
        <ele>257.39</ele>
        <time>2017-10-18T07:46:45Z</time>
      </trkpt>
      <trkpt lat="47.69306" lon="6.05351">
        <ele>257.36</ele>
        <time>2017-10-18T07:46:47Z</time>
      </trkpt>
      <trkpt lat="47.69313" lon="6.05356">
        <ele>257.32</ele>
        <time>2017-10-18T07:46:49Z</time>
      </trkpt>
      <trkpt lat="47.69319" lon="6.05362">
        <ele>257.28</ele>
        <time>2017-10-18T07:46:51Z</time>
      </trkpt>
      <trkpt lat="47.69325" lon="6.05367">
        <ele>257.24</ele>
        <time>2017-10-18T07:46:53Z</time>
      </trkpt>
      <trkpt lat="47.69331" lon="6.05371">
        <ele>257.2</ele>
        <time>2017-10-18T07:46:55Z</time>
      </trkpt>
      <trkpt lat="47.69338" lon="6.05375">
        <ele>257.15</ele>
        <time>2017-10-18T07:46:57Z</time>
      </trkpt>
      <trkpt lat="47.69344" lon="6.0538">
        <ele>257.11</ele>
        <time>2017-10-18T07:46:59Z</time>
      </trkpt>
      <trkpt lat="47.69351" lon="6.05385">
        <ele>257.06</ele>
        <time>2017-10-18T07:47:01Z</time>
      </trkpt>
      <trkpt lat="47.69357" lon="6.0539">
        <ele>257.02</ele>
        <time>2017-10-18T07:47:03Z</time>
      </trkpt>
      <trkpt lat="47.69363" lon="6.05395">
        <ele>256.98</ele>
        <time>2017-10-18T07:47:05Z</time>
      </trkpt>
      <trkpt lat="47.69369" lon="6.05401">
        <ele>256.94</ele>
        <time>2017-10-18T07:47:07Z</time>
      </trkpt>
      <trkpt lat="47.69376" lon="6.05406">
        <ele>256.9</ele>
        <time>2017-10-18T07:47:09Z</time>
      </trkpt>
      <trkpt lat="47.69383" lon="6.05411">
        <ele>256.7</ele>
        <time>2017-10-18T07:47:11Z</time>
      </trkpt>
      <trkpt lat="47.69389" lon="6.05416">
        <ele>256.66</ele>
        <time>2017-10-18T07:47:13Z</time>
      </trkpt>
      <trkpt lat="47.69395" lon="6.05421">
        <ele>256.55</ele>
        <time>2017-10-18T07:47:15Z</time>
      </trkpt>
      <trkpt lat="47.69401" lon="6.05427">
        <ele>256.43</ele>
        <time>2017-10-18T07:47:17Z</time>
      </trkpt>
      <trkpt lat="47.69407" lon="6.05432">
        <ele>256.33</ele>
        <time>2017-10-18T07:47:19Z</time>
      </trkpt>
      <trkpt lat="47.69413" lon="6.05438">
        <ele>256.31</ele>
        <time>2017-10-18T07:47:21Z</time>
      </trkpt>
      <trkpt lat="47.69419" lon="6.05442">
        <ele>256.29</ele>
        <time>2017-10-18T07:47:23Z</time>
      </trkpt>
      <trkpt lat="47.69425" lon="6.05447">
        <ele>256.28</ele>
        <time>2017-10-18T07:47:25Z</time>
      </trkpt>
      <trkpt lat="47.69431" lon="6.05453">
        <ele>256.27</ele>
        <time>2017-10-18T07:47:27Z</time>
      </trkpt>
      <trkpt lat="47.69437" lon="6.05461">
        <ele>256.19</ele>
        <time>2017-10-18T07:47:29Z</time>
      </trkpt>
      <trkpt lat="47.69441" lon="6.05469">
        <ele>256.17</ele>
        <time>2017-10-18T07:47:31Z</time>
      </trkpt>
      <trkpt lat="47.69444" lon="6.05478">
        <ele>256.12</ele>
        <time>2017-10-18T07:47:33Z</time>
      </trkpt>
      <trkpt lat="47.69447" lon="6.05489">
        <ele>256.01</ele>
        <time>2017-10-18T07:47:35Z</time>
      </trkpt>
      <trkpt lat="47.69451" lon="6.05499">
        <ele>255.98</ele>
        <time>2017-10-18T07:47:37Z</time>
      </trkpt>
      <trkpt lat="47.69455" lon="6.05507">
        <ele>255.97</ele>
        <time>2017-10-18T07:47:39Z</time>
      </trkpt>
      <trkpt lat="47.69458" lon="6.05514">
        <ele>255.96</ele>
        <time>2017-10-18T07:47:41Z</time>
      </trkpt>
      <trkpt lat="47.69461" lon="6.05521">
        <ele>255.95</ele>
        <time>2017-10-18T07:47:43Z</time>
      </trkpt>
      <trkpt lat="47.69463" lon="6.05527">
        <ele>255.93</ele>
        <time>2017-10-18T07:47:45Z</time>
      </trkpt>
      <trkpt lat="47.69466" lon="6.05534">
        <ele>255.92</ele>
        <time>2017-10-18T07:47:47Z</time>
      </trkpt>
      <trkpt lat="47.69468" lon="6.05541">
        <ele>255.9</ele>
        <time>2017-10-18T07:47:49Z</time>
      </trkpt>
      <trkpt lat="47.69471" lon="6.05548">
        <ele>255.89</ele>
        <time>2017-10-18T07:47:51Z</time>
      </trkpt>
      <trkpt lat="47.69474" lon="6.05555">
        <ele>255.87</ele>
        <time>2017-10-18T07:47:53Z</time>
      </trkpt>
      <trkpt lat="47.69477" lon="6.05563">
        <ele>255.86</ele>
        <time>2017-10-18T07:47:55Z</time>
      </trkpt>
      <trkpt lat="47.6948" lon="6.0557">
        <ele>255.84</ele>
        <time>2017-10-18T07:47:57Z</time>
      </trkpt>
      <trkpt lat="47.69483" lon="6.05578">
        <ele>255.82</ele>
        <time>2017-10-18T07:47:59Z</time>
      </trkpt>
      <trkpt lat="47.69486" lon="6.05585">
        <ele>255.81</ele>
        <time>2017-10-18T07:48:01Z</time>
      </trkpt>
      <trkpt lat="47.69489" lon="6.05593">
        <ele>255.79</ele>
        <time>2017-10-18T07:48:03Z</time>
      </trkpt>
      <trkpt lat="47.69492" lon="6.056">
        <ele>255.78</ele>
        <time>2017-10-18T07:48:05Z</time>
      </trkpt>
      <trkpt lat="47.69494" lon="6.05607">
        <ele>255.76</ele>
        <time>2017-10-18T07:48:06Z</time>
      </trkpt>
      <trkpt lat="47.69496" lon="6.05615">
        <ele>255.75</ele>
        <time>2017-10-18T07:48:08Z</time>
      </trkpt>
      <trkpt lat="47.69498" lon="6.05623">
        <ele>255.74</ele>
        <time>2017-10-18T07:48:10Z</time>
      </trkpt>
      <trkpt lat="47.695" lon="6.0563">
        <ele>255.73</ele>
        <time>2017-10-18T07:48:12Z</time>
      </trkpt>
      <trkpt lat="47.69502" lon="6.05639">
        <ele>255.72</ele>
        <time>2017-10-18T07:48:14Z</time>
      </trkpt>
      <trkpt lat="47.69504" lon="6.05646">
        <ele>255.71</ele>
        <time>2017-10-18T07:48:16Z</time>
      </trkpt>
      <trkpt lat="47.69506" lon="6.05654">
        <ele>255.7</ele>
        <time>2017-10-18T07:48:18Z</time>
      </trkpt>
      <trkpt lat="47.69507" lon="6.05662">
        <ele>255.69</ele>
        <time>2017-10-18T07:48:20Z</time>
      </trkpt>
      <trkpt lat="47.69509" lon="6.0567">
        <ele>255.69</ele>
        <time>2017-10-18T07:48:22Z</time>
      </trkpt>
      <trkpt lat="47.69511" lon="6.05678">
        <ele>255.68</ele>
        <time>2017-10-18T07:48:24Z</time>
      </trkpt>
      <trkpt lat="47.69513" lon="6.05685">
        <ele>255.68</ele>
        <time>2017-10-18T07:48:26Z</time>
      </trkpt>
      <trkpt lat="47.69515" lon="6.05693">
        <ele>255.68</ele>
        <time>2017-10-18T07:48:28Z</time>
      </trkpt>
      <trkpt lat="47.69517" lon="6.057">
        <ele>255.68</ele>
        <time>2017-10-18T07:48:30Z</time>
      </trkpt>
      <trkpt lat="47.69519" lon="6.05707">
        <ele>255.68</ele>
        <time>2017-10-18T07:48:32Z</time>
      </trkpt>
      <trkpt lat="47.69521" lon="6.05715">
        <ele>255.68</ele>
        <time>2017-10-18T07:48:34Z</time>
      </trkpt>
      <trkpt lat="47.69523" lon="6.05722">
        <ele>255.68</ele>
        <time>2017-10-18T07:48:36Z</time>
      </trkpt>
      <trkpt lat="47.69525" lon="6.05729">
        <ele>255.69</ele>
        <time>2017-10-18T07:48:38Z</time>
      </trkpt>
      <trkpt lat="47.69527" lon="6.05737">
        <ele>255.69</ele>
        <time>2017-10-18T07:48:40Z</time>
      </trkpt>
      <trkpt lat="47.69529" lon="6.05744">
        <ele>255.7</ele>
        <time>2017-10-18T07:48:42Z</time>
      </trkpt>
      <trkpt lat="47.69531" lon="6.05752">
        <ele>255.71</ele>
        <time>2017-10-18T07:48:44Z</time>
      </trkpt>
      <trkpt lat="47.69534" lon="6.0576">
        <ele>255.72</ele>
        <time>2017-10-18T07:48:46Z</time>
      </trkpt>
      <trkpt lat="47.69536" lon="6.05767">
        <ele>255.73</ele>
        <time>2017-10-18T07:48:48Z</time>
      </trkpt>
      <trkpt lat="47.69537" lon="6.05775">
        <ele>255.75</ele>
        <time>2017-10-18T07:48:50Z</time>
      </trkpt>
      <trkpt lat="47.69539" lon="6.05782">
        <ele>255.76</ele>
        <time>2017-10-18T07:48:52Z</time>
      </trkpt>
      <trkpt lat="47.6954" lon="6.05789">
        <ele>255.78</ele>
        <time>2017-10-18T07:48:54Z</time>
      </trkpt>
      <trkpt lat="47.69542" lon="6.05796">
        <ele>255.8</ele>
        <time>2017-10-18T07:48:56Z</time>
      </trkpt>
      <trkpt lat="47.69544" lon="6.05803">
        <ele>255.82</ele>
        <time>2017-10-18T07:48:58Z</time>
      </trkpt>
      <trkpt lat="47.69546" lon="6.0581">
        <ele>255.84</ele>
        <time>2017-10-18T07:49:00Z</time>
      </trkpt>
      <trkpt lat="47.69548" lon="6.05818">
        <ele>255.86</ele>
        <time>2017-10-18T07:49:02Z</time>
      </trkpt>
      <trkpt lat="47.6955" lon="6.05826">
        <ele>255.89</ele>
        <time>2017-10-18T07:49:04Z</time>
      </trkpt>
      <trkpt lat="47.69552" lon="6.05833">
        <ele>255.91</ele>
        <time>2017-10-18T07:49:06Z</time>
      </trkpt>
      <trkpt lat="47.69554" lon="6.05841">
        <ele>255.94</ele>
        <time>2017-10-18T07:49:08Z</time>
      </trkpt>
      <trkpt lat="47.69556" lon="6.0585">
        <ele>255.96</ele>
        <time>2017-10-18T07:49:10Z</time>
      </trkpt>
      <trkpt lat="47.69558" lon="6.05858">
        <ele>255.99</ele>
        <time>2017-10-18T07:49:12Z</time>
      </trkpt>
      <trkpt lat="47.69559" lon="6.05865">
        <ele>256.02</ele>
        <time>2017-10-18T07:49:14Z</time>
      </trkpt>
      <trkpt lat="47.69561" lon="6.05872">
        <ele>256.05</ele>
        <time>2017-10-18T07:49:16Z</time>
      </trkpt>
      <trkpt lat="47.69563" lon="6.0588">
        <ele>256.08</ele>
        <time>2017-10-18T07:49:18Z</time>
      </trkpt>
      <trkpt lat="47.69565" lon="6.05887">
        <ele>256.11</ele>
        <time>2017-10-18T07:49:20Z</time>
      </trkpt>
      <trkpt lat="47.69567" lon="6.05894">
        <ele>256.14</ele>
        <time>2017-10-18T07:49:22Z</time>
      </trkpt>
      <trkpt lat="47.69569" lon="6.05902">
        <ele>256.18</ele>
        <time>2017-10-18T07:49:24Z</time>
      </trkpt>
      <trkpt lat="47.6957" lon="6.0591">
        <ele>256.21</ele>
        <time>2017-10-18T07:49:26Z</time>
      </trkpt>
      <trkpt lat="47.69572" lon="6.05918">
        <ele>256.25</ele>
        <time>2017-10-18T07:49:28Z</time>
      </trkpt>
      <trkpt lat="47.69573" lon="6.05927">
        <ele>256.29</ele>
        <time>2017-10-18T07:49:30Z</time>
      </trkpt>
      <trkpt lat="47.69575" lon="6.05935">
        <ele>256.34</ele>
        <time>2017-10-18T07:49:32Z</time>
      </trkpt>
      <trkpt lat="47.69577" lon="6.05944">
        <ele>256.38</ele>
        <time>2017-10-18T07:49:34Z</time>
      </trkpt>
      <trkpt lat="47.69579" lon="6.05954">
        <ele>256.42</ele>
        <time>2017-10-18T07:49:36Z</time>
      </trkpt>
      <trkpt lat="47.6958" lon="6.05962">
        <ele>256.47</ele>
        <time>2017-10-18T07:49:38Z</time>
      </trkpt>
      <trkpt lat="47.69583" lon="6.0597">
        <ele>256.52</ele>
        <time>2017-10-18T07:49:40Z</time>
      </trkpt>
      <trkpt lat="47.69584" lon="6.05979">
        <ele>256.57</ele>
        <time>2017-10-18T07:49:42Z</time>
      </trkpt>
      <trkpt lat="47.69586" lon="6.05987">
        <ele>256.62</ele>
        <time>2017-10-18T07:49:44Z</time>
      </trkpt>
      <trkpt lat="47.69589" lon="6.05995">
        <ele>256.67</ele>
        <time>2017-10-18T07:49:46Z</time>
      </trkpt>
      <trkpt lat="47.69591" lon="6.06003">
        <ele>256.73</ele>
        <time>2017-10-18T07:49:48Z</time>
      </trkpt>
      <trkpt lat="47.69594" lon="6.0601">
        <ele>256.78</ele>
        <time>2017-10-18T07:49:50Z</time>
      </trkpt>
      <trkpt lat="47.69596" lon="6.06018">
        <ele>256.84</ele>
        <time>2017-10-18T07:49:52Z</time>
      </trkpt>
      <trkpt lat="47.69599" lon="6.06026">
        <ele>256.9</ele>
        <time>2017-10-18T07:49:54Z</time>
      </trkpt>
      <trkpt lat="47.69601" lon="6.06034">
        <ele>256.96</ele>
        <time>2017-10-18T07:49:56Z</time>
      </trkpt>
      <trkpt lat="47.69604" lon="6.06042">
        <ele>257.03</ele>
        <time>2017-10-18T07:49:58Z</time>
      </trkpt>
      <trkpt lat="47.69606" lon="6.06049">
        <ele>257.09</ele>
        <time>2017-10-18T07:50:00Z</time>
      </trkpt>
      <trkpt lat="47.69609" lon="6.06057">
        <ele>257.16</ele>
        <time>2017-10-18T07:50:02Z</time>
      </trkpt>
      <trkpt lat="47.69611" lon="6.06064">
        <ele>257.22</ele>
        <time>2017-10-18T07:50:04Z</time>
      </trkpt>
      <trkpt lat="47.69614" lon="6.06072">
        <ele>257.29</ele>
        <time>2017-10-18T07:50:06Z</time>
      </trkpt>
      <trkpt lat="47.69616" lon="6.0608">
        <ele>257.36</ele>
        <time>2017-10-18T07:50:08Z</time>
      </trkpt>
      <trkpt lat="47.69618" lon="6.06087">
        <ele>257.43</ele>
        <time>2017-10-18T07:50:10Z</time>
      </trkpt>
      <trkpt lat="47.6962" lon="6.06094">
        <ele>257.5</ele>
        <time>2017-10-18T07:50:12Z</time>
      </trkpt>
      <trkpt lat="47.69622" lon="6.06101">
        <ele>257.58</ele>
        <time>2017-10-18T07:50:14Z</time>
      </trkpt>
      <trkpt lat="47.69624" lon="6.06109">
        <ele>257.65</ele>
        <time>2017-10-18T07:50:16Z</time>
      </trkpt>
      <trkpt lat="47.69627" lon="6.06116">
        <ele>257.72</ele>
        <time>2017-10-18T07:50:18Z</time>
      </trkpt>
      <trkpt lat="47.69629" lon="6.06124">
        <ele>257.8</ele>
        <time>2017-10-18T07:50:20Z</time>
      </trkpt>
      <trkpt lat="47.69631" lon="6.06131">
        <ele>257.88</ele>
        <time>2017-10-18T07:50:22Z</time>
      </trkpt>
      <trkpt lat="47.69633" lon="6.06138">
        <ele>257.96</ele>
        <time>2017-10-18T07:50:24Z</time>
      </trkpt>
      <trkpt lat="47.69635" lon="6.06146">
        <ele>258.03</ele>
        <time>2017-10-18T07:50:26Z</time>
      </trkpt>
      <trkpt lat="47.69637" lon="6.06153">
        <ele>258.11</ele>
        <time>2017-10-18T07:50:28Z</time>
      </trkpt>
      <trkpt lat="47.69639" lon="6.06161">
        <ele>258.19</ele>
        <time>2017-10-18T07:50:30Z</time>
      </trkpt>
      <trkpt lat="47.69641" lon="6.06169">
        <ele>258.27</ele>
        <time>2017-10-18T07:50:32Z</time>
      </trkpt>
      <trkpt lat="47.69644" lon="6.06177">
        <ele>258.35</ele>
        <time>2017-10-18T07:50:34Z</time>
      </trkpt>
      <trkpt lat="47.69645" lon="6.06186">
        <ele>258.43</ele>
        <time>2017-10-18T07:50:36Z</time>
      </trkpt>
      <trkpt lat="47.69648" lon="6.06195">
        <ele>258.51</ele>
        <time>2017-10-18T07:50:38Z</time>
      </trkpt>
      <trkpt lat="47.6965" lon="6.06204">
        <ele>258.59</ele>
        <time>2017-10-18T07:50:40Z</time>
      </trkpt>
      <trkpt lat="47.69652" lon="6.06213">
        <ele>258.67</ele>
        <time>2017-10-18T07:50:42Z</time>
      </trkpt>
      <trkpt lat="47.69654" lon="6.06222">
        <ele>258.75</ele>
        <time>2017-10-18T07:50:44Z</time>
      </trkpt>
      <trkpt lat="47.69656" lon="6.06231">
        <ele>258.83</ele>
        <time>2017-10-18T07:50:46Z</time>
      </trkpt>
      <trkpt lat="47.69659" lon="6.0624">
        <ele>258.91</ele>
        <time>2017-10-18T07:50:48Z</time>
      </trkpt>
      <trkpt lat="47.69661" lon="6.06249">
        <ele>258.99</ele>
        <time>2017-10-18T07:50:50Z</time>
      </trkpt>
      <trkpt lat="47.69663" lon="6.06257">
        <ele>259.07</ele>
        <time>2017-10-18T07:50:52Z</time>
      </trkpt>
      <trkpt lat="47.69665" lon="6.06266">
        <ele>259.15</ele>
        <time>2017-10-18T07:50:54Z</time>
      </trkpt>
      <trkpt lat="47.69667" lon="6.06274">
        <ele>259.24</ele>
        <time>2017-10-18T07:50:56Z</time>
      </trkpt>
      <trkpt lat="47.69668" lon="6.06282">
        <ele>259.32</ele>
        <time>2017-10-18T07:50:58Z</time>
      </trkpt>
      <trkpt lat="47.69671" lon="6.0629">
        <ele>259.4</ele>
        <time>2017-10-18T07:51:00Z</time>
      </trkpt>
      <trkpt lat="47.69672" lon="6.06298">
        <ele>259.48</ele>
        <time>2017-10-18T07:51:02Z</time>
      </trkpt>
      <trkpt lat="47.69674" lon="6.06306">
        <ele>259.56</ele>
        <time>2017-10-18T07:51:04Z</time>
      </trkpt>
      <trkpt lat="47.69675" lon="6.06314">
        <ele>259.65</ele>
        <time>2017-10-18T07:51:06Z</time>
      </trkpt>
      <trkpt lat="47.69677" lon="6.06322">
        <ele>259.73</ele>
        <time>2017-10-18T07:51:08Z</time>
      </trkpt>
      <trkpt lat="47.69679" lon="6.06329">
        <ele>259.81</ele>
        <time>2017-10-18T07:51:10Z</time>
      </trkpt>
      <trkpt lat="47.69681" lon="6.06338">
        <ele>259.89</ele>
        <time>2017-10-18T07:51:12Z</time>
      </trkpt>
      <trkpt lat="47.69683" lon="6.06346">
        <ele>259.98</ele>
        <time>2017-10-18T07:51:14Z</time>
      </trkpt>
      <trkpt lat="47.69686" lon="6.06355">
        <ele>260.06</ele>
        <time>2017-10-18T07:51:16Z</time>
      </trkpt>
      <trkpt lat="47.69689" lon="6.06364">
        <ele>260.41</ele>
        <time>2017-10-18T07:51:18Z</time>
      </trkpt>
      <trkpt lat="47.69693" lon="6.06375">
        <ele>261.04</ele>
        <time>2017-10-18T07:51:20Z</time>
      </trkpt>
      <trkpt lat="47.69698" lon="6.06386">
        <ele>261.51</ele>
        <time>2017-10-18T07:51:22Z</time>
      </trkpt>
      <trkpt lat="47.69702" lon="6.06397">
        <ele>261.83</ele>
        <time>2017-10-18T07:51:24Z</time>
      </trkpt>
      <trkpt lat="47.69706" lon="6.06409">
        <ele>262.06</ele>
        <time>2017-10-18T07:51:26Z</time>
      </trkpt>
      <trkpt lat="47.6971" lon="6.0642">
        <ele>262.22</ele>
        <time>2017-10-18T07:51:28Z</time>
      </trkpt>
      <trkpt lat="47.69714" lon="6.06431">
        <ele>262.35</ele>
        <time>2017-10-18T07:51:30Z</time>
      </trkpt>
      <trkpt lat="47.69718" lon="6.06441">
        <ele>262.43</ele>
        <time>2017-10-18T07:51:32Z</time>
      </trkpt>
      <trkpt lat="47.69721" lon="6.0645">
        <ele>262.44</ele>
        <time>2017-10-18T07:51:34Z</time>
      </trkpt>
      <trkpt lat="47.69723" lon="6.06458">
        <ele>262.46</ele>
        <time>2017-10-18T07:51:36Z</time>
      </trkpt>
      <trkpt lat="47.69724" lon="6.06465">
        <ele>262.47</ele>
        <time>2017-10-18T07:51:38Z</time>
      </trkpt>
      <trkpt lat="47.69725" lon="6.06473">
        <ele>262.49</ele>
        <time>2017-10-18T07:51:40Z</time>
      </trkpt>
      <trkpt lat="47.69725" lon="6.06481">
        <ele>262.5</ele>
        <time>2017-10-18T07:51:42Z</time>
      </trkpt>
      <trkpt lat="47.69724" lon="6.06489">
        <ele>262.52</ele>
        <time>2017-10-18T07:51:44Z</time>
      </trkpt>
      <trkpt lat="47.69722" lon="6.06496">
        <ele>262.54</ele>
        <time>2017-10-18T07:51:46Z</time>
      </trkpt>
      <trkpt lat="47.69721" lon="6.06503">
        <ele>262.56</ele>
        <time>2017-10-18T07:51:48Z</time>
      </trkpt>
      <trkpt lat="47.69719" lon="6.06512">
        <ele>262.58</ele>
        <time>2017-10-18T07:51:51Z</time>
      </trkpt>
      <trkpt lat="47.69718" lon="6.06519">
        <ele>262.6</ele>
        <time>2017-10-18T07:51:53Z</time>
      </trkpt>
      <trkpt lat="47.69716" lon="6.06529">
        <ele>262.63</ele>
        <time>2017-10-18T07:51:56Z</time>
      </trkpt>
      <trkpt lat="47.69714" lon="6.06537">
        <ele>262.67</ele>
        <time>2017-10-18T07:51:59Z</time>
      </trkpt>
      <trkpt lat="47.69712" lon="6.06546">
        <ele>262.7</ele>
        <time>2017-10-18T07:52:02Z</time>
      </trkpt>
      <trkpt lat="47.69712" lon="6.06555">
        <ele>262.74</ele>
        <time>2017-10-18T07:52:05Z</time>
      </trkpt>
      <trkpt lat="47.69711" lon="6.06564">
        <ele>262.78</ele>
        <time>2017-10-18T07:52:08Z</time>
      </trkpt>
      <trkpt lat="47.6971" lon="6.06573">
        <ele>262.83</ele>
        <time>2017-10-18T07:52:11Z</time>
      </trkpt>
      <trkpt lat="47.69709" lon="6.0658">
        <ele>262.86</ele>
        <time>2017-10-18T07:52:13Z</time>
      </trkpt>
      <trkpt lat="47.69708" lon="6.06586">
        <ele>262.9</ele>
        <time>2017-10-18T07:52:15Z</time>
      </trkpt>
      <trkpt lat="47.69706" lon="6.06597">
        <ele>262.98</ele>
        <time>2017-10-18T07:52:18Z</time>
      </trkpt>
      <trkpt lat="47.69705" lon="6.06605">
        <ele>263.03</ele>
        <time>2017-10-18T07:52:20Z</time>
      </trkpt>
      <trkpt lat="47.69705" lon="6.06612">
        <ele>263.09</ele>
        <time>2017-10-18T07:52:22Z</time>
      </trkpt>
      <trkpt lat="47.69705" lon="6.06619">
        <ele>263.14</ele>
        <time>2017-10-18T07:52:24Z</time>
      </trkpt>
      <trkpt lat="47.69706" lon="6.06628">
        <ele>263.23</ele>
        <time>2017-10-18T07:52:27Z</time>
      </trkpt>
      <trkpt lat="47.69707" lon="6.06637">
        <ele>263.32</ele>
        <time>2017-10-18T07:52:30Z</time>
      </trkpt>
      <trkpt lat="47.69707" lon="6.06644">
        <ele>263.37</ele>
        <time>2017-10-18T07:52:32Z</time>
      </trkpt>
      <trkpt lat="47.69707" lon="6.06651">
        <ele>263.43</ele>
        <time>2017-10-18T07:52:34Z</time>
      </trkpt>
      <trkpt lat="47.69707" lon="6.0666">
        <ele>263.48</ele>
        <time>2017-10-18T07:52:36Z</time>
      </trkpt>
      <trkpt lat="47.69706" lon="6.06671">
        <ele>263.53</ele>
        <time>2017-10-18T07:52:38Z</time>
      </trkpt>
      <trkpt lat="47.69705" lon="6.06679">
        <ele>263.59</ele>
        <time>2017-10-18T07:52:40Z</time>
      </trkpt>
      <trkpt lat="47.69705" lon="6.06689">
        <ele>263.65</ele>
        <time>2017-10-18T07:52:42Z</time>
      </trkpt>
      <trkpt lat="47.69705" lon="6.06699">
        <ele>263.7</ele>
        <time>2017-10-18T07:52:44Z</time>
      </trkpt>
      <trkpt lat="47.69705" lon="6.06707">
        <ele>263.8</ele>
        <time>2017-10-18T07:52:47Z</time>
      </trkpt>
      <trkpt lat="47.69705" lon="6.06715">
        <ele>263.86</ele>
        <time>2017-10-18T07:52:49Z</time>
      </trkpt>
      <trkpt lat="47.69704" lon="6.06724">
        <ele>263.92</ele>
        <time>2017-10-18T07:52:51Z</time>
      </trkpt>
      <trkpt lat="47.69704" lon="6.06732">
        <ele>263.98</ele>
        <time>2017-10-18T07:52:53Z</time>
      </trkpt>
      <trkpt lat="47.69703" lon="6.06741">
        <ele>264.03</ele>
        <time>2017-10-18T07:52:55Z</time>
      </trkpt>
      <trkpt lat="47.69703" lon="6.06749">
        <ele>264.09</ele>
        <time>2017-10-18T07:52:57Z</time>
      </trkpt>
      <trkpt lat="47.69702" lon="6.06759">
        <ele>264.15</ele>
        <time>2017-10-18T07:52:59Z</time>
      </trkpt>
      <trkpt lat="47.69702" lon="6.0677">
        <ele>264.2</ele>
        <time>2017-10-18T07:53:01Z</time>
      </trkpt>
      <trkpt lat="47.69702" lon="6.06781">
        <ele>264.25</ele>
        <time>2017-10-18T07:53:03Z</time>
      </trkpt>
      <trkpt lat="47.69702" lon="6.0679">
        <ele>264.31</ele>
        <time>2017-10-18T07:53:05Z</time>
      </trkpt>
      <trkpt lat="47.69702" lon="6.06799">
        <ele>264.36</ele>
        <time>2017-10-18T07:53:07Z</time>
      </trkpt>
      <trkpt lat="47.69701" lon="6.0681">
        <ele>264.42</ele>
        <time>2017-10-18T07:53:09Z</time>
      </trkpt>
      <trkpt lat="47.69701" lon="6.06817">
        <ele>264.48</ele>
        <time>2017-10-18T07:53:11Z</time>
      </trkpt>
      <trkpt lat="47.69701" lon="6.06827">
        <ele>264.57</ele>
        <time>2017-10-18T07:53:14Z</time>
      </trkpt>
      <trkpt lat="47.69702" lon="6.06836">
        <ele>264.65</ele>
        <time>2017-10-18T07:53:17Z</time>
      </trkpt>
      <trkpt lat="47.69703" lon="6.06844">
        <ele>264.74</ele>
        <time>2017-10-18T07:53:20Z</time>
      </trkpt>
      <trkpt lat="47.69705" lon="6.06853">
        <ele>264.82</ele>
        <time>2017-10-18T07:53:23Z</time>
      </trkpt>
      <trkpt lat="47.69707" lon="6.0686">
        <ele>264.87</ele>
        <time>2017-10-18T07:53:25Z</time>
      </trkpt>
      <trkpt lat="47.69708" lon="6.0687">
        <ele>264.92</ele>
        <time>2017-10-18T07:53:27Z</time>
      </trkpt>
      <trkpt lat="47.69708" lon="6.06877">
        <ele>264.98</ele>
        <time>2017-10-18T07:53:29Z</time>
      </trkpt>
      <trkpt lat="47.69709" lon="6.06884">
        <ele>265.04</ele>
        <time>2017-10-18T07:53:31Z</time>
      </trkpt>
      <trkpt lat="47.69712" lon="6.06894">
        <ele>265.13</ele>
        <time>2017-10-18T07:53:34Z</time>
      </trkpt>
      <trkpt lat="47.69713" lon="6.06903">
        <ele>265.22</ele>
        <time>2017-10-18T07:53:37Z</time>
      </trkpt>
      <trkpt lat="47.69714" lon="6.0691">
        <ele>265.28</ele>
        <time>2017-10-18T07:53:39Z</time>
      </trkpt>
      <trkpt lat="47.69716" lon="6.06916">
        <ele>265.35</ele>
        <time>2017-10-18T07:53:41Z</time>
      </trkpt>
      <trkpt lat="47.69718" lon="6.06922">
        <ele>265.41</ele>
        <time>2017-10-18T07:53:43Z</time>
      </trkpt>
      <trkpt lat="47.6972" lon="6.06931">
        <ele>265.5</ele>
        <time>2017-10-18T07:53:46Z</time>
      </trkpt>
      <trkpt lat="47.69722" lon="6.06937">
        <ele>265.56</ele>
        <time>2017-10-18T07:53:48Z</time>
      </trkpt>
      <trkpt lat="47.69724" lon="6.06944">
        <ele>265.61</ele>
        <time>2017-10-18T07:53:50Z</time>
      </trkpt>
      <trkpt lat="47.69726" lon="6.06951">
        <ele>265.67</ele>
        <time>2017-10-18T07:53:52Z</time>
      </trkpt>
      <trkpt lat="47.69728" lon="6.06957">
        <ele>265.72</ele>
        <time>2017-10-18T07:53:54Z</time>
      </trkpt>
      <trkpt lat="47.69729" lon="6.06964">
        <ele>265.77</ele>
        <time>2017-10-18T07:53:56Z</time>
      </trkpt>
      <trkpt lat="47.69731" lon="6.06971">
        <ele>265.82</ele>
        <time>2017-10-18T07:53:58Z</time>
      </trkpt>
      <trkpt lat="47.69733" lon="6.06978">
        <ele>265.87</ele>
        <time>2017-10-18T07:54:00Z</time>
      </trkpt>
      <trkpt lat="47.69734" lon="6.06984">
        <ele>265.91</ele>
        <time>2017-10-18T07:54:02Z</time>
      </trkpt>
      <trkpt lat="47.69737" lon="6.06995">
        <ele>265.97</ele>
        <time>2017-10-18T07:54:05Z</time>
      </trkpt>
      <trkpt lat="47.69739" lon="6.07003">
        <ele>266.01</ele>
        <time>2017-10-18T07:54:07Z</time>
      </trkpt>
      <trkpt lat="47.69743" lon="6.0701">
        <ele>266.05</ele>
        <time>2017-10-18T07:54:09Z</time>
      </trkpt>
      <trkpt lat="47.69746" lon="6.07018">
        <ele>266.08</ele>
        <time>2017-10-18T07:54:11Z</time>
      </trkpt>
      <trkpt lat="47.69749" lon="6.07027">
        <ele>266.12</ele>
        <time>2017-10-18T07:54:13Z</time>
      </trkpt>
      <trkpt lat="47.69753" lon="6.07035">
        <ele>266.15</ele>
        <time>2017-10-18T07:54:15Z</time>
      </trkpt>
      <trkpt lat="47.69757" lon="6.07044">
        <ele>266.18</ele>
        <time>2017-10-18T07:54:17Z</time>
      </trkpt>
      <trkpt lat="47.69761" lon="6.07053">
        <ele>266.21</ele>
        <time>2017-10-18T07:54:19Z</time>
      </trkpt>
      <trkpt lat="47.69765" lon="6.07063">
        <ele>266.33</ele>
        <time>2017-10-18T07:54:21Z</time>
      </trkpt>
      <trkpt lat="47.69769" lon="6.07074">
        <ele>266.53</ele>
        <time>2017-10-18T07:54:23Z</time>
      </trkpt>
      <trkpt lat="47.69773" lon="6.07084">
        <ele>266.63</ele>
        <time>2017-10-18T07:54:25Z</time>
      </trkpt>
      <trkpt lat="47.69776" lon="6.07094">
        <ele>266.65</ele>
        <time>2017-10-18T07:54:27Z</time>
      </trkpt>
      <trkpt lat="47.6978" lon="6.07104">
        <ele>266.7</ele>
        <time>2017-10-18T07:54:29Z</time>
      </trkpt>
      <trkpt lat="47.69784" lon="6.07114">
        <ele>266.73</ele>
        <time>2017-10-18T07:54:31Z</time>
      </trkpt>
      <trkpt lat="47.69788" lon="6.07125">
        <ele>266.74</ele>
        <time>2017-10-18T07:54:33Z</time>
      </trkpt>
      <trkpt lat="47.69791" lon="6.07135">
        <ele>266.74</ele>
        <time>2017-10-18T07:54:35Z</time>
      </trkpt>
      <trkpt lat="47.69794" lon="6.07145">
        <ele>266.74</ele>
        <time>2017-10-18T07:54:37Z</time>
      </trkpt>
      <trkpt lat="47.69796" lon="6.07156">
        <ele>266.73</ele>
        <time>2017-10-18T07:54:39Z</time>
      </trkpt>
      <trkpt lat="47.69797" lon="6.07167">
        <ele>266.73</ele>
        <time>2017-10-18T07:54:41Z</time>
      </trkpt>
      <trkpt lat="47.69798" lon="6.07178">
        <ele>266.73</ele>
        <time>2017-10-18T07:54:43Z</time>
      </trkpt>
      <trkpt lat="47.69798" lon="6.07188">
        <ele>266.73</ele>
        <time>2017-10-18T07:54:45Z</time>
      </trkpt>
      <trkpt lat="47.69798" lon="6.07198">
        <ele>266.72</ele>
        <time>2017-10-18T07:54:47Z</time>
      </trkpt>
      <trkpt lat="47.69799" lon="6.07207">
        <ele>266.72</ele>
        <time>2017-10-18T07:54:49Z</time>
      </trkpt>
      <trkpt lat="47.69799" lon="6.07217">
        <ele>266.72</ele>
        <time>2017-10-18T07:54:51Z</time>
      </trkpt>
      <trkpt lat="47.69799" lon="6.07226">
        <ele>266.73</ele>
        <time>2017-10-18T07:54:53Z</time>
      </trkpt>
      <trkpt lat="47.698" lon="6.07234">
        <ele>266.73</ele>
        <time>2017-10-18T07:54:55Z</time>
      </trkpt>
      <trkpt lat="47.69801" lon="6.07244">
        <ele>266.73</ele>
        <time>2017-10-18T07:54:57Z</time>
      </trkpt>
      <trkpt lat="47.69802" lon="6.07255">
        <ele>266.74</ele>
        <time>2017-10-18T07:54:59Z</time>
      </trkpt>
      <trkpt lat="47.69802" lon="6.07264">
        <ele>266.75</ele>
        <time>2017-10-18T07:55:01Z</time>
      </trkpt>
      <trkpt lat="47.69803" lon="6.07272">
        <ele>266.76</ele>
        <time>2017-10-18T07:55:03Z</time>
      </trkpt>
      <trkpt lat="47.69803" lon="6.07281">
        <ele>266.77</ele>
        <time>2017-10-18T07:55:05Z</time>
      </trkpt>
      <trkpt lat="47.69802" lon="6.07289">
        <ele>266.78</ele>
        <time>2017-10-18T07:55:07Z</time>
      </trkpt>
      <trkpt lat="47.69801" lon="6.07299">
        <ele>266.79</ele>
        <time>2017-10-18T07:55:09Z</time>
      </trkpt>
      <trkpt lat="47.698" lon="6.07307">
        <ele>266.8</ele>
        <time>2017-10-18T07:55:11Z</time>
      </trkpt>
      <trkpt lat="47.698" lon="6.07316">
        <ele>266.82</ele>
        <time>2017-10-18T07:55:13Z</time>
      </trkpt>
      <trkpt lat="47.69799" lon="6.07324">
        <ele>266.83</ele>
        <time>2017-10-18T07:55:15Z</time>
      </trkpt>
      <trkpt lat="47.69799" lon="6.07332">
        <ele>266.85</ele>
        <time>2017-10-18T07:55:17Z</time>
      </trkpt>
      <trkpt lat="47.69798" lon="6.0734">
        <ele>266.86</ele>
        <time>2017-10-18T07:55:19Z</time>
      </trkpt>
      <trkpt lat="47.69798" lon="6.07349">
        <ele>266.88</ele>
        <time>2017-10-18T07:55:21Z</time>
      </trkpt>
      <trkpt lat="47.69797" lon="6.07357">
        <ele>266.89</ele>
        <time>2017-10-18T07:55:23Z</time>
      </trkpt>
      <trkpt lat="47.69796" lon="6.07364">
        <ele>266.91</ele>
        <time>2017-10-18T07:55:25Z</time>
      </trkpt>
      <trkpt lat="47.69795" lon="6.07372">
        <ele>266.93</ele>
        <time>2017-10-18T07:55:27Z</time>
      </trkpt>
      <trkpt lat="47.69795" lon="6.07379">
        <ele>266.95</ele>
        <time>2017-10-18T07:55:29Z</time>
      </trkpt>
      <trkpt lat="47.69794" lon="6.07386">
        <ele>266.97</ele>
        <time>2017-10-18T07:55:31Z</time>
      </trkpt>
      <trkpt lat="47.69794" lon="6.07394">
        <ele>266.99</ele>
        <time>2017-10-18T07:55:33Z</time>
      </trkpt>
      <trkpt lat="47.69793" lon="6.07401">
        <ele>267</ele>
        <time>2017-10-18T07:55:35Z</time>
      </trkpt>
      <trkpt lat="47.69792" lon="6.07408">
        <ele>267.02</ele>
        <time>2017-10-18T07:55:37Z</time>
      </trkpt>
      <trkpt lat="47.69792" lon="6.07416">
        <ele>267.04</ele>
        <time>2017-10-18T07:55:39Z</time>
      </trkpt>
      <trkpt lat="47.69791" lon="6.07423">
        <ele>267.06</ele>
        <time>2017-10-18T07:55:41Z</time>
      </trkpt>
      <trkpt lat="47.69791" lon="6.0743">
        <ele>267.08</ele>
        <time>2017-10-18T07:55:43Z</time>
      </trkpt>
      <trkpt lat="47.6979" lon="6.07438">
        <ele>267.1</ele>
        <time>2017-10-18T07:55:45Z</time>
      </trkpt>
      <trkpt lat="47.69789" lon="6.07446">
        <ele>267.12</ele>
        <time>2017-10-18T07:55:47Z</time>
      </trkpt>
      <trkpt lat="47.69789" lon="6.07454">
        <ele>267.14</ele>
        <time>2017-10-18T07:55:49Z</time>
      </trkpt>
      <trkpt lat="47.69789" lon="6.07461">
        <ele>267.16</ele>
        <time>2017-10-18T07:55:51Z</time>
      </trkpt>
      <trkpt lat="47.69789" lon="6.07468">
        <ele>267.18</ele>
        <time>2017-10-18T07:55:53Z</time>
      </trkpt>
      <trkpt lat="47.6979" lon="6.07475">
        <ele>267.2</ele>
        <time>2017-10-18T07:55:55Z</time>
      </trkpt>
      <trkpt lat="47.69793" lon="6.07482">
        <ele>267.22</ele>
        <time>2017-10-18T07:55:57Z</time>
      </trkpt>
      <trkpt lat="47.69797" lon="6.07487">
        <ele>267.24</ele>
        <time>2017-10-18T07:55:59Z</time>
      </trkpt>
      <trkpt lat="47.69801" lon="6.07492">
        <ele>267.25</ele>
        <time>2017-10-18T07:56:01Z</time>
      </trkpt>
      <trkpt lat="47.69806" lon="6.07496">
        <ele>267.27</ele>
        <time>2017-10-18T07:56:03Z</time>
      </trkpt>
      <trkpt lat="47.69812" lon="6.07501">
        <ele>267.28</ele>
        <time>2017-10-18T07:56:05Z</time>
      </trkpt>
      <trkpt lat="47.69816" lon="6.07507">
        <ele>267.3</ele>
        <time>2017-10-18T07:56:07Z</time>
      </trkpt>
      <trkpt lat="47.6982" lon="6.07511">
        <ele>267.31</ele>
        <time>2017-10-18T07:56:09Z</time>
      </trkpt>
      <trkpt lat="47.69824" lon="6.07516">
        <ele>267.33</ele>
        <time>2017-10-18T07:56:11Z</time>
      </trkpt>
      <trkpt lat="47.69828" lon="6.0752">
        <ele>267.34</ele>
        <time>2017-10-18T07:56:13Z</time>
      </trkpt>
      <trkpt lat="47.69833" lon="6.07524">
        <ele>267.36</ele>
        <time>2017-10-18T07:56:15Z</time>
      </trkpt>
      <trkpt lat="47.69839" lon="6.07529">
        <ele>267.37</ele>
        <time>2017-10-18T07:56:17Z</time>
      </trkpt>
      <trkpt lat="47.69845" lon="6.07533">
        <ele>267.38</ele>
        <time>2017-10-18T07:56:19Z</time>
      </trkpt>
      <trkpt lat="47.69851" lon="6.07538">
        <ele>267.4</ele>
        <time>2017-10-18T07:56:21Z</time>
      </trkpt>
      <trkpt lat="47.69856" lon="6.07542">
        <ele>267.41</ele>
        <time>2017-10-18T07:56:23Z</time>
      </trkpt>
      <trkpt lat="47.69861" lon="6.07547">
        <ele>267.42</ele>
        <time>2017-10-18T07:56:25Z</time>
      </trkpt>
      <trkpt lat="47.69866" lon="6.07551">
        <ele>267.43</ele>
        <time>2017-10-18T07:56:27Z</time>
      </trkpt>
      <trkpt lat="47.69872" lon="6.07555">
        <ele>267.44</ele>
        <time>2017-10-18T07:56:29Z</time>
      </trkpt>
      <trkpt lat="47.69877" lon="6.07559">
        <ele>267.46</ele>
        <time>2017-10-18T07:56:31Z</time>
      </trkpt>
      <trkpt lat="47.69882" lon="6.07564">
        <ele>267.47</ele>
        <time>2017-10-18T07:56:33Z</time>
      </trkpt>
      <trkpt lat="47.69888" lon="6.07568">
        <ele>267.48</ele>
        <time>2017-10-18T07:56:35Z</time>
      </trkpt>
      <trkpt lat="47.69893" lon="6.07572">
        <ele>267.49</ele>
        <time>2017-10-18T07:56:37Z</time>
      </trkpt>
      <trkpt lat="47.69898" lon="6.07576">
        <ele>267.5</ele>
        <time>2017-10-18T07:56:39Z</time>
      </trkpt>
      <trkpt lat="47.69902" lon="6.07581">
        <ele>267.51</ele>
        <time>2017-10-18T07:56:41Z</time>
      </trkpt>
      <trkpt lat="47.69907" lon="6.07586">
        <ele>267.53</ele>
        <time>2017-10-18T07:56:43Z</time>
      </trkpt>
      <trkpt lat="47.69912" lon="6.07591">
        <ele>267.54</ele>
        <time>2017-10-18T07:56:45Z</time>
      </trkpt>
      <trkpt lat="47.69917" lon="6.07596">
        <ele>267.56</ele>
        <time>2017-10-18T07:56:47Z</time>
      </trkpt>
      <trkpt lat="47.69922" lon="6.07601">
        <ele>267.58</ele>
        <time>2017-10-18T07:56:50Z</time>
      </trkpt>
      <trkpt lat="47.69927" lon="6.07606">
        <ele>267.61</ele>
        <time>2017-10-18T07:56:53Z</time>
      </trkpt>
      <trkpt lat="47.69932" lon="6.0761">
        <ele>267.63</ele>
        <time>2017-10-18T07:56:55Z</time>
      </trkpt>
      <trkpt lat="47.69936" lon="6.07612">
        <ele>267.65</ele>
        <time>2017-10-18T07:56:57Z</time>
      </trkpt>
      <trkpt lat="47.69942" lon="6.07617">
        <ele>267.67</ele>
        <time>2017-10-18T07:57:00Z</time>
      </trkpt>
      <trkpt lat="47.69947" lon="6.07621">
        <ele>267.7</ele>
        <time>2017-10-18T07:57:03Z</time>
      </trkpt>
      <trkpt lat="47.69952" lon="6.07626">
        <ele>267.72</ele>
        <time>2017-10-18T07:57:06Z</time>
      </trkpt>
      <trkpt lat="47.69957" lon="6.07631">
        <ele>267.74</ele>
        <time>2017-10-18T07:57:08Z</time>
      </trkpt>
      <trkpt lat="47.69962" lon="6.07636">
        <ele>267.75</ele>
        <time>2017-10-18T07:57:10Z</time>
      </trkpt>
      <trkpt lat="47.69966" lon="6.07643">
        <ele>267.77</ele>
        <time>2017-10-18T07:57:12Z</time>
      </trkpt>
      <trkpt lat="47.6997" lon="6.07649">
        <ele>267.78</ele>
        <time>2017-10-18T07:57:14Z</time>
      </trkpt>
      <trkpt lat="47.69973" lon="6.07657">
        <ele>267.8</ele>
        <time>2017-10-18T07:57:16Z</time>
      </trkpt>
      <trkpt lat="47.69975" lon="6.07665">
        <ele>267.81</ele>
        <time>2017-10-18T07:57:18Z</time>
      </trkpt>
      <trkpt lat="47.69976" lon="6.07674">
        <ele>267.83</ele>
        <time>2017-10-18T07:57:20Z</time>
      </trkpt>
      <trkpt lat="47.69974" lon="6.07681">
        <ele>267.84</ele>
        <time>2017-10-18T07:57:22Z</time>
      </trkpt>
      <trkpt lat="47.69972" lon="6.07687">
        <ele>267.86</ele>
        <time>2017-10-18T07:57:24Z</time>
      </trkpt>
      <trkpt lat="47.69968" lon="6.07693">
        <ele>267.88</ele>
        <time>2017-10-18T07:57:26Z</time>
      </trkpt>
      <trkpt lat="47.69964" lon="6.07698">
        <ele>267.9</ele>
        <time>2017-10-18T07:57:28Z</time>
      </trkpt>
      <trkpt lat="47.69961" lon="6.07704">
        <ele>267.92</ele>
        <time>2017-10-18T07:57:30Z</time>
      </trkpt>
      <trkpt lat="47.69958" lon="6.07711">
        <ele>267.94</ele>
        <time>2017-10-18T07:57:32Z</time>
      </trkpt>
      <trkpt lat="47.69956" lon="6.07719">
        <ele>267.96</ele>
        <time>2017-10-18T07:57:34Z</time>
      </trkpt>
      <trkpt lat="47.69956" lon="6.07728">
        <ele>267.98</ele>
        <time>2017-10-18T07:57:36Z</time>
      </trkpt>
      <trkpt lat="47.69957" lon="6.07736">
        <ele>268</ele>
        <time>2017-10-18T07:57:38Z</time>
      </trkpt>
      <trkpt lat="47.6996" lon="6.07743">
        <ele>268.02</ele>
        <time>2017-10-18T07:57:40Z</time>
      </trkpt>
      <trkpt lat="47.69963" lon="6.0775">
        <ele>268.05</ele>
        <time>2017-10-18T07:57:42Z</time>
      </trkpt>
      <trkpt lat="47.69965" lon="6.07758">
        <ele>268.07</ele>
        <time>2017-10-18T07:57:44Z</time>
      </trkpt>
      <trkpt lat="47.69967" lon="6.07764">
        <ele>268.09</ele>
        <time>2017-10-18T07:57:46Z</time>
      </trkpt>
      <trkpt lat="47.6997" lon="6.0777">
        <ele>268.12</ele>
        <time>2017-10-18T07:57:48Z</time>
      </trkpt>
      <trkpt lat="47.69973" lon="6.07777">
        <ele>268.14</ele>
        <time>2017-10-18T07:57:50Z</time>
      </trkpt>
      <trkpt lat="47.69977" lon="6.07782">
        <ele>268.17</ele>
        <time>2017-10-18T07:57:52Z</time>
      </trkpt>
      <trkpt lat="47.69981" lon="6.07784">
        <ele>268.19</ele>
        <time>2017-10-18T07:57:54Z</time>
      </trkpt>
      <trkpt lat="47.69987" lon="6.07785">
        <ele>268.22</ele>
        <time>2017-10-18T07:57:56Z</time>
      </trkpt>
      <trkpt lat="47.69992" lon="6.07785">
        <ele>268.24</ele>
        <time>2017-10-18T07:57:58Z</time>
      </trkpt>
      <trkpt lat="47.69997" lon="6.07786">
        <ele>268.27</ele>
        <time>2017-10-18T07:58:00Z</time>
      </trkpt>
      <trkpt lat="47.70002" lon="6.07787">
        <ele>268.29</ele>
        <time>2017-10-18T07:58:02Z</time>
      </trkpt>
      <trkpt lat="47.70006" lon="6.07791">
        <ele>268.32</ele>
        <time>2017-10-18T07:58:04Z</time>
      </trkpt>
      <trkpt lat="47.7001" lon="6.07795">
        <ele>268.34</ele>
        <time>2017-10-18T07:58:06Z</time>
      </trkpt>
      <trkpt lat="47.70014" lon="6.07799">
        <ele>268.37</ele>
        <time>2017-10-18T07:58:08Z</time>
      </trkpt>
      <trkpt lat="47.70018" lon="6.07803">
        <ele>268.4</ele>
        <time>2017-10-18T07:58:10Z</time>
      </trkpt>
      <trkpt lat="47.70023" lon="6.07806">
        <ele>268.43</ele>
        <time>2017-10-18T07:58:12Z</time>
      </trkpt>
      <trkpt lat="47.70029" lon="6.0781">
        <ele>268.45</ele>
        <time>2017-10-18T07:58:14Z</time>
      </trkpt>
      <trkpt lat="47.70035" lon="6.07815">
        <ele>268.48</ele>
        <time>2017-10-18T07:58:16Z</time>
      </trkpt>
      <trkpt lat="47.70042" lon="6.07819">
        <ele>268.51</ele>
        <time>2017-10-18T07:58:18Z</time>
      </trkpt>
      <trkpt lat="47.70048" lon="6.07823">
        <ele>268.54</ele>
        <time>2017-10-18T07:58:20Z</time>
      </trkpt>
      <trkpt lat="47.70055" lon="6.07827">
        <ele>268.68</ele>
        <time>2017-10-18T07:58:22Z</time>
      </trkpt>
      <trkpt lat="47.7006" lon="6.07834">
        <ele>268.78</ele>
        <time>2017-10-18T07:58:24Z</time>
      </trkpt>
      <trkpt lat="47.70063" lon="6.07839">
        <ele>268.87</ele>
        <time>2017-10-18T07:58:25Z</time>
      </trkpt>
      <trkpt lat="47.70069" lon="6.07851">
        <ele>269.02</ele>
        <time>2017-10-18T07:58:27Z</time>
      </trkpt>
      <trkpt lat="47.70072" lon="6.07857">
        <ele>269.07</ele>
        <time>2017-10-18T07:58:28Z</time>
      </trkpt>
      <trkpt lat="47.70075" lon="6.07864">
        <ele>269.12</ele>
        <time>2017-10-18T07:58:29Z</time>
      </trkpt>
      <trkpt lat="47.70078" lon="6.07872">
        <ele>269.16</ele>
        <time>2017-10-18T07:58:30Z</time>
      </trkpt>
      <trkpt lat="47.7008" lon="6.0788">
        <ele>269.19</ele>
        <time>2017-10-18T07:58:31Z</time>
      </trkpt>
      <trkpt lat="47.70082" lon="6.07888">
        <ele>269.22</ele>
        <time>2017-10-18T07:58:32Z</time>
      </trkpt>
      <trkpt lat="47.70084" lon="6.07896">
        <ele>269.25</ele>
        <time>2017-10-18T07:58:33Z</time>
      </trkpt>
      <trkpt lat="47.70084" lon="6.07903">
        <ele>269.27</ele>
        <time>2017-10-18T07:58:34Z</time>
      </trkpt>
      <trkpt lat="47.70083" lon="6.07916">
        <ele>269.31</ele>
        <time>2017-10-18T07:58:36Z</time>
      </trkpt>
      <trkpt lat="47.70081" lon="6.07924">
        <ele>269.32</ele>
        <time>2017-10-18T07:58:37Z</time>
      </trkpt>
      <trkpt lat="47.70079" lon="6.0793">
        <ele>269.33</ele>
        <time>2017-10-18T07:58:38Z</time>
      </trkpt>
      <trkpt lat="47.70076" lon="6.07936">
        <ele>269.34</ele>
        <time>2017-10-18T07:58:39Z</time>
      </trkpt>
      <trkpt lat="47.70074" lon="6.07942">
        <ele>269.34</ele>
        <time>2017-10-18T07:58:40Z</time>
      </trkpt>
      <trkpt lat="47.70069" lon="6.07953">
        <ele>269.34</ele>
        <time>2017-10-18T07:58:42Z</time>
      </trkpt>
      <trkpt lat="47.70065" lon="6.07963">
        <ele>269.33</ele>
        <time>2017-10-18T07:58:44Z</time>
      </trkpt>
      <trkpt lat="47.70062" lon="6.07973">
        <ele>269.33</ele>
        <time>2017-10-18T07:58:46Z</time>
      </trkpt>
      <trkpt lat="47.70059" lon="6.07982">
        <ele>269.33</ele>
        <time>2017-10-18T07:58:48Z</time>
      </trkpt>
      <trkpt lat="47.70056" lon="6.0799">
        <ele>269.33</ele>
        <time>2017-10-18T07:58:50Z</time>
      </trkpt>
      <trkpt lat="47.70053" lon="6.07998">
        <ele>269.33</ele>
        <time>2017-10-18T07:58:52Z</time>
      </trkpt>
      <trkpt lat="47.70051" lon="6.08004">
        <ele>269.33</ele>
        <time>2017-10-18T07:58:54Z</time>
      </trkpt>
      <trkpt lat="47.70048" lon="6.08011">
        <ele>269.33</ele>
        <time>2017-10-18T07:58:56Z</time>
      </trkpt>
      <trkpt lat="47.70046" lon="6.08017">
        <ele>269.33</ele>
        <time>2017-10-18T07:58:58Z</time>
      </trkpt>
      <trkpt lat="47.70043" lon="6.08024">
        <ele>269.34</ele>
        <time>2017-10-18T07:59:01Z</time>
      </trkpt>
      <trkpt lat="47.7004" lon="6.08032">
        <ele>269.35</ele>
        <time>2017-10-18T07:59:04Z</time>
      </trkpt>
      <trkpt lat="47.70038" lon="6.0804">
        <ele>269.36</ele>
        <time>2017-10-18T07:59:07Z</time>
      </trkpt>
      <trkpt lat="47.70036" lon="6.08048">
        <ele>269.38</ele>
        <time>2017-10-18T07:59:10Z</time>
      </trkpt>
      <trkpt lat="47.70034" lon="6.08056">
        <ele>269.39</ele>
        <time>2017-10-18T07:59:13Z</time>
      </trkpt>
      <trkpt lat="47.70034" lon="6.08064">
        <ele>269.41</ele>
        <time>2017-10-18T07:59:16Z</time>
      </trkpt>
      <trkpt lat="47.70035" lon="6.08074">
        <ele>269.43</ele>
        <time>2017-10-18T07:59:19Z</time>
      </trkpt>
      <trkpt lat="47.70036" lon="6.08081">
        <ele>269.45</ele>
        <time>2017-10-18T07:59:21Z</time>
      </trkpt>
      <trkpt lat="47.70038" lon="6.0809">
        <ele>269.48</ele>
        <time>2017-10-18T07:59:24Z</time>
      </trkpt>
      <trkpt lat="47.70041" lon="6.08098">
        <ele>269.52</ele>
        <time>2017-10-18T07:59:27Z</time>
      </trkpt>
      <trkpt lat="47.70044" lon="6.08105">
        <ele>269.56</ele>
        <time>2017-10-18T07:59:30Z</time>
      </trkpt>
      <trkpt lat="47.70048" lon="6.08112">
        <ele>269.6</ele>
        <time>2017-10-18T07:59:33Z</time>
      </trkpt>
      <trkpt lat="47.7005" lon="6.08119">
        <ele>269.64</ele>
        <time>2017-10-18T07:59:36Z</time>
      </trkpt>
      <trkpt lat="47.70054" lon="6.08127">
        <ele>269.68</ele>
        <time>2017-10-18T07:59:39Z</time>
      </trkpt>
      <trkpt lat="47.70057" lon="6.08135">
        <ele>269.73</ele>
        <time>2017-10-18T07:59:42Z</time>
      </trkpt>
      <trkpt lat="47.7006" lon="6.08142">
        <ele>269.77</ele>
        <time>2017-10-18T07:59:45Z</time>
      </trkpt>
      <trkpt lat="47.70064" lon="6.0815">
        <ele>269.82</ele>
        <time>2017-10-18T07:59:48Z</time>
      </trkpt>
      <trkpt lat="47.70067" lon="6.08157">
        <ele>269.88</ele>
        <time>2017-10-18T07:59:51Z</time>
      </trkpt>
      <trkpt lat="47.7007" lon="6.08163">
        <ele>269.93</ele>
        <time>2017-10-18T07:59:54Z</time>
      </trkpt>
      <trkpt lat="47.70073" lon="6.0817">
        <ele>269.98</ele>
        <time>2017-10-18T07:59:57Z</time>
      </trkpt>
      <trkpt lat="47.70076" lon="6.08178">
        <ele>270.04</ele>
        <time>2017-10-18T08:00:00Z</time>
      </trkpt>
      <trkpt lat="47.70079" lon="6.08185">
        <ele>270.1</ele>
        <time>2017-10-18T08:00:03Z</time>
      </trkpt>
      <trkpt lat="47.70082" lon="6.08192">
        <ele>270.16</ele>
        <time>2017-10-18T08:00:06Z</time>
      </trkpt>
      <trkpt lat="47.70085" lon="6.08198">
        <ele>270.23</ele>
        <time>2017-10-18T08:00:09Z</time>
      </trkpt>
      <trkpt lat="47.70087" lon="6.08205">
        <ele>270.29</ele>
        <time>2017-10-18T08:00:12Z</time>
      </trkpt>
      <trkpt lat="47.70091" lon="6.08211">
        <ele>270.38</ele>
        <time>2017-10-18T08:00:16Z</time>
      </trkpt>
      <trkpt lat="47.70094" lon="6.08217">
        <ele>270.45</ele>
        <time>2017-10-18T08:00:19Z</time>
      </trkpt>
      <trkpt lat="47.70097" lon="6.08223">
        <ele>270.51</ele>
        <time>2017-10-18T08:00:22Z</time>
      </trkpt>
      <trkpt lat="47.70099" lon="6.08231">
        <ele>270.61</ele>
        <time>2017-10-18T08:00:26Z</time>
      </trkpt>
      <trkpt lat="47.70102" lon="6.08238">
        <ele>270.71</ele>
        <time>2017-10-18T08:00:30Z</time>
      </trkpt>
      <trkpt lat="47.70104" lon="6.08246">
        <ele>270.81</ele>
        <time>2017-10-18T08:00:34Z</time>
      </trkpt>
      <trkpt lat="47.70105" lon="6.08252">
        <ele>270.95</ele>
        <time>2017-10-18T08:00:39Z</time>
      </trkpt>
      <trkpt lat="47.70106" lon="6.08259">
        <ele>271.06</ele>
        <time>2017-10-18T08:00:43Z</time>
      </trkpt>
      <trkpt lat="47.70108" lon="6.08266">
        <ele>271.13</ele>
        <time>2017-10-18T08:00:46Z</time>
      </trkpt>
      <trkpt lat="47.7011" lon="6.08274">
        <ele>271.24</ele>
        <time>2017-10-18T08:00:50Z</time>
      </trkpt>
      <trkpt lat="47.70113" lon="6.08282">
        <ele>271.32</ele>
        <time>2017-10-18T08:00:53Z</time>
      </trkpt>
      <trkpt lat="47.70113" lon="6.0829">
        <ele>271.4</ele>
        <time>2017-10-18T08:00:56Z</time>
      </trkpt>
      <trkpt lat="47.70114" lon="6.08297">
        <ele>271.51</ele>
        <time>2017-10-18T08:01:00Z</time>
      </trkpt>
      <trkpt lat="47.70116" lon="6.08304">
        <ele>271.61</ele>
        <time>2017-10-18T08:01:04Z</time>
      </trkpt>
      <trkpt lat="47.70118" lon="6.08311">
        <ele>271.72</ele>
        <time>2017-10-18T08:01:08Z</time>
      </trkpt>
      <trkpt lat="47.70121" lon="6.08317">
        <ele>271.79</ele>
        <time>2017-10-18T08:01:11Z</time>
      </trkpt>
      <trkpt lat="47.70123" lon="6.08324">
        <ele>271.87</ele>
        <time>2017-10-18T08:01:14Z</time>
      </trkpt>
      <trkpt lat="47.70124" lon="6.08332">
        <ele>271.95</ele>
        <time>2017-10-18T08:01:17Z</time>
      </trkpt>
      <trkpt lat="47.70125" lon="6.0834">
        <ele>272.03</ele>
        <time>2017-10-18T08:01:20Z</time>
      </trkpt>
      <trkpt lat="47.70125" lon="6.08348">
        <ele>272.2</ele>
        <time>2017-10-18T08:01:26Z</time>
      </trkpt>
      <trkpt lat="47.70126" lon="6.08356">
        <ele>272.29</ele>
        <time>2017-10-18T08:01:29Z</time>
      </trkpt>
      <trkpt lat="47.70127" lon="6.08364">
        <ele>272.42</ele>
        <time>2017-10-18T08:01:33Z</time>
      </trkpt>
      <trkpt lat="47.70128" lon="6.08371">
        <ele>272.61</ele>
        <time>2017-10-18T08:01:39Z</time>
      </trkpt>
      <trkpt lat="47.7013" lon="6.08378">
        <ele>272.82</ele>
        <time>2017-10-18T08:01:45Z</time>
      </trkpt>
      <trkpt lat="47.70131" lon="6.08385">
        <ele>272.92</ele>
        <time>2017-10-18T08:01:48Z</time>
      </trkpt>
      <trkpt lat="47.70134" lon="6.08393">
        <ele>273.02</ele>
        <time>2017-10-18T08:01:51Z</time>
      </trkpt>
      <trkpt lat="47.70136" lon="6.084">
        <ele>273.13</ele>
        <time>2017-10-18T08:01:54Z</time>
      </trkpt>
      <trkpt lat="47.70138" lon="6.08408">
        <ele>273.27</ele>
        <time>2017-10-18T08:01:58Z</time>
      </trkpt>
      <trkpt lat="47.70142" lon="6.08415">
        <ele>273.38</ele>
        <time>2017-10-18T08:02:01Z</time>
      </trkpt>
      <trkpt lat="47.70146" lon="6.0842">
        <ele>273.46</ele>
        <time>2017-10-18T08:02:03Z</time>
      </trkpt>
      <trkpt lat="47.70149" lon="6.08425">
        <ele>273.53</ele>
        <time>2017-10-18T08:02:05Z</time>
      </trkpt>
      <trkpt lat="47.70154" lon="6.08428">
        <ele>273.61</ele>
        <time>2017-10-18T08:02:07Z</time>
      </trkpt>
      <trkpt lat="47.70158" lon="6.08433">
        <ele>273.72</ele>
        <time>2017-10-18T08:02:10Z</time>
      </trkpt>
      <trkpt lat="47.70163" lon="6.08437">
        <ele>273.88</ele>
        <time>2017-10-18T08:02:14Z</time>
      </trkpt>
      <trkpt lat="47.70167" lon="6.08441">
        <ele>274</ele>
        <time>2017-10-18T08:02:17Z</time>
      </trkpt>
      <trkpt lat="47.70172" lon="6.08445">
        <ele>274.08</ele>
        <time>2017-10-18T08:02:19Z</time>
      </trkpt>
      <trkpt lat="47.70177" lon="6.08448">
        <ele>274.16</ele>
        <time>2017-10-18T08:02:21Z</time>
      </trkpt>
      <trkpt lat="47.70182" lon="6.08453">
        <ele>274.27</ele>
        <time>2017-10-18T08:02:24Z</time>
      </trkpt>
      <trkpt lat="47.70187" lon="6.08456">
        <ele>274.35</ele>
        <time>2017-10-18T08:02:26Z</time>
      </trkpt>
      <trkpt lat="47.70192" lon="6.08461">
        <ele>274.47</ele>
        <time>2017-10-18T08:02:29Z</time>
      </trkpt>
      <trkpt lat="47.70196" lon="6.08466">
        <ele>274.63</ele>
        <time>2017-10-18T08:02:33Z</time>
      </trkpt>
      <trkpt lat="47.70198" lon="6.08472">
        <ele>274.79</ele>
        <time>2017-10-18T08:02:37Z</time>
      </trkpt>
      <trkpt lat="47.70203" lon="6.08476">
        <ele>274.91</ele>
        <time>2017-10-18T08:02:40Z</time>
      </trkpt>
      <trkpt lat="47.70206" lon="6.08483">
        <ele>275.03</ele>
        <time>2017-10-18T08:02:43Z</time>
      </trkpt>
      <trkpt lat="47.70212" lon="6.08486">
        <ele>275.16</ele>
        <time>2017-10-18T08:02:46Z</time>
      </trkpt>
      <trkpt lat="47.70223" lon="6.08492">
        <ele>275.29</ele>
        <time>2017-10-18T08:02:49Z</time>
      </trkpt>
      <trkpt lat="47.70229" lon="6.08496">
        <ele>275.38</ele>
        <time>2017-10-18T08:02:51Z</time>
      </trkpt>
      <trkpt lat="47.70235" lon="6.08502">
        <ele>275.47</ele>
        <time>2017-10-18T08:02:53Z</time>
      </trkpt>
      <trkpt lat="47.70239" lon="6.08507">
        <ele>275.68</ele>
        <time>2017-10-18T08:02:57Z</time>
      </trkpt>
      <trkpt lat="47.70245" lon="6.08509">
        <ele>275.91</ele>
        <time>2017-10-18T08:03:01Z</time>
      </trkpt>
      <trkpt lat="47.7025" lon="6.08514">
        <ele>276.1</ele>
        <time>2017-10-18T08:03:04Z</time>
      </trkpt>
      <trkpt lat="47.70254" lon="6.08518">
        <ele>276.36</ele>
        <time>2017-10-18T08:03:08Z</time>
      </trkpt>
      <trkpt lat="47.7026" lon="6.08523">
        <ele>276.6</ele>
        <time>2017-10-18T08:03:12Z</time>
      </trkpt>
      <trkpt lat="47.70265" lon="6.08526">
        <ele>276.77</ele>
        <time>2017-10-18T08:03:15Z</time>
      </trkpt>
      <trkpt lat="47.7027" lon="6.08531">
        <ele>276.94</ele>
        <time>2017-10-18T08:03:18Z</time>
      </trkpt>
      <trkpt lat="47.70274" lon="6.08533">
        <ele>277.04</ele>
        <time>2017-10-18T08:03:20Z</time>
      </trkpt>
      <trkpt lat="47.7028" lon="6.08537">
        <ele>277.2</ele>
        <time>2017-10-18T08:03:23Z</time>
      </trkpt>
      <trkpt lat="47.70284" lon="6.0854">
        <ele>277.3</ele>
        <time>2017-10-18T08:03:25Z</time>
      </trkpt>
      <trkpt lat="47.70289" lon="6.08544">
        <ele>277.39</ele>
        <time>2017-10-18T08:03:27Z</time>
      </trkpt>
      <trkpt lat="47.70294" lon="6.08548">
        <ele>277.53</ele>
        <time>2017-10-18T08:03:30Z</time>
      </trkpt>
      <trkpt lat="47.70299" lon="6.08552">
        <ele>277.67</ele>
        <time>2017-10-18T08:03:33Z</time>
      </trkpt>
      <trkpt lat="47.70305" lon="6.08553">
        <ele>277.75</ele>
        <time>2017-10-18T08:03:35Z</time>
      </trkpt>
      <trkpt lat="47.70308" lon="6.08558">
        <ele>277.84</ele>
        <time>2017-10-18T08:03:37Z</time>
      </trkpt>
      <trkpt lat="47.70314" lon="6.08563">
        <ele>277.96</ele>
        <time>2017-10-18T08:03:40Z</time>
      </trkpt>
      <trkpt lat="47.7032" lon="6.08566">
        <ele>278.02</ele>
        <time>2017-10-18T08:03:42Z</time>
      </trkpt>
      <trkpt lat="47.70325" lon="6.0857">
        <ele>278.09</ele>
        <time>2017-10-18T08:03:44Z</time>
      </trkpt>
      <trkpt lat="47.70331" lon="6.08574">
        <ele>278.22</ele>
        <time>2017-10-18T08:03:47Z</time>
      </trkpt>
      <trkpt lat="47.70336" lon="6.08579">
        <ele>278.3</ele>
        <time>2017-10-18T08:03:49Z</time>
      </trkpt>
      <trkpt lat="47.7034" lon="6.08583">
        <ele>278.38</ele>
        <time>2017-10-18T08:03:51Z</time>
      </trkpt>
      <trkpt lat="47.70345" lon="6.08587">
        <ele>278.47</ele>
        <time>2017-10-18T08:03:53Z</time>
      </trkpt>
      <trkpt lat="47.7035" lon="6.08591">
        <ele>278.59</ele>
        <time>2017-10-18T08:03:56Z</time>
      </trkpt>
      <trkpt lat="47.70355" lon="6.08593">
        <ele>278.67</ele>
        <time>2017-10-18T08:03:58Z</time>
      </trkpt>
      <trkpt lat="47.70359" lon="6.08595">
        <ele>278.75</ele>
        <time>2017-10-18T08:04:00Z</time>
      </trkpt>
      <trkpt lat="47.70364" lon="6.08598">
        <ele>278.83</ele>
        <time>2017-10-18T08:04:02Z</time>
      </trkpt>
      <trkpt lat="47.70368" lon="6.08601">
        <ele>278.9</ele>
        <time>2017-10-18T08:04:04Z</time>
      </trkpt>
      <trkpt lat="47.70373" lon="6.08606">
        <ele>279.02</ele>
        <time>2017-10-18T08:04:07Z</time>
      </trkpt>
      <trkpt lat="47.70378" lon="6.08609">
        <ele>279.13</ele>
        <time>2017-10-18T08:04:10Z</time>
      </trkpt>
      <trkpt lat="47.70381" lon="6.08614">
        <ele>279.23</ele>
        <time>2017-10-18T08:04:13Z</time>
      </trkpt>
      <trkpt lat="47.70386" lon="6.08619">
        <ele>279.37</ele>
        <time>2017-10-18T08:04:17Z</time>
      </trkpt>
      <trkpt lat="47.70391" lon="6.08622">
        <ele>279.44</ele>
        <time>2017-10-18T08:04:19Z</time>
      </trkpt>
      <trkpt lat="47.70395" lon="6.08626">
        <ele>279.51</ele>
        <time>2017-10-18T08:04:21Z</time>
      </trkpt>
      <trkpt lat="47.70401" lon="6.0863">
        <ele>279.6</ele>
        <time>2017-10-18T08:04:24Z</time>
      </trkpt>
      <trkpt lat="47.70408" lon="6.08633">
        <ele>279.7</ele>
        <time>2017-10-18T08:04:27Z</time>
      </trkpt>
      <trkpt lat="47.70413" lon="6.08635">
        <ele>279.76</ele>
        <time>2017-10-18T08:04:29Z</time>
      </trkpt>
      <trkpt lat="47.70417" lon="6.08642">
        <ele>279.85</ele>
        <time>2017-10-18T08:04:32Z</time>
      </trkpt>
      <trkpt lat="47.70424" lon="6.08644">
        <ele>279.91</ele>
        <time>2017-10-18T08:04:34Z</time>
      </trkpt>
      <trkpt lat="47.7043" lon="6.08645">
        <ele>279.98</ele>
        <time>2017-10-18T08:04:36Z</time>
      </trkpt>
      <trkpt lat="47.70436" lon="6.08647">
        <ele>280.11</ele>
        <time>2017-10-18T08:04:40Z</time>
      </trkpt>
      <trkpt lat="47.7044" lon="6.0865">
        <ele>280.17</ele>
        <time>2017-10-18T08:04:42Z</time>
      </trkpt>
      <trkpt lat="47.70444" lon="6.08652">
        <ele>280.23</ele>
        <time>2017-10-18T08:04:44Z</time>
      </trkpt>
      <trkpt lat="47.70447" lon="6.08658">
        <ele>280.29</ele>
        <time>2017-10-18T08:04:46Z</time>
      </trkpt>
      <trkpt lat="47.70451" lon="6.08662">
        <ele>280.36</ele>
        <time>2017-10-18T08:04:48Z</time>
      </trkpt>
      <trkpt lat="47.70456" lon="6.08666">
        <ele>280.42</ele>
        <time>2017-10-18T08:04:50Z</time>
      </trkpt>
      <trkpt lat="47.70459" lon="6.0867">
        <ele>280.48</ele>
        <time>2017-10-18T08:04:52Z</time>
      </trkpt>
      <trkpt lat="47.70463" lon="6.08674">
        <ele>280.55</ele>
        <time>2017-10-18T08:04:54Z</time>
      </trkpt>
      <trkpt lat="47.70467" lon="6.08679">
        <ele>280.61</ele>
        <time>2017-10-18T08:04:56Z</time>
      </trkpt>
      <trkpt lat="47.70472" lon="6.08685">
        <ele>280.68</ele>
        <time>2017-10-18T08:04:58Z</time>
      </trkpt>
      <trkpt lat="47.70477" lon="6.0869">
        <ele>280.73</ele>
        <time>2017-10-18T08:05:00Z</time>
      </trkpt>
      <trkpt lat="47.70482" lon="6.08695">
        <ele>280.78</ele>
        <time>2017-10-18T08:05:02Z</time>
      </trkpt>
      <trkpt lat="47.70486" lon="6.08699">
        <ele>280.83</ele>
        <time>2017-10-18T08:05:04Z</time>
      </trkpt>
      <trkpt lat="47.7049" lon="6.08702">
        <ele>280.87</ele>
        <time>2017-10-18T08:05:06Z</time>
      </trkpt>
      <trkpt lat="47.70494" lon="6.08705">
        <ele>280.91</ele>
        <time>2017-10-18T08:05:08Z</time>
      </trkpt>
      <trkpt lat="47.705" lon="6.08709">
        <ele>280.98</ele>
        <time>2017-10-18T08:05:11Z</time>
      </trkpt>
      <trkpt lat="47.70504" lon="6.08713">
        <ele>281.02</ele>
        <time>2017-10-18T08:05:13Z</time>
      </trkpt>
      <trkpt lat="47.70509" lon="6.08716">
        <ele>281.08</ele>
        <time>2017-10-18T08:05:15Z</time>
      </trkpt>
      <trkpt lat="47.70513" lon="6.08719">
        <ele>281.13</ele>
        <time>2017-10-18T08:05:17Z</time>
      </trkpt>
      <trkpt lat="47.70518" lon="6.08725">
        <ele>281.23</ele>
        <time>2017-10-18T08:05:20Z</time>
      </trkpt>
      <trkpt lat="47.70522" lon="6.08729">
        <ele>281.3</ele>
        <time>2017-10-18T08:05:22Z</time>
      </trkpt>
      <trkpt lat="47.70527" lon="6.08733">
        <ele>281.38</ele>
        <time>2017-10-18T08:05:24Z</time>
      </trkpt>
      <trkpt lat="47.70534" lon="6.08737">
        <ele>281.46</ele>
        <time>2017-10-18T08:05:26Z</time>
      </trkpt>
      <trkpt lat="47.70538" lon="6.0874">
        <ele>281.51</ele>
        <time>2017-10-18T08:05:27Z</time>
      </trkpt>
      <trkpt lat="47.70544" lon="6.08744">
        <ele>281.61</ele>
        <time>2017-10-18T08:05:29Z</time>
      </trkpt>
      <trkpt lat="47.70548" lon="6.08748">
        <ele>281.72</ele>
        <time>2017-10-18T08:05:31Z</time>
      </trkpt>
      <trkpt lat="47.70552" lon="6.08753">
        <ele>281.9</ele>
        <time>2017-10-18T08:05:34Z</time>
      </trkpt>
      <trkpt lat="47.70557" lon="6.0876">
        <ele>282.15</ele>
        <time>2017-10-18T08:05:38Z</time>
      </trkpt>
      <trkpt lat="47.70561" lon="6.08766">
        <ele>282.35</ele>
        <time>2017-10-18T08:05:41Z</time>
      </trkpt>
      <trkpt lat="47.70564" lon="6.08772">
        <ele>283.58</ele>
        <time>2017-10-18T08:06:45Z</time>
      </trkpt>
      <trkpt lat="47.70567" lon="6.0878">
        <ele>284.26</ele>
        <time>2017-10-18T08:06:48Z</time>
      </trkpt>
      <trkpt lat="47.70569" lon="6.08787">
        <ele>284.73</ele>
        <time>2017-10-18T08:06:51Z</time>
      </trkpt>
      <trkpt lat="47.70571" lon="6.08796">
        <ele>285.38</ele>
        <time>2017-10-18T08:06:54Z</time>
      </trkpt>
      <trkpt lat="47.70574" lon="6.08803">
        <ele>285.79</ele>
        <time>2017-10-18T08:06:56Z</time>
      </trkpt>
      <trkpt lat="47.70576" lon="6.08809">
        <ele>286.2</ele>
        <time>2017-10-18T08:06:58Z</time>
      </trkpt>
      <trkpt lat="47.7058" lon="6.08815">
        <ele>286.6</ele>
        <time>2017-10-18T08:07:00Z</time>
      </trkpt>
      <trkpt lat="47.70584" lon="6.08819">
        <ele>286.98</ele>
        <time>2017-10-18T08:07:02Z</time>
      </trkpt>
      <trkpt lat="47.70588" lon="6.08825">
        <ele>287.54</ele>
        <time>2017-10-18T08:07:05Z</time>
      </trkpt>
      <trkpt lat="47.70592" lon="6.08833">
        <ele>288.08</ele>
        <time>2017-10-18T08:07:08Z</time>
      </trkpt>
      <trkpt lat="47.70595" lon="6.08839">
        <ele>288.94</ele>
        <time>2017-10-18T08:07:13Z</time>
      </trkpt>
      <trkpt lat="47.706" lon="6.08843">
        <ele>289.43</ele>
        <time>2017-10-18T08:07:16Z</time>
      </trkpt>
      <trkpt lat="47.70605" lon="6.08846">
        <ele>289.9</ele>
        <time>2017-10-18T08:07:19Z</time>
      </trkpt>
      <trkpt lat="47.70609" lon="6.08849">
        <ele>290.2</ele>
        <time>2017-10-18T08:07:21Z</time>
      </trkpt>
      <trkpt lat="47.70614" lon="6.08853">
        <ele>290.5</ele>
        <time>2017-10-18T08:07:23Z</time>
      </trkpt>
      <trkpt lat="47.70618" lon="6.08858">
        <ele>290.79</ele>
        <time>2017-10-18T08:07:25Z</time>
      </trkpt>
      <trkpt lat="47.70621" lon="6.08864">
        <ele>291.07</ele>
        <time>2017-10-18T08:07:27Z</time>
      </trkpt>
      <trkpt lat="47.70625" lon="6.08869">
        <ele>291.35</ele>
        <time>2017-10-18T08:07:29Z</time>
      </trkpt>
      <trkpt lat="47.70628" lon="6.08875">
        <ele>291.75</ele>
        <time>2017-10-18T08:07:32Z</time>
      </trkpt>
      <trkpt lat="47.70632" lon="6.08881">
        <ele>292.02</ele>
        <time>2017-10-18T08:07:34Z</time>
      </trkpt>
      <trkpt lat="47.7064" lon="6.08885">
        <ele>292.29</ele>
        <time>2017-10-18T08:07:36Z</time>
      </trkpt>
      <trkpt lat="47.70644" lon="6.08888">
        <ele>292.58</ele>
        <time>2017-10-18T08:07:38Z</time>
      </trkpt>
      <trkpt lat="47.70649" lon="6.08893">
        <ele>293.04</ele>
        <time>2017-10-18T08:07:41Z</time>
      </trkpt>
      <trkpt lat="47.70653" lon="6.08898">
        <ele>293.51</ele>
        <time>2017-10-18T08:07:44Z</time>
      </trkpt>
      <trkpt lat="47.70658" lon="6.08901">
        <ele>293.99</ele>
        <time>2017-10-18T08:07:47Z</time>
      </trkpt>
      <trkpt lat="47.70664" lon="6.08903">
        <ele>294.49</ele>
        <time>2017-10-18T08:07:50Z</time>
      </trkpt>
      <trkpt lat="47.70668" lon="6.08908">
        <ele>294.99</ele>
        <time>2017-10-18T08:07:53Z</time>
      </trkpt>
      <trkpt lat="47.70672" lon="6.08913">
        <ele>295.51</ele>
        <time>2017-10-18T08:07:56Z</time>
      </trkpt>
      <trkpt lat="47.70679" lon="6.08918">
        <ele>296.02</ele>
        <time>2017-10-18T08:07:59Z</time>
      </trkpt>
      <trkpt lat="47.70684" lon="6.08923">
        <ele>296.54</ele>
        <time>2017-10-18T08:08:02Z</time>
      </trkpt>
      <trkpt lat="47.70687" lon="6.08928">
        <ele>297.04</ele>
        <time>2017-10-18T08:08:05Z</time>
      </trkpt>
      <trkpt lat="47.7069" lon="6.08934">
        <ele>297.53</ele>
        <time>2017-10-18T08:08:08Z</time>
      </trkpt>
      <trkpt lat="47.70697" lon="6.08935">
        <ele>298.01</ele>
        <time>2017-10-18T08:08:11Z</time>
      </trkpt>
      <trkpt lat="47.70702" lon="6.08936">
        <ele>298.32</ele>
        <time>2017-10-18T08:08:13Z</time>
      </trkpt>
      <trkpt lat="47.70708" lon="6.08936">
        <ele>298.79</ele>
        <time>2017-10-18T08:08:16Z</time>
      </trkpt>
      <trkpt lat="47.70713" lon="6.0894">
        <ele>299.09</ele>
        <time>2017-10-18T08:08:18Z</time>
      </trkpt>
      <trkpt lat="47.70717" lon="6.08944">
        <ele>299.39</ele>
        <time>2017-10-18T08:08:20Z</time>
      </trkpt>
      <trkpt lat="47.70722" lon="6.08949">
        <ele>299.68</ele>
        <time>2017-10-18T08:08:22Z</time>
      </trkpt>
      <trkpt lat="47.70727" lon="6.08953">
        <ele>299.96</ele>
        <time>2017-10-18T08:08:24Z</time>
      </trkpt>
      <trkpt lat="47.70732" lon="6.08956">
        <ele>300.24</ele>
        <time>2017-10-18T08:08:26Z</time>
      </trkpt>
      <trkpt lat="47.70737" lon="6.08956">
        <ele>300.63</ele>
        <time>2017-10-18T08:08:29Z</time>
      </trkpt>
      <trkpt lat="47.70742" lon="6.08955">
        <ele>301.02</ele>
        <time>2017-10-18T08:08:32Z</time>
      </trkpt>
      <trkpt lat="47.70747" lon="6.08955">
        <ele>301.39</ele>
        <time>2017-10-18T08:08:35Z</time>
      </trkpt>
      <trkpt lat="47.70753" lon="6.08955">
        <ele>301.74</ele>
        <time>2017-10-18T08:08:38Z</time>
      </trkpt>
      <trkpt lat="47.70758" lon="6.08956">
        <ele>301.97</ele>
        <time>2017-10-18T08:08:40Z</time>
      </trkpt>
      <trkpt lat="47.70764" lon="6.08956">
        <ele>302.19</ele>
        <time>2017-10-18T08:08:42Z</time>
      </trkpt>
      <trkpt lat="47.7077" lon="6.08957">
        <ele>302.41</ele>
        <time>2017-10-18T08:08:44Z</time>
      </trkpt>
      <trkpt lat="47.70776" lon="6.08958">
        <ele>302.63</ele>
        <time>2017-10-18T08:08:46Z</time>
      </trkpt>
      <trkpt lat="47.70783" lon="6.08959">
        <ele>302.84</ele>
        <time>2017-10-18T08:08:48Z</time>
      </trkpt>
      <trkpt lat="47.70789" lon="6.08964">
        <ele>303.04</ele>
        <time>2017-10-18T08:08:50Z</time>
      </trkpt>
      <trkpt lat="47.70794" lon="6.08968">
        <ele>303.24</ele>
        <time>2017-10-18T08:08:52Z</time>
      </trkpt>
      <trkpt lat="47.70799" lon="6.08974">
        <ele>303.44</ele>
        <time>2017-10-18T08:08:54Z</time>
      </trkpt>
      <trkpt lat="47.70803" lon="6.08978">
        <ele>303.64</ele>
        <time>2017-10-18T08:08:56Z</time>
      </trkpt>
      <trkpt lat="47.70811" lon="6.0898">
        <ele>303.83</ele>
        <time>2017-10-18T08:08:58Z</time>
      </trkpt>
      <trkpt lat="47.70817" lon="6.08984">
        <ele>304.03</ele>
        <time>2017-10-18T08:09:00Z</time>
      </trkpt>
      <trkpt lat="47.70824" lon="6.08987">
        <ele>304.22</ele>
        <time>2017-10-18T08:09:02Z</time>
      </trkpt>
      <trkpt lat="47.7083" lon="6.08991">
        <ele>304.49</ele>
        <time>2017-10-18T08:09:05Z</time>
      </trkpt>
      <trkpt lat="47.70835" lon="6.08989">
        <ele>304.66</ele>
        <time>2017-10-18T08:09:07Z</time>
      </trkpt>
      <trkpt lat="47.70841" lon="6.08991">
        <ele>304.84</ele>
        <time>2017-10-18T08:09:10Z</time>
      </trkpt>
      <trkpt lat="47.70847" lon="6.08998">
        <ele>305.06</ele>
        <time>2017-10-18T08:09:13Z</time>
      </trkpt>
      <trkpt lat="47.70852" lon="6.09005">
        <ele>305.2</ele>
        <time>2017-10-18T08:09:15Z</time>
      </trkpt>
      <trkpt lat="47.70858" lon="6.09009">
        <ele>305.34</ele>
        <time>2017-10-18T08:09:17Z</time>
      </trkpt>
      <trkpt lat="47.70863" lon="6.09012">
        <ele>305.47</ele>
        <time>2017-10-18T08:09:19Z</time>
      </trkpt>
      <trkpt lat="47.70874" lon="6.09015">
        <ele>305.59</ele>
        <time>2017-10-18T08:09:21Z</time>
      </trkpt>
      <trkpt lat="47.70879" lon="6.09018">
        <ele>305.65</ele>
        <time>2017-10-18T08:09:22Z</time>
      </trkpt>
      <trkpt lat="47.70888" lon="6.09022">
        <ele>305.77</ele>
        <time>2017-10-18T08:09:24Z</time>
      </trkpt>
      <trkpt lat="47.70893" lon="6.09023">
        <ele>305.83</ele>
        <time>2017-10-18T08:09:25Z</time>
      </trkpt>
      <trkpt lat="47.70919" lon="6.09023">
        <ele>305.89</ele>
        <time>2017-10-18T08:09:26Z</time>
      </trkpt>
      <trkpt lat="47.70933" lon="6.09029">
        <ele>306.02</ele>
        <time>2017-10-18T08:09:28Z</time>
      </trkpt>
      <trkpt lat="47.70942" lon="6.0903">
        <ele>306.09</ele>
        <time>2017-10-18T08:09:29Z</time>
      </trkpt>
      <trkpt lat="47.70949" lon="6.09032">
        <ele>306.16</ele>
        <time>2017-10-18T08:09:30Z</time>
      </trkpt>
      <trkpt lat="47.70952" lon="6.09037">
        <ele>306.22</ele>
        <time>2017-10-18T08:09:31Z</time>
      </trkpt>
      <trkpt lat="47.70954" lon="6.09044">
        <ele>306.29</ele>
        <time>2017-10-18T08:09:32Z</time>
      </trkpt>
      <trkpt lat="47.70958" lon="6.09055">
        <ele>306.43</ele>
        <time>2017-10-18T08:09:34Z</time>
      </trkpt>
      <trkpt lat="47.70965" lon="6.0906">
        <ele>306.5</ele>
        <time>2017-10-18T08:09:35Z</time>
      </trkpt>
      <trkpt lat="47.70971" lon="6.09068">
        <ele>306.64</ele>
        <time>2017-10-18T08:09:37Z</time>
      </trkpt>
      <trkpt lat="47.70975" lon="6.09074">
        <ele>306.79</ele>
        <time>2017-10-18T08:09:39Z</time>
      </trkpt>
      <trkpt lat="47.70975" lon="6.09082">
        <ele>306.95</ele>
        <time>2017-10-18T08:09:41Z</time>
      </trkpt>
      <trkpt lat="47.70978" lon="6.09088">
        <ele>307.29</ele>
        <time>2017-10-18T08:09:45Z</time>
      </trkpt>
      <trkpt lat="47.70981" lon="6.09096">
        <ele>307.53</ele>
        <time>2017-10-18T08:09:48Z</time>
      </trkpt>
      <trkpt lat="47.70985" lon="6.09103">
        <ele>307.69</ele>
        <time>2017-10-18T08:09:50Z</time>
      </trkpt>
      <trkpt lat="47.70991" lon="6.09109">
        <ele>307.84</ele>
        <time>2017-10-18T08:09:52Z</time>
      </trkpt>
      <trkpt lat="47.70996" lon="6.09114">
        <ele>308.05</ele>
        <time>2017-10-18T08:09:55Z</time>
      </trkpt>
      <trkpt lat="47.71" lon="6.09112">
        <ele>308.28</ele>
        <time>2017-10-18T08:10:00Z</time>
      </trkpt>
      <trkpt lat="47.71004" lon="6.09107">
        <ele>308.82</ele>
        <time>2017-10-18T08:11:05Z</time>
      </trkpt>
      <trkpt lat="47.71008" lon="6.09103">
        <ele>308.93</ele>
        <time>2017-10-18T08:11:07Z</time>
      </trkpt>
      <trkpt lat="47.71011" lon="6.09096">
        <ele>309.05</ele>
        <time>2017-10-18T08:11:09Z</time>
      </trkpt>
      <trkpt lat="47.71013" lon="6.09087">
        <ele>309.15</ele>
        <time>2017-10-18T08:11:11Z</time>
      </trkpt>
      <trkpt lat="47.71016" lon="6.09074">
        <ele>309.26</ele>
        <time>2017-10-18T08:11:13Z</time>
      </trkpt>
      <trkpt lat="47.7102" lon="6.09066">
        <ele>309.36</ele>
        <time>2017-10-18T08:11:15Z</time>
      </trkpt>
      <trkpt lat="47.71023" lon="6.09057">
        <ele>309.46</ele>
        <time>2017-10-18T08:11:17Z</time>
      </trkpt>
      <trkpt lat="47.71026" lon="6.0905">
        <ele>309.55</ele>
        <time>2017-10-18T08:11:19Z</time>
      </trkpt>
      <trkpt lat="47.71028" lon="6.09043">
        <ele>309.64</ele>
        <time>2017-10-18T08:11:21Z</time>
      </trkpt>
      <trkpt lat="47.7103" lon="6.09035">
        <ele>309.72</ele>
        <time>2017-10-18T08:11:23Z</time>
      </trkpt>
      <trkpt lat="47.71031" lon="6.09028">
        <ele>309.76</ele>
        <time>2017-10-18T08:11:24Z</time>
      </trkpt>
      <trkpt lat="47.71034" lon="6.09019">
        <ele>309.83</ele>
        <time>2017-10-18T08:11:26Z</time>
      </trkpt>
      <trkpt lat="47.71041" lon="6.09011">
        <ele>309.9</ele>
        <time>2017-10-18T08:11:28Z</time>
      </trkpt>
      <trkpt lat="47.71045" lon="6.09">
        <ele>309.97</ele>
        <time>2017-10-18T08:11:30Z</time>
      </trkpt>
      <trkpt lat="47.71048" lon="6.0899">
        <ele>310.03</ele>
        <time>2017-10-18T08:11:32Z</time>
      </trkpt>
      <trkpt lat="47.71051" lon="6.08974">
        <ele>310.09</ele>
        <time>2017-10-18T08:11:34Z</time>
      </trkpt>
      <trkpt lat="47.71052" lon="6.08964">
        <ele>310.3</ele>
        <time>2017-10-18T08:11:35Z</time>
      </trkpt>
      <trkpt lat="47.71054" lon="6.08956">
        <ele>310.38</ele>
        <time>2017-10-18T08:11:36Z</time>
      </trkpt>
      <trkpt lat="47.71055" lon="6.08944">
        <ele>310.45</ele>
        <time>2017-10-18T08:11:38Z</time>
      </trkpt>
      <trkpt lat="47.71055" lon="6.08937">
        <ele>310.48</ele>
        <time>2017-10-18T08:11:39Z</time>
      </trkpt>
      <trkpt lat="47.71055" lon="6.08929">
        <ele>310.5</ele>
        <time>2017-10-18T08:11:40Z</time>
      </trkpt>
      <trkpt lat="47.71055" lon="6.08918">
        <ele>310.54</ele>
        <time>2017-10-18T08:11:42Z</time>
      </trkpt>
      <trkpt lat="47.71053" lon="6.08909">
        <ele>310.58</ele>
        <time>2017-10-18T08:11:44Z</time>
      </trkpt>
      <trkpt lat="47.71052" lon="6.08899">
        <ele>310.62</ele>
        <time>2017-10-18T08:11:46Z</time>
      </trkpt>
      <trkpt lat="47.7105" lon="6.0889">
        <ele>310.66</ele>
        <time>2017-10-18T08:11:48Z</time>
      </trkpt>
      <trkpt lat="47.71049" lon="6.08881">
        <ele>310.72</ele>
        <time>2017-10-18T08:11:51Z</time>
      </trkpt>
      <trkpt lat="47.71048" lon="6.0887">
        <ele>310.78</ele>
        <time>2017-10-18T08:11:54Z</time>
      </trkpt>
      <trkpt lat="47.71047" lon="6.08863">
        <ele>310.81</ele>
        <time>2017-10-18T08:11:56Z</time>
      </trkpt>
      <trkpt lat="47.71045" lon="6.08856">
        <ele>310.85</ele>
        <time>2017-10-18T08:11:59Z</time>
      </trkpt>
      <trkpt lat="47.71044" lon="6.08849">
        <ele>310.89</ele>
        <time>2017-10-18T08:12:01Z</time>
      </trkpt>
      <trkpt lat="47.71043" lon="6.0884">
        <ele>311.02</ele>
        <time>2017-10-18T08:12:03Z</time>
      </trkpt>
      <trkpt lat="47.71041" lon="6.08828">
        <ele>311.15</ele>
        <time>2017-10-18T08:12:05Z</time>
      </trkpt>
      <trkpt lat="47.7104" lon="6.08819">
        <ele>311.19</ele>
        <time>2017-10-18T08:12:06Z</time>
      </trkpt>
      <trkpt lat="47.71039" lon="6.08808">
        <ele>311.21</ele>
        <time>2017-10-18T08:12:08Z</time>
      </trkpt>
      <trkpt lat="47.71037" lon="6.08801">
        <ele>311.23</ele>
        <time>2017-10-18T08:12:10Z</time>
      </trkpt>
      <trkpt lat="47.71036" lon="6.08791">
        <ele>311.25</ele>
        <time>2017-10-18T08:12:13Z</time>
      </trkpt>
      <trkpt lat="47.71035" lon="6.08784">
        <ele>311.26</ele>
        <time>2017-10-18T08:12:15Z</time>
      </trkpt>
      <trkpt lat="47.71033" lon="6.08776">
        <ele>311.27</ele>
        <time>2017-10-18T08:12:17Z</time>
      </trkpt>
      <trkpt lat="47.71031" lon="6.08768">
        <ele>311.29</ele>
        <time>2017-10-18T08:12:19Z</time>
      </trkpt>
      <trkpt lat="47.71028" lon="6.08761">
        <ele>311.31</ele>
        <time>2017-10-18T08:12:21Z</time>
      </trkpt>
      <trkpt lat="47.71026" lon="6.08754">
        <ele>311.33</ele>
        <time>2017-10-18T08:12:23Z</time>
      </trkpt>
      <trkpt lat="47.71025" lon="6.08747">
        <ele>311.35</ele>
        <time>2017-10-18T08:12:25Z</time>
      </trkpt>
      <trkpt lat="47.71023" lon="6.08739">
        <ele>311.37</ele>
        <time>2017-10-18T08:12:27Z</time>
      </trkpt>
      <trkpt lat="47.71021" lon="6.08732">
        <ele>311.38</ele>
        <time>2017-10-18T08:12:29Z</time>
      </trkpt>
      <trkpt lat="47.71019" lon="6.08724">
        <ele>311.4</ele>
        <time>2017-10-18T08:12:31Z</time>
      </trkpt>
      <trkpt lat="47.71017" lon="6.08716">
        <ele>311.42</ele>
        <time>2017-10-18T08:12:33Z</time>
      </trkpt>
      <trkpt lat="47.71015" lon="6.08709">
        <ele>311.43</ele>
        <time>2017-10-18T08:12:35Z</time>
      </trkpt>
      <trkpt lat="47.71014" lon="6.08701">
        <ele>311.44</ele>
        <time>2017-10-18T08:12:37Z</time>
      </trkpt>
      <trkpt lat="47.71012" lon="6.08691">
        <ele>311.46</ele>
        <time>2017-10-18T08:12:39Z</time>
      </trkpt>
      <trkpt lat="47.7101" lon="6.08682">
        <ele>311.48</ele>
        <time>2017-10-18T08:12:41Z</time>
      </trkpt>
      <trkpt lat="47.71008" lon="6.08673">
        <ele>311.49</ele>
        <time>2017-10-18T08:12:43Z</time>
      </trkpt>
      <trkpt lat="47.71007" lon="6.08664">
        <ele>311.51</ele>
        <time>2017-10-18T08:12:45Z</time>
      </trkpt>
      <trkpt lat="47.71005" lon="6.08656">
        <ele>311.53</ele>
        <time>2017-10-18T08:12:47Z</time>
      </trkpt>
      <trkpt lat="47.71003" lon="6.0865">
        <ele>311.55</ele>
        <time>2017-10-18T08:12:49Z</time>
      </trkpt>
      <trkpt lat="47.71001" lon="6.08644">
        <ele>311.57</ele>
        <time>2017-10-18T08:12:51Z</time>
      </trkpt>
      <trkpt lat="47.70998" lon="6.08638">
        <ele>311.59</ele>
        <time>2017-10-18T08:12:53Z</time>
      </trkpt>
      <trkpt lat="47.70996" lon="6.08632">
        <ele>311.61</ele>
        <time>2017-10-18T08:12:55Z</time>
      </trkpt>
      <trkpt lat="47.70994" lon="6.08626">
        <ele>311.63</ele>
        <time>2017-10-18T08:12:57Z</time>
      </trkpt>
      <trkpt lat="47.70991" lon="6.08618">
        <ele>311.66</ele>
        <time>2017-10-18T08:13:00Z</time>
      </trkpt>
      <trkpt lat="47.70989" lon="6.08611">
        <ele>311.67</ele>
        <time>2017-10-18T08:13:02Z</time>
      </trkpt>
      <trkpt lat="47.70987" lon="6.08602">
        <ele>311.69</ele>
        <time>2017-10-18T08:13:04Z</time>
      </trkpt>
      <trkpt lat="47.70984" lon="6.08594">
        <ele>311.71</ele>
        <time>2017-10-18T08:13:06Z</time>
      </trkpt>
      <trkpt lat="47.70981" lon="6.08586">
        <ele>311.72</ele>
        <time>2017-10-18T08:13:08Z</time>
      </trkpt>
      <trkpt lat="47.70978" lon="6.08579">
        <ele>311.74</ele>
        <time>2017-10-18T08:13:10Z</time>
      </trkpt>
      <trkpt lat="47.70976" lon="6.08572">
        <ele>311.75</ele>
        <time>2017-10-18T08:13:12Z</time>
      </trkpt>
      <trkpt lat="47.70974" lon="6.08564">
        <ele>311.77</ele>
        <time>2017-10-18T08:13:15Z</time>
      </trkpt>
      <trkpt lat="47.70973" lon="6.08555">
        <ele>311.79</ele>
        <time>2017-10-18T08:13:17Z</time>
      </trkpt>
      <trkpt lat="47.70971" lon="6.08546">
        <ele>311.8</ele>
        <time>2017-10-18T08:13:19Z</time>
      </trkpt>
      <trkpt lat="47.7097" lon="6.08537">
        <ele>311.82</ele>
        <time>2017-10-18T08:13:21Z</time>
      </trkpt>
      <trkpt lat="47.70969" lon="6.08531">
        <ele>311.84</ele>
        <time>2017-10-18T08:13:23Z</time>
      </trkpt>
      <trkpt lat="47.70968" lon="6.08521">
        <ele>311.87</ele>
        <time>2017-10-18T08:13:26Z</time>
      </trkpt>
      <trkpt lat="47.70967" lon="6.08514">
        <ele>311.89</ele>
        <time>2017-10-18T08:13:28Z</time>
      </trkpt>
      <trkpt lat="47.70966" lon="6.08506">
        <ele>311.92</ele>
        <time>2017-10-18T08:13:31Z</time>
      </trkpt>
      <trkpt lat="47.70967" lon="6.08497">
        <ele>311.98</ele>
        <time>2017-10-18T08:13:36Z</time>
      </trkpt>
      <trkpt lat="47.70967" lon="6.08489">
        <ele>312.01</ele>
        <time>2017-10-18T08:13:39Z</time>
      </trkpt>
      <trkpt lat="47.7097" lon="6.0848">
        <ele>312.04</ele>
        <time>2017-10-18T08:13:42Z</time>
      </trkpt>
      <trkpt lat="47.70972" lon="6.08467">
        <ele>312.06</ele>
        <time>2017-10-18T08:13:44Z</time>
      </trkpt>
      <trkpt lat="47.70973" lon="6.08457">
        <ele>312.07</ele>
        <time>2017-10-18T08:13:45Z</time>
      </trkpt>
      <trkpt lat="47.70973" lon="6.08446">
        <ele>312.08</ele>
        <time>2017-10-18T08:13:46Z</time>
      </trkpt>
      <trkpt lat="47.70973" lon="6.08438">
        <ele>312.11</ele>
        <time>2017-10-18T08:13:48Z</time>
      </trkpt>
      <trkpt lat="47.70973" lon="6.08429">
        <ele>312.15</ele>
        <time>2017-10-18T08:13:50Z</time>
      </trkpt>
      <trkpt lat="47.70975" lon="6.08421">
        <ele>312.23</ele>
        <time>2017-10-18T08:13:53Z</time>
      </trkpt>
      <trkpt lat="47.70978" lon="6.08414">
        <ele>312.31</ele>
        <time>2017-10-18T08:13:56Z</time>
      </trkpt>
      <trkpt lat="47.70979" lon="6.08405">
        <ele>312.42</ele>
        <time>2017-10-18T08:14:00Z</time>
      </trkpt>
      <trkpt lat="47.7098" lon="6.08397">
        <ele>312.53</ele>
        <time>2017-10-18T08:14:04Z</time>
      </trkpt>
      <trkpt lat="47.70979" lon="6.08387">
        <ele>312.59</ele>
        <time>2017-10-18T08:14:06Z</time>
      </trkpt>
      <trkpt lat="47.7098" lon="6.08381">
        <ele>312.67</ele>
        <time>2017-10-18T08:14:09Z</time>
      </trkpt>
      <trkpt lat="47.70981" lon="6.08372">
        <ele>312.72</ele>
        <time>2017-10-18T08:14:11Z</time>
      </trkpt>
      <trkpt lat="47.70982" lon="6.08356">
        <ele>312.8</ele>
        <time>2017-10-18T08:14:14Z</time>
      </trkpt>
      <trkpt lat="47.70982" lon="6.0835">
        <ele>312.83</ele>
        <time>2017-10-18T08:14:15Z</time>
      </trkpt>
      <trkpt lat="47.70982" lon="6.08341">
        <ele>312.91</ele>
        <time>2017-10-18T08:14:18Z</time>
      </trkpt>
      <trkpt lat="47.70981" lon="6.08334">
        <ele>312.94</ele>
        <time>2017-10-18T08:14:19Z</time>
      </trkpt>
      <trkpt lat="47.70981" lon="6.08326">
        <ele>313.04</ele>
        <time>2017-10-18T08:14:22Z</time>
      </trkpt>
      <trkpt lat="47.70982" lon="6.08319">
        <ele>313.14</ele>
        <time>2017-10-18T08:14:25Z</time>
      </trkpt>
      <trkpt lat="47.70984" lon="6.08313">
        <ele>313.24</ele>
        <time>2017-10-18T08:14:28Z</time>
      </trkpt>
      <trkpt lat="47.70986" lon="6.08304">
        <ele>313.37</ele>
        <time>2017-10-18T08:14:32Z</time>
      </trkpt>
      <trkpt lat="47.70989" lon="6.08296">
        <ele>313.47</ele>
        <time>2017-10-18T08:14:35Z</time>
      </trkpt>
      <trkpt lat="47.70992" lon="6.0829">
        <ele>313.53</ele>
        <time>2017-10-18T08:14:37Z</time>
      </trkpt>
      <trkpt lat="47.70994" lon="6.08282">
        <ele>313.62</ele>
        <time>2017-10-18T08:14:40Z</time>
      </trkpt>
      <trkpt lat="47.70996" lon="6.08274">
        <ele>313.68</ele>
        <time>2017-10-18T08:14:42Z</time>
      </trkpt>
      <trkpt lat="47.70998" lon="6.08266">
        <ele>313.73</ele>
        <time>2017-10-18T08:14:44Z</time>
      </trkpt>
      <trkpt lat="47.71" lon="6.08257">
        <ele>313.78</ele>
        <time>2017-10-18T08:14:46Z</time>
      </trkpt>
      <trkpt lat="47.71001" lon="6.08246">
        <ele>313.83</ele>
        <time>2017-10-18T08:14:48Z</time>
      </trkpt>
      <trkpt lat="47.71002" lon="6.08233">
        <ele>313.87</ele>
        <time>2017-10-18T08:14:50Z</time>
      </trkpt>
      <trkpt lat="47.71003" lon="6.08226">
        <ele>313.89</ele>
        <time>2017-10-18T08:14:51Z</time>
      </trkpt>
      <trkpt lat="47.71004" lon="6.08218">
        <ele>313.9</ele>
        <time>2017-10-18T08:14:52Z</time>
      </trkpt>
      <trkpt lat="47.71006" lon="6.08206">
        <ele>313.94</ele>
        <time>2017-10-18T08:14:54Z</time>
      </trkpt>
      <trkpt lat="47.71009" lon="6.08198">
        <ele>313.97</ele>
        <time>2017-10-18T08:14:56Z</time>
      </trkpt>
      <trkpt lat="47.71011" lon="6.0819">
        <ele>314</ele>
        <time>2017-10-18T08:14:58Z</time>
      </trkpt>
      <trkpt lat="47.71014" lon="6.08181">
        <ele>314.03</ele>
        <time>2017-10-18T08:15:00Z</time>
      </trkpt>
      <trkpt lat="47.71017" lon="6.08171">
        <ele>314.06</ele>
        <time>2017-10-18T08:15:02Z</time>
      </trkpt>
      <trkpt lat="47.71021" lon="6.08161">
        <ele>314.27</ele>
        <time>2017-10-18T08:15:04Z</time>
      </trkpt>
      <trkpt lat="47.71022" lon="6.08154">
        <ele>314.36</ele>
        <time>2017-10-18T08:15:05Z</time>
      </trkpt>
      <trkpt lat="47.71024" lon="6.08147">
        <ele>314.43</ele>
        <time>2017-10-18T08:15:06Z</time>
      </trkpt>
      <trkpt lat="47.71025" lon="6.0814">
        <ele>314.49</ele>
        <time>2017-10-18T08:15:07Z</time>
      </trkpt>
      <trkpt lat="47.71027" lon="6.08133">
        <ele>314.53</ele>
        <time>2017-10-18T08:15:08Z</time>
      </trkpt>
      <trkpt lat="47.71029" lon="6.08126">
        <ele>314.57</ele>
        <time>2017-10-18T08:15:09Z</time>
      </trkpt>
      <trkpt lat="47.71031" lon="6.08119">
        <ele>314.6</ele>
        <time>2017-10-18T08:15:10Z</time>
      </trkpt>
      <trkpt lat="47.71034" lon="6.08113">
        <ele>314.62</ele>
        <time>2017-10-18T08:15:11Z</time>
      </trkpt>
      <trkpt lat="47.71037" lon="6.08106">
        <ele>314.63</ele>
        <time>2017-10-18T08:15:12Z</time>
      </trkpt>
      <trkpt lat="47.71039" lon="6.081">
        <ele>314.63</ele>
        <time>2017-10-18T08:15:13Z</time>
      </trkpt>
      <trkpt lat="47.71041" lon="6.08092">
        <ele>314.62</ele>
        <time>2017-10-18T08:15:14Z</time>
      </trkpt>
      <trkpt lat="47.71044" lon="6.08085">
        <ele>314.61</ele>
        <time>2017-10-18T08:15:15Z</time>
      </trkpt>
      <trkpt lat="47.71047" lon="6.08078">
        <ele>314.59</ele>
        <time>2017-10-18T08:15:16Z</time>
      </trkpt>
      <trkpt lat="47.71051" lon="6.0807">
        <ele>314.57</ele>
        <time>2017-10-18T08:15:17Z</time>
      </trkpt>
      <trkpt lat="47.71055" lon="6.08062">
        <ele>314.55</ele>
        <time>2017-10-18T08:15:18Z</time>
      </trkpt>
      <trkpt lat="47.71058" lon="6.08054">
        <ele>314.52</ele>
        <time>2017-10-18T08:15:19Z</time>
      </trkpt>
      <trkpt lat="47.71062" lon="6.08046">
        <ele>314.48</ele>
        <time>2017-10-18T08:15:20Z</time>
      </trkpt>
      <trkpt lat="47.71065" lon="6.08038">
        <ele>314.44</ele>
        <time>2017-10-18T08:15:21Z</time>
      </trkpt>
      <trkpt lat="47.71068" lon="6.0803">
        <ele>314.4</ele>
        <time>2017-10-18T08:15:22Z</time>
      </trkpt>
      <trkpt lat="47.71071" lon="6.08023">
        <ele>314.35</ele>
        <time>2017-10-18T08:15:23Z</time>
      </trkpt>
      <trkpt lat="47.71074" lon="6.08015">
        <ele>314.3</ele>
        <time>2017-10-18T08:15:24Z</time>
      </trkpt>
      <trkpt lat="47.71076" lon="6.08007">
        <ele>314.25</ele>
        <time>2017-10-18T08:15:25Z</time>
      </trkpt>
      <trkpt lat="47.71079" lon="6.08">
        <ele>314.19</ele>
        <time>2017-10-18T08:15:26Z</time>
      </trkpt>
      <trkpt lat="47.71082" lon="6.07993">
        <ele>314.13</ele>
        <time>2017-10-18T08:15:27Z</time>
      </trkpt>
      <trkpt lat="47.71084" lon="6.07986">
        <ele>314.03</ele>
        <time>2017-10-18T08:15:28Z</time>
      </trkpt>
      <trkpt lat="47.71086" lon="6.07979">
        <ele>313.95</ele>
        <time>2017-10-18T08:15:29Z</time>
      </trkpt>
      <trkpt lat="47.71088" lon="6.07972">
        <ele>313.87</ele>
        <time>2017-10-18T08:15:30Z</time>
      </trkpt>
      <trkpt lat="47.71091" lon="6.07965">
        <ele>313.77</ele>
        <time>2017-10-18T08:15:31Z</time>
      </trkpt>
      <trkpt lat="47.71093" lon="6.07958">
        <ele>313.68</ele>
        <time>2017-10-18T08:15:32Z</time>
      </trkpt>
      <trkpt lat="47.71095" lon="6.0795">
        <ele>313.59</ele>
        <time>2017-10-18T08:15:33Z</time>
      </trkpt>
      <trkpt lat="47.71097" lon="6.07943">
        <ele>313.5</ele>
        <time>2017-10-18T08:15:34Z</time>
      </trkpt>
      <trkpt lat="47.711" lon="6.07936">
        <ele>313.38</ele>
        <time>2017-10-18T08:15:35Z</time>
      </trkpt>
      <trkpt lat="47.71101" lon="6.07929">
        <ele>313.24</ele>
        <time>2017-10-18T08:15:36Z</time>
      </trkpt>
      <trkpt lat="47.71103" lon="6.07921">
        <ele>313.09</ele>
        <time>2017-10-18T08:15:37Z</time>
      </trkpt>
      <trkpt lat="47.71104" lon="6.07913">
        <ele>312.94</ele>
        <time>2017-10-18T08:15:38Z</time>
      </trkpt>
      <trkpt lat="47.71105" lon="6.07905">
        <ele>312.79</ele>
        <time>2017-10-18T08:15:39Z</time>
      </trkpt>
      <trkpt lat="47.71106" lon="6.07897">
        <ele>312.64</ele>
        <time>2017-10-18T08:15:40Z</time>
      </trkpt>
      <trkpt lat="47.71107" lon="6.0789">
        <ele>312.52</ele>
        <time>2017-10-18T08:15:41Z</time>
      </trkpt>
      <trkpt lat="47.71108" lon="6.07882">
        <ele>312.41</ele>
        <time>2017-10-18T08:15:42Z</time>
      </trkpt>
      <trkpt lat="47.71109" lon="6.07875">
        <ele>312.3</ele>
        <time>2017-10-18T08:15:43Z</time>
      </trkpt>
      <trkpt lat="47.71111" lon="6.07868">
        <ele>312.15</ele>
        <time>2017-10-18T08:15:44Z</time>
      </trkpt>
      <trkpt lat="47.71113" lon="6.07862">
        <ele>311.98</ele>
        <time>2017-10-18T08:15:45Z</time>
      </trkpt>
      <trkpt lat="47.71116" lon="6.07856">
        <ele>311.82</ele>
        <time>2017-10-18T08:15:46Z</time>
      </trkpt>
      <trkpt lat="47.71119" lon="6.0785">
        <ele>311.65</ele>
        <time>2017-10-18T08:15:47Z</time>
      </trkpt>
      <trkpt lat="47.71123" lon="6.07844">
        <ele>311.5</ele>
        <time>2017-10-18T08:15:48Z</time>
      </trkpt>
      <trkpt lat="47.71126" lon="6.07838">
        <ele>311.38</ele>
        <time>2017-10-18T08:15:49Z</time>
      </trkpt>
      <trkpt lat="47.71131" lon="6.07831">
        <ele>311.26</ele>
        <time>2017-10-18T08:15:50Z</time>
      </trkpt>
      <trkpt lat="47.71135" lon="6.07825">
        <ele>311.14</ele>
        <time>2017-10-18T08:15:51Z</time>
      </trkpt>
      <trkpt lat="47.71139" lon="6.07818">
        <ele>311.01</ele>
        <time>2017-10-18T08:15:52Z</time>
      </trkpt>
      <trkpt lat="47.71144" lon="6.07812">
        <ele>310.86</ele>
        <time>2017-10-18T08:15:53Z</time>
      </trkpt>
      <trkpt lat="47.71148" lon="6.07806">
        <ele>310.69</ele>
        <time>2017-10-18T08:15:54Z</time>
      </trkpt>
      <trkpt lat="47.71151" lon="6.078">
        <ele>310.53</ele>
        <time>2017-10-18T08:15:55Z</time>
      </trkpt>
      <trkpt lat="47.71154" lon="6.07794">
        <ele>310.39</ele>
        <time>2017-10-18T08:15:56Z</time>
      </trkpt>
      <trkpt lat="47.71156" lon="6.07788">
        <ele>310.31</ele>
        <time>2017-10-18T08:15:57Z</time>
      </trkpt>
      <trkpt lat="47.71159" lon="6.07782">
        <ele>310.31</ele>
        <time>2017-10-18T08:15:58Z</time>
      </trkpt>
      <trkpt lat="47.71162" lon="6.07776">
        <ele>310.32</ele>
        <time>2017-10-18T08:15:59Z</time>
      </trkpt>
      <trkpt lat="47.71164" lon="6.07771">
        <ele>310.25</ele>
        <time>2017-10-18T08:16:00Z</time>
      </trkpt>
      <trkpt lat="47.71167" lon="6.07765">
        <ele>310.14</ele>
        <time>2017-10-18T08:16:01Z</time>
      </trkpt>
      <trkpt lat="47.7117" lon="6.07758">
        <ele>309.97</ele>
        <time>2017-10-18T08:16:02Z</time>
      </trkpt>
      <trkpt lat="47.71173" lon="6.07752">
        <ele>309.75</ele>
        <time>2017-10-18T08:16:03Z</time>
      </trkpt>
      <trkpt lat="47.71176" lon="6.07746">
        <ele>309.48</ele>
        <time>2017-10-18T08:16:04Z</time>
      </trkpt>
      <trkpt lat="47.7118" lon="6.07739">
        <ele>309.2</ele>
        <time>2017-10-18T08:16:05Z</time>
      </trkpt>
      <trkpt lat="47.71184" lon="6.07732">
        <ele>308.9</ele>
        <time>2017-10-18T08:16:06Z</time>
      </trkpt>
      <trkpt lat="47.71187" lon="6.07727">
        <ele>308.56</ele>
        <time>2017-10-18T08:16:07Z</time>
      </trkpt>
      <trkpt lat="47.71191" lon="6.07724">
        <ele>308.26</ele>
        <time>2017-10-18T08:16:08Z</time>
      </trkpt>
      <trkpt lat="47.712" lon="6.0772">
        <ele>307.69</ele>
        <time>2017-10-18T08:16:10Z</time>
      </trkpt>
      <trkpt lat="47.71205" lon="6.07718">
        <ele>307.42</ele>
        <time>2017-10-18T08:16:11Z</time>
      </trkpt>
      <trkpt lat="47.7121" lon="6.07717">
        <ele>307.16</ele>
        <time>2017-10-18T08:16:12Z</time>
      </trkpt>
      <trkpt lat="47.71215" lon="6.07715">
        <ele>306.9</ele>
        <time>2017-10-18T08:16:13Z</time>
      </trkpt>
      <trkpt lat="47.71219" lon="6.07714">
        <ele>306.64</ele>
        <time>2017-10-18T08:16:14Z</time>
      </trkpt>
      <trkpt lat="47.71223" lon="6.07713">
        <ele>306.37</ele>
        <time>2017-10-18T08:16:15Z</time>
      </trkpt>
      <trkpt lat="47.71228" lon="6.0771">
        <ele>306.13</ele>
        <time>2017-10-18T08:16:16Z</time>
      </trkpt>
      <trkpt lat="47.71233" lon="6.07708">
        <ele>305.9</ele>
        <time>2017-10-18T08:16:17Z</time>
      </trkpt>
      <trkpt lat="47.71237" lon="6.07705">
        <ele>305.67</ele>
        <time>2017-10-18T08:16:18Z</time>
      </trkpt>
      <trkpt lat="47.71242" lon="6.077">
        <ele>305.35</ele>
        <time>2017-10-18T08:16:19Z</time>
      </trkpt>
      <trkpt lat="47.71248" lon="6.07696">
        <ele>305.03</ele>
        <time>2017-10-18T08:16:20Z</time>
      </trkpt>
      <trkpt lat="47.71253" lon="6.07691">
        <ele>304.72</ele>
        <time>2017-10-18T08:16:21Z</time>
      </trkpt>
      <trkpt lat="47.71258" lon="6.07688">
        <ele>304.43</ele>
        <time>2017-10-18T08:16:22Z</time>
      </trkpt>
      <trkpt lat="47.71263" lon="6.07685">
        <ele>304.15</ele>
        <time>2017-10-18T08:16:23Z</time>
      </trkpt>
      <trkpt lat="47.71268" lon="6.07682">
        <ele>303.73</ele>
        <time>2017-10-18T08:16:24Z</time>
      </trkpt>
      <trkpt lat="47.71273" lon="6.07681">
        <ele>303.3</ele>
        <time>2017-10-18T08:16:25Z</time>
      </trkpt>
      <trkpt lat="47.71279" lon="6.07679">
        <ele>302.9</ele>
        <time>2017-10-18T08:16:26Z</time>
      </trkpt>
      <trkpt lat="47.71285" lon="6.07678">
        <ele>302.55</ele>
        <time>2017-10-18T08:16:27Z</time>
      </trkpt>
      <trkpt lat="47.71291" lon="6.07678">
        <ele>302.25</ele>
        <time>2017-10-18T08:16:28Z</time>
      </trkpt>
      <trkpt lat="47.71297" lon="6.07678">
        <ele>302.02</ele>
        <time>2017-10-18T08:16:29Z</time>
      </trkpt>
      <trkpt lat="47.71303" lon="6.07678">
        <ele>301.84</ele>
        <time>2017-10-18T08:16:30Z</time>
      </trkpt>
      <trkpt lat="47.71309" lon="6.07677">
        <ele>301.68</ele>
        <time>2017-10-18T08:16:31Z</time>
      </trkpt>
      <trkpt lat="47.71315" lon="6.07677">
        <ele>301.5</ele>
        <time>2017-10-18T08:16:32Z</time>
      </trkpt>
      <trkpt lat="47.71321" lon="6.07677">
        <ele>301.28</ele>
        <time>2017-10-18T08:16:33Z</time>
      </trkpt>
      <trkpt lat="47.71328" lon="6.07677">
        <ele>301.04</ele>
        <time>2017-10-18T08:16:34Z</time>
      </trkpt>
      <trkpt lat="47.71336" lon="6.07678">
        <ele>300.82</ele>
        <time>2017-10-18T08:16:35Z</time>
      </trkpt>
      <trkpt lat="47.71342" lon="6.07678">
        <ele>300.59</ele>
        <time>2017-10-18T08:16:36Z</time>
      </trkpt>
      <trkpt lat="47.71349" lon="6.07679">
        <ele>300.36</ele>
        <time>2017-10-18T08:16:37Z</time>
      </trkpt>
      <trkpt lat="47.71356" lon="6.07679">
        <ele>300.1</ele>
        <time>2017-10-18T08:16:38Z</time>
      </trkpt>
      <trkpt lat="47.71363" lon="6.07678">
        <ele>299.88</ele>
        <time>2017-10-18T08:16:39Z</time>
      </trkpt>
      <trkpt lat="47.7137" lon="6.07677">
        <ele>299.67</ele>
        <time>2017-10-18T08:16:40Z</time>
      </trkpt>
      <trkpt lat="47.71376" lon="6.07678">
        <ele>299.44</ele>
        <time>2017-10-18T08:16:41Z</time>
      </trkpt>
      <trkpt lat="47.71382" lon="6.07676">
        <ele>299.24</ele>
        <time>2017-10-18T08:16:42Z</time>
      </trkpt>
      <trkpt lat="47.71388" lon="6.07673">
        <ele>299.1</ele>
        <time>2017-10-18T08:16:43Z</time>
      </trkpt>
      <trkpt lat="47.71393" lon="6.0767">
        <ele>298.96</ele>
        <time>2017-10-18T08:16:44Z</time>
      </trkpt>
      <trkpt lat="47.71398" lon="6.07667">
        <ele>298.81</ele>
        <time>2017-10-18T08:16:45Z</time>
      </trkpt>
      <trkpt lat="47.71402" lon="6.07664">
        <ele>298.64</ele>
        <time>2017-10-18T08:16:46Z</time>
      </trkpt>
      <trkpt lat="47.71409" lon="6.07663">
        <ele>298.55</ele>
        <time>2017-10-18T08:16:48Z</time>
      </trkpt>
      <trkpt lat="47.71415" lon="6.07665">
        <ele>298.53</ele>
        <time>2017-10-18T08:16:50Z</time>
      </trkpt>
      <trkpt lat="47.7142" lon="6.07669">
        <ele>298.5</ele>
        <time>2017-10-18T08:16:52Z</time>
      </trkpt>
      <trkpt lat="47.71424" lon="6.07678">
        <ele>297.89</ele>
        <time>2017-10-18T08:16:54Z</time>
      </trkpt>
      <trkpt lat="47.71427" lon="6.07685">
        <ele>297.16</ele>
        <time>2017-10-18T08:16:55Z</time>
      </trkpt>
      <trkpt lat="47.7143" lon="6.07692">
        <ele>296.39</ele>
        <time>2017-10-18T08:16:56Z</time>
      </trkpt>
      <trkpt lat="47.71433" lon="6.07701">
        <ele>295.64</ele>
        <time>2017-10-18T08:16:57Z</time>
      </trkpt>
      <trkpt lat="47.71437" lon="6.0771">
        <ele>294.89</ele>
        <time>2017-10-18T08:16:58Z</time>
      </trkpt>
      <trkpt lat="47.71441" lon="6.07719">
        <ele>293.67</ele>
        <time>2017-10-18T08:16:59Z</time>
      </trkpt>
      <trkpt lat="47.71446" lon="6.07729">
        <ele>292.4</ele>
        <time>2017-10-18T08:17:00Z</time>
      </trkpt>
      <trkpt lat="47.7145" lon="6.07739">
        <ele>291.23</ele>
        <time>2017-10-18T08:17:01Z</time>
      </trkpt>
      <trkpt lat="47.71454" lon="6.07749">
        <ele>290.19</ele>
        <time>2017-10-18T08:17:02Z</time>
      </trkpt>
      <trkpt lat="47.71458" lon="6.07758">
        <ele>289.26</ele>
        <time>2017-10-18T08:17:03Z</time>
      </trkpt>
      <trkpt lat="47.71462" lon="6.07765">
        <ele>288.38</ele>
        <time>2017-10-18T08:17:04Z</time>
      </trkpt>
      <trkpt lat="47.71466" lon="6.07774">
        <ele>287.59</ele>
        <time>2017-10-18T08:17:05Z</time>
      </trkpt>
      <trkpt lat="47.7147" lon="6.07783">
        <ele>286.91</ele>
        <time>2017-10-18T08:17:06Z</time>
      </trkpt>
      <trkpt lat="47.71474" lon="6.07793">
        <ele>286.36</ele>
        <time>2017-10-18T08:17:07Z</time>
      </trkpt>
      <trkpt lat="47.71478" lon="6.07804">
        <ele>285.94</ele>
        <time>2017-10-18T08:17:08Z</time>
      </trkpt>
      <trkpt lat="47.71482" lon="6.07815">
        <ele>285.61</ele>
        <time>2017-10-18T08:17:09Z</time>
      </trkpt>
      <trkpt lat="47.71488" lon="6.07827">
        <ele>285.39</ele>
        <time>2017-10-18T08:17:10Z</time>
      </trkpt>
      <trkpt lat="47.71494" lon="6.07839">
        <ele>285.27</ele>
        <time>2017-10-18T08:17:11Z</time>
      </trkpt>
      <trkpt lat="47.71499" lon="6.0785">
        <ele>285.28</ele>
        <time>2017-10-18T08:17:12Z</time>
      </trkpt>
      <trkpt lat="47.71504" lon="6.07862">
        <ele>285.27</ele>
        <time>2017-10-18T08:17:13Z</time>
      </trkpt>
      <trkpt lat="47.71508" lon="6.07874">
        <ele>285.4</ele>
        <time>2017-10-18T08:17:14Z</time>
      </trkpt>
      <trkpt lat="47.71512" lon="6.07885">
        <ele>285.49</ele>
        <time>2017-10-18T08:17:15Z</time>
      </trkpt>
      <trkpt lat="47.71516" lon="6.07895">
        <ele>285.52</ele>
        <time>2017-10-18T08:17:16Z</time>
      </trkpt>
      <trkpt lat="47.7152" lon="6.07905">
        <ele>285.47</ele>
        <time>2017-10-18T08:17:17Z</time>
      </trkpt>
      <trkpt lat="47.71524" lon="6.07914">
        <ele>285.43</ele>
        <time>2017-10-18T08:17:18Z</time>
      </trkpt>
      <trkpt lat="47.71529" lon="6.07923">
        <ele>285.3</ele>
        <time>2017-10-18T08:17:19Z</time>
      </trkpt>
      <trkpt lat="47.71533" lon="6.0793">
        <ele>285.13</ele>
        <time>2017-10-18T08:17:20Z</time>
      </trkpt>
      <trkpt lat="47.71537" lon="6.07938">
        <ele>285.01</ele>
        <time>2017-10-18T08:17:21Z</time>
      </trkpt>
      <trkpt lat="47.7154" lon="6.07945">
        <ele>284.89</ele>
        <time>2017-10-18T08:17:22Z</time>
      </trkpt>
      <trkpt lat="47.71543" lon="6.07951">
        <ele>284.74</ele>
        <time>2017-10-18T08:17:23Z</time>
      </trkpt>
      <trkpt lat="47.71546" lon="6.07958">
        <ele>284.58</ele>
        <time>2017-10-18T08:17:24Z</time>
      </trkpt>
      <trkpt lat="47.7155" lon="6.07968">
        <ele>284.34</ele>
        <time>2017-10-18T08:17:26Z</time>
      </trkpt>
      <trkpt lat="47.71552" lon="6.07976">
        <ele>284.24</ele>
        <time>2017-10-18T08:17:28Z</time>
      </trkpt>
      <trkpt lat="47.71555" lon="6.07983">
        <ele>284.15</ele>
        <time>2017-10-18T08:17:30Z</time>
      </trkpt>
      <trkpt lat="47.71558" lon="6.0799">
        <ele>284.04</ele>
        <time>2017-10-18T08:17:32Z</time>
      </trkpt>
      <trkpt lat="47.7156" lon="6.07996">
        <ele>283.91</ele>
        <time>2017-10-18T08:17:34Z</time>
      </trkpt>
      <trkpt lat="47.71563" lon="6.08003">
        <ele>283.75</ele>
        <time>2017-10-18T08:17:36Z</time>
      </trkpt>
      <trkpt lat="47.71565" lon="6.0801">
        <ele>283.57</ele>
        <time>2017-10-18T08:17:38Z</time>
      </trkpt>
      <trkpt lat="47.71567" lon="6.08018">
        <ele>283.38</ele>
        <time>2017-10-18T08:17:40Z</time>
      </trkpt>
      <trkpt lat="47.71568" lon="6.08025">
        <ele>283.18</ele>
        <time>2017-10-18T08:17:42Z</time>
      </trkpt>
      <trkpt lat="47.71571" lon="6.08031">
        <ele>282.96</ele>
        <time>2017-10-18T08:17:44Z</time>
      </trkpt>
      <trkpt lat="47.71575" lon="6.08039">
        <ele>282.63</ele>
        <time>2017-10-18T08:17:47Z</time>
      </trkpt>
      <trkpt lat="47.71578" lon="6.08045">
        <ele>282.4</ele>
        <time>2017-10-18T08:17:49Z</time>
      </trkpt>
      <trkpt lat="47.71582" lon="6.08052">
        <ele>282.17</ele>
        <time>2017-10-18T08:17:51Z</time>
      </trkpt>
      <trkpt lat="47.71585" lon="6.0806">
        <ele>281.93</ele>
        <time>2017-10-18T08:17:53Z</time>
      </trkpt>
      <trkpt lat="47.71588" lon="6.08068">
        <ele>281.69</ele>
        <time>2017-10-18T08:17:55Z</time>
      </trkpt>
      <trkpt lat="47.71593" lon="6.08075">
        <ele>281.45</ele>
        <time>2017-10-18T08:17:57Z</time>
      </trkpt>
      <trkpt lat="47.71598" lon="6.08083">
        <ele>281.21</ele>
        <time>2017-10-18T08:17:59Z</time>
      </trkpt>
      <trkpt lat="47.71603" lon="6.08092">
        <ele>280.95</ele>
        <time>2017-10-18T08:18:01Z</time>
      </trkpt>
      <trkpt lat="47.71607" lon="6.08103">
        <ele>278.95</ele>
        <time>2017-10-18T08:18:03Z</time>
      </trkpt>
      <trkpt lat="47.71612" lon="6.08113">
        <ele>277.27</ele>
        <time>2017-10-18T08:18:05Z</time>
      </trkpt>
      <trkpt lat="47.71614" lon="6.08119">
        <ele>276.64</ele>
        <time>2017-10-18T08:18:06Z</time>
      </trkpt>
      <trkpt lat="47.71616" lon="6.08125">
        <ele>276.11</ele>
        <time>2017-10-18T08:18:07Z</time>
      </trkpt>
      <trkpt lat="47.71618" lon="6.08131">
        <ele>275.66</ele>
        <time>2017-10-18T08:18:08Z</time>
      </trkpt>
      <trkpt lat="47.71623" lon="6.08142">
        <ele>274.89</ele>
        <time>2017-10-18T08:18:10Z</time>
      </trkpt>
      <trkpt lat="47.71626" lon="6.08148">
        <ele>274.56</ele>
        <time>2017-10-18T08:18:11Z</time>
      </trkpt>
      <trkpt lat="47.71629" lon="6.08155">
        <ele>274.28</ele>
        <time>2017-10-18T08:18:12Z</time>
      </trkpt>
      <trkpt lat="47.71631" lon="6.08161">
        <ele>274.06</ele>
        <time>2017-10-18T08:18:13Z</time>
      </trkpt>
      <trkpt lat="47.71634" lon="6.08167">
        <ele>273.88</ele>
        <time>2017-10-18T08:18:14Z</time>
      </trkpt>
      <trkpt lat="47.71637" lon="6.08173">
        <ele>273.72</ele>
        <time>2017-10-18T08:18:15Z</time>
      </trkpt>
      <trkpt lat="47.71639" lon="6.08179">
        <ele>273.56</ele>
        <time>2017-10-18T08:18:16Z</time>
      </trkpt>
      <trkpt lat="47.71642" lon="6.08185">
        <ele>273.41</ele>
        <time>2017-10-18T08:18:17Z</time>
      </trkpt>
      <trkpt lat="47.71645" lon="6.08191">
        <ele>273.27</ele>
        <time>2017-10-18T08:18:18Z</time>
      </trkpt>
      <trkpt lat="47.71647" lon="6.08197">
        <ele>273.15</ele>
        <time>2017-10-18T08:18:19Z</time>
      </trkpt>
      <trkpt lat="47.7165" lon="6.08203">
        <ele>273.06</ele>
        <time>2017-10-18T08:18:20Z</time>
      </trkpt>
      <trkpt lat="47.71653" lon="6.0821">
        <ele>272.98</ele>
        <time>2017-10-18T08:18:21Z</time>
      </trkpt>
      <trkpt lat="47.71656" lon="6.08215">
        <ele>272.9</ele>
        <time>2017-10-18T08:18:22Z</time>
      </trkpt>
      <trkpt lat="47.7166" lon="6.08221">
        <ele>272.8</ele>
        <time>2017-10-18T08:18:23Z</time>
      </trkpt>
      <trkpt lat="47.71663" lon="6.08227">
        <ele>272.71</ele>
        <time>2017-10-18T08:18:24Z</time>
      </trkpt>
      <trkpt lat="47.71666" lon="6.08233">
        <ele>272.6</ele>
        <time>2017-10-18T08:18:25Z</time>
      </trkpt>
      <trkpt lat="47.71669" lon="6.0824">
        <ele>272.49</ele>
        <time>2017-10-18T08:18:26Z</time>
      </trkpt>
      <trkpt lat="47.71671" lon="6.08245">
        <ele>272.38</ele>
        <time>2017-10-18T08:18:27Z</time>
      </trkpt>
      <trkpt lat="47.71675" lon="6.08251">
        <ele>272.26</ele>
        <time>2017-10-18T08:18:28Z</time>
      </trkpt>
      <trkpt lat="47.71678" lon="6.08258">
        <ele>272.15</ele>
        <time>2017-10-18T08:18:29Z</time>
      </trkpt>
      <trkpt lat="47.71681" lon="6.08264">
        <ele>272.01</ele>
        <time>2017-10-18T08:18:30Z</time>
      </trkpt>
      <trkpt lat="47.71684" lon="6.0827">
        <ele>271.87</ele>
        <time>2017-10-18T08:18:31Z</time>
      </trkpt>
      <trkpt lat="47.71688" lon="6.08277">
        <ele>271.72</ele>
        <time>2017-10-18T08:18:32Z</time>
      </trkpt>
      <trkpt lat="47.71691" lon="6.08285">
        <ele>271.56</ele>
        <time>2017-10-18T08:18:33Z</time>
      </trkpt>
      <trkpt lat="47.71694" lon="6.08293">
        <ele>271.4</ele>
        <time>2017-10-18T08:18:34Z</time>
      </trkpt>
      <trkpt lat="47.71698" lon="6.08302">
        <ele>271.22</ele>
        <time>2017-10-18T08:18:35Z</time>
      </trkpt>
      <trkpt lat="47.71701" lon="6.08311">
        <ele>271.04</ele>
        <time>2017-10-18T08:18:36Z</time>
      </trkpt>
      <trkpt lat="47.71706" lon="6.08319">
        <ele>270.86</ele>
        <time>2017-10-18T08:18:37Z</time>
      </trkpt>
      <trkpt lat="47.7171" lon="6.08328">
        <ele>270.69</ele>
        <time>2017-10-18T08:18:38Z</time>
      </trkpt>
      <trkpt lat="47.71715" lon="6.08336">
        <ele>270.54</ele>
        <time>2017-10-18T08:18:39Z</time>
      </trkpt>
      <trkpt lat="47.71719" lon="6.08344">
        <ele>270.41</ele>
        <time>2017-10-18T08:18:40Z</time>
      </trkpt>
      <trkpt lat="47.71723" lon="6.08352">
        <ele>270.28</ele>
        <time>2017-10-18T08:18:41Z</time>
      </trkpt>
      <trkpt lat="47.71727" lon="6.0836">
        <ele>270.17</ele>
        <time>2017-10-18T08:18:42Z</time>
      </trkpt>
      <trkpt lat="47.71731" lon="6.08367">
        <ele>270.06</ele>
        <time>2017-10-18T08:18:43Z</time>
      </trkpt>
      <trkpt lat="47.71735" lon="6.08374">
        <ele>269.98</ele>
        <time>2017-10-18T08:18:44Z</time>
      </trkpt>
      <trkpt lat="47.71738" lon="6.08382">
        <ele>269.91</ele>
        <time>2017-10-18T08:18:45Z</time>
      </trkpt>
      <trkpt lat="47.71741" lon="6.08389">
        <ele>269.9</ele>
        <time>2017-10-18T08:18:46Z</time>
      </trkpt>
      <trkpt lat="47.71745" lon="6.08396">
        <ele>269.91</ele>
        <time>2017-10-18T08:18:47Z</time>
      </trkpt>
      <trkpt lat="47.71748" lon="6.08403">
        <ele>269.93</ele>
        <time>2017-10-18T08:18:48Z</time>
      </trkpt>
      <trkpt lat="47.71751" lon="6.0841">
        <ele>269.94</ele>
        <time>2017-10-18T08:18:49Z</time>
      </trkpt>
      <trkpt lat="47.71754" lon="6.08417">
        <ele>269.94</ele>
        <time>2017-10-18T08:18:50Z</time>
      </trkpt>
      <trkpt lat="47.71757" lon="6.08424">
        <ele>269.93</ele>
        <time>2017-10-18T08:18:51Z</time>
      </trkpt>
      <trkpt lat="47.7176" lon="6.08431">
        <ele>269.91</ele>
        <time>2017-10-18T08:18:52Z</time>
      </trkpt>
      <trkpt lat="47.71763" lon="6.08438">
        <ele>269.89</ele>
        <time>2017-10-18T08:18:53Z</time>
      </trkpt>
      <trkpt lat="47.71766" lon="6.08443">
        <ele>269.86</ele>
        <time>2017-10-18T08:18:54Z</time>
      </trkpt>
      <trkpt lat="47.71769" lon="6.08449">
        <ele>269.83</ele>
        <time>2017-10-18T08:18:55Z</time>
      </trkpt>
      <trkpt lat="47.71772" lon="6.08454">
        <ele>269.79</ele>
        <time>2017-10-18T08:18:56Z</time>
      </trkpt>
      <trkpt lat="47.71775" lon="6.0846">
        <ele>269.77</ele>
        <time>2017-10-18T08:18:57Z</time>
      </trkpt>
      <trkpt lat="47.71777" lon="6.08466">
        <ele>269.76</ele>
        <time>2017-10-18T08:18:58Z</time>
      </trkpt>
      <trkpt lat="47.7178" lon="6.08472">
        <ele>269.76</ele>
        <time>2017-10-18T08:18:59Z</time>
      </trkpt>
      <trkpt lat="47.71785" lon="6.08482">
        <ele>269.79</ele>
        <time>2017-10-18T08:19:01Z</time>
      </trkpt>
      <trkpt lat="47.71791" lon="6.08493">
        <ele>269.81</ele>
        <time>2017-10-18T08:19:03Z</time>
      </trkpt>
      <trkpt lat="47.71796" lon="6.08503">
        <ele>269.83</ele>
        <time>2017-10-18T08:19:05Z</time>
      </trkpt>
      <trkpt lat="47.71802" lon="6.08512">
        <ele>269.8</ele>
        <time>2017-10-18T08:19:07Z</time>
      </trkpt>
      <trkpt lat="47.71808" lon="6.08522">
        <ele>269.7</ele>
        <time>2017-10-18T08:19:09Z</time>
      </trkpt>
      <trkpt lat="47.71811" lon="6.08526">
        <ele>269.64</ele>
        <time>2017-10-18T08:19:10Z</time>
      </trkpt>
      <trkpt lat="47.71815" lon="6.08531">
        <ele>269.55</ele>
        <time>2017-10-18T08:19:11Z</time>
      </trkpt>
      <trkpt lat="47.71818" lon="6.08536">
        <ele>269.46</ele>
        <time>2017-10-18T08:19:12Z</time>
      </trkpt>
      <trkpt lat="47.71821" lon="6.08542">
        <ele>269.36</ele>
        <time>2017-10-18T08:19:13Z</time>
      </trkpt>
      <trkpt lat="47.71825" lon="6.08547">
        <ele>269.24</ele>
        <time>2017-10-18T08:19:14Z</time>
      </trkpt>
      <trkpt lat="47.71828" lon="6.08552">
        <ele>269.11</ele>
        <time>2017-10-18T08:19:15Z</time>
      </trkpt>
      <trkpt lat="47.71832" lon="6.08557">
        <ele>268.97</ele>
        <time>2017-10-18T08:19:16Z</time>
      </trkpt>
      <trkpt lat="47.71836" lon="6.08562">
        <ele>268.81</ele>
        <time>2017-10-18T08:19:17Z</time>
      </trkpt>
      <trkpt lat="47.71839" lon="6.08568">
        <ele>268.64</ele>
        <time>2017-10-18T08:19:18Z</time>
      </trkpt>
      <trkpt lat="47.71842" lon="6.08574">
        <ele>268.47</ele>
        <time>2017-10-18T08:19:19Z</time>
      </trkpt>
      <trkpt lat="47.71846" lon="6.0858">
        <ele>268.3</ele>
        <time>2017-10-18T08:19:20Z</time>
      </trkpt>
      <trkpt lat="47.71849" lon="6.08587">
        <ele>268.12</ele>
        <time>2017-10-18T08:19:21Z</time>
      </trkpt>
      <trkpt lat="47.71853" lon="6.08593">
        <ele>267.92</ele>
        <time>2017-10-18T08:19:22Z</time>
      </trkpt>
      <trkpt lat="47.71857" lon="6.08599">
        <ele>267.73</ele>
        <time>2017-10-18T08:19:23Z</time>
      </trkpt>
      <trkpt lat="47.71861" lon="6.08606">
        <ele>267.56</ele>
        <time>2017-10-18T08:19:24Z</time>
      </trkpt>
      <trkpt lat="47.71865" lon="6.08613">
        <ele>267.36</ele>
        <time>2017-10-18T08:19:25Z</time>
      </trkpt>
      <trkpt lat="47.71869" lon="6.0862">
        <ele>267.16</ele>
        <time>2017-10-18T08:19:26Z</time>
      </trkpt>
      <trkpt lat="47.71873" lon="6.08628">
        <ele>266.97</ele>
        <time>2017-10-18T08:19:27Z</time>
      </trkpt>
      <trkpt lat="47.71877" lon="6.08635">
        <ele>266.79</ele>
        <time>2017-10-18T08:19:28Z</time>
      </trkpt>
      <trkpt lat="47.71881" lon="6.08643">
        <ele>266.62</ele>
        <time>2017-10-18T08:19:29Z</time>
      </trkpt>
      <trkpt lat="47.71885" lon="6.08651">
        <ele>266.44</ele>
        <time>2017-10-18T08:19:30Z</time>
      </trkpt>
      <trkpt lat="47.7189" lon="6.08659">
        <ele>266.26</ele>
        <time>2017-10-18T08:19:31Z</time>
      </trkpt>
      <trkpt lat="47.71894" lon="6.08667">
        <ele>266.09</ele>
        <time>2017-10-18T08:19:32Z</time>
      </trkpt>
      <trkpt lat="47.71898" lon="6.08675">
        <ele>265.93</ele>
        <time>2017-10-18T08:19:33Z</time>
      </trkpt>
      <trkpt lat="47.71902" lon="6.08683">
        <ele>265.78</ele>
        <time>2017-10-18T08:19:34Z</time>
      </trkpt>
      <trkpt lat="47.71906" lon="6.0869">
        <ele>265.64</ele>
        <time>2017-10-18T08:19:35Z</time>
      </trkpt>
      <trkpt lat="47.7191" lon="6.08698">
        <ele>265.5</ele>
        <time>2017-10-18T08:19:36Z</time>
      </trkpt>
      <trkpt lat="47.71914" lon="6.08705">
        <ele>265.39</ele>
        <time>2017-10-18T08:19:37Z</time>
      </trkpt>
      <trkpt lat="47.71918" lon="6.08712">
        <ele>265.27</ele>
        <time>2017-10-18T08:19:38Z</time>
      </trkpt>
      <trkpt lat="47.71922" lon="6.08719">
        <ele>265.17</ele>
        <time>2017-10-18T08:19:39Z</time>
      </trkpt>
      <trkpt lat="47.71925" lon="6.08726">
        <ele>265.08</ele>
        <time>2017-10-18T08:19:40Z</time>
      </trkpt>
      <trkpt lat="47.71928" lon="6.08733">
        <ele>264.99</ele>
        <time>2017-10-18T08:19:41Z</time>
      </trkpt>
      <trkpt lat="47.71931" lon="6.0874">
        <ele>264.91</ele>
        <time>2017-10-18T08:19:42Z</time>
      </trkpt>
      <trkpt lat="47.71934" lon="6.08746">
        <ele>264.86</ele>
        <time>2017-10-18T08:19:43Z</time>
      </trkpt>
      <trkpt lat="47.71938" lon="6.08753">
        <ele>264.83</ele>
        <time>2017-10-18T08:19:44Z</time>
      </trkpt>
      <trkpt lat="47.71941" lon="6.08759">
        <ele>264.79</ele>
        <time>2017-10-18T08:19:45Z</time>
      </trkpt>
      <trkpt lat="47.71944" lon="6.08765">
        <ele>264.77</ele>
        <time>2017-10-18T08:19:46Z</time>
      </trkpt>
      <trkpt lat="47.71947" lon="6.08771">
        <ele>264.73</ele>
        <time>2017-10-18T08:19:47Z</time>
      </trkpt>
      <trkpt lat="47.7195" lon="6.08777">
        <ele>264.7</ele>
        <time>2017-10-18T08:19:48Z</time>
      </trkpt>
      <trkpt lat="47.71953" lon="6.08783">
        <ele>264.67</ele>
        <time>2017-10-18T08:19:49Z</time>
      </trkpt>
      <trkpt lat="47.71956" lon="6.08788">
        <ele>264.64</ele>
        <time>2017-10-18T08:19:50Z</time>
      </trkpt>
      <trkpt lat="47.71959" lon="6.08794">
        <ele>264.59</ele>
        <time>2017-10-18T08:19:51Z</time>
      </trkpt>
      <trkpt lat="47.71964" lon="6.08804">
        <ele>264.53</ele>
        <time>2017-10-18T08:19:53Z</time>
      </trkpt>
      <trkpt lat="47.71969" lon="6.08814">
        <ele>264.55</ele>
        <time>2017-10-18T08:19:55Z</time>
      </trkpt>
      <trkpt lat="47.71974" lon="6.08824">
        <ele>264.62</ele>
        <time>2017-10-18T08:19:57Z</time>
      </trkpt>
      <trkpt lat="47.71978" lon="6.08833">
        <ele>264.65</ele>
        <time>2017-10-18T08:19:59Z</time>
      </trkpt>
      <trkpt lat="47.71982" lon="6.08841">
        <ele>264.67</ele>
        <time>2017-10-18T08:20:01Z</time>
      </trkpt>
      <trkpt lat="47.71986" lon="6.08849">
        <ele>264.69</ele>
        <time>2017-10-18T08:20:03Z</time>
      </trkpt>
      <trkpt lat="47.71989" lon="6.08857">
        <ele>264.73</ele>
        <time>2017-10-18T08:20:05Z</time>
      </trkpt>
      <trkpt lat="47.71994" lon="6.08864">
        <ele>264.77</ele>
        <time>2017-10-18T08:20:07Z</time>
      </trkpt>
      <trkpt lat="47.71997" lon="6.08871">
        <ele>264.83</ele>
        <time>2017-10-18T08:20:09Z</time>
      </trkpt>
      <trkpt lat="47.72001" lon="6.08878">
        <ele>264.89</ele>
        <time>2017-10-18T08:20:11Z</time>
      </trkpt>
      <trkpt lat="47.72004" lon="6.08885">
        <ele>264.95</ele>
        <time>2017-10-18T08:20:13Z</time>
      </trkpt>
      <trkpt lat="47.72008" lon="6.08892">
        <ele>265.02</ele>
        <time>2017-10-18T08:20:15Z</time>
      </trkpt>
      <trkpt lat="47.72011" lon="6.08898">
        <ele>265.09</ele>
        <time>2017-10-18T08:20:17Z</time>
      </trkpt>
      <trkpt lat="47.72015" lon="6.08904">
        <ele>265.16</ele>
        <time>2017-10-18T08:20:19Z</time>
      </trkpt>
      <trkpt lat="47.72017" lon="6.0891">
        <ele>265.23</ele>
        <time>2017-10-18T08:20:21Z</time>
      </trkpt>
      <trkpt lat="47.7202" lon="6.08917">
        <ele>265.31</ele>
        <time>2017-10-18T08:20:23Z</time>
      </trkpt>
      <trkpt lat="47.72024" lon="6.08924">
        <ele>265.39</ele>
        <time>2017-10-18T08:20:25Z</time>
      </trkpt>
      <trkpt lat="47.72027" lon="6.0893">
        <ele>265.47</ele>
        <time>2017-10-18T08:20:27Z</time>
      </trkpt>
      <trkpt lat="47.72031" lon="6.08937">
        <ele>265.56</ele>
        <time>2017-10-18T08:20:29Z</time>
      </trkpt>
      <trkpt lat="47.72034" lon="6.08943">
        <ele>265.64</ele>
        <time>2017-10-18T08:20:31Z</time>
      </trkpt>
      <trkpt lat="47.72037" lon="6.08948">
        <ele>265.74</ele>
        <time>2017-10-18T08:20:33Z</time>
      </trkpt>
      <trkpt lat="47.7204" lon="6.08954">
        <ele>265.83</ele>
        <time>2017-10-18T08:20:35Z</time>
      </trkpt>
      <trkpt lat="47.72044" lon="6.0896">
        <ele>265.92</ele>
        <time>2017-10-18T08:20:37Z</time>
      </trkpt>
      <trkpt lat="47.72048" lon="6.08966">
        <ele>266.01</ele>
        <time>2017-10-18T08:20:39Z</time>
      </trkpt>
      <trkpt lat="47.72052" lon="6.08972">
        <ele>266.09</ele>
        <time>2017-10-18T08:20:41Z</time>
      </trkpt>
      <trkpt lat="47.72056" lon="6.08978">
        <ele>266.19</ele>
        <time>2017-10-18T08:20:43Z</time>
      </trkpt>
      <trkpt lat="47.7206" lon="6.08983">
        <ele>266.28</ele>
        <time>2017-10-18T08:20:45Z</time>
      </trkpt>
      <trkpt lat="47.72064" lon="6.08988">
        <ele>266.37</ele>
        <time>2017-10-18T08:20:47Z</time>
      </trkpt>
      <trkpt lat="47.72068" lon="6.08994">
        <ele>266.47</ele>
        <time>2017-10-18T08:20:49Z</time>
      </trkpt>
      <trkpt lat="47.72072" lon="6.08999">
        <ele>266.57</ele>
        <time>2017-10-18T08:20:51Z</time>
      </trkpt>
      <trkpt lat="47.72076" lon="6.09005">
        <ele>266.66</ele>
        <time>2017-10-18T08:20:53Z</time>
      </trkpt>
      <trkpt lat="47.72081" lon="6.09011">
        <ele>266.76</ele>
        <time>2017-10-18T08:20:55Z</time>
      </trkpt>
      <trkpt lat="47.72085" lon="6.09016">
        <ele>266.84</ele>
        <time>2017-10-18T08:20:57Z</time>
      </trkpt>
      <trkpt lat="47.72089" lon="6.09023">
        <ele>266.93</ele>
        <time>2017-10-18T08:20:59Z</time>
      </trkpt>
      <trkpt lat="47.72093" lon="6.09029">
        <ele>267.01</ele>
        <time>2017-10-18T08:21:01Z</time>
      </trkpt>
      <trkpt lat="47.72098" lon="6.09036">
        <ele>267.08</ele>
        <time>2017-10-18T08:21:03Z</time>
      </trkpt>
      <trkpt lat="47.72103" lon="6.09044">
        <ele>267.15</ele>
        <time>2017-10-18T08:21:05Z</time>
      </trkpt>
      <trkpt lat="47.72107" lon="6.09052">
        <ele>267.37</ele>
        <time>2017-10-18T08:21:07Z</time>
      </trkpt>
      <trkpt lat="47.72113" lon="6.09061">
        <ele>267.63</ele>
        <time>2017-10-18T08:21:09Z</time>
      </trkpt>
      <trkpt lat="47.72118" lon="6.09071">
        <ele>267.71</ele>
        <time>2017-10-18T08:21:11Z</time>
      </trkpt>
      <trkpt lat="47.72121" lon="6.09076">
        <ele>267.69</ele>
        <time>2017-10-18T08:21:12Z</time>
      </trkpt>
      <trkpt lat="47.72124" lon="6.09082">
        <ele>267.64</ele>
        <time>2017-10-18T08:21:13Z</time>
      </trkpt>
      <trkpt lat="47.72128" lon="6.09089">
        <ele>267.56</ele>
        <time>2017-10-18T08:21:14Z</time>
      </trkpt>
      <trkpt lat="47.72131" lon="6.09096">
        <ele>267.47</ele>
        <time>2017-10-18T08:21:15Z</time>
      </trkpt>
      <trkpt lat="47.72139" lon="6.09111">
        <ele>267.26</ele>
        <time>2017-10-18T08:21:17Z</time>
      </trkpt>
      <trkpt lat="47.72143" lon="6.0912">
        <ele>267.09</ele>
        <time>2017-10-18T08:21:18Z</time>
      </trkpt>
      <trkpt lat="47.72147" lon="6.09129">
        <ele>266.92</ele>
        <time>2017-10-18T08:21:19Z</time>
      </trkpt>
      <trkpt lat="47.72152" lon="6.09138">
        <ele>266.74</ele>
        <time>2017-10-18T08:21:20Z</time>
      </trkpt>
      <trkpt lat="47.72156" lon="6.09148">
        <ele>266.52</ele>
        <time>2017-10-18T08:21:21Z</time>
      </trkpt>
      <trkpt lat="47.72161" lon="6.09158">
        <ele>266.28</ele>
        <time>2017-10-18T08:21:22Z</time>
      </trkpt>
      <trkpt lat="47.72166" lon="6.09168">
        <ele>266.03</ele>
        <time>2017-10-18T08:21:23Z</time>
      </trkpt>
      <trkpt lat="47.72172" lon="6.09178">
        <ele>265.77</ele>
        <time>2017-10-18T08:21:24Z</time>
      </trkpt>
      <trkpt lat="47.72177" lon="6.09188">
        <ele>265.47</ele>
        <time>2017-10-18T08:21:25Z</time>
      </trkpt>
      <trkpt lat="47.72182" lon="6.09198">
        <ele>265.2</ele>
        <time>2017-10-18T08:21:26Z</time>
      </trkpt>
      <trkpt lat="47.72187" lon="6.09208">
        <ele>264.94</ele>
        <time>2017-10-18T08:21:27Z</time>
      </trkpt>
      <trkpt lat="47.72191" lon="6.09217">
        <ele>264.71</ele>
        <time>2017-10-18T08:21:28Z</time>
      </trkpt>
      <trkpt lat="47.72196" lon="6.09225">
        <ele>264.51</ele>
        <time>2017-10-18T08:21:29Z</time>
      </trkpt>
      <trkpt lat="47.72199" lon="6.09232">
        <ele>264.35</ele>
        <time>2017-10-18T08:21:30Z</time>
      </trkpt>
      <trkpt lat="47.72202" lon="6.09239">
        <ele>264.21</ele>
        <time>2017-10-18T08:21:31Z</time>
      </trkpt>
      <trkpt lat="47.72205" lon="6.0925">
        <ele>263.95</ele>
        <time>2017-10-18T08:21:33Z</time>
      </trkpt>
      <trkpt lat="47.722" lon="6.09261">
        <ele>263.8</ele>
        <time>2017-10-18T08:21:35Z</time>
      </trkpt>
      <trkpt lat="47.72195" lon="6.09266">
        <ele>263.78</ele>
        <time>2017-10-18T08:21:37Z</time>
      </trkpt>
      <trkpt lat="47.7219" lon="6.09273">
        <ele>263.79</ele>
        <time>2017-10-18T08:21:39Z</time>
      </trkpt>
      <trkpt lat="47.72186" lon="6.0928">
        <ele>263.8</ele>
        <time>2017-10-18T08:21:41Z</time>
      </trkpt>
      <trkpt lat="47.72181" lon="6.09287">
        <ele>263.8</ele>
        <time>2017-10-18T08:21:43Z</time>
      </trkpt>
      <trkpt lat="47.72176" lon="6.09293">
        <ele>263.8</ele>
        <time>2017-10-18T08:21:45Z</time>
      </trkpt>
      <trkpt lat="47.72171" lon="6.093">
        <ele>263.83</ele>
        <time>2017-10-18T08:21:47Z</time>
      </trkpt>
      <trkpt lat="47.72167" lon="6.09307">
        <ele>263.87</ele>
        <time>2017-10-18T08:21:49Z</time>
      </trkpt>
      <trkpt lat="47.72162" lon="6.09314">
        <ele>263.91</ele>
        <time>2017-10-18T08:21:51Z</time>
      </trkpt>
      <trkpt lat="47.72157" lon="6.09321">
        <ele>263.93</ele>
        <time>2017-10-18T08:21:53Z</time>
      </trkpt>
      <trkpt lat="47.72153" lon="6.09328">
        <ele>263.95</ele>
        <time>2017-10-18T08:21:55Z</time>
      </trkpt>
      <trkpt lat="47.72148" lon="6.09335">
        <ele>263.96</ele>
        <time>2017-10-18T08:21:57Z</time>
      </trkpt>
      <trkpt lat="47.72143" lon="6.09342">
        <ele>263.96</ele>
        <time>2017-10-18T08:21:59Z</time>
      </trkpt>
      <trkpt lat="47.72139" lon="6.09348">
        <ele>263.97</ele>
        <time>2017-10-18T08:22:01Z</time>
      </trkpt>
      <trkpt lat="47.72135" lon="6.09354">
        <ele>263.98</ele>
        <time>2017-10-18T08:22:03Z</time>
      </trkpt>
      <trkpt lat="47.72131" lon="6.09361">
        <ele>263.98</ele>
        <time>2017-10-18T08:22:05Z</time>
      </trkpt>
      <trkpt lat="47.72126" lon="6.09367">
        <ele>264</ele>
        <time>2017-10-18T08:22:07Z</time>
      </trkpt>
      <trkpt lat="47.72122" lon="6.09373">
        <ele>264.02</ele>
        <time>2017-10-18T08:22:09Z</time>
      </trkpt>
      <trkpt lat="47.72118" lon="6.09379">
        <ele>264.03</ele>
        <time>2017-10-18T08:22:11Z</time>
      </trkpt>
      <trkpt lat="47.72114" lon="6.09385">
        <ele>264.04</ele>
        <time>2017-10-18T08:22:13Z</time>
      </trkpt>
      <trkpt lat="47.72111" lon="6.0939">
        <ele>264.05</ele>
        <time>2017-10-18T08:22:15Z</time>
      </trkpt>
      <trkpt lat="47.72107" lon="6.09396">
        <ele>264.07</ele>
        <time>2017-10-18T08:22:17Z</time>
      </trkpt>
      <trkpt lat="47.72103" lon="6.09402">
        <ele>264.08</ele>
        <time>2017-10-18T08:22:19Z</time>
      </trkpt>
      <trkpt lat="47.72099" lon="6.09408">
        <ele>264.1</ele>
        <time>2017-10-18T08:22:21Z</time>
      </trkpt>
      <trkpt lat="47.72095" lon="6.09414">
        <ele>264.11</ele>
        <time>2017-10-18T08:22:23Z</time>
      </trkpt>
      <trkpt lat="47.72091" lon="6.0942">
        <ele>264.12</ele>
        <time>2017-10-18T08:22:25Z</time>
      </trkpt>
      <trkpt lat="47.72088" lon="6.09425">
        <ele>264.13</ele>
        <time>2017-10-18T08:22:27Z</time>
      </trkpt>
      <trkpt lat="47.72084" lon="6.09432">
        <ele>264.14</ele>
        <time>2017-10-18T08:22:29Z</time>
      </trkpt>
      <trkpt lat="47.7208" lon="6.09438">
        <ele>264.14</ele>
        <time>2017-10-18T08:22:31Z</time>
      </trkpt>
      <trkpt lat="47.72076" lon="6.09445">
        <ele>264.14</ele>
        <time>2017-10-18T08:22:33Z</time>
      </trkpt>
      <trkpt lat="47.72072" lon="6.09451">
        <ele>264.14</ele>
        <time>2017-10-18T08:22:35Z</time>
      </trkpt>
      <trkpt lat="47.72067" lon="6.09458">
        <ele>264.14</ele>
        <time>2017-10-18T08:22:37Z</time>
      </trkpt>
      <trkpt lat="47.72063" lon="6.09465">
        <ele>264.14</ele>
        <time>2017-10-18T08:22:39Z</time>
      </trkpt>
      <trkpt lat="47.72059" lon="6.09471">
        <ele>264.13</ele>
        <time>2017-10-18T08:22:41Z</time>
      </trkpt>
      <trkpt lat="47.72054" lon="6.09478">
        <ele>264.13</ele>
        <time>2017-10-18T08:22:43Z</time>
      </trkpt>
      <trkpt lat="47.72049" lon="6.09485">
        <ele>264.13</ele>
        <time>2017-10-18T08:22:45Z</time>
      </trkpt>
      <trkpt lat="47.72045" lon="6.09491">
        <ele>264.13</ele>
        <time>2017-10-18T08:22:47Z</time>
      </trkpt>
      <trkpt lat="47.72041" lon="6.09497">
        <ele>264.13</ele>
        <time>2017-10-18T08:22:49Z</time>
      </trkpt>
      <trkpt lat="47.72036" lon="6.09503">
        <ele>264.13</ele>
        <time>2017-10-18T08:22:51Z</time>
      </trkpt>
      <trkpt lat="47.72032" lon="6.09509">
        <ele>264.13</ele>
        <time>2017-10-18T08:22:53Z</time>
      </trkpt>
      <trkpt lat="47.72028" lon="6.09516">
        <ele>264.13</ele>
        <time>2017-10-18T08:22:55Z</time>
      </trkpt>
      <trkpt lat="47.72023" lon="6.09524">
        <ele>264.13</ele>
        <time>2017-10-18T08:22:57Z</time>
      </trkpt>
      <trkpt lat="47.72019" lon="6.0953">
        <ele>264.13</ele>
        <time>2017-10-18T08:22:59Z</time>
      </trkpt>
      <trkpt lat="47.72014" lon="6.09537">
        <ele>264.14</ele>
        <time>2017-10-18T08:23:01Z</time>
      </trkpt>
      <trkpt lat="47.7201" lon="6.09543">
        <ele>264.14</ele>
        <time>2017-10-18T08:23:03Z</time>
      </trkpt>
      <trkpt lat="47.72006" lon="6.09549">
        <ele>264.14</ele>
        <time>2017-10-18T08:23:05Z</time>
      </trkpt>
      <trkpt lat="47.72001" lon="6.09556">
        <ele>264.14</ele>
        <time>2017-10-18T08:23:07Z</time>
      </trkpt>
      <trkpt lat="47.71997" lon="6.09562">
        <ele>264.15</ele>
        <time>2017-10-18T08:23:09Z</time>
      </trkpt>
      <trkpt lat="47.71993" lon="6.09569">
        <ele>264.15</ele>
        <time>2017-10-18T08:23:11Z</time>
      </trkpt>
      <trkpt lat="47.71989" lon="6.09575">
        <ele>264.16</ele>
        <time>2017-10-18T08:23:13Z</time>
      </trkpt>
      <trkpt lat="47.71985" lon="6.09581">
        <ele>264.17</ele>
        <time>2017-10-18T08:23:15Z</time>
      </trkpt>
      <trkpt lat="47.71981" lon="6.09587">
        <ele>264.18</ele>
        <time>2017-10-18T08:23:17Z</time>
      </trkpt>
      <trkpt lat="47.71976" lon="6.09594">
        <ele>264.19</ele>
        <time>2017-10-18T08:23:19Z</time>
      </trkpt>
      <trkpt lat="47.71973" lon="6.096">
        <ele>264.2</ele>
        <time>2017-10-18T08:23:21Z</time>
      </trkpt>
      <trkpt lat="47.71969" lon="6.09606">
        <ele>264.21</ele>
        <time>2017-10-18T08:23:23Z</time>
      </trkpt>
      <trkpt lat="47.71965" lon="6.09611">
        <ele>264.23</ele>
        <time>2017-10-18T08:23:25Z</time>
      </trkpt>
      <trkpt lat="47.71962" lon="6.09616">
        <ele>264.25</ele>
        <time>2017-10-18T08:23:27Z</time>
      </trkpt>
      <trkpt lat="47.71959" lon="6.09622">
        <ele>264.27</ele>
        <time>2017-10-18T08:23:29Z</time>
      </trkpt>
      <trkpt lat="47.71955" lon="6.09627">
        <ele>264.29</ele>
        <time>2017-10-18T08:23:31Z</time>
      </trkpt>
      <trkpt lat="47.71951" lon="6.09633">
        <ele>264.32</ele>
        <time>2017-10-18T08:23:33Z</time>
      </trkpt>
      <trkpt lat="47.71948" lon="6.09638">
        <ele>264.35</ele>
        <time>2017-10-18T08:23:35Z</time>
      </trkpt>
      <trkpt lat="47.71944" lon="6.09642">
        <ele>264.38</ele>
        <time>2017-10-18T08:23:37Z</time>
      </trkpt>
      <trkpt lat="47.7194" lon="6.09646">
        <ele>264.42</ele>
        <time>2017-10-18T08:23:39Z</time>
      </trkpt>
      <trkpt lat="47.71936" lon="6.0965">
        <ele>264.46</ele>
        <time>2017-10-18T08:23:41Z</time>
      </trkpt>
      <trkpt lat="47.71931" lon="6.09655">
        <ele>264.52</ele>
        <time>2017-10-18T08:23:44Z</time>
      </trkpt>
      <trkpt lat="47.71927" lon="6.09658">
        <ele>264.56</ele>
        <time>2017-10-18T08:23:46Z</time>
      </trkpt>
      <trkpt lat="47.71923" lon="6.09661">
        <ele>264.6</ele>
        <time>2017-10-18T08:23:48Z</time>
      </trkpt>
      <trkpt lat="47.71917" lon="6.09666">
        <ele>264.68</ele>
        <time>2017-10-18T08:23:51Z</time>
      </trkpt>
      <trkpt lat="47.71912" lon="6.09671">
        <ele>264.75</ele>
        <time>2017-10-18T08:23:54Z</time>
      </trkpt>
      <trkpt lat="47.71906" lon="6.09676">
        <ele>264.83</ele>
        <time>2017-10-18T08:23:57Z</time>
      </trkpt>
      <trkpt lat="47.71901" lon="6.09681">
        <ele>264.91</ele>
        <time>2017-10-18T08:24:00Z</time>
      </trkpt>
      <trkpt lat="47.71896" lon="6.09686">
        <ele>264.99</ele>
        <time>2017-10-18T08:24:03Z</time>
      </trkpt>
      <trkpt lat="47.71891" lon="6.09691">
        <ele>265.08</ele>
        <time>2017-10-18T08:24:06Z</time>
      </trkpt>
      <trkpt lat="47.71886" lon="6.09697">
        <ele>265.17</ele>
        <time>2017-10-18T08:24:09Z</time>
      </trkpt>
      <trkpt lat="47.71881" lon="6.09701">
        <ele>265.25</ele>
        <time>2017-10-18T08:24:12Z</time>
      </trkpt>
      <trkpt lat="47.71877" lon="6.09706">
        <ele>265.33</ele>
        <time>2017-10-18T08:24:15Z</time>
      </trkpt>
      <trkpt lat="47.71871" lon="6.0971">
        <ele>265.42</ele>
        <time>2017-10-18T08:24:18Z</time>
      </trkpt>
      <trkpt lat="47.71868" lon="6.09714">
        <ele>265.47</ele>
        <time>2017-10-18T08:24:20Z</time>
      </trkpt>
      <trkpt lat="47.71863" lon="6.0972">
        <ele>265.57</ele>
        <time>2017-10-18T08:24:23Z</time>
      </trkpt>
      <trkpt lat="47.71857" lon="6.09724">
        <ele>265.66</ele>
        <time>2017-10-18T08:24:26Z</time>
      </trkpt>
      <trkpt lat="47.71852" lon="6.09728">
        <ele>265.75</ele>
        <time>2017-10-18T08:24:29Z</time>
      </trkpt>
      <trkpt lat="47.71847" lon="6.09733">
        <ele>265.85</ele>
        <time>2017-10-18T08:24:32Z</time>
      </trkpt>
      <trkpt lat="47.71843" lon="6.09738">
        <ele>265.96</ele>
        <time>2017-10-18T08:24:35Z</time>
      </trkpt>
      <trkpt lat="47.71837" lon="6.09744">
        <ele>266.07</ele>
        <time>2017-10-18T08:24:38Z</time>
      </trkpt>
      <trkpt lat="47.71833" lon="6.09747">
        <ele>266.15</ele>
        <time>2017-10-18T08:24:40Z</time>
      </trkpt>
      <trkpt lat="47.71829" lon="6.09751">
        <ele>266.23</ele>
        <time>2017-10-18T08:24:42Z</time>
      </trkpt>
      <trkpt lat="47.71824" lon="6.09755">
        <ele>266.32</ele>
        <time>2017-10-18T08:24:44Z</time>
      </trkpt>
      <trkpt lat="47.71819" lon="6.09758">
        <ele>266.41</ele>
        <time>2017-10-18T08:24:46Z</time>
      </trkpt>
      <trkpt lat="47.71814" lon="6.09761">
        <ele>266.5</ele>
        <time>2017-10-18T08:24:48Z</time>
      </trkpt>
      <trkpt lat="47.71809" lon="6.09763">
        <ele>266.6</ele>
        <time>2017-10-18T08:24:50Z</time>
      </trkpt>
      <trkpt lat="47.71804" lon="6.09766">
        <ele>266.7</ele>
        <time>2017-10-18T08:24:52Z</time>
      </trkpt>
      <trkpt lat="47.71799" lon="6.09769">
        <ele>266.8</ele>
        <time>2017-10-18T08:24:54Z</time>
      </trkpt>
      <trkpt lat="47.71794" lon="6.09771">
        <ele>266.89</ele>
        <time>2017-10-18T08:24:56Z</time>
      </trkpt>
      <trkpt lat="47.71788" lon="6.09774">
        <ele>266.99</ele>
        <time>2017-10-18T08:24:58Z</time>
      </trkpt>
      <trkpt lat="47.71782" lon="6.09778">
        <ele>267.08</ele>
        <time>2017-10-18T08:25:00Z</time>
      </trkpt>
      <trkpt lat="47.71775" lon="6.09781">
        <ele>267.79</ele>
        <time>2017-10-18T08:25:02Z</time>
      </trkpt>
      <trkpt lat="47.71767" lon="6.09784">
        <ele>268.39</ele>
        <time>2017-10-18T08:25:04Z</time>
      </trkpt>
      <trkpt lat="47.71759" lon="6.09788">
        <ele>268.79</ele>
        <time>2017-10-18T08:25:06Z</time>
      </trkpt>
      <trkpt lat="47.7175" lon="6.09792">
        <ele>269.08</ele>
        <time>2017-10-18T08:25:08Z</time>
      </trkpt>
      <trkpt lat="47.71743" lon="6.09797">
        <ele>269.28</ele>
        <time>2017-10-18T08:25:10Z</time>
      </trkpt>
      <trkpt lat="47.71739" lon="6.098">
        <ele>269.36</ele>
        <time>2017-10-18T08:25:11Z</time>
      </trkpt>
      <trkpt lat="47.71735" lon="6.09805">
        <ele>269.43</ele>
        <time>2017-10-18T08:25:12Z</time>
      </trkpt>
      <trkpt lat="47.71732" lon="6.09816">
        <ele>269.55</ele>
        <time>2017-10-18T08:25:14Z</time>
      </trkpt>
      <trkpt lat="47.71732" lon="6.09829">
        <ele>269.62</ele>
        <time>2017-10-18T08:25:16Z</time>
      </trkpt>
      <trkpt lat="47.71732" lon="6.09839">
        <ele>269.64</ele>
        <time>2017-10-18T08:25:18Z</time>
      </trkpt>
      <trkpt lat="47.71732" lon="6.09848">
        <ele>269.65</ele>
        <time>2017-10-18T08:25:20Z</time>
      </trkpt>
      <trkpt lat="47.71732" lon="6.0986">
        <ele>269.66</ele>
        <time>2017-10-18T08:25:22Z</time>
      </trkpt>
      <trkpt lat="47.71731" lon="6.09869">
        <ele>269.67</ele>
        <time>2017-10-18T08:25:24Z</time>
      </trkpt>
      <trkpt lat="47.71729" lon="6.09879">
        <ele>269.68</ele>
        <time>2017-10-18T08:25:26Z</time>
      </trkpt>
      <trkpt lat="47.71727" lon="6.09889">
        <ele>269.69</ele>
        <time>2017-10-18T08:25:28Z</time>
      </trkpt>
      <trkpt lat="47.71725" lon="6.09898">
        <ele>269.7</ele>
        <time>2017-10-18T08:25:30Z</time>
      </trkpt>
      <trkpt lat="47.71723" lon="6.09909">
        <ele>269.71</ele>
        <time>2017-10-18T08:25:32Z</time>
      </trkpt>
      <trkpt lat="47.71723" lon="6.09918">
        <ele>269.73</ele>
        <time>2017-10-18T08:25:34Z</time>
      </trkpt>
      <trkpt lat="47.71724" lon="6.09926">
        <ele>269.74</ele>
        <time>2017-10-18T08:25:36Z</time>
      </trkpt>
      <trkpt lat="47.71726" lon="6.09934">
        <ele>269.75</ele>
        <time>2017-10-18T08:25:38Z</time>
      </trkpt>
      <trkpt lat="47.7173" lon="6.09942">
        <ele>269.76</ele>
        <time>2017-10-18T08:25:40Z</time>
      </trkpt>
      <trkpt lat="47.71733" lon="6.09951">
        <ele>269.77</ele>
        <time>2017-10-18T08:25:42Z</time>
      </trkpt>
      <trkpt lat="47.71737" lon="6.09961">
        <ele>269.84</ele>
        <time>2017-10-18T08:25:44Z</time>
      </trkpt>
      <trkpt lat="47.71741" lon="6.09972">
        <ele>269.9</ele>
        <time>2017-10-18T08:25:46Z</time>
      </trkpt>
      <trkpt lat="47.71745" lon="6.09982">
        <ele>269.91</ele>
        <time>2017-10-18T08:25:48Z</time>
      </trkpt>
      <trkpt lat="47.71749" lon="6.0999">
        <ele>269.92</ele>
        <time>2017-10-18T08:25:50Z</time>
      </trkpt>
      <trkpt lat="47.71752" lon="6.09998">
        <ele>269.92</ele>
        <time>2017-10-18T08:25:52Z</time>
      </trkpt>
      <trkpt lat="47.71755" lon="6.10005">
        <ele>269.93</ele>
        <time>2017-10-18T08:25:54Z</time>
      </trkpt>
      <trkpt lat="47.71758" lon="6.10013">
        <ele>269.94</ele>
        <time>2017-10-18T08:25:56Z</time>
      </trkpt>
      <trkpt lat="47.71761" lon="6.10021">
        <ele>269.95</ele>
        <time>2017-10-18T08:25:58Z</time>
      </trkpt>
      <trkpt lat="47.71764" lon="6.10029">
        <ele>269.96</ele>
        <time>2017-10-18T08:26:00Z</time>
      </trkpt>
      <trkpt lat="47.71767" lon="6.10036">
        <ele>269.97</ele>
        <time>2017-10-18T08:26:02Z</time>
      </trkpt>
      <trkpt lat="47.7177" lon="6.10044">
        <ele>269.98</ele>
        <time>2017-10-18T08:26:04Z</time>
      </trkpt>
      <trkpt lat="47.71773" lon="6.10051">
        <ele>269.99</ele>
        <time>2017-10-18T08:26:06Z</time>
      </trkpt>
      <trkpt lat="47.71777" lon="6.10058">
        <ele>270</ele>
        <time>2017-10-18T08:26:08Z</time>
      </trkpt>
      <trkpt lat="47.7178" lon="6.10066">
        <ele>270.02</ele>
        <time>2017-10-18T08:26:10Z</time>
      </trkpt>
      <trkpt lat="47.71783" lon="6.10072">
        <ele>270.03</ele>
        <time>2017-10-18T08:26:12Z</time>
      </trkpt>
      <trkpt lat="47.71786" lon="6.10079">
        <ele>270.05</ele>
        <time>2017-10-18T08:26:14Z</time>
      </trkpt>
      <trkpt lat="47.71789" lon="6.10086">
        <ele>270.07</ele>
        <time>2017-10-18T08:26:16Z</time>
      </trkpt>
      <trkpt lat="47.71792" lon="6.10093">
        <ele>270.1</ele>
        <time>2017-10-18T08:26:18Z</time>
      </trkpt>
      <trkpt lat="47.71795" lon="6.10099">
        <ele>270.12</ele>
        <time>2017-10-18T08:26:20Z</time>
      </trkpt>
      <trkpt lat="47.71798" lon="6.10105">
        <ele>270.15</ele>
        <time>2017-10-18T08:26:22Z</time>
      </trkpt>
      <trkpt lat="47.71801" lon="6.10113">
        <ele>270.18</ele>
        <time>2017-10-18T08:26:24Z</time>
      </trkpt>
      <trkpt lat="47.71804" lon="6.10119">
        <ele>270.21</ele>
        <time>2017-10-18T08:26:26Z</time>
      </trkpt>
      <trkpt lat="47.71807" lon="6.10125">
        <ele>270.24</ele>
        <time>2017-10-18T08:26:28Z</time>
      </trkpt>
      <trkpt lat="47.71809" lon="6.10131">
        <ele>270.27</ele>
        <time>2017-10-18T08:26:30Z</time>
      </trkpt>
      <trkpt lat="47.71812" lon="6.10138">
        <ele>270.3</ele>
        <time>2017-10-18T08:26:32Z</time>
      </trkpt>
      <trkpt lat="47.71815" lon="6.10145">
        <ele>270.34</ele>
        <time>2017-10-18T08:26:34Z</time>
      </trkpt>
      <trkpt lat="47.71818" lon="6.1015">
        <ele>270.37</ele>
        <time>2017-10-18T08:26:36Z</time>
      </trkpt>
      <trkpt lat="47.7182" lon="6.10156">
        <ele>270.41</ele>
        <time>2017-10-18T08:26:38Z</time>
      </trkpt>
      <trkpt lat="47.71823" lon="6.10162">
        <ele>270.44</ele>
        <time>2017-10-18T08:26:40Z</time>
      </trkpt>
      <trkpt lat="47.71826" lon="6.10168">
        <ele>270.48</ele>
        <time>2017-10-18T08:26:42Z</time>
      </trkpt>
      <trkpt lat="47.71829" lon="6.10177">
        <ele>270.54</ele>
        <time>2017-10-18T08:26:45Z</time>
      </trkpt>
      <trkpt lat="47.71831" lon="6.10183">
        <ele>270.58</ele>
        <time>2017-10-18T08:26:47Z</time>
      </trkpt>
      <trkpt lat="47.71834" lon="6.10191">
        <ele>270.64</ele>
        <time>2017-10-18T08:26:50Z</time>
      </trkpt>
      <trkpt lat="47.71838" lon="6.102">
        <ele>270.7</ele>
        <time>2017-10-18T08:26:53Z</time>
      </trkpt>
      <trkpt lat="47.7184" lon="6.10206">
        <ele>270.74</ele>
        <time>2017-10-18T08:26:55Z</time>
      </trkpt>
      <trkpt lat="47.71842" lon="6.10212">
        <ele>270.78</ele>
        <time>2017-10-18T08:26:57Z</time>
      </trkpt>
      <trkpt lat="47.71844" lon="6.10218">
        <ele>270.83</ele>
        <time>2017-10-18T08:26:59Z</time>
      </trkpt>
      <trkpt lat="47.71847" lon="6.10226">
        <ele>270.88</ele>
        <time>2017-10-18T08:27:01Z</time>
      </trkpt>
      <trkpt lat="47.71848" lon="6.10233">
        <ele>270.93</ele>
        <time>2017-10-18T08:27:03Z</time>
      </trkpt>
      <trkpt lat="47.7185" lon="6.10242">
        <ele>271</ele>
        <time>2017-10-18T08:27:06Z</time>
      </trkpt>
      <trkpt lat="47.71852" lon="6.10249">
        <ele>271.05</ele>
        <time>2017-10-18T08:27:08Z</time>
      </trkpt>
      <trkpt lat="47.71853" lon="6.10255">
        <ele>271.11</ele>
        <time>2017-10-18T08:27:10Z</time>
      </trkpt>
      <trkpt lat="47.71854" lon="6.10263">
        <ele>271.17</ele>
        <time>2017-10-18T08:27:12Z</time>
      </trkpt>
      <trkpt lat="47.71855" lon="6.1027">
        <ele>271.22</ele>
        <time>2017-10-18T08:27:14Z</time>
      </trkpt>
      <trkpt lat="47.71856" lon="6.10279">
        <ele>271.31</ele>
        <time>2017-10-18T08:27:17Z</time>
      </trkpt>
      <trkpt lat="47.71858" lon="6.10286">
        <ele>271.37</ele>
        <time>2017-10-18T08:27:19Z</time>
      </trkpt>
      <trkpt lat="47.7186" lon="6.10293">
        <ele>271.43</ele>
        <time>2017-10-18T08:27:21Z</time>
      </trkpt>
      <trkpt lat="47.71861" lon="6.103">
        <ele>271.5</ele>
        <time>2017-10-18T08:27:23Z</time>
      </trkpt>
      <trkpt lat="47.71863" lon="6.10309">
        <ele>271.59</ele>
        <time>2017-10-18T08:27:26Z</time>
      </trkpt>
      <trkpt lat="47.71864" lon="6.10316">
        <ele>271.66</ele>
        <time>2017-10-18T08:27:28Z</time>
      </trkpt>
      <trkpt lat="47.71865" lon="6.10322">
        <ele>271.72</ele>
        <time>2017-10-18T08:27:30Z</time>
      </trkpt>
      <trkpt lat="47.71866" lon="6.10332">
        <ele>271.82</ele>
        <time>2017-10-18T08:27:33Z</time>
      </trkpt>
      <trkpt lat="47.71867" lon="6.10339">
        <ele>271.89</ele>
        <time>2017-10-18T08:27:35Z</time>
      </trkpt>
      <trkpt lat="47.71868" lon="6.10347">
        <ele>271.96</ele>
        <time>2017-10-18T08:27:37Z</time>
      </trkpt>
      <trkpt lat="47.7187" lon="6.10356">
        <ele>272.02</ele>
        <time>2017-10-18T08:27:39Z</time>
      </trkpt>
      <trkpt lat="47.71871" lon="6.10364">
        <ele>272.09</ele>
        <time>2017-10-18T08:27:41Z</time>
      </trkpt>
      <trkpt lat="47.71872" lon="6.10372">
        <ele>272.15</ele>
        <time>2017-10-18T08:27:43Z</time>
      </trkpt>
      <trkpt lat="47.71873" lon="6.10382">
        <ele>272.21</ele>
        <time>2017-10-18T08:27:45Z</time>
      </trkpt>
      <trkpt lat="47.71874" lon="6.10392">
        <ele>272.27</ele>
        <time>2017-10-18T08:27:47Z</time>
      </trkpt>
      <trkpt lat="47.71876" lon="6.104">
        <ele>272.33</ele>
        <time>2017-10-18T08:27:49Z</time>
      </trkpt>
      <trkpt lat="47.71877" lon="6.10409">
        <ele>272.39</ele>
        <time>2017-10-18T08:27:51Z</time>
      </trkpt>
      <trkpt lat="47.71878" lon="6.10419">
        <ele>272.45</ele>
        <time>2017-10-18T08:27:53Z</time>
      </trkpt>
      <trkpt lat="47.7188" lon="6.10431">
        <ele>272.88</ele>
        <time>2017-10-18T08:27:55Z</time>
      </trkpt>
      <trkpt lat="47.71882" lon="6.10442">
        <ele>273.11</ele>
        <time>2017-10-18T08:27:57Z</time>
      </trkpt>
      <trkpt lat="47.71884" lon="6.10453">
        <ele>273.2</ele>
        <time>2017-10-18T08:27:59Z</time>
      </trkpt>
      <trkpt lat="47.71885" lon="6.10463">
        <ele>273.23</ele>
        <time>2017-10-18T08:28:01Z</time>
      </trkpt>
      <trkpt lat="47.71886" lon="6.10473">
        <ele>273.26</ele>
        <time>2017-10-18T08:28:03Z</time>
      </trkpt>
      <trkpt lat="47.71888" lon="6.10484">
        <ele>273.29</ele>
        <time>2017-10-18T08:28:05Z</time>
      </trkpt>
      <trkpt lat="47.7189" lon="6.10495">
        <ele>273.43</ele>
        <time>2017-10-18T08:28:07Z</time>
      </trkpt>
      <trkpt lat="47.71892" lon="6.10505">
        <ele>273.47</ele>
        <time>2017-10-18T08:28:09Z</time>
      </trkpt>
      <trkpt lat="47.71893" lon="6.10516">
        <ele>273.49</ele>
        <time>2017-10-18T08:28:11Z</time>
      </trkpt>
      <trkpt lat="47.71895" lon="6.10528">
        <ele>273.51</ele>
        <time>2017-10-18T08:28:13Z</time>
      </trkpt>
      <trkpt lat="47.71896" lon="6.10538">
        <ele>273.53</ele>
        <time>2017-10-18T08:28:15Z</time>
      </trkpt>
      <trkpt lat="47.71897" lon="6.10549">
        <ele>273.56</ele>
        <time>2017-10-18T08:28:17Z</time>
      </trkpt>
      <trkpt lat="47.71898" lon="6.10559">
        <ele>273.58</ele>
        <time>2017-10-18T08:28:19Z</time>
      </trkpt>
      <trkpt lat="47.71899" lon="6.10568">
        <ele>273.6</ele>
        <time>2017-10-18T08:28:21Z</time>
      </trkpt>
      <trkpt lat="47.71899" lon="6.10578">
        <ele>273.62</ele>
        <time>2017-10-18T08:28:23Z</time>
      </trkpt>
      <trkpt lat="47.71901" lon="6.10588">
        <ele>273.64</ele>
        <time>2017-10-18T08:28:25Z</time>
      </trkpt>
      <trkpt lat="47.71902" lon="6.10598">
        <ele>273.67</ele>
        <time>2017-10-18T08:28:27Z</time>
      </trkpt>
      <trkpt lat="47.71903" lon="6.10608">
        <ele>273.69</ele>
        <time>2017-10-18T08:28:29Z</time>
      </trkpt>
      <trkpt lat="47.71903" lon="6.10618">
        <ele>273.72</ele>
        <time>2017-10-18T08:28:31Z</time>
      </trkpt>
      <trkpt lat="47.71903" lon="6.10627">
        <ele>273.75</ele>
        <time>2017-10-18T08:28:33Z</time>
      </trkpt>
      <trkpt lat="47.71903" lon="6.10636">
        <ele>273.77</ele>
        <time>2017-10-18T08:28:35Z</time>
      </trkpt>
      <trkpt lat="47.71904" lon="6.10645">
        <ele>273.8</ele>
        <time>2017-10-18T08:28:37Z</time>
      </trkpt>
      <trkpt lat="47.71904" lon="6.10655">
        <ele>273.94</ele>
        <time>2017-10-18T08:28:39Z</time>
      </trkpt>
      <trkpt lat="47.71905" lon="6.10669">
        <ele>274.19</ele>
        <time>2017-10-18T08:28:41Z</time>
      </trkpt>
      <trkpt lat="47.71905" lon="6.10676">
        <ele>274.29</ele>
        <time>2017-10-18T08:28:42Z</time>
      </trkpt>
      <trkpt lat="47.71906" lon="6.10688">
        <ele>274.46</ele>
        <time>2017-10-18T08:28:44Z</time>
      </trkpt>
      <trkpt lat="47.71905" lon="6.107">
        <ele>274.51</ele>
        <time>2017-10-18T08:28:46Z</time>
      </trkpt>
      <trkpt lat="47.71906" lon="6.1071">
        <ele>274.53</ele>
        <time>2017-10-18T08:28:48Z</time>
      </trkpt>
      <trkpt lat="47.71906" lon="6.10717">
        <ele>274.55</ele>
        <time>2017-10-18T08:28:50Z</time>
      </trkpt>
      <trkpt lat="47.71906" lon="6.10724">
        <ele>274.57</ele>
        <time>2017-10-18T08:28:52Z</time>
      </trkpt>
      <trkpt lat="47.71905" lon="6.10735">
        <ele>274.6</ele>
        <time>2017-10-18T08:28:55Z</time>
      </trkpt>
      <trkpt lat="47.71906" lon="6.10743">
        <ele>274.63</ele>
        <time>2017-10-18T08:28:57Z</time>
      </trkpt>
      <trkpt lat="47.71908" lon="6.10752">
        <ele>274.67</ele>
        <time>2017-10-18T08:29:00Z</time>
      </trkpt>
      <trkpt lat="47.71908" lon="6.1076">
        <ele>274.7</ele>
        <time>2017-10-18T08:29:02Z</time>
      </trkpt>
      <trkpt lat="47.71911" lon="6.10768">
        <ele>274.73</ele>
        <time>2017-10-18T08:29:04Z</time>
      </trkpt>
      <trkpt lat="47.71914" lon="6.10775">
        <ele>274.77</ele>
        <time>2017-10-18T08:29:06Z</time>
      </trkpt>
      <trkpt lat="47.71917" lon="6.10783">
        <ele>274.8</ele>
        <time>2017-10-18T08:29:08Z</time>
      </trkpt>
      <trkpt lat="47.71919" lon="6.1079">
        <ele>274.84</ele>
        <time>2017-10-18T08:29:10Z</time>
      </trkpt>
      <trkpt lat="47.71921" lon="6.10797">
        <ele>274.88</ele>
        <time>2017-10-18T08:29:12Z</time>
      </trkpt>
      <trkpt lat="47.71923" lon="6.10804">
        <ele>274.92</ele>
        <time>2017-10-18T08:29:14Z</time>
      </trkpt>
      <trkpt lat="47.71926" lon="6.10814">
        <ele>274.99</ele>
        <time>2017-10-18T08:29:17Z</time>
      </trkpt>
      <trkpt lat="47.71928" lon="6.10823">
        <ele>275.03</ele>
        <time>2017-10-18T08:29:19Z</time>
      </trkpt>
      <trkpt lat="47.7193" lon="6.1083">
        <ele>275.08</ele>
        <time>2017-10-18T08:29:21Z</time>
      </trkpt>
      <trkpt lat="47.71932" lon="6.10838">
        <ele>275.13</ele>
        <time>2017-10-18T08:29:23Z</time>
      </trkpt>
      <trkpt lat="47.71934" lon="6.10844">
        <ele>275.18</ele>
        <time>2017-10-18T08:29:25Z</time>
      </trkpt>
      <trkpt lat="47.71936" lon="6.10852">
        <ele>275.23</ele>
        <time>2017-10-18T08:29:27Z</time>
      </trkpt>
      <trkpt lat="47.71937" lon="6.10859">
        <ele>275.28</ele>
        <time>2017-10-18T08:29:29Z</time>
      </trkpt>
      <trkpt lat="47.71939" lon="6.10866">
        <ele>275.33</ele>
        <time>2017-10-18T08:29:31Z</time>
      </trkpt>
      <trkpt lat="47.71941" lon="6.10872">
        <ele>275.39</ele>
        <time>2017-10-18T08:29:33Z</time>
      </trkpt>
      <trkpt lat="47.71943" lon="6.10881">
        <ele>275.47</ele>
        <time>2017-10-18T08:29:36Z</time>
      </trkpt>
      <trkpt lat="47.71945" lon="6.10888">
        <ele>275.53</ele>
        <time>2017-10-18T08:29:38Z</time>
      </trkpt>
      <trkpt lat="47.71947" lon="6.10897">
        <ele>275.61</ele>
        <time>2017-10-18T08:29:41Z</time>
      </trkpt>
      <trkpt lat="47.71948" lon="6.10903">
        <ele>275.67</ele>
        <time>2017-10-18T08:29:43Z</time>
      </trkpt>
      <trkpt lat="47.71951" lon="6.10912">
        <ele>275.76</ele>
        <time>2017-10-18T08:29:46Z</time>
      </trkpt>
      <trkpt lat="47.71953" lon="6.10919">
        <ele>275.82</ele>
        <time>2017-10-18T08:29:48Z</time>
      </trkpt>
      <trkpt lat="47.71954" lon="6.10926">
        <ele>275.87</ele>
        <time>2017-10-18T08:29:50Z</time>
      </trkpt>
      <trkpt lat="47.71956" lon="6.10934">
        <ele>275.97</ele>
        <time>2017-10-18T08:29:53Z</time>
      </trkpt>
      <trkpt lat="47.71958" lon="6.1094">
        <ele>276.06</ele>
        <time>2017-10-18T08:29:56Z</time>
      </trkpt>
      <trkpt lat="47.7196" lon="6.10947">
        <ele>276.48</ele>
        <time>2017-10-18T08:30:20Z</time>
      </trkpt>
      <trkpt lat="47.71962" lon="6.10954">
        <ele>276.62</ele>
        <time>2017-10-18T08:30:24Z</time>
      </trkpt>
      <trkpt lat="47.71964" lon="6.10963">
        <ele>276.73</ele>
        <time>2017-10-18T08:30:27Z</time>
      </trkpt>
      <trkpt lat="47.71966" lon="6.1097">
        <ele>276.79</ele>
        <time>2017-10-18T08:30:29Z</time>
      </trkpt>
      <trkpt lat="47.71968" lon="6.10977">
        <ele>276.86</ele>
        <time>2017-10-18T08:30:31Z</time>
      </trkpt>
      <trkpt lat="47.7197" lon="6.10985">
        <ele>276.93</ele>
        <time>2017-10-18T08:30:33Z</time>
      </trkpt>
      <trkpt lat="47.71972" lon="6.10993">
        <ele>277</ele>
        <time>2017-10-18T08:30:35Z</time>
      </trkpt>
      <trkpt lat="47.71975" lon="6.11002">
        <ele>277.07</ele>
        <time>2017-10-18T08:30:37Z</time>
      </trkpt>
      <trkpt lat="47.71977" lon="6.1101">
        <ele>277.15</ele>
        <time>2017-10-18T08:30:39Z</time>
      </trkpt>
      <trkpt lat="47.71979" lon="6.11018">
        <ele>277.23</ele>
        <time>2017-10-18T08:30:41Z</time>
      </trkpt>
      <trkpt lat="47.71981" lon="6.11026">
        <ele>277.32</ele>
        <time>2017-10-18T08:30:43Z</time>
      </trkpt>
      <trkpt lat="47.71983" lon="6.11035">
        <ele>277.41</ele>
        <time>2017-10-18T08:30:45Z</time>
      </trkpt>
      <trkpt lat="47.71984" lon="6.11045">
        <ele>277.5</ele>
        <time>2017-10-18T08:30:47Z</time>
      </trkpt>
      <trkpt lat="47.71985" lon="6.11055">
        <ele>277.59</ele>
        <time>2017-10-18T08:30:49Z</time>
      </trkpt>
      <trkpt lat="47.71987" lon="6.11064">
        <ele>277.69</ele>
        <time>2017-10-18T08:30:51Z</time>
      </trkpt>
      <trkpt lat="47.71987" lon="6.11072">
        <ele>277.79</ele>
        <time>2017-10-18T08:30:53Z</time>
      </trkpt>
      <trkpt lat="47.71988" lon="6.11081">
        <ele>277.89</ele>
        <time>2017-10-18T08:30:55Z</time>
      </trkpt>
      <trkpt lat="47.71988" lon="6.11089">
        <ele>277.99</ele>
        <time>2017-10-18T08:30:57Z</time>
      </trkpt>
      <trkpt lat="47.71989" lon="6.11098">
        <ele>278.1</ele>
        <time>2017-10-18T08:30:59Z</time>
      </trkpt>
      <trkpt lat="47.71989" lon="6.11105">
        <ele>278.21</ele>
        <time>2017-10-18T08:31:01Z</time>
      </trkpt>
      <trkpt lat="47.7199" lon="6.11112">
        <ele>278.32</ele>
        <time>2017-10-18T08:31:03Z</time>
      </trkpt>
      <trkpt lat="47.7199" lon="6.11119">
        <ele>278.43</ele>
        <time>2017-10-18T08:31:05Z</time>
      </trkpt>
      <trkpt lat="47.71991" lon="6.11127">
        <ele>278.55</ele>
        <time>2017-10-18T08:31:07Z</time>
      </trkpt>
      <trkpt lat="47.71991" lon="6.11135">
        <ele>278.67</ele>
        <time>2017-10-18T08:31:09Z</time>
      </trkpt>
      <trkpt lat="47.71991" lon="6.11142">
        <ele>278.78</ele>
        <time>2017-10-18T08:31:11Z</time>
      </trkpt>
      <trkpt lat="47.71991" lon="6.11149">
        <ele>278.9</ele>
        <time>2017-10-18T08:31:13Z</time>
      </trkpt>
      <trkpt lat="47.71991" lon="6.11157">
        <ele>279.02</ele>
        <time>2017-10-18T08:31:15Z</time>
      </trkpt>
      <trkpt lat="47.71991" lon="6.11165">
        <ele>279.13</ele>
        <time>2017-10-18T08:31:17Z</time>
      </trkpt>
      <trkpt lat="47.71991" lon="6.11172">
        <ele>279.25</ele>
        <time>2017-10-18T08:31:19Z</time>
      </trkpt>
      <trkpt lat="47.7199" lon="6.1118">
        <ele>279.36</ele>
        <time>2017-10-18T08:31:21Z</time>
      </trkpt>
      <trkpt lat="47.7199" lon="6.11187">
        <ele>279.47</ele>
        <time>2017-10-18T08:31:23Z</time>
      </trkpt>
      <trkpt lat="47.7199" lon="6.11195">
        <ele>279.58</ele>
        <time>2017-10-18T08:31:25Z</time>
      </trkpt>
      <trkpt lat="47.71989" lon="6.11204">
        <ele>279.69</ele>
        <time>2017-10-18T08:31:27Z</time>
      </trkpt>
      <trkpt lat="47.71989" lon="6.11213">
        <ele>279.8</ele>
        <time>2017-10-18T08:31:29Z</time>
      </trkpt>
      <trkpt lat="47.7199" lon="6.11222">
        <ele>279.9</ele>
        <time>2017-10-18T08:31:31Z</time>
      </trkpt>
      <trkpt lat="47.7199" lon="6.11231">
        <ele>280.01</ele>
        <time>2017-10-18T08:31:33Z</time>
      </trkpt>
      <trkpt lat="47.7199" lon="6.11238">
        <ele>280.11</ele>
        <time>2017-10-18T08:31:35Z</time>
      </trkpt>
      <trkpt lat="47.7199" lon="6.11251">
        <ele>280.25</ele>
        <time>2017-10-18T08:31:38Z</time>
      </trkpt>
      <trkpt lat="47.71991" lon="6.11259">
        <ele>280.36</ele>
        <time>2017-10-18T08:31:40Z</time>
      </trkpt>
      <trkpt lat="47.71991" lon="6.11266">
        <ele>280.46</ele>
        <time>2017-10-18T08:31:42Z</time>
      </trkpt>
      <trkpt lat="47.71991" lon="6.11275">
        <ele>280.56</ele>
        <time>2017-10-18T08:31:44Z</time>
      </trkpt>
      <trkpt lat="47.71991" lon="6.11282">
        <ele>280.66</ele>
        <time>2017-10-18T08:31:46Z</time>
      </trkpt>
      <trkpt lat="47.7199" lon="6.1129">
        <ele>280.76</ele>
        <time>2017-10-18T08:31:48Z</time>
      </trkpt>
      <trkpt lat="47.7199" lon="6.11298">
        <ele>280.86</ele>
        <time>2017-10-18T08:31:50Z</time>
      </trkpt>
      <trkpt lat="47.71989" lon="6.11306">
        <ele>280.96</ele>
        <time>2017-10-18T08:31:52Z</time>
      </trkpt>
      <trkpt lat="47.71988" lon="6.11316">
        <ele>281.37</ele>
        <time>2017-10-18T08:31:54Z</time>
      </trkpt>
      <trkpt lat="47.71988" lon="6.11323">
        <ele>281.75</ele>
        <time>2017-10-18T08:31:55Z</time>
      </trkpt>
      <trkpt lat="47.71986" lon="6.11336">
        <ele>282.38</ele>
        <time>2017-10-18T08:31:57Z</time>
      </trkpt>
      <trkpt lat="47.71986" lon="6.11342">
        <ele>282.62</ele>
        <time>2017-10-18T08:31:58Z</time>
      </trkpt>
      <trkpt lat="47.71985" lon="6.11349">
        <ele>282.82</ele>
        <time>2017-10-18T08:31:59Z</time>
      </trkpt>
      <trkpt lat="47.71985" lon="6.11356">
        <ele>282.99</ele>
        <time>2017-10-18T08:32:00Z</time>
      </trkpt>
      <trkpt lat="47.71984" lon="6.11363">
        <ele>283.13</ele>
        <time>2017-10-18T08:32:01Z</time>
      </trkpt>
      <trkpt lat="47.71983" lon="6.1137">
        <ele>283.24</ele>
        <time>2017-10-18T08:32:02Z</time>
      </trkpt>
      <trkpt lat="47.71981" lon="6.11383">
        <ele>283.42</ele>
        <time>2017-10-18T08:32:04Z</time>
      </trkpt>
      <trkpt lat="47.71981" lon="6.1139">
        <ele>283.49</ele>
        <time>2017-10-18T08:32:05Z</time>
      </trkpt>
      <trkpt lat="47.7198" lon="6.11398">
        <ele>283.54</ele>
        <time>2017-10-18T08:32:06Z</time>
      </trkpt>
      <trkpt lat="47.71979" lon="6.11406">
        <ele>283.59</ele>
        <time>2017-10-18T08:32:07Z</time>
      </trkpt>
      <trkpt lat="47.71978" lon="6.11415">
        <ele>283.64</ele>
        <time>2017-10-18T08:32:08Z</time>
      </trkpt>
      <trkpt lat="47.71978" lon="6.11425">
        <ele>283.68</ele>
        <time>2017-10-18T08:32:09Z</time>
      </trkpt>
      <trkpt lat="47.71977" lon="6.11435">
        <ele>283.72</ele>
        <time>2017-10-18T08:32:10Z</time>
      </trkpt>
      <trkpt lat="47.71976" lon="6.11445">
        <ele>283.74</ele>
        <time>2017-10-18T08:32:11Z</time>
      </trkpt>
      <trkpt lat="47.71975" lon="6.11456">
        <ele>283.77</ele>
        <time>2017-10-18T08:32:12Z</time>
      </trkpt>
      <trkpt lat="47.71974" lon="6.11467">
        <ele>283.75</ele>
        <time>2017-10-18T08:32:13Z</time>
      </trkpt>
      <trkpt lat="47.71973" lon="6.11478">
        <ele>283.72</ele>
        <time>2017-10-18T08:32:14Z</time>
      </trkpt>
      <trkpt lat="47.71972" lon="6.1149">
        <ele>283.65</ele>
        <time>2017-10-18T08:32:15Z</time>
      </trkpt>
      <trkpt lat="47.71971" lon="6.11501">
        <ele>283.58</ele>
        <time>2017-10-18T08:32:16Z</time>
      </trkpt>
      <trkpt lat="47.7197" lon="6.11513">
        <ele>283.52</ele>
        <time>2017-10-18T08:32:17Z</time>
      </trkpt>
      <trkpt lat="47.71969" lon="6.11525">
        <ele>283.49</ele>
        <time>2017-10-18T08:32:18Z</time>
      </trkpt>
      <trkpt lat="47.71968" lon="6.11537">
        <ele>283.51</ele>
        <time>2017-10-18T08:32:19Z</time>
      </trkpt>
      <trkpt lat="47.71967" lon="6.11548">
        <ele>283.56</ele>
        <time>2017-10-18T08:32:20Z</time>
      </trkpt>
      <trkpt lat="47.71965" lon="6.11558">
        <ele>283.63</ele>
        <time>2017-10-18T08:32:21Z</time>
      </trkpt>
      <trkpt lat="47.71964" lon="6.11568">
        <ele>283.71</ele>
        <time>2017-10-18T08:32:22Z</time>
      </trkpt>
      <trkpt lat="47.71963" lon="6.11578">
        <ele>283.78</ele>
        <time>2017-10-18T08:32:23Z</time>
      </trkpt>
      <trkpt lat="47.71962" lon="6.11587">
        <ele>283.86</ele>
        <time>2017-10-18T08:32:24Z</time>
      </trkpt>
      <trkpt lat="47.71961" lon="6.11594">
        <ele>283.94</ele>
        <time>2017-10-18T08:32:25Z</time>
      </trkpt>
      <trkpt lat="47.7196" lon="6.11602">
        <ele>284</ele>
        <time>2017-10-18T08:32:26Z</time>
      </trkpt>
      <trkpt lat="47.71959" lon="6.11608">
        <ele>284.05</ele>
        <time>2017-10-18T08:32:27Z</time>
      </trkpt>
      <trkpt lat="47.71958" lon="6.11615">
        <ele>284.09</ele>
        <time>2017-10-18T08:32:28Z</time>
      </trkpt>
      <trkpt lat="47.71957" lon="6.11628">
        <ele>284.13</ele>
        <time>2017-10-18T08:32:30Z</time>
      </trkpt>
      <trkpt lat="47.71955" lon="6.1164">
        <ele>284.12</ele>
        <time>2017-10-18T08:32:32Z</time>
      </trkpt>
      <trkpt lat="47.71954" lon="6.11653">
        <ele>284.11</ele>
        <time>2017-10-18T08:32:34Z</time>
      </trkpt>
      <trkpt lat="47.71953" lon="6.11665">
        <ele>284.1</ele>
        <time>2017-10-18T08:32:36Z</time>
      </trkpt>
      <trkpt lat="47.71952" lon="6.11677">
        <ele>284.07</ele>
        <time>2017-10-18T08:32:38Z</time>
      </trkpt>
      <trkpt lat="47.71951" lon="6.11688">
        <ele>283.99</ele>
        <time>2017-10-18T08:32:40Z</time>
      </trkpt>
      <trkpt lat="47.71949" lon="6.11699">
        <ele>283.91</ele>
        <time>2017-10-18T08:32:42Z</time>
      </trkpt>
      <trkpt lat="47.71948" lon="6.1171">
        <ele>283.8</ele>
        <time>2017-10-18T08:32:44Z</time>
      </trkpt>
      <trkpt lat="47.71946" lon="6.11721">
        <ele>283.72</ele>
        <time>2017-10-18T08:32:46Z</time>
      </trkpt>
      <trkpt lat="47.71945" lon="6.11733">
        <ele>283.63</ele>
        <time>2017-10-18T08:32:48Z</time>
      </trkpt>
      <trkpt lat="47.71944" lon="6.11744">
        <ele>283.52</ele>
        <time>2017-10-18T08:32:50Z</time>
      </trkpt>
      <trkpt lat="47.71942" lon="6.11756">
        <ele>283.47</ele>
        <time>2017-10-18T08:32:52Z</time>
      </trkpt>
      <trkpt lat="47.7194" lon="6.11767">
        <ele>283.46</ele>
        <time>2017-10-18T08:32:54Z</time>
      </trkpt>
      <trkpt lat="47.71938" lon="6.11779">
        <ele>283.44</ele>
        <time>2017-10-18T08:32:56Z</time>
      </trkpt>
      <trkpt lat="47.71936" lon="6.11791">
        <ele>283.44</ele>
        <time>2017-10-18T08:32:58Z</time>
      </trkpt>
      <trkpt lat="47.71934" lon="6.11804">
        <ele>283.46</ele>
        <time>2017-10-18T08:33:00Z</time>
      </trkpt>
      <trkpt lat="47.71931" lon="6.11816">
        <ele>283.53</ele>
        <time>2017-10-18T08:33:02Z</time>
      </trkpt>
      <trkpt lat="47.71929" lon="6.11829">
        <ele>283.6</ele>
        <time>2017-10-18T08:33:04Z</time>
      </trkpt>
      <trkpt lat="47.71928" lon="6.11841">
        <ele>283.63</ele>
        <time>2017-10-18T08:33:06Z</time>
      </trkpt>
      <trkpt lat="47.71925" lon="6.11853">
        <ele>283.61</ele>
        <time>2017-10-18T08:33:08Z</time>
      </trkpt>
      <trkpt lat="47.71924" lon="6.11866">
        <ele>283.56</ele>
        <time>2017-10-18T08:33:10Z</time>
      </trkpt>
      <trkpt lat="47.71922" lon="6.11878">
        <ele>283.48</ele>
        <time>2017-10-18T08:33:12Z</time>
      </trkpt>
      <trkpt lat="47.71921" lon="6.11886">
        <ele>283.44</ele>
        <time>2017-10-18T08:33:13Z</time>
      </trkpt>
      <trkpt lat="47.7192" lon="6.11894">
        <ele>283.39</ele>
        <time>2017-10-18T08:33:14Z</time>
      </trkpt>
      <trkpt lat="47.7192" lon="6.11902">
        <ele>283.34</ele>
        <time>2017-10-18T08:33:15Z</time>
      </trkpt>
      <trkpt lat="47.71919" lon="6.11909">
        <ele>283.29</ele>
        <time>2017-10-18T08:33:16Z</time>
      </trkpt>
      <trkpt lat="47.71918" lon="6.11918">
        <ele>283.26</ele>
        <time>2017-10-18T08:33:17Z</time>
      </trkpt>
      <trkpt lat="47.71917" lon="6.11926">
        <ele>283.22</ele>
        <time>2017-10-18T08:33:18Z</time>
      </trkpt>
      <trkpt lat="47.71917" lon="6.11934">
        <ele>283.2</ele>
        <time>2017-10-18T08:33:19Z</time>
      </trkpt>
      <trkpt lat="47.71916" lon="6.11943">
        <ele>283.16</ele>
        <time>2017-10-18T08:33:20Z</time>
      </trkpt>
      <trkpt lat="47.71915" lon="6.11952">
        <ele>283.12</ele>
        <time>2017-10-18T08:33:21Z</time>
      </trkpt>
      <trkpt lat="47.71914" lon="6.11961">
        <ele>283.08</ele>
        <time>2017-10-18T08:33:22Z</time>
      </trkpt>
      <trkpt lat="47.71914" lon="6.11971">
        <ele>283.03</ele>
        <time>2017-10-18T08:33:23Z</time>
      </trkpt>
      <trkpt lat="47.71913" lon="6.1198">
        <ele>282.97</ele>
        <time>2017-10-18T08:33:24Z</time>
      </trkpt>
      <trkpt lat="47.71913" lon="6.1199">
        <ele>282.91</ele>
        <time>2017-10-18T08:33:25Z</time>
      </trkpt>
      <trkpt lat="47.71912" lon="6.12">
        <ele>282.84</ele>
        <time>2017-10-18T08:33:26Z</time>
      </trkpt>
      <trkpt lat="47.71911" lon="6.12009">
        <ele>282.76</ele>
        <time>2017-10-18T08:33:27Z</time>
      </trkpt>
      <trkpt lat="47.7191" lon="6.12018">
        <ele>282.67</ele>
        <time>2017-10-18T08:33:28Z</time>
      </trkpt>
      <trkpt lat="47.71909" lon="6.12028">
        <ele>282.57</ele>
        <time>2017-10-18T08:33:29Z</time>
      </trkpt>
      <trkpt lat="47.71908" lon="6.12038">
        <ele>282.47</ele>
        <time>2017-10-18T08:33:30Z</time>
      </trkpt>
      <trkpt lat="47.71908" lon="6.12047">
        <ele>282.36</ele>
        <time>2017-10-18T08:33:31Z</time>
      </trkpt>
      <trkpt lat="47.71908" lon="6.12057">
        <ele>282.2</ele>
        <time>2017-10-18T08:33:32Z</time>
      </trkpt>
      <trkpt lat="47.71907" lon="6.12067">
        <ele>282.05</ele>
        <time>2017-10-18T08:33:33Z</time>
      </trkpt>
      <trkpt lat="47.71907" lon="6.12077">
        <ele>281.87</ele>
        <time>2017-10-18T08:33:34Z</time>
      </trkpt>
      <trkpt lat="47.71905" lon="6.12086">
        <ele>281.7</ele>
        <time>2017-10-18T08:33:35Z</time>
      </trkpt>
      <trkpt lat="47.71905" lon="6.12095">
        <ele>281.55</ele>
        <time>2017-10-18T08:33:36Z</time>
      </trkpt>
      <trkpt lat="47.71905" lon="6.12105">
        <ele>281.41</ele>
        <time>2017-10-18T08:33:37Z</time>
      </trkpt>
      <trkpt lat="47.71904" lon="6.12112">
        <ele>281.28</ele>
        <time>2017-10-18T08:33:38Z</time>
      </trkpt>
      <trkpt lat="47.71905" lon="6.12119">
        <ele>281.13</ele>
        <time>2017-10-18T08:33:39Z</time>
      </trkpt>
      <trkpt lat="47.71905" lon="6.12127">
        <ele>281.03</ele>
        <time>2017-10-18T08:33:40Z</time>
      </trkpt>
      <trkpt lat="47.71908" lon="6.12138">
        <ele>280.71</ele>
        <time>2017-10-18T08:33:42Z</time>
      </trkpt>
      <trkpt lat="47.71913" lon="6.1215">
        <ele>280.54</ele>
        <time>2017-10-18T08:33:44Z</time>
      </trkpt>
      <trkpt lat="47.71918" lon="6.1216">
        <ele>280.32</ele>
        <time>2017-10-18T08:33:46Z</time>
      </trkpt>
      <trkpt lat="47.71923" lon="6.1217">
        <ele>280.12</ele>
        <time>2017-10-18T08:33:48Z</time>
      </trkpt>
      <trkpt lat="47.71926" lon="6.12176">
        <ele>280.04</ele>
        <time>2017-10-18T08:33:49Z</time>
      </trkpt>
      <trkpt lat="47.71929" lon="6.12181">
        <ele>280.01</ele>
        <time>2017-10-18T08:33:50Z</time>
      </trkpt>
      <trkpt lat="47.71932" lon="6.12187">
        <ele>280.13</ele>
        <time>2017-10-18T08:33:51Z</time>
      </trkpt>
      <trkpt lat="47.71934" lon="6.12192">
        <ele>280.26</ele>
        <time>2017-10-18T08:33:52Z</time>
      </trkpt>
      <trkpt lat="47.71939" lon="6.12203">
        <ele>280.5</ele>
        <time>2017-10-18T08:33:54Z</time>
      </trkpt>
      <trkpt lat="47.71941" lon="6.12209">
        <ele>280.52</ele>
        <time>2017-10-18T08:33:55Z</time>
      </trkpt>
      <trkpt lat="47.71944" lon="6.12221">
        <ele>280.57</ele>
        <time>2017-10-18T08:33:57Z</time>
      </trkpt>
      <trkpt lat="47.71945" lon="6.12234">
        <ele>280.83</ele>
        <time>2017-10-18T08:33:59Z</time>
      </trkpt>
      <trkpt lat="47.71947" lon="6.12245">
        <ele>280.97</ele>
        <time>2017-10-18T08:34:01Z</time>
      </trkpt>
      <trkpt lat="47.71948" lon="6.12257">
        <ele>280.99</ele>
        <time>2017-10-18T08:34:03Z</time>
      </trkpt>
      <trkpt lat="47.71951" lon="6.12268">
        <ele>280.89</ele>
        <time>2017-10-18T08:34:05Z</time>
      </trkpt>
      <trkpt lat="47.71954" lon="6.12279">
        <ele>280.74</ele>
        <time>2017-10-18T08:34:07Z</time>
      </trkpt>
      <trkpt lat="47.71958" lon="6.12289">
        <ele>280.6</ele>
        <time>2017-10-18T08:34:09Z</time>
      </trkpt>
      <trkpt lat="47.71962" lon="6.12296">
        <ele>280.55</ele>
        <time>2017-10-18T08:34:11Z</time>
      </trkpt>
      <trkpt lat="47.71967" lon="6.12302">
        <ele>280.51</ele>
        <time>2017-10-18T08:34:13Z</time>
      </trkpt>
      <trkpt lat="47.71972" lon="6.12307">
        <ele>280.46</ele>
        <time>2017-10-18T08:34:15Z</time>
      </trkpt>
      <trkpt lat="47.71977" lon="6.12312">
        <ele>280.4</ele>
        <time>2017-10-18T08:34:17Z</time>
      </trkpt>
      <trkpt lat="47.71983" lon="6.12318">
        <ele>280.36</ele>
        <time>2017-10-18T08:34:19Z</time>
      </trkpt>
      <trkpt lat="47.71988" lon="6.12322">
        <ele>280.31</ele>
        <time>2017-10-18T08:34:21Z</time>
      </trkpt>
      <trkpt lat="47.71991" lon="6.12327">
        <ele>280.26</ele>
        <time>2017-10-18T08:34:23Z</time>
      </trkpt>
      <trkpt lat="47.71995" lon="6.12333">
        <ele>280.2</ele>
        <time>2017-10-18T08:34:25Z</time>
      </trkpt>
      <trkpt lat="47.72" lon="6.12341">
        <ele>280.15</ele>
        <time>2017-10-18T08:34:27Z</time>
      </trkpt>
      <trkpt lat="47.72004" lon="6.12348">
        <ele>280.1</ele>
        <time>2017-10-18T08:34:29Z</time>
      </trkpt>
      <trkpt lat="47.72007" lon="6.12356">
        <ele>280.06</ele>
        <time>2017-10-18T08:34:31Z</time>
      </trkpt>
      <trkpt lat="47.72009" lon="6.12364">
        <ele>280.01</ele>
        <time>2017-10-18T08:34:33Z</time>
      </trkpt>
      <trkpt lat="47.72011" lon="6.12372">
        <ele>279.97</ele>
        <time>2017-10-18T08:34:35Z</time>
      </trkpt>
      <trkpt lat="47.72013" lon="6.12379">
        <ele>279.91</ele>
        <time>2017-10-18T08:34:37Z</time>
      </trkpt>
      <trkpt lat="47.72015" lon="6.12387">
        <ele>279.85</ele>
        <time>2017-10-18T08:34:39Z</time>
      </trkpt>
      <trkpt lat="47.72017" lon="6.12393">
        <ele>279.79</ele>
        <time>2017-10-18T08:34:41Z</time>
      </trkpt>
      <trkpt lat="47.72021" lon="6.12399">
        <ele>279.74</ele>
        <time>2017-10-18T08:34:43Z</time>
      </trkpt>
      <trkpt lat="47.72024" lon="6.12405">
        <ele>279.7</ele>
        <time>2017-10-18T08:34:45Z</time>
      </trkpt>
      <trkpt lat="47.72028" lon="6.12412">
        <ele>279.68</ele>
        <time>2017-10-18T08:34:47Z</time>
      </trkpt>
      <trkpt lat="47.72032" lon="6.12417">
        <ele>279.68</ele>
        <time>2017-10-18T08:34:49Z</time>
      </trkpt>
      <trkpt lat="47.72037" lon="6.12422">
        <ele>279.69</ele>
        <time>2017-10-18T08:34:51Z</time>
      </trkpt>
      <trkpt lat="47.72041" lon="6.12427">
        <ele>279.73</ele>
        <time>2017-10-18T08:34:53Z</time>
      </trkpt>
      <trkpt lat="47.72044" lon="6.12432">
        <ele>279.77</ele>
        <time>2017-10-18T08:34:55Z</time>
      </trkpt>
      <trkpt lat="47.72048" lon="6.12437">
        <ele>279.82</ele>
        <time>2017-10-18T08:34:57Z</time>
      </trkpt>
      <trkpt lat="47.72054" lon="6.12442">
        <ele>279.92</ele>
        <time>2017-10-18T08:34:59Z</time>
      </trkpt>
      <trkpt lat="47.72059" lon="6.12446">
        <ele>280.05</ele>
        <time>2017-10-18T08:35:01Z</time>
      </trkpt>
      <trkpt lat="47.72064" lon="6.1245">
        <ele>280.18</ele>
        <time>2017-10-18T08:35:03Z</time>
      </trkpt>
      <trkpt lat="47.7207" lon="6.12454">
        <ele>280.38</ele>
        <time>2017-10-18T08:35:06Z</time>
      </trkpt>
      <trkpt lat="47.72075" lon="6.12457">
        <ele>280.51</ele>
        <time>2017-10-18T08:35:08Z</time>
      </trkpt>
      <trkpt lat="47.72081" lon="6.1246">
        <ele>280.69</ele>
        <time>2017-10-18T08:35:11Z</time>
      </trkpt>
      <trkpt lat="47.72086" lon="6.12464">
        <ele>280.87</ele>
        <time>2017-10-18T08:35:14Z</time>
      </trkpt>
      <trkpt lat="47.72091" lon="6.12467">
        <ele>280.99</ele>
        <time>2017-10-18T08:35:16Z</time>
      </trkpt>
      <trkpt lat="47.72096" lon="6.12469">
        <ele>281.12</ele>
        <time>2017-10-18T08:35:18Z</time>
      </trkpt>
      <trkpt lat="47.72102" lon="6.12472">
        <ele>281.25</ele>
        <time>2017-10-18T08:35:20Z</time>
      </trkpt>
      <trkpt lat="47.72107" lon="6.12474">
        <ele>281.38</ele>
        <time>2017-10-18T08:35:22Z</time>
      </trkpt>
      <trkpt lat="47.72112" lon="6.12478">
        <ele>281.59</ele>
        <time>2017-10-18T08:35:25Z</time>
      </trkpt>
      <trkpt lat="47.72117" lon="6.12479">
        <ele>281.79</ele>
        <time>2017-10-18T08:35:28Z</time>
      </trkpt>
      <trkpt lat="47.72122" lon="6.12481">
        <ele>281.91</ele>
        <time>2017-10-18T08:35:30Z</time>
      </trkpt>
      <trkpt lat="47.72127" lon="6.12484">
        <ele>282.04</ele>
        <time>2017-10-18T08:35:32Z</time>
      </trkpt>
      <trkpt lat="47.72131" lon="6.12487">
        <ele>282.16</ele>
        <time>2017-10-18T08:35:34Z</time>
      </trkpt>
      <trkpt lat="47.72136" lon="6.1249">
        <ele>282.27</ele>
        <time>2017-10-18T08:35:36Z</time>
      </trkpt>
      <trkpt lat="47.72141" lon="6.12492">
        <ele>282.37</ele>
        <time>2017-10-18T08:35:38Z</time>
      </trkpt>
      <trkpt lat="47.72147" lon="6.12495">
        <ele>282.46</ele>
        <time>2017-10-18T08:35:40Z</time>
      </trkpt>
      <trkpt lat="47.72152" lon="6.12498">
        <ele>282.56</ele>
        <time>2017-10-18T08:35:42Z</time>
      </trkpt>
      <trkpt lat="47.72157" lon="6.125">
        <ele>282.65</ele>
        <time>2017-10-18T08:35:44Z</time>
      </trkpt>
      <trkpt lat="47.72161" lon="6.12503">
        <ele>282.74</ele>
        <time>2017-10-18T08:35:46Z</time>
      </trkpt>
      <trkpt lat="47.72166" lon="6.12505">
        <ele>282.84</ele>
        <time>2017-10-18T08:35:48Z</time>
      </trkpt>
      <trkpt lat="47.7217" lon="6.12508">
        <ele>282.92</ele>
        <time>2017-10-18T08:35:50Z</time>
      </trkpt>
      <trkpt lat="47.72174" lon="6.12512">
        <ele>283.01</ele>
        <time>2017-10-18T08:35:52Z</time>
      </trkpt>
      <trkpt lat="47.72179" lon="6.12515">
        <ele>283.09</ele>
        <time>2017-10-18T08:35:54Z</time>
      </trkpt>
      <trkpt lat="47.72184" lon="6.12518">
        <ele>283.18</ele>
        <time>2017-10-18T08:35:56Z</time>
      </trkpt>
      <trkpt lat="47.72189" lon="6.12522">
        <ele>283.27</ele>
        <time>2017-10-18T08:35:58Z</time>
      </trkpt>
      <trkpt lat="47.72195" lon="6.12525">
        <ele>283.36</ele>
        <time>2017-10-18T08:36:00Z</time>
      </trkpt>
      <trkpt lat="47.72201" lon="6.12528">
        <ele>283.46</ele>
        <time>2017-10-18T08:36:02Z</time>
      </trkpt>
      <trkpt lat="47.72207" lon="6.12531">
        <ele>283.56</ele>
        <time>2017-10-18T08:36:04Z</time>
      </trkpt>
      <trkpt lat="47.72212" lon="6.12535">
        <ele>283.66</ele>
        <time>2017-10-18T08:36:06Z</time>
      </trkpt>
      <trkpt lat="47.72217" lon="6.12537">
        <ele>283.76</ele>
        <time>2017-10-18T08:36:08Z</time>
      </trkpt>
      <trkpt lat="47.72221" lon="6.1254">
        <ele>283.86</ele>
        <time>2017-10-18T08:36:10Z</time>
      </trkpt>
      <trkpt lat="47.72227" lon="6.12542">
        <ele>283.94</ele>
        <time>2017-10-18T08:36:12Z</time>
      </trkpt>
      <trkpt lat="47.72232" lon="6.12546">
        <ele>284.03</ele>
        <time>2017-10-18T08:36:14Z</time>
      </trkpt>
      <trkpt lat="47.72238" lon="6.12549">
        <ele>284.11</ele>
        <time>2017-10-18T08:36:16Z</time>
      </trkpt>
      <trkpt lat="47.72243" lon="6.12552">
        <ele>284.19</ele>
        <time>2017-10-18T08:36:18Z</time>
      </trkpt>
      <trkpt lat="47.72248" lon="6.12555">
        <ele>284.26</ele>
        <time>2017-10-18T08:36:20Z</time>
      </trkpt>
      <trkpt lat="47.72253" lon="6.12558">
        <ele>284.34</ele>
        <time>2017-10-18T08:36:22Z</time>
      </trkpt>
      <trkpt lat="47.72259" lon="6.12562">
        <ele>284.42</ele>
        <time>2017-10-18T08:36:24Z</time>
      </trkpt>
      <trkpt lat="47.72264" lon="6.12565">
        <ele>284.49</ele>
        <time>2017-10-18T08:36:26Z</time>
      </trkpt>
      <trkpt lat="47.7227" lon="6.12568">
        <ele>284.56</ele>
        <time>2017-10-18T08:36:28Z</time>
      </trkpt>
      <trkpt lat="47.72275" lon="6.12572">
        <ele>284.63</ele>
        <time>2017-10-18T08:36:30Z</time>
      </trkpt>
      <trkpt lat="47.72281" lon="6.12576">
        <ele>284.69</ele>
        <time>2017-10-18T08:36:32Z</time>
      </trkpt>
      <trkpt lat="47.72286" lon="6.12578">
        <ele>284.75</ele>
        <time>2017-10-18T08:36:34Z</time>
      </trkpt>
      <trkpt lat="47.7229" lon="6.12582">
        <ele>284.81</ele>
        <time>2017-10-18T08:36:36Z</time>
      </trkpt>
      <trkpt lat="47.72296" lon="6.12585">
        <ele>284.87</ele>
        <time>2017-10-18T08:36:38Z</time>
      </trkpt>
      <trkpt lat="47.72301" lon="6.12589">
        <ele>284.93</ele>
        <time>2017-10-18T08:36:40Z</time>
      </trkpt>
      <trkpt lat="47.72307" lon="6.12591">
        <ele>284.98</ele>
        <time>2017-10-18T08:36:42Z</time>
      </trkpt>
      <trkpt lat="47.72312" lon="6.12594">
        <ele>285.03</ele>
        <time>2017-10-18T08:36:44Z</time>
      </trkpt>
      <trkpt lat="47.72318" lon="6.12597">
        <ele>285.08</ele>
        <time>2017-10-18T08:36:46Z</time>
      </trkpt>
      <trkpt lat="47.72324" lon="6.12601">
        <ele>285.12</ele>
        <time>2017-10-18T08:36:48Z</time>
      </trkpt>
      <trkpt lat="47.72329" lon="6.12603">
        <ele>285.17</ele>
        <time>2017-10-18T08:36:50Z</time>
      </trkpt>
      <trkpt lat="47.72335" lon="6.12607">
        <ele>285.21</ele>
        <time>2017-10-18T08:36:52Z</time>
      </trkpt>
      <trkpt lat="47.72339" lon="6.12609">
        <ele>285.25</ele>
        <time>2017-10-18T08:36:54Z</time>
      </trkpt>
      <trkpt lat="47.72344" lon="6.12611">
        <ele>285.29</ele>
        <time>2017-10-18T08:36:56Z</time>
      </trkpt>
      <trkpt lat="47.72349" lon="6.12614">
        <ele>285.34</ele>
        <time>2017-10-18T08:36:58Z</time>
      </trkpt>
      <trkpt lat="47.72354" lon="6.12616">
        <ele>285.38</ele>
        <time>2017-10-18T08:37:00Z</time>
      </trkpt>
      <trkpt lat="47.72359" lon="6.12617">
        <ele>285.42</ele>
        <time>2017-10-18T08:37:02Z</time>
      </trkpt>
      <trkpt lat="47.72364" lon="6.12619">
        <ele>285.46</ele>
        <time>2017-10-18T08:37:04Z</time>
      </trkpt>
      <trkpt lat="47.7237" lon="6.1262">
        <ele>285.51</ele>
        <time>2017-10-18T08:37:06Z</time>
      </trkpt>
      <trkpt lat="47.72376" lon="6.12621">
        <ele>285.56</ele>
        <time>2017-10-18T08:37:08Z</time>
      </trkpt>
      <trkpt lat="47.72381" lon="6.12623">
        <ele>285.61</ele>
        <time>2017-10-18T08:37:10Z</time>
      </trkpt>
      <trkpt lat="47.72386" lon="6.12624">
        <ele>285.66</ele>
        <time>2017-10-18T08:37:12Z</time>
      </trkpt>
      <trkpt lat="47.72392" lon="6.12626">
        <ele>285.71</ele>
        <time>2017-10-18T08:37:14Z</time>
      </trkpt>
      <trkpt lat="47.72397" lon="6.12627">
        <ele>285.76</ele>
        <time>2017-10-18T08:37:16Z</time>
      </trkpt>
      <trkpt lat="47.72403" lon="6.12627">
        <ele>285.81</ele>
        <time>2017-10-18T08:37:18Z</time>
      </trkpt>
      <trkpt lat="47.72409" lon="6.12628">
        <ele>285.86</ele>
        <time>2017-10-18T08:37:20Z</time>
      </trkpt>
      <trkpt lat="47.72416" lon="6.1263">
        <ele>285.92</ele>
        <time>2017-10-18T08:37:23Z</time>
      </trkpt>
      <trkpt lat="47.72421" lon="6.12631">
        <ele>285.97</ele>
        <time>2017-10-18T08:37:25Z</time>
      </trkpt>
      <trkpt lat="47.72426" lon="6.12632">
        <ele>286.01</ele>
        <time>2017-10-18T08:37:27Z</time>
      </trkpt>
      <trkpt lat="47.72432" lon="6.12632">
        <ele>286.05</ele>
        <time>2017-10-18T08:37:29Z</time>
      </trkpt>
      <trkpt lat="47.72437" lon="6.12633">
        <ele>286.1</ele>
        <time>2017-10-18T08:37:31Z</time>
      </trkpt>
      <trkpt lat="47.72443" lon="6.12634">
        <ele>286.14</ele>
        <time>2017-10-18T08:37:33Z</time>
      </trkpt>
      <trkpt lat="47.72447" lon="6.12634">
        <ele>286.18</ele>
        <time>2017-10-18T08:37:35Z</time>
      </trkpt>
      <trkpt lat="47.72453" lon="6.12635">
        <ele>286.23</ele>
        <time>2017-10-18T08:37:37Z</time>
      </trkpt>
      <trkpt lat="47.72458" lon="6.12634">
        <ele>286.28</ele>
        <time>2017-10-18T08:37:38Z</time>
      </trkpt>
      <trkpt lat="47.72463" lon="6.12634">
        <ele>286.33</ele>
        <time>2017-10-18T08:37:40Z</time>
      </trkpt>
      <trkpt lat="47.72468" lon="6.12635">
        <ele>286.38</ele>
        <time>2017-10-18T08:37:42Z</time>
      </trkpt>
      <trkpt lat="47.72473" lon="6.12635">
        <ele>286.43</ele>
        <time>2017-10-18T08:37:44Z</time>
      </trkpt>
      <trkpt lat="47.7248" lon="6.12636">
        <ele>286.51</ele>
        <time>2017-10-18T08:37:47Z</time>
      </trkpt>
      <trkpt lat="47.72485" lon="6.12637">
        <ele>286.56</ele>
        <time>2017-10-18T08:37:49Z</time>
      </trkpt>
      <trkpt lat="47.72491" lon="6.12635">
        <ele>286.63</ele>
        <time>2017-10-18T08:37:52Z</time>
      </trkpt>
      <trkpt lat="47.72496" lon="6.12635">
        <ele>286.68</ele>
        <time>2017-10-18T08:37:54Z</time>
      </trkpt>
      <trkpt lat="47.72502" lon="6.12638">
        <ele>286.74</ele>
        <time>2017-10-18T08:37:56Z</time>
      </trkpt>
      <trkpt lat="47.72506" lon="6.12639">
        <ele>286.79</ele>
        <time>2017-10-18T08:37:58Z</time>
      </trkpt>
      <trkpt lat="47.72511" lon="6.12641">
        <ele>286.85</ele>
        <time>2017-10-18T08:38:00Z</time>
      </trkpt>
      <trkpt lat="47.72516" lon="6.12643">
        <ele>286.9</ele>
        <time>2017-10-18T08:38:02Z</time>
      </trkpt>
      <trkpt lat="47.72522" lon="6.12645">
        <ele>286.98</ele>
        <time>2017-10-18T08:38:05Z</time>
      </trkpt>
      <trkpt lat="47.72528" lon="6.12648">
        <ele>287.05</ele>
        <time>2017-10-18T08:38:08Z</time>
      </trkpt>
      <trkpt lat="47.72534" lon="6.12652">
        <ele>287.12</ele>
        <time>2017-10-18T08:38:11Z</time>
      </trkpt>
      <trkpt lat="47.7254" lon="6.12655">
        <ele>287.18</ele>
        <time>2017-10-18T08:38:14Z</time>
      </trkpt>
      <trkpt lat="47.72547" lon="6.12659">
        <ele>287.25</ele>
        <time>2017-10-18T08:38:17Z</time>
      </trkpt>
      <trkpt lat="47.72552" lon="6.12662">
        <ele>287.32</ele>
        <time>2017-10-18T08:38:20Z</time>
      </trkpt>
      <trkpt lat="47.72559" lon="6.12665">
        <ele>287.39</ele>
        <time>2017-10-18T08:38:23Z</time>
      </trkpt>
      <trkpt lat="47.72563" lon="6.12668">
        <ele>287.44</ele>
        <time>2017-10-18T08:38:25Z</time>
      </trkpt>
      <trkpt lat="47.72567" lon="6.1267">
        <ele>287.49</ele>
        <time>2017-10-18T08:38:27Z</time>
      </trkpt>
      <trkpt lat="47.72573" lon="6.12675">
        <ele>287.57</ele>
        <time>2017-10-18T08:38:30Z</time>
      </trkpt>
      <trkpt lat="47.72577" lon="6.12678">
        <ele>287.62</ele>
        <time>2017-10-18T08:38:32Z</time>
      </trkpt>
      <trkpt lat="47.72582" lon="6.12681">
        <ele>287.66</ele>
        <time>2017-10-18T08:38:34Z</time>
      </trkpt>
      <trkpt lat="47.72586" lon="6.12683">
        <ele>287.71</ele>
        <time>2017-10-18T08:38:36Z</time>
      </trkpt>
      <trkpt lat="47.72591" lon="6.12688">
        <ele>287.78</ele>
        <time>2017-10-18T08:38:39Z</time>
      </trkpt>
      <trkpt lat="47.72596" lon="6.12692">
        <ele>287.87</ele>
        <time>2017-10-18T08:38:42Z</time>
      </trkpt>
      <trkpt lat="47.72602" lon="6.12696">
        <ele>287.95</ele>
        <time>2017-10-18T08:38:45Z</time>
      </trkpt>
      <trkpt lat="47.72608" lon="6.127">
        <ele>288.04</ele>
        <time>2017-10-18T08:38:48Z</time>
      </trkpt>
      <trkpt lat="47.72612" lon="6.12704">
        <ele>288.11</ele>
        <time>2017-10-18T08:38:50Z</time>
      </trkpt>
      <trkpt lat="47.72616" lon="6.12706">
        <ele>288.17</ele>
        <time>2017-10-18T08:38:52Z</time>
      </trkpt>
      <trkpt lat="47.72622" lon="6.1271">
        <ele>288.27</ele>
        <time>2017-10-18T08:38:55Z</time>
      </trkpt>
      <trkpt lat="47.72628" lon="6.12715">
        <ele>288.37</ele>
        <time>2017-10-18T08:38:58Z</time>
      </trkpt>
      <trkpt lat="47.72634" lon="6.1272">
        <ele>288.47</ele>
        <time>2017-10-18T08:39:01Z</time>
      </trkpt>
      <trkpt lat="47.7264" lon="6.12725">
        <ele>288.54</ele>
        <time>2017-10-18T08:39:03Z</time>
      </trkpt>
      <trkpt lat="47.72645" lon="6.12731">
        <ele>288.62</ele>
        <time>2017-10-18T08:39:05Z</time>
      </trkpt>
      <trkpt lat="47.72651" lon="6.12737">
        <ele>288.71</ele>
        <time>2017-10-18T08:39:07Z</time>
      </trkpt>
      <trkpt lat="47.72655" lon="6.12742">
        <ele>288.8</ele>
        <time>2017-10-18T08:39:09Z</time>
      </trkpt>
      <trkpt lat="47.72661" lon="6.12748">
        <ele>288.89</ele>
        <time>2017-10-18T08:39:11Z</time>
      </trkpt>
      <trkpt lat="47.72666" lon="6.12754">
        <ele>288.99</ele>
        <time>2017-10-18T08:39:13Z</time>
      </trkpt>
      <trkpt lat="47.72671" lon="6.12758">
        <ele>289.1</ele>
        <time>2017-10-18T08:39:15Z</time>
      </trkpt>
      <trkpt lat="47.72677" lon="6.12762">
        <ele>289.2</ele>
        <time>2017-10-18T08:39:17Z</time>
      </trkpt>
      <trkpt lat="47.72682" lon="6.12766">
        <ele>289.31</ele>
        <time>2017-10-18T08:39:19Z</time>
      </trkpt>
      <trkpt lat="47.72687" lon="6.12771">
        <ele>290.14</ele>
        <time>2017-10-18T08:39:21Z</time>
      </trkpt>
      <trkpt lat="47.72694" lon="6.12776">
        <ele>290.36</ele>
        <time>2017-10-18T08:39:23Z</time>
      </trkpt>
      <trkpt lat="47.72699" lon="6.12781">
        <ele>290.45</ele>
        <time>2017-10-18T08:39:25Z</time>
      </trkpt>
      <trkpt lat="47.72704" lon="6.12785">
        <ele>290.53</ele>
        <time>2017-10-18T08:39:27Z</time>
      </trkpt>
      <trkpt lat="47.72709" lon="6.12788">
        <ele>290.61</ele>
        <time>2017-10-18T08:39:29Z</time>
      </trkpt>
      <trkpt lat="47.72715" lon="6.12793">
        <ele>290.68</ele>
        <time>2017-10-18T08:39:31Z</time>
      </trkpt>
      <trkpt lat="47.72722" lon="6.12796">
        <ele>290.76</ele>
        <time>2017-10-18T08:39:33Z</time>
      </trkpt>
      <trkpt lat="47.72728" lon="6.12799">
        <ele>291.07</ele>
        <time>2017-10-18T08:39:35Z</time>
      </trkpt>
      <trkpt lat="47.72735" lon="6.12803">
        <ele>291.23</ele>
        <time>2017-10-18T08:39:37Z</time>
      </trkpt>
      <trkpt lat="47.72741" lon="6.12807">
        <ele>291.3</ele>
        <time>2017-10-18T08:39:39Z</time>
      </trkpt>
      <trkpt lat="47.72747" lon="6.1281">
        <ele>291.36</ele>
        <time>2017-10-18T08:39:41Z</time>
      </trkpt>
      <trkpt lat="47.72753" lon="6.12813">
        <ele>291.43</ele>
        <time>2017-10-18T08:39:43Z</time>
      </trkpt>
      <trkpt lat="47.72759" lon="6.12815">
        <ele>291.49</ele>
        <time>2017-10-18T08:39:45Z</time>
      </trkpt>
      <trkpt lat="47.72764" lon="6.12818">
        <ele>291.55</ele>
        <time>2017-10-18T08:39:47Z</time>
      </trkpt>
      <trkpt lat="47.72768" lon="6.12821">
        <ele>291.62</ele>
        <time>2017-10-18T08:39:49Z</time>
      </trkpt>
      <trkpt lat="47.72775" lon="6.12825">
        <ele>291.72</ele>
        <time>2017-10-18T08:39:52Z</time>
      </trkpt>
      <trkpt lat="47.72779" lon="6.12829">
        <ele>291.78</ele>
        <time>2017-10-18T08:39:54Z</time>
      </trkpt>
      <trkpt lat="47.72784" lon="6.12832">
        <ele>291.85</ele>
        <time>2017-10-18T08:39:56Z</time>
      </trkpt>
      <trkpt lat="47.7279" lon="6.12833">
        <ele>291.92</ele>
        <time>2017-10-18T08:39:58Z</time>
      </trkpt>
      <trkpt lat="47.72795" lon="6.12835">
        <ele>291.99</ele>
        <time>2017-10-18T08:40:00Z</time>
      </trkpt>
      <trkpt lat="47.728" lon="6.12837">
        <ele>292.06</ele>
        <time>2017-10-18T08:40:02Z</time>
      </trkpt>
      <trkpt lat="47.72805" lon="6.12839">
        <ele>292.14</ele>
        <time>2017-10-18T08:40:04Z</time>
      </trkpt>
      <trkpt lat="47.7281" lon="6.12842">
        <ele>292.22</ele>
        <time>2017-10-18T08:40:06Z</time>
      </trkpt>
      <trkpt lat="47.72814" lon="6.12844">
        <ele>292.3</ele>
        <time>2017-10-18T08:40:08Z</time>
      </trkpt>
      <trkpt lat="47.72819" lon="6.12845">
        <ele>292.39</ele>
        <time>2017-10-18T08:40:10Z</time>
      </trkpt>
      <trkpt lat="47.72824" lon="6.12847">
        <ele>292.48</ele>
        <time>2017-10-18T08:40:12Z</time>
      </trkpt>
      <trkpt lat="47.7283" lon="6.1285">
        <ele>292.62</ele>
        <time>2017-10-18T08:40:15Z</time>
      </trkpt>
      <trkpt lat="47.72835" lon="6.12852">
        <ele>292.72</ele>
        <time>2017-10-18T08:40:17Z</time>
      </trkpt>
      <trkpt lat="47.7284" lon="6.12854">
        <ele>292.82</ele>
        <time>2017-10-18T08:40:19Z</time>
      </trkpt>
      <trkpt lat="47.72845" lon="6.12856">
        <ele>292.92</ele>
        <time>2017-10-18T08:40:21Z</time>
      </trkpt>
      <trkpt lat="47.7285" lon="6.12857">
        <ele>293.03</ele>
        <time>2017-10-18T08:40:23Z</time>
      </trkpt>
      <trkpt lat="47.72855" lon="6.12859">
        <ele>293.13</ele>
        <time>2017-10-18T08:40:25Z</time>
      </trkpt>
      <trkpt lat="47.7286" lon="6.12862">
        <ele>293.24</ele>
        <time>2017-10-18T08:40:27Z</time>
      </trkpt>
      <trkpt lat="47.72864" lon="6.12863">
        <ele>293.35</ele>
        <time>2017-10-18T08:40:29Z</time>
      </trkpt>
      <trkpt lat="47.7287" lon="6.12866">
        <ele>293.52</ele>
        <time>2017-10-18T08:40:32Z</time>
      </trkpt>
      <trkpt lat="47.72876" lon="6.1287">
        <ele>293.69</ele>
        <time>2017-10-18T08:40:35Z</time>
      </trkpt>
      <trkpt lat="47.7288" lon="6.12872">
        <ele>293.81</ele>
        <time>2017-10-18T08:40:37Z</time>
      </trkpt>
      <trkpt lat="47.72885" lon="6.12872">
        <ele>293.93</ele>
        <time>2017-10-18T08:40:39Z</time>
      </trkpt>
      <trkpt lat="47.7289" lon="6.12873">
        <ele>294.05</ele>
        <time>2017-10-18T08:40:41Z</time>
      </trkpt>
      <trkpt lat="47.72895" lon="6.12875">
        <ele>294.17</ele>
        <time>2017-10-18T08:40:43Z</time>
      </trkpt>
      <trkpt lat="47.729" lon="6.12877">
        <ele>294.29</ele>
        <time>2017-10-18T08:40:45Z</time>
      </trkpt>
      <trkpt lat="47.72905" lon="6.12878">
        <ele>294.41</ele>
        <time>2017-10-18T08:40:47Z</time>
      </trkpt>
      <trkpt lat="47.7291" lon="6.1288">
        <ele>294.52</ele>
        <time>2017-10-18T08:40:49Z</time>
      </trkpt>
      <trkpt lat="47.72914" lon="6.12881">
        <ele>294.64</ele>
        <time>2017-10-18T08:40:51Z</time>
      </trkpt>
      <trkpt lat="47.72921" lon="6.12881">
        <ele>294.81</ele>
        <time>2017-10-18T08:40:54Z</time>
      </trkpt>
      <trkpt lat="47.72927" lon="6.12883">
        <ele>294.98</ele>
        <time>2017-10-18T08:40:57Z</time>
      </trkpt>
      <trkpt lat="47.72933" lon="6.12885">
        <ele>295.15</ele>
        <time>2017-10-18T08:41:00Z</time>
      </trkpt>
      <trkpt lat="47.72937" lon="6.12885">
        <ele>295.26</ele>
        <time>2017-10-18T08:41:02Z</time>
      </trkpt>
      <trkpt lat="47.72942" lon="6.12886">
        <ele>295.42</ele>
        <time>2017-10-18T08:41:05Z</time>
      </trkpt>
      <trkpt lat="47.72948" lon="6.12888">
        <ele>295.58</ele>
        <time>2017-10-18T08:41:08Z</time>
      </trkpt>
      <trkpt lat="47.72953" lon="6.12887">
        <ele>295.69</ele>
        <time>2017-10-18T08:41:10Z</time>
      </trkpt>
      <trkpt lat="47.72958" lon="6.12886">
        <ele>295.79</ele>
        <time>2017-10-18T08:41:12Z</time>
      </trkpt>
      <trkpt lat="47.72964" lon="6.12885">
        <ele>295.94</ele>
        <time>2017-10-18T08:41:15Z</time>
      </trkpt>
      <trkpt lat="47.72971" lon="6.12885">
        <ele>296.1</ele>
        <time>2017-10-18T08:41:18Z</time>
      </trkpt>
      <trkpt lat="47.72979" lon="6.12887">
        <ele>296.21</ele>
        <time>2017-10-18T08:41:20Z</time>
      </trkpt>
      <trkpt lat="47.72983" lon="6.12887">
        <ele>296.33</ele>
        <time>2017-10-18T08:41:22Z</time>
      </trkpt>
      <trkpt lat="47.72988" lon="6.12889">
        <ele>296.76</ele>
        <time>2017-10-18T08:41:46Z</time>
      </trkpt>
      <trkpt lat="47.72989" lon="6.12882">
        <ele>297.59</ele>
        <time>2017-10-18T08:42:14Z</time>
      </trkpt>
      <trkpt lat="47.72987" lon="6.12876">
        <ele>298.88</ele>
        <time>2017-10-18T08:44:02Z</time>
      </trkpt>
      <trkpt lat="47.72992" lon="6.12879">
        <ele>301.53</ele>
        <time>2017-10-18T08:48:17Z</time>
      </trkpt>
      <trkpt lat="47.72996" lon="6.12884">
        <ele>302.39</ele>
        <time>2017-10-18T08:48:55Z</time>
      </trkpt>
      <trkpt lat="47.73001" lon="6.12887">
        <ele>302.55</ele>
        <time>2017-10-18T08:48:58Z</time>
      </trkpt>
      <trkpt lat="47.73006" lon="6.12887">
        <ele>302.75</ele>
        <time>2017-10-18T08:49:02Z</time>
      </trkpt>
      <trkpt lat="47.73012" lon="6.12885">
        <ele>302.94</ele>
        <time>2017-10-18T08:49:06Z</time>
      </trkpt>
      <trkpt lat="47.73017" lon="6.12884">
        <ele>303.17</ele>
        <time>2017-10-18T08:49:11Z</time>
      </trkpt>
      <trkpt lat="47.73024" lon="6.12883">
        <ele>303.34</ele>
        <time>2017-10-18T08:49:15Z</time>
      </trkpt>
      <trkpt lat="47.73029" lon="6.12883">
        <ele>303.45</ele>
        <time>2017-10-18T08:49:18Z</time>
      </trkpt>
      <trkpt lat="47.73035" lon="6.12881">
        <ele>303.53</ele>
        <time>2017-10-18T08:49:20Z</time>
      </trkpt>
      <trkpt lat="47.7304" lon="6.12878">
        <ele>303.64</ele>
        <time>2017-10-18T08:49:23Z</time>
      </trkpt>
      <trkpt lat="47.73046" lon="6.12879">
        <ele>303.73</ele>
        <time>2017-10-18T08:49:26Z</time>
      </trkpt>
      <trkpt lat="47.73051" lon="6.12879">
        <ele>303.79</ele>
        <time>2017-10-18T08:49:28Z</time>
      </trkpt>
      <trkpt lat="47.73058" lon="6.1288">
        <ele>303.87</ele>
        <time>2017-10-18T08:49:31Z</time>
      </trkpt>
      <trkpt lat="47.73063" lon="6.1288">
        <ele>303.92</ele>
        <time>2017-10-18T08:49:33Z</time>
      </trkpt>
      <trkpt lat="47.73073" lon="6.12878">
        <ele>303.99</ele>
        <time>2017-10-18T08:49:36Z</time>
      </trkpt>
      <trkpt lat="47.73078" lon="6.12875">
        <ele>304.07</ele>
        <time>2017-10-18T08:49:40Z</time>
      </trkpt>
      <trkpt lat="47.73083" lon="6.12875">
        <ele>304.12</ele>
        <time>2017-10-18T08:49:43Z</time>
      </trkpt>
      <trkpt lat="47.73088" lon="6.12873">
        <ele>304.17</ele>
        <time>2017-10-18T08:49:46Z</time>
      </trkpt>
      <trkpt lat="47.73093" lon="6.12872">
        <ele>304.2</ele>
        <time>2017-10-18T08:49:49Z</time>
      </trkpt>
      <trkpt lat="47.73098" lon="6.12869">
        <ele>304.21</ele>
        <time>2017-10-18T08:49:53Z</time>
      </trkpt>
      <trkpt lat="47.73106" lon="6.12868">
        <ele>304.21</ele>
        <time>2017-10-18T08:49:56Z</time>
      </trkpt>
      <trkpt lat="47.73111" lon="6.1287">
        <ele>304.2</ele>
        <time>2017-10-18T08:49:59Z</time>
      </trkpt>
      <trkpt lat="47.73117" lon="6.12869">
        <ele>304.19</ele>
        <time>2017-10-18T08:50:01Z</time>
      </trkpt>
      <trkpt lat="47.73123" lon="6.12868">
        <ele>304.17</ele>
        <time>2017-10-18T08:50:04Z</time>
      </trkpt>
      <trkpt lat="47.73128" lon="6.12866">
        <ele>304.16</ele>
        <time>2017-10-18T08:50:08Z</time>
      </trkpt>
      <trkpt lat="47.73134" lon="6.12864">
        <ele>304.14</ele>
        <time>2017-10-18T08:50:12Z</time>
      </trkpt>
      <trkpt lat="47.7314" lon="6.12865">
        <ele>304.12</ele>
        <time>2017-10-18T08:50:14Z</time>
      </trkpt>
      <trkpt lat="47.73147" lon="6.12865">
        <ele>304.08</ele>
        <time>2017-10-18T08:50:16Z</time>
      </trkpt>
      <trkpt lat="47.73152" lon="6.12865">
        <ele>304.04</ele>
        <time>2017-10-18T08:50:18Z</time>
      </trkpt>
      <trkpt lat="47.73158" lon="6.12863">
        <ele>304</ele>
        <time>2017-10-18T08:50:20Z</time>
      </trkpt>
      <trkpt lat="47.73163" lon="6.12862">
        <ele>303.94</ele>
        <time>2017-10-18T08:50:22Z</time>
      </trkpt>
      <trkpt lat="47.7317" lon="6.12861">
        <ele>303.84</ele>
        <time>2017-10-18T08:50:25Z</time>
      </trkpt>
      <trkpt lat="47.73175" lon="6.12858">
        <ele>303.71</ele>
        <time>2017-10-18T08:50:28Z</time>
      </trkpt>
      <trkpt lat="47.7318" lon="6.12858">
        <ele>303.62</ele>
        <time>2017-10-18T08:50:30Z</time>
      </trkpt>
      <trkpt lat="47.73184" lon="6.12859">
        <ele>303.53</ele>
        <time>2017-10-18T08:50:32Z</time>
      </trkpt>
      <trkpt lat="47.73189" lon="6.1286">
        <ele>303.44</ele>
        <time>2017-10-18T08:50:34Z</time>
      </trkpt>
      <trkpt lat="47.73195" lon="6.12858">
        <ele>303.33</ele>
        <time>2017-10-18T08:50:37Z</time>
      </trkpt>
      <trkpt lat="47.73201" lon="6.12859">
        <ele>303.21</ele>
        <time>2017-10-18T08:50:40Z</time>
      </trkpt>
      <trkpt lat="47.73206" lon="6.12859">
        <ele>303.08</ele>
        <time>2017-10-18T08:50:43Z</time>
      </trkpt>
      <trkpt lat="47.73212" lon="6.12859">
        <ele>302.93</ele>
        <time>2017-10-18T08:50:46Z</time>
      </trkpt>
      <trkpt lat="47.73217" lon="6.1286">
        <ele>302.72</ele>
        <time>2017-10-18T08:50:49Z</time>
      </trkpt>
      <trkpt lat="47.73223" lon="6.12862">
        <ele>302.48</ele>
        <time>2017-10-18T08:50:52Z</time>
      </trkpt>
      <trkpt lat="47.73227" lon="6.1286">
        <ele>302.32</ele>
        <time>2017-10-18T08:50:54Z</time>
      </trkpt>
      <trkpt lat="47.73233" lon="6.1286">
        <ele>302.11</ele>
        <time>2017-10-18T08:50:57Z</time>
      </trkpt>
      <trkpt lat="47.7324" lon="6.12859">
        <ele>301.94</ele>
        <time>2017-10-18T08:51:00Z</time>
      </trkpt>
      <trkpt lat="47.73245" lon="6.12859">
        <ele>301.85</ele>
        <time>2017-10-18T08:51:02Z</time>
      </trkpt>
      <trkpt lat="47.7325" lon="6.12858">
        <ele>301.75</ele>
        <time>2017-10-18T08:51:04Z</time>
      </trkpt>
      <trkpt lat="47.73255" lon="6.12859">
        <ele>301.67</ele>
        <time>2017-10-18T08:51:07Z</time>
      </trkpt>
      <trkpt lat="47.73261" lon="6.12859">
        <ele>301.7</ele>
        <time>2017-10-18T08:51:10Z</time>
      </trkpt>
      <trkpt lat="47.73267" lon="6.12859">
        <ele>301.83</ele>
        <time>2017-10-18T08:51:14Z</time>
      </trkpt>
      <trkpt lat="47.73272" lon="6.12859">
        <ele>301.95</ele>
        <time>2017-10-18T08:51:17Z</time>
      </trkpt>
      <trkpt lat="47.73278" lon="6.12859">
        <ele>302.08</ele>
        <time>2017-10-18T08:51:19Z</time>
      </trkpt>
      <trkpt lat="47.73285" lon="6.12859">
        <ele>302.26</ele>
        <time>2017-10-18T08:51:21Z</time>
      </trkpt>
      <trkpt lat="47.73291" lon="6.1286">
        <ele>302.48</ele>
        <time>2017-10-18T08:51:23Z</time>
      </trkpt>
      <trkpt lat="47.73297" lon="6.12861">
        <ele>302.86</ele>
        <time>2017-10-18T08:51:26Z</time>
      </trkpt>
      <trkpt lat="47.73304" lon="6.12861">
        <ele>303.36</ele>
        <time>2017-10-18T08:51:29Z</time>
      </trkpt>
      <trkpt lat="47.73309" lon="6.12855">
        <ele>303.78</ele>
        <time>2017-10-18T08:51:31Z</time>
      </trkpt>
      <trkpt lat="47.73315" lon="6.12851">
        <ele>304.49</ele>
        <time>2017-10-18T08:51:34Z</time>
      </trkpt>
      <trkpt lat="47.73319" lon="6.12848">
        <ele>305.1</ele>
        <time>2017-10-18T08:51:36Z</time>
      </trkpt>
      <trkpt lat="47.73322" lon="6.12843">
        <ele>306.14</ele>
        <time>2017-10-18T08:51:39Z</time>
      </trkpt>
      <trkpt lat="47.73326" lon="6.12835">
        <ele>307.32</ele>
        <time>2017-10-18T08:51:42Z</time>
      </trkpt>
      <trkpt lat="47.73327" lon="6.12828">
        <ele>308.11</ele>
        <time>2017-10-18T08:51:44Z</time>
      </trkpt>
      <trkpt lat="47.73328" lon="6.12821">
        <ele>308.89</ele>
        <time>2017-10-18T08:51:46Z</time>
      </trkpt>
      <trkpt lat="47.73332" lon="6.12815">
        <ele>310.05</ele>
        <time>2017-10-18T08:51:49Z</time>
      </trkpt>
      <trkpt lat="47.73335" lon="6.12808">
        <ele>311.54</ele>
        <time>2017-10-18T08:51:53Z</time>
      </trkpt>
      <trkpt lat="47.73337" lon="6.12802">
        <ele>312.95</ele>
        <time>2017-10-18T08:51:57Z</time>
      </trkpt>
      <trkpt lat="47.73339" lon="6.12795">
        <ele>314.29</ele>
        <time>2017-10-18T08:52:01Z</time>
      </trkpt>
      <trkpt lat="47.73339" lon="6.12788">
        <ele>314.93</ele>
        <time>2017-10-18T08:52:03Z</time>
      </trkpt>
      <trkpt lat="47.73338" lon="6.1278">
        <ele>315.85</ele>
        <time>2017-10-18T08:52:06Z</time>
      </trkpt>
      <trkpt lat="47.7334" lon="6.12773">
        <ele>316.44</ele>
        <time>2017-10-18T08:52:08Z</time>
      </trkpt>
      <trkpt lat="47.73344" lon="6.12766">
        <ele>317.31</ele>
        <time>2017-10-18T08:52:11Z</time>
      </trkpt>
      <trkpt lat="47.73346" lon="6.12758">
        <ele>318.38</ele>
        <time>2017-10-18T08:52:15Z</time>
      </trkpt>
      <trkpt lat="47.73347" lon="6.1275">
        <ele>319.1</ele>
        <time>2017-10-18T08:52:18Z</time>
      </trkpt>
      <trkpt lat="47.73348" lon="6.12742">
        <ele>319.55</ele>
        <time>2017-10-18T08:52:20Z</time>
      </trkpt>
      <trkpt lat="47.73348" lon="6.12734">
        <ele>319.98</ele>
        <time>2017-10-18T08:52:22Z</time>
      </trkpt>
      <trkpt lat="47.73347" lon="6.12727">
        <ele>320.4</ele>
        <time>2017-10-18T08:52:24Z</time>
      </trkpt>
      <trkpt lat="47.73347" lon="6.12717">
        <ele>320.99</ele>
        <time>2017-10-18T08:52:27Z</time>
      </trkpt>
      <trkpt lat="47.73347" lon="6.12707">
        <ele>321.54</ele>
        <time>2017-10-18T08:52:30Z</time>
      </trkpt>
      <trkpt lat="47.73345" lon="6.12699">
        <ele>321.9</ele>
        <time>2017-10-18T08:52:32Z</time>
      </trkpt>
      <trkpt lat="47.73345" lon="6.12689">
        <ele>322.25</ele>
        <time>2017-10-18T08:52:34Z</time>
      </trkpt>
      <trkpt lat="47.73344" lon="6.12678">
        <ele>322.6</ele>
        <time>2017-10-18T08:52:36Z</time>
      </trkpt>
      <trkpt lat="47.73344" lon="6.12669">
        <ele>322.94</ele>
        <time>2017-10-18T08:52:38Z</time>
      </trkpt>
      <trkpt lat="47.73343" lon="6.12658">
        <ele>323.27</ele>
        <time>2017-10-18T08:52:40Z</time>
      </trkpt>
      <trkpt lat="47.73343" lon="6.12647">
        <ele>323.57</ele>
        <time>2017-10-18T08:52:42Z</time>
      </trkpt>
      <trkpt lat="47.73342" lon="6.12634">
        <ele>323.82</ele>
        <time>2017-10-18T08:52:44Z</time>
      </trkpt>
      <trkpt lat="47.73344" lon="6.12624">
        <ele>324.02</ele>
        <time>2017-10-18T08:52:46Z</time>
      </trkpt>
      <trkpt lat="47.73347" lon="6.12614">
        <ele>324.19</ele>
        <time>2017-10-18T08:52:48Z</time>
      </trkpt>
      <trkpt lat="47.73343" lon="6.12604">
        <ele>324.35</ele>
        <time>2017-10-18T08:52:50Z</time>
      </trkpt>
      <trkpt lat="47.73345" lon="6.12597">
        <ele>324.5</ele>
        <time>2017-10-18T08:52:52Z</time>
      </trkpt>
      <trkpt lat="47.73347" lon="6.12589">
        <ele>324.64</ele>
        <time>2017-10-18T08:52:54Z</time>
      </trkpt>
      <trkpt lat="47.73348" lon="6.12581">
        <ele>324.77</ele>
        <time>2017-10-18T08:52:56Z</time>
      </trkpt>
      <trkpt lat="47.73348" lon="6.12573">
        <ele>324.9</ele>
        <time>2017-10-18T08:52:58Z</time>
      </trkpt>
      <trkpt lat="47.73346" lon="6.12566">
        <ele>324.97</ele>
        <time>2017-10-18T08:52:59Z</time>
      </trkpt>
      <trkpt lat="47.73345" lon="6.12558">
        <ele>325.04</ele>
        <time>2017-10-18T08:53:00Z</time>
      </trkpt>
      <trkpt lat="47.73345" lon="6.12551">
        <ele>325.11</ele>
        <time>2017-10-18T08:53:01Z</time>
      </trkpt>
      <trkpt lat="47.73344" lon="6.12543">
        <ele>325.18</ele>
        <time>2017-10-18T08:53:02Z</time>
      </trkpt>
      <trkpt lat="47.73344" lon="6.12536">
        <ele>325.25</ele>
        <time>2017-10-18T08:53:03Z</time>
      </trkpt>
      <trkpt lat="47.73344" lon="6.12529">
        <ele>325.33</ele>
        <time>2017-10-18T08:53:04Z</time>
      </trkpt>
      <trkpt lat="47.73344" lon="6.12517">
        <ele>325.5</ele>
        <time>2017-10-18T08:53:06Z</time>
      </trkpt>
      <trkpt lat="47.73346" lon="6.12506">
        <ele>325.69</ele>
        <time>2017-10-18T08:53:08Z</time>
      </trkpt>
      <trkpt lat="47.73348" lon="6.12495">
        <ele>325.88</ele>
        <time>2017-10-18T08:53:10Z</time>
      </trkpt>
      <trkpt lat="47.7335" lon="6.12486">
        <ele>326.07</ele>
        <time>2017-10-18T08:53:12Z</time>
      </trkpt>
      <trkpt lat="47.73349" lon="6.12477">
        <ele>326.24</ele>
        <time>2017-10-18T08:53:14Z</time>
      </trkpt>
      <trkpt lat="47.73351" lon="6.12469">
        <ele>326.4</ele>
        <time>2017-10-18T08:53:16Z</time>
      </trkpt>
      <trkpt lat="47.73352" lon="6.12461">
        <ele>326.54</ele>
        <time>2017-10-18T08:53:18Z</time>
      </trkpt>
      <trkpt lat="47.73355" lon="6.12455">
        <ele>326.67</ele>
        <time>2017-10-18T08:53:20Z</time>
      </trkpt>
      <trkpt lat="47.73359" lon="6.12448">
        <ele>326.8</ele>
        <time>2017-10-18T08:53:22Z</time>
      </trkpt>
      <trkpt lat="47.73363" lon="6.1244">
        <ele>326.93</ele>
        <time>2017-10-18T08:53:24Z</time>
      </trkpt>
      <trkpt lat="47.73367" lon="6.12434">
        <ele>327.17</ele>
        <time>2017-10-18T08:53:27Z</time>
      </trkpt>
      <trkpt lat="47.73371" lon="6.1243">
        <ele>327.44</ele>
        <time>2017-10-18T08:53:30Z</time>
      </trkpt>
      <trkpt lat="47.73376" lon="6.12424">
        <ele>327.74</ele>
        <time>2017-10-18T08:53:33Z</time>
      </trkpt>
      <trkpt lat="47.7338" lon="6.12419">
        <ele>327.96</ele>
        <time>2017-10-18T08:53:35Z</time>
      </trkpt>
      <trkpt lat="47.7338" lon="6.12411">
        <ele>328.2</ele>
        <time>2017-10-18T08:53:37Z</time>
      </trkpt>
      <trkpt lat="47.73381" lon="6.12403">
        <ele>328.5</ele>
        <time>2017-10-18T08:53:39Z</time>
      </trkpt>
      <trkpt lat="47.73386" lon="6.12396">
        <ele>328.85</ele>
        <time>2017-10-18T08:53:41Z</time>
      </trkpt>
      <trkpt lat="47.73391" lon="6.12388">
        <ele>329.4</ele>
        <time>2017-10-18T08:53:44Z</time>
      </trkpt>
      <trkpt lat="47.73396" lon="6.1238">
        <ele>329.96</ele>
        <time>2017-10-18T08:53:47Z</time>
      </trkpt>
      <trkpt lat="47.73401" lon="6.12373">
        <ele>330.32</ele>
        <time>2017-10-18T08:53:49Z</time>
      </trkpt>
      <trkpt lat="47.73406" lon="6.12369">
        <ele>330.67</ele>
        <time>2017-10-18T08:53:51Z</time>
      </trkpt>
      <trkpt lat="47.73412" lon="6.12365">
        <ele>331.01</ele>
        <time>2017-10-18T08:53:53Z</time>
      </trkpt>
      <trkpt lat="47.73417" lon="6.12361">
        <ele>331.33</ele>
        <time>2017-10-18T08:53:55Z</time>
      </trkpt>
      <trkpt lat="47.73423" lon="6.12358">
        <ele>331.63</ele>
        <time>2017-10-18T08:53:57Z</time>
      </trkpt>
      <trkpt lat="47.73428" lon="6.12354">
        <ele>331.91</ele>
        <time>2017-10-18T08:53:59Z</time>
      </trkpt>
      <trkpt lat="47.73433" lon="6.1235">
        <ele>332.18</ele>
        <time>2017-10-18T08:54:01Z</time>
      </trkpt>
      <trkpt lat="47.73438" lon="6.12348">
        <ele>332.32</ele>
        <time>2017-10-18T08:54:02Z</time>
      </trkpt>
      <trkpt lat="47.73442" lon="6.12345">
        <ele>332.45</ele>
        <time>2017-10-18T08:54:03Z</time>
      </trkpt>
      <trkpt lat="47.73448" lon="6.12336">
        <ele>332.71</ele>
        <time>2017-10-18T08:54:05Z</time>
      </trkpt>
      <trkpt lat="47.73452" lon="6.12331">
        <ele>333.59</ele>
        <time>2017-10-18T08:54:06Z</time>
      </trkpt>
      <trkpt lat="47.73456" lon="6.12326">
        <ele>333.92</ele>
        <time>2017-10-18T08:54:07Z</time>
      </trkpt>
      <trkpt lat="47.73459" lon="6.12318">
        <ele>334.67</ele>
        <time>2017-10-18T08:54:08Z</time>
      </trkpt>
      <trkpt lat="47.73462" lon="6.12311">
        <ele>335.41</ele>
        <time>2017-10-18T08:54:09Z</time>
      </trkpt>
      <trkpt lat="47.73465" lon="6.12305">
        <ele>335.67</ele>
        <time>2017-10-18T08:54:10Z</time>
      </trkpt>
      <trkpt lat="47.73467" lon="6.12299">
        <ele>335.79</ele>
        <time>2017-10-18T08:54:11Z</time>
      </trkpt>
      <trkpt lat="47.73471" lon="6.1229">
        <ele>335.91</ele>
        <time>2017-10-18T08:54:13Z</time>
      </trkpt>
      <trkpt lat="47.73475" lon="6.12283">
        <ele>335.98</ele>
        <time>2017-10-18T08:54:15Z</time>
      </trkpt>
      <trkpt lat="47.7348" lon="6.12276">
        <ele>336.05</ele>
        <time>2017-10-18T08:54:17Z</time>
      </trkpt>
      <trkpt lat="47.73487" lon="6.12266">
        <ele>336.11</ele>
        <time>2017-10-18T08:54:19Z</time>
      </trkpt>
      <trkpt lat="47.73495" lon="6.12255">
        <ele>336.19</ele>
        <time>2017-10-18T08:54:21Z</time>
      </trkpt>
      <trkpt lat="47.73498" lon="6.12249">
        <ele>336.25</ele>
        <time>2017-10-18T08:54:23Z</time>
      </trkpt>
      <trkpt lat="47.73502" lon="6.12243">
        <ele>336.27</ele>
        <time>2017-10-18T08:54:25Z</time>
      </trkpt>
      <trkpt lat="47.73505" lon="6.12236">
        <ele>336.26</ele>
        <time>2017-10-18T08:54:27Z</time>
      </trkpt>
      <trkpt lat="47.73509" lon="6.12228">
        <ele>336.22</ele>
        <time>2017-10-18T08:54:29Z</time>
      </trkpt>
      <trkpt lat="47.73511" lon="6.12219">
        <ele>336.15</ele>
        <time>2017-10-18T08:54:32Z</time>
      </trkpt>
      <trkpt lat="47.73515" lon="6.12213">
        <ele>336.09</ele>
        <time>2017-10-18T08:54:35Z</time>
      </trkpt>
      <trkpt lat="47.73519" lon="6.12208">
        <ele>336.04</ele>
        <time>2017-10-18T08:54:37Z</time>
      </trkpt>
      <trkpt lat="47.73522" lon="6.12201">
        <ele>335.97</ele>
        <time>2017-10-18T08:54:39Z</time>
      </trkpt>
      <trkpt lat="47.73526" lon="6.12195">
        <ele>335.89</ele>
        <time>2017-10-18T08:54:41Z</time>
      </trkpt>
      <trkpt lat="47.73529" lon="6.12189">
        <ele>335.79</ele>
        <time>2017-10-18T08:54:43Z</time>
      </trkpt>
      <trkpt lat="47.73533" lon="6.12182">
        <ele>335.69</ele>
        <time>2017-10-18T08:54:45Z</time>
      </trkpt>
      <trkpt lat="47.73538" lon="6.12173">
        <ele>335.24</ele>
        <time>2017-10-18T08:54:47Z</time>
      </trkpt>
      <trkpt lat="47.73543" lon="6.12163">
        <ele>334.4</ele>
        <time>2017-10-18T08:54:49Z</time>
      </trkpt>
      <trkpt lat="47.73547" lon="6.12152">
        <ele>333.75</ele>
        <time>2017-10-18T08:54:51Z</time>
      </trkpt>
      <trkpt lat="47.73552" lon="6.12141">
        <ele>333.23</ele>
        <time>2017-10-18T08:54:53Z</time>
      </trkpt>
      <trkpt lat="47.73556" lon="6.12135">
        <ele>333.01</ele>
        <time>2017-10-18T08:54:54Z</time>
      </trkpt>
      <trkpt lat="47.73559" lon="6.12129">
        <ele>332.84</ele>
        <time>2017-10-18T08:54:55Z</time>
      </trkpt>
      <trkpt lat="47.73562" lon="6.12123">
        <ele>332.69</ele>
        <time>2017-10-18T08:54:56Z</time>
      </trkpt>
      <trkpt lat="47.73566" lon="6.12116">
        <ele>332.57</ele>
        <time>2017-10-18T08:54:57Z</time>
      </trkpt>
      <trkpt lat="47.73569" lon="6.1211">
        <ele>332.47</ele>
        <time>2017-10-18T08:54:58Z</time>
      </trkpt>
      <trkpt lat="47.73572" lon="6.12102">
        <ele>332.36</ele>
        <time>2017-10-18T08:54:59Z</time>
      </trkpt>
      <trkpt lat="47.73576" lon="6.12094">
        <ele>332.26</ele>
        <time>2017-10-18T08:55:00Z</time>
      </trkpt>
      <trkpt lat="47.7358" lon="6.12087">
        <ele>332.16</ele>
        <time>2017-10-18T08:55:01Z</time>
      </trkpt>
      <trkpt lat="47.73584" lon="6.1208">
        <ele>332.06</ele>
        <time>2017-10-18T08:55:02Z</time>
      </trkpt>
      <trkpt lat="47.73587" lon="6.12072">
        <ele>331.97</ele>
        <time>2017-10-18T08:55:03Z</time>
      </trkpt>
      <trkpt lat="47.73591" lon="6.12064">
        <ele>331.89</ele>
        <time>2017-10-18T08:55:04Z</time>
      </trkpt>
      <trkpt lat="47.73594" lon="6.12058">
        <ele>331.8</ele>
        <time>2017-10-18T08:55:05Z</time>
      </trkpt>
      <trkpt lat="47.73597" lon="6.12051">
        <ele>331.72</ele>
        <time>2017-10-18T08:55:06Z</time>
      </trkpt>
      <trkpt lat="47.73601" lon="6.12044">
        <ele>331.64</ele>
        <time>2017-10-18T08:55:07Z</time>
      </trkpt>
      <trkpt lat="47.73603" lon="6.12038">
        <ele>331.55</ele>
        <time>2017-10-18T08:55:08Z</time>
      </trkpt>
      <trkpt lat="47.73606" lon="6.12033">
        <ele>331.46</ele>
        <time>2017-10-18T08:55:09Z</time>
      </trkpt>
      <trkpt lat="47.73611" lon="6.12022">
        <ele>331.41</ele>
        <time>2017-10-18T08:55:11Z</time>
      </trkpt>
      <trkpt lat="47.73613" lon="6.1201">
        <ele>331.29</ele>
        <time>2017-10-18T08:55:13Z</time>
      </trkpt>
      <trkpt lat="47.73616" lon="6.11999">
        <ele>331.23</ele>
        <time>2017-10-18T08:55:15Z</time>
      </trkpt>
      <trkpt lat="47.73618" lon="6.1199">
        <ele>331.21</ele>
        <time>2017-10-18T08:55:17Z</time>
      </trkpt>
      <trkpt lat="47.7362" lon="6.11983">
        <ele>331.2</ele>
        <time>2017-10-18T08:55:19Z</time>
      </trkpt>
      <trkpt lat="47.73622" lon="6.11976">
        <ele>331.2</ele>
        <time>2017-10-18T08:55:21Z</time>
      </trkpt>
      <trkpt lat="47.73623" lon="6.11967">
        <ele>331.21</ele>
        <time>2017-10-18T08:55:24Z</time>
      </trkpt>
      <trkpt lat="47.73625" lon="6.11959">
        <ele>331.24</ele>
        <time>2017-10-18T08:55:27Z</time>
      </trkpt>
      <trkpt lat="47.73627" lon="6.11951">
        <ele>331.28</ele>
        <time>2017-10-18T08:55:30Z</time>
      </trkpt>
      <trkpt lat="47.73629" lon="6.11944">
        <ele>331.34</ele>
        <time>2017-10-18T08:55:33Z</time>
      </trkpt>
      <trkpt lat="47.73631" lon="6.11936">
        <ele>331.4</ele>
        <time>2017-10-18T08:55:36Z</time>
      </trkpt>
      <trkpt lat="47.73634" lon="6.11927">
        <ele>331.46</ele>
        <time>2017-10-18T08:55:39Z</time>
      </trkpt>
      <trkpt lat="47.73636" lon="6.11919">
        <ele>331.53</ele>
        <time>2017-10-18T08:55:42Z</time>
      </trkpt>
      <trkpt lat="47.7364" lon="6.11913">
        <ele>331.63</ele>
        <time>2017-10-18T08:55:45Z</time>
      </trkpt>
      <trkpt lat="47.73644" lon="6.11906">
        <ele>331.79</ele>
        <time>2017-10-18T08:55:48Z</time>
      </trkpt>
      <trkpt lat="47.73647" lon="6.11899">
        <ele>331.98</ele>
        <time>2017-10-18T08:55:51Z</time>
      </trkpt>
      <trkpt lat="47.73649" lon="6.11892">
        <ele>332.21</ele>
        <time>2017-10-18T08:55:54Z</time>
      </trkpt>
      <trkpt lat="47.7365" lon="6.11885">
        <ele>332.45</ele>
        <time>2017-10-18T08:55:57Z</time>
      </trkpt>
      <trkpt lat="47.73652" lon="6.11877">
        <ele>332.81</ele>
        <time>2017-10-18T08:56:01Z</time>
      </trkpt>
      <trkpt lat="47.73653" lon="6.11868">
        <ele>333.17</ele>
        <time>2017-10-18T08:56:05Z</time>
      </trkpt>
      <trkpt lat="47.73654" lon="6.11861">
        <ele>333.44</ele>
        <time>2017-10-18T08:56:08Z</time>
      </trkpt>
      <trkpt lat="47.73656" lon="6.11855">
        <ele>333.63</ele>
        <time>2017-10-18T08:56:10Z</time>
      </trkpt>
      <trkpt lat="47.73657" lon="6.11847">
        <ele>333.91</ele>
        <time>2017-10-18T08:56:13Z</time>
      </trkpt>
      <trkpt lat="47.73659" lon="6.1184">
        <ele>334.18</ele>
        <time>2017-10-18T08:56:16Z</time>
      </trkpt>
      <trkpt lat="47.73661" lon="6.11833">
        <ele>334.43</ele>
        <time>2017-10-18T08:56:19Z</time>
      </trkpt>
      <trkpt lat="47.73664" lon="6.11827">
        <ele>334.6</ele>
        <time>2017-10-18T08:56:21Z</time>
      </trkpt>
      <trkpt lat="47.73667" lon="6.1182">
        <ele>334.86</ele>
        <time>2017-10-18T08:56:24Z</time>
      </trkpt>
      <trkpt lat="47.7367" lon="6.11814">
        <ele>335.15</ele>
        <time>2017-10-18T08:56:27Z</time>
      </trkpt>
      <trkpt lat="47.73672" lon="6.11806">
        <ele>335.58</ele>
        <time>2017-10-18T08:56:31Z</time>
      </trkpt>
      <trkpt lat="47.73674" lon="6.118">
        <ele>335.92</ele>
        <time>2017-10-18T08:56:34Z</time>
      </trkpt>
      <trkpt lat="47.73677" lon="6.11793">
        <ele>336.29</ele>
        <time>2017-10-18T08:56:37Z</time>
      </trkpt>
      <trkpt lat="47.73678" lon="6.11785">
        <ele>336.64</ele>
        <time>2017-10-18T08:56:40Z</time>
      </trkpt>
      <trkpt lat="47.73681" lon="6.11776">
        <ele>337</ele>
        <time>2017-10-18T08:56:43Z</time>
      </trkpt>
      <trkpt lat="47.73683" lon="6.11768">
        <ele>337.24</ele>
        <time>2017-10-18T08:56:45Z</time>
      </trkpt>
      <trkpt lat="47.73685" lon="6.11762">
        <ele>337.48</ele>
        <time>2017-10-18T08:56:47Z</time>
      </trkpt>
      <trkpt lat="47.73687" lon="6.11753">
        <ele>337.83</ele>
        <time>2017-10-18T08:56:50Z</time>
      </trkpt>
      <trkpt lat="47.7369" lon="6.11744">
        <ele>338.06</ele>
        <time>2017-10-18T08:56:52Z</time>
      </trkpt>
      <trkpt lat="47.73692" lon="6.11735">
        <ele>338.28</ele>
        <time>2017-10-18T08:56:54Z</time>
      </trkpt>
      <trkpt lat="47.73694" lon="6.11727">
        <ele>338.49</ele>
        <time>2017-10-18T08:56:56Z</time>
      </trkpt>
      <trkpt lat="47.73696" lon="6.1172">
        <ele>338.68</ele>
        <time>2017-10-18T08:56:58Z</time>
      </trkpt>
      <trkpt lat="47.73699" lon="6.11708">
        <ele>338.86</ele>
        <time>2017-10-18T08:57:00Z</time>
      </trkpt>
      <trkpt lat="47.73699" lon="6.117">
        <ele>338.96</ele>
        <time>2017-10-18T08:57:01Z</time>
      </trkpt>
      <trkpt lat="47.737" lon="6.1169">
        <ele>339.14</ele>
        <time>2017-10-18T08:57:03Z</time>
      </trkpt>
      <trkpt lat="47.73703" lon="6.11679">
        <ele>339.33</ele>
        <time>2017-10-18T08:57:05Z</time>
      </trkpt>
      <trkpt lat="47.73706" lon="6.11671">
        <ele>339.51</ele>
        <time>2017-10-18T08:57:07Z</time>
      </trkpt>
      <trkpt lat="47.7371" lon="6.11663">
        <ele>339.69</ele>
        <time>2017-10-18T08:57:09Z</time>
      </trkpt>
      <trkpt lat="47.73716" lon="6.11656">
        <ele>339.86</ele>
        <time>2017-10-18T08:57:11Z</time>
      </trkpt>
      <trkpt lat="47.73716" lon="6.11644">
        <ele>340.02</ele>
        <time>2017-10-18T08:57:13Z</time>
      </trkpt>
      <trkpt lat="47.73716" lon="6.11637">
        <ele>340.11</ele>
        <time>2017-10-18T08:57:14Z</time>
      </trkpt>
      <trkpt lat="47.73714" lon="6.1163">
        <ele>340.19</ele>
        <time>2017-10-18T08:57:15Z</time>
      </trkpt>
      <trkpt lat="47.73712" lon="6.11617">
        <ele>340.37</ele>
        <time>2017-10-18T08:57:17Z</time>
      </trkpt>
      <trkpt lat="47.73712" lon="6.11607">
        <ele>340.55</ele>
        <time>2017-10-18T08:57:19Z</time>
      </trkpt>
      <trkpt lat="47.73714" lon="6.11601">
        <ele>340.73</ele>
        <time>2017-10-18T08:57:21Z</time>
      </trkpt>
      <trkpt lat="47.73715" lon="6.11592">
        <ele>340.91</ele>
        <time>2017-10-18T08:57:23Z</time>
      </trkpt>
      <trkpt lat="47.73718" lon="6.11586">
        <ele>341.08</ele>
        <time>2017-10-18T08:57:25Z</time>
      </trkpt>
      <trkpt lat="47.7372" lon="6.11578">
        <ele>341.24</ele>
        <time>2017-10-18T08:57:27Z</time>
      </trkpt>
      <trkpt lat="47.73716" lon="6.11567">
        <ele>341.33</ele>
        <time>2017-10-18T08:57:28Z</time>
      </trkpt>
      <trkpt lat="47.73713" lon="6.11561">
        <ele>341.42</ele>
        <time>2017-10-18T08:57:29Z</time>
      </trkpt>
      <trkpt lat="47.7371" lon="6.11551">
        <ele>341.59</ele>
        <time>2017-10-18T08:57:31Z</time>
      </trkpt>
      <trkpt lat="47.73709" lon="6.11542">
        <ele>341.77</ele>
        <time>2017-10-18T08:57:33Z</time>
      </trkpt>
      <trkpt lat="47.7371" lon="6.11533">
        <ele>341.95</ele>
        <time>2017-10-18T08:57:35Z</time>
      </trkpt>
      <trkpt lat="47.7371" lon="6.11522">
        <ele>342.13</ele>
        <time>2017-10-18T08:57:37Z</time>
      </trkpt>
      <trkpt lat="47.73717" lon="6.11516">
        <ele>343.01</ele>
        <time>2017-10-18T08:57:39Z</time>
      </trkpt>
      <trkpt lat="47.7372" lon="6.11511">
        <ele>343.13</ele>
        <time>2017-10-18T08:57:40Z</time>
      </trkpt>
      <trkpt lat="47.73725" lon="6.11502">
        <ele>343.29</ele>
        <time>2017-10-18T08:57:42Z</time>
      </trkpt>
      <trkpt lat="47.73726" lon="6.11494">
        <ele>343.42</ele>
        <time>2017-10-18T08:57:44Z</time>
      </trkpt>
      <trkpt lat="47.73728" lon="6.11486">
        <ele>343.55</ele>
        <time>2017-10-18T08:57:46Z</time>
      </trkpt>
      <trkpt lat="47.73734" lon="6.1148">
        <ele>343.67</ele>
        <time>2017-10-18T08:57:48Z</time>
      </trkpt>
      <trkpt lat="47.73739" lon="6.11474">
        <ele>343.79</ele>
        <time>2017-10-18T08:57:50Z</time>
      </trkpt>
      <trkpt lat="47.73746" lon="6.11466">
        <ele>343.9</ele>
        <time>2017-10-18T08:57:52Z</time>
      </trkpt>
      <trkpt lat="47.7375" lon="6.11459">
        <ele>344.01</ele>
        <time>2017-10-18T08:57:54Z</time>
      </trkpt>
      <trkpt lat="47.73754" lon="6.11452">
        <ele>344.11</ele>
        <time>2017-10-18T08:57:56Z</time>
      </trkpt>
      <trkpt lat="47.73758" lon="6.11445">
        <ele>344.21</ele>
        <time>2017-10-18T08:57:58Z</time>
      </trkpt>
      <trkpt lat="47.73761" lon="6.11437">
        <ele>344.3</ele>
        <time>2017-10-18T08:58:00Z</time>
      </trkpt>
      <trkpt lat="47.73764" lon="6.11432">
        <ele>344.39</ele>
        <time>2017-10-18T08:58:02Z</time>
      </trkpt>
      <trkpt lat="47.73768" lon="6.11426">
        <ele>344.47</ele>
        <time>2017-10-18T08:58:04Z</time>
      </trkpt>
      <trkpt lat="47.73771" lon="6.11417">
        <ele>344.56</ele>
        <time>2017-10-18T08:58:06Z</time>
      </trkpt>
      <trkpt lat="47.73772" lon="6.11411">
        <ele>344.85</ele>
        <time>2017-10-18T08:58:07Z</time>
      </trkpt>
      <trkpt lat="47.73773" lon="6.11402">
        <ele>344.96</ele>
        <time>2017-10-18T08:58:08Z</time>
      </trkpt>
      <trkpt lat="47.73773" lon="6.11393">
        <ele>345.05</ele>
        <time>2017-10-18T08:58:10Z</time>
      </trkpt>
      <trkpt lat="47.73776" lon="6.11384">
        <ele>345.11</ele>
        <time>2017-10-18T08:58:12Z</time>
      </trkpt>
      <trkpt lat="47.73778" lon="6.11372">
        <ele>345.17</ele>
        <time>2017-10-18T08:58:14Z</time>
      </trkpt>
      <trkpt lat="47.73778" lon="6.11361">
        <ele>345.22</ele>
        <time>2017-10-18T08:58:16Z</time>
      </trkpt>
      <trkpt lat="47.73781" lon="6.11344">
        <ele>345.27</ele>
        <time>2017-10-18T08:58:18Z</time>
      </trkpt>
      <trkpt lat="47.73783" lon="6.11335">
        <ele>345.3</ele>
        <time>2017-10-18T08:58:19Z</time>
      </trkpt>
      <trkpt lat="47.73788" lon="6.11323">
        <ele>345.34</ele>
        <time>2017-10-18T08:58:21Z</time>
      </trkpt>
      <trkpt lat="47.73792" lon="6.11314">
        <ele>345.39</ele>
        <time>2017-10-18T08:58:23Z</time>
      </trkpt>
      <trkpt lat="47.73795" lon="6.11303">
        <ele>345.43</ele>
        <time>2017-10-18T08:58:25Z</time>
      </trkpt>
      <trkpt lat="47.73799" lon="6.11296">
        <ele>345.49</ele>
        <time>2017-10-18T08:58:28Z</time>
      </trkpt>
      <trkpt lat="47.73803" lon="6.11291">
        <ele>345.54</ele>
        <time>2017-10-18T08:58:30Z</time>
      </trkpt>
      <trkpt lat="47.73804" lon="6.11284">
        <ele>345.62</ele>
        <time>2017-10-18T08:58:34Z</time>
      </trkpt>
      <trkpt lat="47.73806" lon="6.11277">
        <ele>345.66</ele>
        <time>2017-10-18T08:58:36Z</time>
      </trkpt>
      <trkpt lat="47.73809" lon="6.1127">
        <ele>345.7</ele>
        <time>2017-10-18T08:58:38Z</time>
      </trkpt>
      <trkpt lat="47.7381" lon="6.11261">
        <ele>345.74</ele>
        <time>2017-10-18T08:58:40Z</time>
      </trkpt>
      <trkpt lat="47.73811" lon="6.11253">
        <ele>345.8</ele>
        <time>2017-10-18T08:58:43Z</time>
      </trkpt>
      <trkpt lat="47.73813" lon="6.11245">
        <ele>345.87</ele>
        <time>2017-10-18T08:58:46Z</time>
      </trkpt>
      <trkpt lat="47.73814" lon="6.11237">
        <ele>345.93</ele>
        <time>2017-10-18T08:58:49Z</time>
      </trkpt>
      <trkpt lat="47.73815" lon="6.1123">
        <ele>345.98</ele>
        <time>2017-10-18T08:58:52Z</time>
      </trkpt>
      <trkpt lat="47.73817" lon="6.11222">
        <ele>346.03</ele>
        <time>2017-10-18T08:58:55Z</time>
      </trkpt>
      <trkpt lat="47.7382" lon="6.11214">
        <ele>346.08</ele>
        <time>2017-10-18T08:58:58Z</time>
      </trkpt>
      <trkpt lat="47.73823" lon="6.11206">
        <ele>346.13</ele>
        <time>2017-10-18T08:59:01Z</time>
      </trkpt>
      <trkpt lat="47.73825" lon="6.11198">
        <ele>346.18</ele>
        <time>2017-10-18T08:59:04Z</time>
      </trkpt>
      <trkpt lat="47.73826" lon="6.1119">
        <ele>346.23</ele>
        <time>2017-10-18T08:59:07Z</time>
      </trkpt>
      <trkpt lat="47.73827" lon="6.11182">
        <ele>346.27</ele>
        <time>2017-10-18T08:59:10Z</time>
      </trkpt>
      <trkpt lat="47.73831" lon="6.11177">
        <ele>346.3</ele>
        <time>2017-10-18T08:59:13Z</time>
      </trkpt>
      <trkpt lat="47.73835" lon="6.11172">
        <ele>346.32</ele>
        <time>2017-10-18T08:59:16Z</time>
      </trkpt>
      <trkpt lat="47.73837" lon="6.11165">
        <ele>346.34</ele>
        <time>2017-10-18T08:59:20Z</time>
      </trkpt>
      <trkpt lat="47.7384" lon="6.11158">
        <ele>346.33</ele>
        <time>2017-10-18T08:59:23Z</time>
      </trkpt>
      <trkpt lat="47.73843" lon="6.11149">
        <ele>346.33</ele>
        <time>2017-10-18T08:59:26Z</time>
      </trkpt>
      <trkpt lat="47.73845" lon="6.11141">
        <ele>346.32</ele>
        <time>2017-10-18T08:59:29Z</time>
      </trkpt>
      <trkpt lat="47.73847" lon="6.11134">
        <ele>346.3</ele>
        <time>2017-10-18T08:59:33Z</time>
      </trkpt>
      <trkpt lat="47.7385" lon="6.11127">
        <ele>346.27</ele>
        <time>2017-10-18T08:59:37Z</time>
      </trkpt>
      <trkpt lat="47.7385" lon="6.11117">
        <ele>346.24</ele>
        <time>2017-10-18T08:59:40Z</time>
      </trkpt>
      <trkpt lat="47.73852" lon="6.11108">
        <ele>346.21</ele>
        <time>2017-10-18T08:59:43Z</time>
      </trkpt>
      <trkpt lat="47.73852" lon="6.11101">
        <ele>346.18</ele>
        <time>2017-10-18T08:59:46Z</time>
      </trkpt>
      <trkpt lat="47.73851" lon="6.11094">
        <ele>346.16</ele>
        <time>2017-10-18T08:59:49Z</time>
      </trkpt>
      <trkpt lat="47.73848" lon="6.11086">
        <ele>346.13</ele>
        <time>2017-10-18T08:59:52Z</time>
      </trkpt>
      <trkpt lat="47.73844" lon="6.11079">
        <ele>346.11</ele>
        <time>2017-10-18T08:59:54Z</time>
      </trkpt>
      <trkpt lat="47.73842" lon="6.11072">
        <ele>346.1</ele>
        <time>2017-10-18T08:59:55Z</time>
      </trkpt>
      <trkpt lat="47.73841" lon="6.11066">
        <ele>346.1</ele>
        <time>2017-10-18T08:59:56Z</time>
      </trkpt>
      <trkpt lat="47.73835" lon="6.11061">
        <ele>346.07</ele>
        <time>2017-10-18T08:59:59Z</time>
      </trkpt>
      <trkpt lat="47.73828" lon="6.11056">
        <ele>346.05</ele>
        <time>2017-10-18T09:00:01Z</time>
      </trkpt>
      <trkpt lat="47.73822" lon="6.11051">
        <ele>346.04</ele>
        <time>2017-10-18T09:00:03Z</time>
      </trkpt>
      <trkpt lat="47.73816" lon="6.11046">
        <ele>346.02</ele>
        <time>2017-10-18T09:00:05Z</time>
      </trkpt>
      <trkpt lat="47.73811" lon="6.11045">
        <ele>346.01</ele>
        <time>2017-10-18T09:00:07Z</time>
      </trkpt>
      <trkpt lat="47.73806" lon="6.11044">
        <ele>346</ele>
        <time>2017-10-18T09:00:09Z</time>
      </trkpt>
      <trkpt lat="47.73801" lon="6.11044">
        <ele>345.99</ele>
        <time>2017-10-18T09:00:11Z</time>
      </trkpt>
      <trkpt lat="47.73793" lon="6.11042">
        <ele>345.97</ele>
        <time>2017-10-18T09:00:14Z</time>
      </trkpt>
      <trkpt lat="47.73787" lon="6.11042">
        <ele>345.95</ele>
        <time>2017-10-18T09:00:16Z</time>
      </trkpt>
      <trkpt lat="47.7378" lon="6.11046">
        <ele>345.94</ele>
        <time>2017-10-18T09:00:18Z</time>
      </trkpt>
      <trkpt lat="47.73775" lon="6.11048">
        <ele>345.93</ele>
        <time>2017-10-18T09:00:19Z</time>
      </trkpt>
      <trkpt lat="47.7377" lon="6.11049">
        <ele>345.91</ele>
        <time>2017-10-18T09:00:20Z</time>
      </trkpt>
      <trkpt lat="47.73765" lon="6.11052">
        <ele>345.9</ele>
        <time>2017-10-18T09:00:21Z</time>
      </trkpt>
      <trkpt lat="47.73757" lon="6.11053">
        <ele>345.87</ele>
        <time>2017-10-18T09:00:23Z</time>
      </trkpt>
      <trkpt lat="47.7375" lon="6.11056">
        <ele>345.86</ele>
        <time>2017-10-18T09:00:24Z</time>
      </trkpt>
      <trkpt lat="47.73743" lon="6.11056">
        <ele>345.84</ele>
        <time>2017-10-18T09:00:25Z</time>
      </trkpt>
      <trkpt lat="47.73738" lon="6.11053">
        <ele>345.81</ele>
        <time>2017-10-18T09:00:26Z</time>
      </trkpt>
      <trkpt lat="47.73728" lon="6.11038">
        <ele>345.79</ele>
        <time>2017-10-18T09:00:27Z</time>
      </trkpt>
      <trkpt lat="47.73723" lon="6.11033">
        <ele>345.77</ele>
        <time>2017-10-18T09:00:28Z</time>
      </trkpt>
      <trkpt lat="47.73717" lon="6.11031">
        <ele>345.74</ele>
        <time>2017-10-18T09:00:29Z</time>
      </trkpt>
      <trkpt lat="47.73712" lon="6.11027">
        <ele>345.71</ele>
        <time>2017-10-18T09:00:30Z</time>
      </trkpt>
      <trkpt lat="47.73706" lon="6.11021">
        <ele>345.69</ele>
        <time>2017-10-18T09:00:31Z</time>
      </trkpt>
      <trkpt lat="47.73697" lon="6.11012">
        <ele>345.66</ele>
        <time>2017-10-18T09:00:32Z</time>
      </trkpt>
      <trkpt lat="47.73692" lon="6.11007">
        <ele>345.64</ele>
        <time>2017-10-18T09:00:33Z</time>
      </trkpt>
      <trkpt lat="47.73687" lon="6.11001">
        <ele>345.61</ele>
        <time>2017-10-18T09:00:34Z</time>
      </trkpt>
      <trkpt lat="47.73681" lon="6.10995">
        <ele>345.57</ele>
        <time>2017-10-18T09:00:36Z</time>
      </trkpt>
      <trkpt lat="47.73676" lon="6.10992">
        <ele>345.52</ele>
        <time>2017-10-18T09:00:38Z</time>
      </trkpt>
      <trkpt lat="47.7367" lon="6.10988">
        <ele>345.48</ele>
        <time>2017-10-18T09:00:40Z</time>
      </trkpt>
      <trkpt lat="47.73662" lon="6.10984">
        <ele>345.44</ele>
        <time>2017-10-18T09:00:42Z</time>
      </trkpt>
      <trkpt lat="47.73654" lon="6.1098">
        <ele>345.41</ele>
        <time>2017-10-18T09:00:44Z</time>
      </trkpt>
      <trkpt lat="47.73648" lon="6.10975">
        <ele>345.27</ele>
        <time>2017-10-18T09:00:45Z</time>
      </trkpt>
      <trkpt lat="47.73642" lon="6.1097">
        <ele>345.22</ele>
        <time>2017-10-18T09:00:46Z</time>
      </trkpt>
      <trkpt lat="47.73637" lon="6.10966">
        <ele>345.19</ele>
        <time>2017-10-18T09:00:47Z</time>
      </trkpt>
      <trkpt lat="47.73631" lon="6.10963">
        <ele>345.18</ele>
        <time>2017-10-18T09:00:48Z</time>
      </trkpt>
      <trkpt lat="47.73627" lon="6.10961">
        <ele>345.16</ele>
        <time>2017-10-18T09:00:49Z</time>
      </trkpt>
      <trkpt lat="47.73619" lon="6.10955">
        <ele>345.13</ele>
        <time>2017-10-18T09:00:51Z</time>
      </trkpt>
      <trkpt lat="47.73615" lon="6.10951">
        <ele>345.04</ele>
        <time>2017-10-18T09:00:52Z</time>
      </trkpt>
      <trkpt lat="47.73609" lon="6.10947">
        <ele>345.01</ele>
        <time>2017-10-18T09:00:53Z</time>
      </trkpt>
      <trkpt lat="47.73605" lon="6.10942">
        <ele>344.99</ele>
        <time>2017-10-18T09:00:54Z</time>
      </trkpt>
      <trkpt lat="47.736" lon="6.10937">
        <ele>344.97</ele>
        <time>2017-10-18T09:00:56Z</time>
      </trkpt>
      <trkpt lat="47.73595" lon="6.10933">
        <ele>344.95</ele>
        <time>2017-10-18T09:00:58Z</time>
      </trkpt>
      <trkpt lat="47.73589" lon="6.1093">
        <ele>344.93</ele>
        <time>2017-10-18T09:01:00Z</time>
      </trkpt>
      <trkpt lat="47.73583" lon="6.10928">
        <ele>344.91</ele>
        <time>2017-10-18T09:01:02Z</time>
      </trkpt>
      <trkpt lat="47.73576" lon="6.10924">
        <ele>344.89</ele>
        <time>2017-10-18T09:01:04Z</time>
      </trkpt>
      <trkpt lat="47.7357" lon="6.10921">
        <ele>344.88</ele>
        <time>2017-10-18T09:01:06Z</time>
      </trkpt>
      <trkpt lat="47.73564" lon="6.10918">
        <ele>344.86</ele>
        <time>2017-10-18T09:01:08Z</time>
      </trkpt>
      <trkpt lat="47.73558" lon="6.10917">
        <ele>344.84</ele>
        <time>2017-10-18T09:01:10Z</time>
      </trkpt>
      <trkpt lat="47.73552" lon="6.10916">
        <ele>344.82</ele>
        <time>2017-10-18T09:01:12Z</time>
      </trkpt>
      <trkpt lat="47.73544" lon="6.10912">
        <ele>344.8</ele>
        <time>2017-10-18T09:01:14Z</time>
      </trkpt>
      <trkpt lat="47.7354" lon="6.10909">
        <ele>344.8</ele>
        <time>2017-10-18T09:01:15Z</time>
      </trkpt>
      <trkpt lat="47.73533" lon="6.10904">
        <ele>344.78</ele>
        <time>2017-10-18T09:01:17Z</time>
      </trkpt>
      <trkpt lat="47.73529" lon="6.10899">
        <ele>344.76</ele>
        <time>2017-10-18T09:01:20Z</time>
      </trkpt>
      <trkpt lat="47.73525" lon="6.10893">
        <ele>344.74</ele>
        <time>2017-10-18T09:01:23Z</time>
      </trkpt>
      <trkpt lat="47.73524" lon="6.10884">
        <ele>344.58</ele>
        <time>2017-10-18T09:01:52Z</time>
      </trkpt>
      <trkpt lat="47.73525" lon="6.10876">
        <ele>344.48</ele>
        <time>2017-10-18T09:01:55Z</time>
      </trkpt>
      <trkpt lat="47.73528" lon="6.10871">
        <ele>344.37</ele>
        <time>2017-10-18T09:01:58Z</time>
      </trkpt>
      <trkpt lat="47.73532" lon="6.10863">
        <ele>344.26</ele>
        <time>2017-10-18T09:02:01Z</time>
      </trkpt>
      <trkpt lat="47.73537" lon="6.10859">
        <ele>344.15</ele>
        <time>2017-10-18T09:02:04Z</time>
      </trkpt>
      <trkpt lat="47.73542" lon="6.10852">
        <ele>344.04</ele>
        <time>2017-10-18T09:02:07Z</time>
      </trkpt>
      <trkpt lat="47.73546" lon="6.10844">
        <ele>343.96</ele>
        <time>2017-10-18T09:02:09Z</time>
      </trkpt>
      <trkpt lat="47.7355" lon="6.10838">
        <ele>343.89</ele>
        <time>2017-10-18T09:02:11Z</time>
      </trkpt>
      <trkpt lat="47.73554" lon="6.1083">
        <ele>343.78</ele>
        <time>2017-10-18T09:02:14Z</time>
      </trkpt>
      <trkpt lat="47.73556" lon="6.10823">
        <ele>343.67</ele>
        <time>2017-10-18T09:02:17Z</time>
      </trkpt>
      <trkpt lat="47.73558" lon="6.10815">
        <ele>343.54</ele>
        <time>2017-10-18T09:02:20Z</time>
      </trkpt>
      <trkpt lat="47.73563" lon="6.10807">
        <ele>343.45</ele>
        <time>2017-10-18T09:02:22Z</time>
      </trkpt>
      <trkpt lat="47.73566" lon="6.10798">
        <ele>343.36</ele>
        <time>2017-10-18T09:02:24Z</time>
      </trkpt>
      <trkpt lat="47.73568" lon="6.10789">
        <ele>343.28</ele>
        <time>2017-10-18T09:02:26Z</time>
      </trkpt>
      <trkpt lat="47.73571" lon="6.10781">
        <ele>343.19</ele>
        <time>2017-10-18T09:02:28Z</time>
      </trkpt>
      <trkpt lat="47.73574" lon="6.10774">
        <ele>343.11</ele>
        <time>2017-10-18T09:02:30Z</time>
      </trkpt>
      <trkpt lat="47.73579" lon="6.10766">
        <ele>342.99</ele>
        <time>2017-10-18T09:02:33Z</time>
      </trkpt>
      <trkpt lat="47.73582" lon="6.10762">
        <ele>342.91</ele>
        <time>2017-10-18T09:02:35Z</time>
      </trkpt>
      <trkpt lat="47.73586" lon="6.10755">
        <ele>342.79</ele>
        <time>2017-10-18T09:02:38Z</time>
      </trkpt>
      <trkpt lat="47.73589" lon="6.10747">
        <ele>342.68</ele>
        <time>2017-10-18T09:02:41Z</time>
      </trkpt>
      <trkpt lat="47.7359" lon="6.1074">
        <ele>342.6</ele>
        <time>2017-10-18T09:02:43Z</time>
      </trkpt>
      <trkpt lat="47.73591" lon="6.10731">
        <ele>342.49</ele>
        <time>2017-10-18T09:02:46Z</time>
      </trkpt>
      <trkpt lat="47.73592" lon="6.10723">
        <ele>342.37</ele>
        <time>2017-10-18T09:02:49Z</time>
      </trkpt>
      <trkpt lat="47.73593" lon="6.10714">
        <ele>342.25</ele>
        <time>2017-10-18T09:02:52Z</time>
      </trkpt>
      <trkpt lat="47.73591" lon="6.10702">
        <ele>342.14</ele>
        <time>2017-10-18T09:02:55Z</time>
      </trkpt>
      <trkpt lat="47.73591" lon="6.10693">
        <ele>342.06</ele>
        <time>2017-10-18T09:02:57Z</time>
      </trkpt>
      <trkpt lat="47.73593" lon="6.10685">
        <ele>341.98</ele>
        <time>2017-10-18T09:02:59Z</time>
      </trkpt>
      <trkpt lat="47.73596" lon="6.10677">
        <ele>341.91</ele>
        <time>2017-10-18T09:03:01Z</time>
      </trkpt>
      <trkpt lat="47.73599" lon="6.1067">
        <ele>341.79</ele>
        <time>2017-10-18T09:03:04Z</time>
      </trkpt>
      <trkpt lat="47.736" lon="6.10662">
        <ele>341.72</ele>
        <time>2017-10-18T09:03:06Z</time>
      </trkpt>
      <trkpt lat="47.73602" lon="6.10653">
        <ele>341.61</ele>
        <time>2017-10-18T09:03:09Z</time>
      </trkpt>
      <trkpt lat="47.73605" lon="6.10646">
        <ele>341.54</ele>
        <time>2017-10-18T09:03:11Z</time>
      </trkpt>
      <trkpt lat="47.73608" lon="6.10637">
        <ele>341.47</ele>
        <time>2017-10-18T09:03:13Z</time>
      </trkpt>
      <trkpt lat="47.73612" lon="6.1063">
        <ele>341.4</ele>
        <time>2017-10-18T09:03:15Z</time>
      </trkpt>
      <trkpt lat="47.73616" lon="6.10621">
        <ele>341.33</ele>
        <time>2017-10-18T09:03:17Z</time>
      </trkpt>
      <trkpt lat="47.73618" lon="6.10611">
        <ele>341.26</ele>
        <time>2017-10-18T09:03:19Z</time>
      </trkpt>
      <trkpt lat="47.73619" lon="6.106">
        <ele>341.19</ele>
        <time>2017-10-18T09:03:21Z</time>
      </trkpt>
      <trkpt lat="47.73618" lon="6.1059">
        <ele>341.12</ele>
        <time>2017-10-18T09:03:23Z</time>
      </trkpt>
      <trkpt lat="47.73616" lon="6.10583">
        <ele>341.04</ele>
        <time>2017-10-18T09:03:25Z</time>
      </trkpt>
      <trkpt lat="47.73616" lon="6.10575">
        <ele>340.97</ele>
        <time>2017-10-18T09:03:27Z</time>
      </trkpt>
      <trkpt lat="47.73619" lon="6.10568">
        <ele>340.89</ele>
        <time>2017-10-18T09:03:30Z</time>
      </trkpt>
      <trkpt lat="47.73621" lon="6.10562">
        <ele>340.81</ele>
        <time>2017-10-18T09:03:32Z</time>
      </trkpt>
      <trkpt lat="47.73624" lon="6.10555">
        <ele>340.72</ele>
        <time>2017-10-18T09:03:34Z</time>
      </trkpt>
      <trkpt lat="47.73632" lon="6.10541">
        <ele>340.64</ele>
        <time>2017-10-18T09:03:36Z</time>
      </trkpt>
      <trkpt lat="47.73637" lon="6.10535">
        <ele>340.59</ele>
        <time>2017-10-18T09:03:37Z</time>
      </trkpt>
      <trkpt lat="47.7364" lon="6.1053">
        <ele>340.55</ele>
        <time>2017-10-18T09:03:38Z</time>
      </trkpt>
      <trkpt lat="47.73644" lon="6.1052">
        <ele>340.46</ele>
        <time>2017-10-18T09:03:40Z</time>
      </trkpt>
      <trkpt lat="47.73647" lon="6.10511">
        <ele>340.38</ele>
        <time>2017-10-18T09:03:42Z</time>
      </trkpt>
      <trkpt lat="47.73651" lon="6.10504">
        <ele>340.29</ele>
        <time>2017-10-18T09:03:44Z</time>
      </trkpt>
      <trkpt lat="47.73654" lon="6.10496">
        <ele>340.21</ele>
        <time>2017-10-18T09:03:46Z</time>
      </trkpt>
      <trkpt lat="47.73652" lon="6.10486">
        <ele>340.04</ele>
        <time>2017-10-18T09:03:50Z</time>
      </trkpt>
      <trkpt lat="47.73651" lon="6.10475">
        <ele>339.95</ele>
        <time>2017-10-18T09:03:52Z</time>
      </trkpt>
      <trkpt lat="47.73652" lon="6.10464">
        <ele>339.86</ele>
        <time>2017-10-18T09:03:54Z</time>
      </trkpt>
      <trkpt lat="47.73651" lon="6.10455">
        <ele>339.77</ele>
        <time>2017-10-18T09:03:56Z</time>
      </trkpt>
      <trkpt lat="47.73651" lon="6.10448">
        <ele>339.68</ele>
        <time>2017-10-18T09:03:58Z</time>
      </trkpt>
      <trkpt lat="47.73653" lon="6.1044">
        <ele>339.59</ele>
        <time>2017-10-18T09:04:00Z</time>
      </trkpt>
      <trkpt lat="47.73653" lon="6.10431">
        <ele>339.5</ele>
        <time>2017-10-18T09:04:02Z</time>
      </trkpt>
      <trkpt lat="47.73653" lon="6.10421">
        <ele>339.4</ele>
        <time>2017-10-18T09:04:04Z</time>
      </trkpt>
      <trkpt lat="47.73651" lon="6.10412">
        <ele>339.36</ele>
        <time>2017-10-18T09:04:05Z</time>
      </trkpt>
      <trkpt lat="47.73651" lon="6.10405">
        <ele>339.27</ele>
        <time>2017-10-18T09:04:07Z</time>
      </trkpt>
      <trkpt lat="47.73654" lon="6.10394">
        <ele>339.23</ele>
        <time>2017-10-18T09:04:08Z</time>
      </trkpt>
      <trkpt lat="47.73657" lon="6.10387">
        <ele>339.18</ele>
        <time>2017-10-18T09:04:09Z</time>
      </trkpt>
      <trkpt lat="47.73659" lon="6.10377">
        <ele>339.1</ele>
        <time>2017-10-18T09:04:11Z</time>
      </trkpt>
      <trkpt lat="47.73661" lon="6.10366">
        <ele>339.02</ele>
        <time>2017-10-18T09:04:13Z</time>
      </trkpt>
      <trkpt lat="47.73662" lon="6.10358">
        <ele>338.93</ele>
        <time>2017-10-18T09:04:15Z</time>
      </trkpt>
      <trkpt lat="47.73663" lon="6.10349">
        <ele>338.84</ele>
        <time>2017-10-18T09:04:17Z</time>
      </trkpt>
      <trkpt lat="47.73663" lon="6.10339">
        <ele>338.74</ele>
        <time>2017-10-18T09:04:19Z</time>
      </trkpt>
      <trkpt lat="47.73663" lon="6.10331">
        <ele>338.63</ele>
        <time>2017-10-18T09:04:21Z</time>
      </trkpt>
      <trkpt lat="47.73665" lon="6.10322">
        <ele>338.46</ele>
        <time>2017-10-18T09:04:24Z</time>
      </trkpt>
      <trkpt lat="47.73665" lon="6.10314">
        <ele>338.35</ele>
        <time>2017-10-18T09:04:26Z</time>
      </trkpt>
      <trkpt lat="47.73665" lon="6.10305">
        <ele>338.22</ele>
        <time>2017-10-18T09:04:28Z</time>
      </trkpt>
      <trkpt lat="47.73664" lon="6.10298">
        <ele>338.1</ele>
        <time>2017-10-18T09:04:30Z</time>
      </trkpt>
      <trkpt lat="47.73663" lon="6.10291">
        <ele>337.96</ele>
        <time>2017-10-18T09:04:32Z</time>
      </trkpt>
      <trkpt lat="47.7366" lon="6.10284">
        <ele>337.82</ele>
        <time>2017-10-18T09:04:34Z</time>
      </trkpt>
      <trkpt lat="47.73657" lon="6.10276">
        <ele>337.57</ele>
        <time>2017-10-18T09:04:37Z</time>
      </trkpt>
      <trkpt lat="47.73655" lon="6.10267">
        <ele>337.37</ele>
        <time>2017-10-18T09:04:39Z</time>
      </trkpt>
      <trkpt lat="47.73653" lon="6.10259">
        <ele>337.14</ele>
        <time>2017-10-18T09:04:41Z</time>
      </trkpt>
      <trkpt lat="47.73651" lon="6.10251">
        <ele>336.88</ele>
        <time>2017-10-18T09:04:43Z</time>
      </trkpt>
      <trkpt lat="47.73649" lon="6.1024">
        <ele>336.58</ele>
        <time>2017-10-18T09:04:45Z</time>
      </trkpt>
      <trkpt lat="47.73647" lon="6.10231">
        <ele>336.24</ele>
        <time>2017-10-18T09:04:47Z</time>
      </trkpt>
      <trkpt lat="47.73645" lon="6.10223">
        <ele>335.83</ele>
        <time>2017-10-18T09:04:49Z</time>
      </trkpt>
      <trkpt lat="47.73644" lon="6.10216">
        <ele>335.38</ele>
        <time>2017-10-18T09:04:51Z</time>
      </trkpt>
      <trkpt lat="47.73644" lon="6.10205">
        <ele>334.61</ele>
        <time>2017-10-18T09:04:54Z</time>
      </trkpt>
      <trkpt lat="47.73645" lon="6.10198">
        <ele>333.68</ele>
        <time>2017-10-18T09:04:57Z</time>
      </trkpt>
      <trkpt lat="47.73649" lon="6.10194">
        <ele>331.05</ele>
        <time>2017-10-18T09:05:26Z</time>
      </trkpt>
      <trkpt lat="47.73653" lon="6.10188">
        <ele>330.01</ele>
        <time>2017-10-18T09:05:28Z</time>
      </trkpt>
      <trkpt lat="47.73658" lon="6.10183">
        <ele>328.99</ele>
        <time>2017-10-18T09:05:30Z</time>
      </trkpt>
      <trkpt lat="47.73663" lon="6.10179">
        <ele>328.49</ele>
        <time>2017-10-18T09:05:31Z</time>
      </trkpt>
      <trkpt lat="47.73667" lon="6.10175">
        <ele>324.67</ele>
        <time>2017-10-18T09:05:32Z</time>
      </trkpt>
      <trkpt lat="47.73671" lon="6.10171">
        <ele>320.61</ele>
        <time>2017-10-18T09:05:33Z</time>
      </trkpt>
      <trkpt lat="47.73675" lon="6.10166">
        <ele>316.64</ele>
        <time>2017-10-18T09:05:34Z</time>
      </trkpt>
      <trkpt lat="47.73679" lon="6.10161">
        <ele>313.11</ele>
        <time>2017-10-18T09:05:35Z</time>
      </trkpt>
      <trkpt lat="47.73683" lon="6.10155">
        <ele>310.02</ele>
        <time>2017-10-18T09:05:36Z</time>
      </trkpt>
      <trkpt lat="47.73686" lon="6.10148">
        <ele>307.36</ele>
        <time>2017-10-18T09:05:37Z</time>
      </trkpt>
      <trkpt lat="47.73689" lon="6.10142">
        <ele>304.82</ele>
        <time>2017-10-18T09:05:38Z</time>
      </trkpt>
      <trkpt lat="47.73693" lon="6.10135">
        <ele>302.37</ele>
        <time>2017-10-18T09:05:39Z</time>
      </trkpt>
      <trkpt lat="47.73696" lon="6.1013">
        <ele>299.97</ele>
        <time>2017-10-18T09:05:40Z</time>
      </trkpt>
      <trkpt lat="47.737" lon="6.10123">
        <ele>297.71</ele>
        <time>2017-10-18T09:05:41Z</time>
      </trkpt>
      <trkpt lat="47.73703" lon="6.10118">
        <ele>295.68</ele>
        <time>2017-10-18T09:05:42Z</time>
      </trkpt>
      <trkpt lat="47.73706" lon="6.10112">
        <ele>293.81</ele>
        <time>2017-10-18T09:05:43Z</time>
      </trkpt>
      <trkpt lat="47.73709" lon="6.10106">
        <ele>292.08</ele>
        <time>2017-10-18T09:05:44Z</time>
      </trkpt>
      <trkpt lat="47.73713" lon="6.10101">
        <ele>290.51</ele>
        <time>2017-10-18T09:05:45Z</time>
      </trkpt>
      <trkpt lat="47.73715" lon="6.10095">
        <ele>289.04</ele>
        <time>2017-10-18T09:05:46Z</time>
      </trkpt>
      <trkpt lat="47.73718" lon="6.10089">
        <ele>287.66</ele>
        <time>2017-10-18T09:05:47Z</time>
      </trkpt>
      <trkpt lat="47.7372" lon="6.10082">
        <ele>286.46</ele>
        <time>2017-10-18T09:05:48Z</time>
      </trkpt>
      <trkpt lat="47.73726" lon="6.10071">
        <ele>284.24</ele>
        <time>2017-10-18T09:05:50Z</time>
      </trkpt>
      <trkpt lat="47.73728" lon="6.10065">
        <ele>283.24</ele>
        <time>2017-10-18T09:05:51Z</time>
      </trkpt>
      <trkpt lat="47.73733" lon="6.10055">
        <ele>281.6</ele>
        <time>2017-10-18T09:05:53Z</time>
      </trkpt>
      <trkpt lat="47.73736" lon="6.10048">
        <ele>280.81</ele>
        <time>2017-10-18T09:05:54Z</time>
      </trkpt>
      <trkpt lat="47.73739" lon="6.10042">
        <ele>280</ele>
        <time>2017-10-18T09:05:55Z</time>
      </trkpt>
      <trkpt lat="47.73742" lon="6.10035">
        <ele>279.25</ele>
        <time>2017-10-18T09:05:56Z</time>
      </trkpt>
      <trkpt lat="47.73745" lon="6.10028">
        <ele>278.47</ele>
        <time>2017-10-18T09:05:57Z</time>
      </trkpt>
      <trkpt lat="47.73748" lon="6.1002">
        <ele>277.76</ele>
        <time>2017-10-18T09:05:58Z</time>
      </trkpt>
      <trkpt lat="47.7375" lon="6.10011">
        <ele>277.01</ele>
        <time>2017-10-18T09:05:59Z</time>
      </trkpt>
      <trkpt lat="47.73753" lon="6.10002">
        <ele>276.23</ele>
        <time>2017-10-18T09:06:00Z</time>
      </trkpt>
      <trkpt lat="47.73757" lon="6.09993">
        <ele>275.52</ele>
        <time>2017-10-18T09:06:01Z</time>
      </trkpt>
      <trkpt lat="47.73761" lon="6.09983">
        <ele>274.8</ele>
        <time>2017-10-18T09:06:02Z</time>
      </trkpt>
      <trkpt lat="47.73765" lon="6.09973">
        <ele>274.07</ele>
        <time>2017-10-18T09:06:03Z</time>
      </trkpt>
      <trkpt lat="47.73769" lon="6.09963">
        <ele>273.35</ele>
        <time>2017-10-18T09:06:04Z</time>
      </trkpt>
      <trkpt lat="47.73773" lon="6.09952">
        <ele>272.64</ele>
        <time>2017-10-18T09:06:05Z</time>
      </trkpt>
      <trkpt lat="47.73776" lon="6.09942">
        <ele>271.97</ele>
        <time>2017-10-18T09:06:06Z</time>
      </trkpt>
      <trkpt lat="47.7378" lon="6.09933">
        <ele>271.32</ele>
        <time>2017-10-18T09:06:07Z</time>
      </trkpt>
      <trkpt lat="47.73783" lon="6.09924">
        <ele>270.7</ele>
        <time>2017-10-18T09:06:08Z</time>
      </trkpt>
      <trkpt lat="47.73787" lon="6.09916">
        <ele>270.09</ele>
        <time>2017-10-18T09:06:09Z</time>
      </trkpt>
      <trkpt lat="47.73791" lon="6.09909">
        <ele>269.5</ele>
        <time>2017-10-18T09:06:10Z</time>
      </trkpt>
      <trkpt lat="47.73795" lon="6.09901">
        <ele>268.96</ele>
        <time>2017-10-18T09:06:11Z</time>
      </trkpt>
      <trkpt lat="47.73799" lon="6.09894">
        <ele>268.45</ele>
        <time>2017-10-18T09:06:12Z</time>
      </trkpt>
      <trkpt lat="47.73802" lon="6.09886">
        <ele>268</ele>
        <time>2017-10-18T09:06:13Z</time>
      </trkpt>
      <trkpt lat="47.73806" lon="6.09879">
        <ele>267.56</ele>
        <time>2017-10-18T09:06:14Z</time>
      </trkpt>
      <trkpt lat="47.73809" lon="6.09872">
        <ele>267.15</ele>
        <time>2017-10-18T09:06:15Z</time>
      </trkpt>
      <trkpt lat="47.73812" lon="6.09861">
        <ele>266.69</ele>
        <time>2017-10-18T09:06:17Z</time>
      </trkpt>
      <trkpt lat="47.73811" lon="6.09855">
        <ele>266.56</ele>
        <time>2017-10-18T09:06:18Z</time>
      </trkpt>
      <trkpt lat="47.73805" lon="6.09845">
        <ele>266.14</ele>
        <time>2017-10-18T09:06:20Z</time>
      </trkpt>
      <trkpt lat="47.73802" lon="6.09834">
        <ele>265.4</ele>
        <time>2017-10-18T09:06:22Z</time>
      </trkpt>
      <trkpt lat="47.73798" lon="6.09823">
        <ele>264.88</ele>
        <time>2017-10-18T09:06:24Z</time>
      </trkpt>
      <trkpt lat="47.73796" lon="6.09816">
        <ele>264.67</ele>
        <time>2017-10-18T09:06:25Z</time>
      </trkpt>
      <trkpt lat="47.73793" lon="6.0981">
        <ele>264.52</ele>
        <time>2017-10-18T09:06:26Z</time>
      </trkpt>
      <trkpt lat="47.73787" lon="6.098">
        <ele>264.19</ele>
        <time>2017-10-18T09:06:28Z</time>
      </trkpt>
      <trkpt lat="47.73784" lon="6.09795">
        <ele>264.03</ele>
        <time>2017-10-18T09:06:29Z</time>
      </trkpt>
      <trkpt lat="47.73781" lon="6.09789">
        <ele>263.86</ele>
        <time>2017-10-18T09:06:30Z</time>
      </trkpt>
      <trkpt lat="47.73778" lon="6.09784">
        <ele>263.69</ele>
        <time>2017-10-18T09:06:31Z</time>
      </trkpt>
      <trkpt lat="47.73772" lon="6.09774">
        <ele>263.29</ele>
        <time>2017-10-18T09:06:33Z</time>
      </trkpt>
      <trkpt lat="47.73767" lon="6.09767">
        <ele>262.88</ele>
        <time>2017-10-18T09:06:35Z</time>
      </trkpt>
      <trkpt lat="47.7376" lon="6.09758">
        <ele>262.46</ele>
        <time>2017-10-18T09:06:37Z</time>
      </trkpt>
      <trkpt lat="47.73756" lon="6.09752">
        <ele>262.23</ele>
        <time>2017-10-18T09:06:38Z</time>
      </trkpt>
      <trkpt lat="47.73753" lon="6.09747">
        <ele>261.99</ele>
        <time>2017-10-18T09:06:39Z</time>
      </trkpt>
      <trkpt lat="47.73749" lon="6.09741">
        <ele>261.71</ele>
        <time>2017-10-18T09:06:40Z</time>
      </trkpt>
      <trkpt lat="47.73745" lon="6.09735">
        <ele>261.46</ele>
        <time>2017-10-18T09:06:41Z</time>
      </trkpt>
      <trkpt lat="47.73742" lon="6.0973">
        <ele>261.23</ele>
        <time>2017-10-18T09:06:42Z</time>
      </trkpt>
      <trkpt lat="47.73738" lon="6.09723">
        <ele>261.03</ele>
        <time>2017-10-18T09:06:43Z</time>
      </trkpt>
      <trkpt lat="47.73735" lon="6.09717">
        <ele>260.84</ele>
        <time>2017-10-18T09:06:44Z</time>
      </trkpt>
      <trkpt lat="47.73732" lon="6.09711">
        <ele>260.65</ele>
        <time>2017-10-18T09:06:45Z</time>
      </trkpt>
      <trkpt lat="47.73728" lon="6.09705">
        <ele>260.46</ele>
        <time>2017-10-18T09:06:46Z</time>
      </trkpt>
      <trkpt lat="47.73725" lon="6.09698">
        <ele>260.31</ele>
        <time>2017-10-18T09:06:47Z</time>
      </trkpt>
      <trkpt lat="47.73722" lon="6.09692">
        <ele>260.17</ele>
        <time>2017-10-18T09:06:48Z</time>
      </trkpt>
      <trkpt lat="47.7372" lon="6.09686">
        <ele>260.04</ele>
        <time>2017-10-18T09:06:49Z</time>
      </trkpt>
      <trkpt lat="47.73717" lon="6.0968">
        <ele>259.9</ele>
        <time>2017-10-18T09:06:50Z</time>
      </trkpt>
      <trkpt lat="47.73714" lon="6.09674">
        <ele>259.77</ele>
        <time>2017-10-18T09:06:51Z</time>
      </trkpt>
      <trkpt lat="47.73711" lon="6.09668">
        <ele>259.65</ele>
        <time>2017-10-18T09:06:52Z</time>
      </trkpt>
      <trkpt lat="47.73708" lon="6.09663">
        <ele>259.53</ele>
        <time>2017-10-18T09:06:53Z</time>
      </trkpt>
      <trkpt lat="47.73706" lon="6.09657">
        <ele>259.42</ele>
        <time>2017-10-18T09:06:54Z</time>
      </trkpt>
      <trkpt lat="47.73702" lon="6.09651">
        <ele>259.3</ele>
        <time>2017-10-18T09:06:55Z</time>
      </trkpt>
      <trkpt lat="47.737" lon="6.09646">
        <ele>259.19</ele>
        <time>2017-10-18T09:06:56Z</time>
      </trkpt>
      <trkpt lat="47.73697" lon="6.0964">
        <ele>259.08</ele>
        <time>2017-10-18T09:06:57Z</time>
      </trkpt>
      <trkpt lat="47.73694" lon="6.09633">
        <ele>258.98</ele>
        <time>2017-10-18T09:06:58Z</time>
      </trkpt>
      <trkpt lat="47.7369" lon="6.09626">
        <ele>258.89</ele>
        <time>2017-10-18T09:06:59Z</time>
      </trkpt>
      <trkpt lat="47.73687" lon="6.0962">
        <ele>258.81</ele>
        <time>2017-10-18T09:07:00Z</time>
      </trkpt>
      <trkpt lat="47.73683" lon="6.09613">
        <ele>258.73</ele>
        <time>2017-10-18T09:07:01Z</time>
      </trkpt>
      <trkpt lat="47.73679" lon="6.09607">
        <ele>258.65</ele>
        <time>2017-10-18T09:07:02Z</time>
      </trkpt>
      <trkpt lat="47.73675" lon="6.09601">
        <ele>258.58</ele>
        <time>2017-10-18T09:07:03Z</time>
      </trkpt>
      <trkpt lat="47.73671" lon="6.09595">
        <ele>258.51</ele>
        <time>2017-10-18T09:07:04Z</time>
      </trkpt>
      <trkpt lat="47.73667" lon="6.09589">
        <ele>258.44</ele>
        <time>2017-10-18T09:07:05Z</time>
      </trkpt>
      <trkpt lat="47.73663" lon="6.09582">
        <ele>258.37</ele>
        <time>2017-10-18T09:07:06Z</time>
      </trkpt>
      <trkpt lat="47.73659" lon="6.09577">
        <ele>258.31</ele>
        <time>2017-10-18T09:07:07Z</time>
      </trkpt>
      <trkpt lat="47.73655" lon="6.09572">
        <ele>258.25</ele>
        <time>2017-10-18T09:07:08Z</time>
      </trkpt>
      <trkpt lat="47.73652" lon="6.09567">
        <ele>258.19</ele>
        <time>2017-10-18T09:07:09Z</time>
      </trkpt>
      <trkpt lat="47.73648" lon="6.09562">
        <ele>258.13</ele>
        <time>2017-10-18T09:07:10Z</time>
      </trkpt>
      <trkpt lat="47.73645" lon="6.09557">
        <ele>258.07</ele>
        <time>2017-10-18T09:07:11Z</time>
      </trkpt>
      <trkpt lat="47.73638" lon="6.09546">
        <ele>257.96</ele>
        <time>2017-10-18T09:07:13Z</time>
      </trkpt>
      <trkpt lat="47.73633" lon="6.0954">
        <ele>257.92</ele>
        <time>2017-10-18T09:07:14Z</time>
      </trkpt>
      <trkpt lat="47.73629" lon="6.09535">
        <ele>257.87</ele>
        <time>2017-10-18T09:07:15Z</time>
      </trkpt>
      <trkpt lat="47.73625" lon="6.09529">
        <ele>257.83</ele>
        <time>2017-10-18T09:07:16Z</time>
      </trkpt>
      <trkpt lat="47.73622" lon="6.09523">
        <ele>257.8</ele>
        <time>2017-10-18T09:07:17Z</time>
      </trkpt>
      <trkpt lat="47.73618" lon="6.09518">
        <ele>257.77</ele>
        <time>2017-10-18T09:07:18Z</time>
      </trkpt>
      <trkpt lat="47.73611" lon="6.09511">
        <ele>257.74</ele>
        <time>2017-10-18T09:07:20Z</time>
      </trkpt>
      <trkpt lat="47.73606" lon="6.09503">
        <ele>257.72</ele>
        <time>2017-10-18T09:07:22Z</time>
      </trkpt>
      <trkpt lat="47.736" lon="6.09496">
        <ele>257.7</ele>
        <time>2017-10-18T09:07:24Z</time>
      </trkpt>
      <trkpt lat="47.73598" lon="6.09488">
        <ele>257.67</ele>
        <time>2017-10-18T09:07:26Z</time>
      </trkpt>
      <trkpt lat="47.73594" lon="6.09483">
        <ele>257.66</ele>
        <time>2017-10-18T09:07:27Z</time>
      </trkpt>
      <trkpt lat="47.73589" lon="6.09475">
        <ele>257.65</ele>
        <time>2017-10-18T09:07:29Z</time>
      </trkpt>
      <trkpt lat="47.73586" lon="6.0947">
        <ele>257.64</ele>
        <time>2017-10-18T09:07:31Z</time>
      </trkpt>
      <trkpt lat="47.73583" lon="6.09459">
        <ele>257.59</ele>
        <time>2017-10-18T09:07:33Z</time>
      </trkpt>
      <trkpt lat="47.73577" lon="6.09446">
        <ele>257.52</ele>
        <time>2017-10-18T09:07:34Z</time>
      </trkpt>
      <trkpt lat="47.73574" lon="6.09436">
        <ele>257.46</ele>
        <time>2017-10-18T09:07:35Z</time>
      </trkpt>
      <trkpt lat="47.7357" lon="6.09427">
        <ele>257.39</ele>
        <time>2017-10-18T09:07:36Z</time>
      </trkpt>
      <trkpt lat="47.73567" lon="6.09421">
        <ele>257.37</ele>
        <time>2017-10-18T09:07:37Z</time>
      </trkpt>
      <trkpt lat="47.73565" lon="6.09414">
        <ele>257.32</ele>
        <time>2017-10-18T09:07:38Z</time>
      </trkpt>
      <trkpt lat="47.73556" lon="6.09398">
        <ele>257.27</ele>
        <time>2017-10-18T09:07:39Z</time>
      </trkpt>
      <trkpt lat="47.73551" lon="6.09389">
        <ele>257.22</ele>
        <time>2017-10-18T09:07:40Z</time>
      </trkpt>
      <trkpt lat="47.73545" lon="6.09378">
        <ele>257.18</ele>
        <time>2017-10-18T09:07:41Z</time>
      </trkpt>
      <trkpt lat="47.73536" lon="6.09368">
        <ele>257.13</ele>
        <time>2017-10-18T09:07:42Z</time>
      </trkpt>
      <trkpt lat="47.73525" lon="6.0936">
        <ele>257.09</ele>
        <time>2017-10-18T09:07:43Z</time>
      </trkpt>
      <trkpt lat="47.73516" lon="6.09348">
        <ele>257.05</ele>
        <time>2017-10-18T09:07:44Z</time>
      </trkpt>
      <trkpt lat="47.73509" lon="6.09341">
        <ele>257.01</ele>
        <time>2017-10-18T09:07:45Z</time>
      </trkpt>
      <trkpt lat="47.73501" lon="6.09336">
        <ele>256.99</ele>
        <time>2017-10-18T09:07:46Z</time>
      </trkpt>
      <trkpt lat="47.73494" lon="6.09334">
        <ele>256.97</ele>
        <time>2017-10-18T09:07:47Z</time>
      </trkpt>
      <trkpt lat="47.73486" lon="6.09332">
        <ele>256.93</ele>
        <time>2017-10-18T09:07:48Z</time>
      </trkpt>
      <trkpt lat="47.73478" lon="6.0933">
        <ele>256.85</ele>
        <time>2017-10-18T09:07:49Z</time>
      </trkpt>
      <trkpt lat="47.7347" lon="6.09328">
        <ele>256.76</ele>
        <time>2017-10-18T09:07:50Z</time>
      </trkpt>
      <trkpt lat="47.73464" lon="6.09326">
        <ele>256.64</ele>
        <time>2017-10-18T09:07:51Z</time>
      </trkpt>
      <trkpt lat="47.73458" lon="6.09323">
        <ele>256.47</ele>
        <time>2017-10-18T09:07:52Z</time>
      </trkpt>
      <trkpt lat="47.73453" lon="6.09322">
        <ele>256.27</ele>
        <time>2017-10-18T09:07:53Z</time>
      </trkpt>
      <trkpt lat="47.73447" lon="6.09322">
        <ele>256.05</ele>
        <time>2017-10-18T09:07:54Z</time>
      </trkpt>
      <trkpt lat="47.73443" lon="6.09322">
        <ele>255.96</ele>
        <time>2017-10-18T09:07:55Z</time>
      </trkpt>
      <trkpt lat="47.73437" lon="6.09323">
        <ele>255.86</ele>
        <time>2017-10-18T09:07:57Z</time>
      </trkpt>
      <trkpt lat="47.73432" lon="6.09328">
        <ele>255.68</ele>
        <time>2017-10-18T09:08:00Z</time>
      </trkpt>
      <trkpt lat="47.73427" lon="6.09331">
        <ele>255.54</ele>
        <time>2017-10-18T09:08:02Z</time>
      </trkpt>
      <trkpt lat="47.73423" lon="6.09334">
        <ele>255.37</ele>
        <time>2017-10-18T09:08:04Z</time>
      </trkpt>
      <trkpt lat="47.73417" lon="6.09336">
        <ele>255.08</ele>
        <time>2017-10-18T09:08:07Z</time>
      </trkpt>
      <trkpt lat="47.73411" lon="6.09337">
        <ele>254.79</ele>
        <time>2017-10-18T09:08:10Z</time>
      </trkpt>
      <trkpt lat="47.73404" lon="6.09335">
        <ele>254.54</ele>
        <time>2017-10-18T09:08:13Z</time>
      </trkpt>
      <trkpt lat="47.73399" lon="6.09332">
        <ele>254.27</ele>
        <time>2017-10-18T09:08:18Z</time>
      </trkpt>
      <trkpt lat="47.73395" lon="6.09328">
        <ele>254.24</ele>
        <time>2017-10-18T09:08:23Z</time>
      </trkpt>
      <trkpt lat="47.73391" lon="6.09324">
        <ele>254.28</ele>
        <time>2017-10-18T09:08:27Z</time>
      </trkpt>
      <trkpt lat="47.73387" lon="6.0932">
        <ele>254.33</ele>
        <time>2017-10-18T09:08:30Z</time>
      </trkpt>
      <trkpt lat="47.73383" lon="6.09316">
        <ele>254.35</ele>
        <time>2017-10-18T09:08:32Z</time>
      </trkpt>
      <trkpt lat="47.73378" lon="6.0931">
        <ele>254.36</ele>
        <time>2017-10-18T09:08:35Z</time>
      </trkpt>
      <trkpt lat="47.73373" lon="6.09305">
        <ele>254.36</ele>
        <time>2017-10-18T09:08:38Z</time>
      </trkpt>
      <trkpt lat="47.73369" lon="6.093">
        <ele>254.33</ele>
        <time>2017-10-18T09:08:41Z</time>
      </trkpt>
      <trkpt lat="47.73365" lon="6.09295">
        <ele>254.32</ele>
        <time>2017-10-18T09:08:43Z</time>
      </trkpt>
      <trkpt lat="47.7336" lon="6.0929">
        <ele>254.31</ele>
        <time>2017-10-18T09:08:47Z</time>
      </trkpt>
      <trkpt lat="47.73356" lon="6.09286">
        <ele>254.32</ele>
        <time>2017-10-18T09:08:49Z</time>
      </trkpt>
      <trkpt lat="47.73352" lon="6.0928">
        <ele>254.36</ele>
        <time>2017-10-18T09:08:52Z</time>
      </trkpt>
      <trkpt lat="47.73348" lon="6.09275">
        <ele>254.45</ele>
        <time>2017-10-18T09:08:56Z</time>
      </trkpt>
      <trkpt lat="47.73345" lon="6.0927">
        <ele>254.53</ele>
        <time>2017-10-18T09:08:59Z</time>
      </trkpt>
      <trkpt lat="47.73341" lon="6.09263">
        <ele>254.63</ele>
        <time>2017-10-18T09:09:02Z</time>
      </trkpt>
      <trkpt lat="47.73338" lon="6.09256">
        <ele>254.81</ele>
        <time>2017-10-18T09:09:06Z</time>
      </trkpt>
      <trkpt lat="47.73334" lon="6.09252">
        <ele>255.02</ele>
        <time>2017-10-18T09:09:10Z</time>
      </trkpt>
      <trkpt lat="47.7333" lon="6.09248">
        <ele>255.29</ele>
        <time>2017-10-18T09:09:15Z</time>
      </trkpt>
      <trkpt lat="47.73327" lon="6.09243">
        <ele>255.5</ele>
        <time>2017-10-18T09:09:19Z</time>
      </trkpt>
      <trkpt lat="47.73323" lon="6.09239">
        <ele>255.69</ele>
        <time>2017-10-18T09:09:23Z</time>
      </trkpt>
      <trkpt lat="47.73319" lon="6.09236">
        <ele>255.89</ele>
        <time>2017-10-18T09:09:27Z</time>
      </trkpt>
      <trkpt lat="47.73314" lon="6.0923">
        <ele>256</ele>
        <time>2017-10-18T09:09:30Z</time>
      </trkpt>
      <trkpt lat="47.7331" lon="6.09227">
        <ele>256.33</ele>
        <time>2017-10-18T09:09:37Z</time>
      </trkpt>
      <trkpt lat="47.73305" lon="6.09224">
        <ele>256.49</ele>
        <time>2017-10-18T09:09:40Z</time>
      </trkpt>
      <trkpt lat="47.733" lon="6.09219">
        <ele>256.73</ele>
        <time>2017-10-18T09:09:45Z</time>
      </trkpt>
      <trkpt lat="47.73296" lon="6.09215">
        <ele>256.9</ele>
        <time>2017-10-18T09:09:49Z</time>
      </trkpt>
      <trkpt lat="47.73292" lon="6.09209">
        <ele>256.99</ele>
        <time>2017-10-18T09:10:02Z</time>
      </trkpt>
      <trkpt lat="47.73288" lon="6.09206">
        <ele>257.11</ele>
        <time>2017-10-18T09:10:05Z</time>
      </trkpt>
      <trkpt lat="47.7328" lon="6.09204">
        <ele>257.22</ele>
        <time>2017-10-18T09:10:08Z</time>
      </trkpt>
      <trkpt lat="47.73276" lon="6.09202">
        <ele>257.3</ele>
        <time>2017-10-18T09:10:10Z</time>
      </trkpt>
      <trkpt lat="47.73271" lon="6.092">
        <ele>257.37</ele>
        <time>2017-10-18T09:10:12Z</time>
      </trkpt>
      <trkpt lat="47.73265" lon="6.09198">
        <ele>257.47</ele>
        <time>2017-10-18T09:10:15Z</time>
      </trkpt>
      <trkpt lat="47.7326" lon="6.09195">
        <ele>257.57</ele>
        <time>2017-10-18T09:10:18Z</time>
      </trkpt>
      <trkpt lat="47.73253" lon="6.09192">
        <ele>257.63</ele>
        <time>2017-10-18T09:10:20Z</time>
      </trkpt>
      <trkpt lat="47.73247" lon="6.09188">
        <ele>257.7</ele>
        <time>2017-10-18T09:10:22Z</time>
      </trkpt>
      <trkpt lat="47.7324" lon="6.09185">
        <ele>257.76</ele>
        <time>2017-10-18T09:10:24Z</time>
      </trkpt>
      <trkpt lat="47.73235" lon="6.09182">
        <ele>257.82</ele>
        <time>2017-10-18T09:10:26Z</time>
      </trkpt>
      <trkpt lat="47.73231" lon="6.09179">
        <ele>257.88</ele>
        <time>2017-10-18T09:10:28Z</time>
      </trkpt>
      <trkpt lat="47.73226" lon="6.09178">
        <ele>257.94</ele>
        <time>2017-10-18T09:10:30Z</time>
      </trkpt>
      <trkpt lat="47.7322" lon="6.09177">
        <ele>257.99</ele>
        <time>2017-10-18T09:10:32Z</time>
      </trkpt>
      <trkpt lat="47.73214" lon="6.09175">
        <ele>258.05</ele>
        <time>2017-10-18T09:10:34Z</time>
      </trkpt>
      <trkpt lat="47.7321" lon="6.09171">
        <ele>258.09</ele>
        <time>2017-10-18T09:10:36Z</time>
      </trkpt>
      <trkpt lat="47.73206" lon="6.09163">
        <ele>258.14</ele>
        <time>2017-10-18T09:10:38Z</time>
      </trkpt>
      <trkpt lat="47.73203" lon="6.09152">
        <ele>258.3</ele>
        <time>2017-10-18T09:10:40Z</time>
      </trkpt>
      <trkpt lat="47.73201" lon="6.09141">
        <ele>258.37</ele>
        <time>2017-10-18T09:10:42Z</time>
      </trkpt>
      <trkpt lat="47.73197" lon="6.0913">
        <ele>258.41</ele>
        <time>2017-10-18T09:10:44Z</time>
      </trkpt>
      <trkpt lat="47.73194" lon="6.09122">
        <ele>258.44</ele>
        <time>2017-10-18T09:10:46Z</time>
      </trkpt>
      <trkpt lat="47.7319" lon="6.09114">
        <ele>258.46</ele>
        <time>2017-10-18T09:10:48Z</time>
      </trkpt>
      <trkpt lat="47.73186" lon="6.09108">
        <ele>258.49</ele>
        <time>2017-10-18T09:10:50Z</time>
      </trkpt>
      <trkpt lat="47.73181" lon="6.09102">
        <ele>258.52</ele>
        <time>2017-10-18T09:10:52Z</time>
      </trkpt>
      <trkpt lat="47.73176" lon="6.09097">
        <ele>258.56</ele>
        <time>2017-10-18T09:10:54Z</time>
      </trkpt>
      <trkpt lat="47.73171" lon="6.09092">
        <ele>258.59</ele>
        <time>2017-10-18T09:10:56Z</time>
      </trkpt>
      <trkpt lat="47.73166" lon="6.0909">
        <ele>258.62</ele>
        <time>2017-10-18T09:10:58Z</time>
      </trkpt>
      <trkpt lat="47.73162" lon="6.09087">
        <ele>258.66</ele>
        <time>2017-10-18T09:11:00Z</time>
      </trkpt>
      <trkpt lat="47.73157" lon="6.09084">
        <ele>258.69</ele>
        <time>2017-10-18T09:11:02Z</time>
      </trkpt>
      <trkpt lat="47.73151" lon="6.09079">
        <ele>258.74</ele>
        <time>2017-10-18T09:11:05Z</time>
      </trkpt>
      <trkpt lat="47.73146" lon="6.09076">
        <ele>258.78</ele>
        <time>2017-10-18T09:11:07Z</time>
      </trkpt>
      <trkpt lat="47.73141" lon="6.09073">
        <ele>258.81</ele>
        <time>2017-10-18T09:11:09Z</time>
      </trkpt>
      <trkpt lat="47.73136" lon="6.0907">
        <ele>258.87</ele>
        <time>2017-10-18T09:11:12Z</time>
      </trkpt>
      <trkpt lat="47.73132" lon="6.09066">
        <ele>258.9</ele>
        <time>2017-10-18T09:11:14Z</time>
      </trkpt>
      <trkpt lat="47.73126" lon="6.09062">
        <ele>258.95</ele>
        <time>2017-10-18T09:11:17Z</time>
      </trkpt>
      <trkpt lat="47.73121" lon="6.09059">
        <ele>258.99</ele>
        <time>2017-10-18T09:11:19Z</time>
      </trkpt>
      <trkpt lat="47.73116" lon="6.09054">
        <ele>259.04</ele>
        <time>2017-10-18T09:11:22Z</time>
      </trkpt>
      <trkpt lat="47.7311" lon="6.0905">
        <ele>259.08</ele>
        <time>2017-10-18T09:11:24Z</time>
      </trkpt>
      <trkpt lat="47.73106" lon="6.09047">
        <ele>259.11</ele>
        <time>2017-10-18T09:11:26Z</time>
      </trkpt>
      <trkpt lat="47.731" lon="6.0904">
        <ele>259.15</ele>
        <time>2017-10-18T09:11:28Z</time>
      </trkpt>
      <trkpt lat="47.73094" lon="6.09034">
        <ele>259.22</ele>
        <time>2017-10-18T09:11:31Z</time>
      </trkpt>
      <trkpt lat="47.73091" lon="6.09028">
        <ele>259.26</ele>
        <time>2017-10-18T09:11:33Z</time>
      </trkpt>
      <trkpt lat="47.73087" lon="6.0902">
        <ele>259.31</ele>
        <time>2017-10-18T09:11:35Z</time>
      </trkpt>
      <trkpt lat="47.73083" lon="6.09014">
        <ele>259.33</ele>
        <time>2017-10-18T09:11:36Z</time>
      </trkpt>
      <trkpt lat="47.73079" lon="6.09008">
        <ele>259.35</ele>
        <time>2017-10-18T09:11:37Z</time>
      </trkpt>
      <trkpt lat="47.73075" lon="6.09004">
        <ele>259.37</ele>
        <time>2017-10-18T09:11:38Z</time>
      </trkpt>
      <trkpt lat="47.73069" lon="6.08998">
        <ele>259.41</ele>
        <time>2017-10-18T09:11:40Z</time>
      </trkpt>
      <trkpt lat="47.73063" lon="6.08992">
        <ele>259.46</ele>
        <time>2017-10-18T09:11:42Z</time>
      </trkpt>
      <trkpt lat="47.73059" lon="6.08987">
        <ele>259.5</ele>
        <time>2017-10-18T09:11:44Z</time>
      </trkpt>
      <trkpt lat="47.73056" lon="6.0898">
        <ele>259.54</ele>
        <time>2017-10-18T09:11:46Z</time>
      </trkpt>
      <trkpt lat="47.7305" lon="6.08971">
        <ele>259.71</ele>
        <time>2017-10-18T09:11:48Z</time>
      </trkpt>
      <trkpt lat="47.73043" lon="6.08959">
        <ele>260.02</ele>
        <time>2017-10-18T09:11:50Z</time>
      </trkpt>
      <trkpt lat="47.7304" lon="6.08954">
        <ele>260.08</ele>
        <time>2017-10-18T09:11:51Z</time>
      </trkpt>
      <trkpt lat="47.73032" lon="6.08946">
        <ele>260.21</ele>
        <time>2017-10-18T09:11:53Z</time>
      </trkpt>
      <trkpt lat="47.73028" lon="6.08941">
        <ele>260.23</ele>
        <time>2017-10-18T09:11:54Z</time>
      </trkpt>
      <trkpt lat="47.73022" lon="6.08934">
        <ele>260.25</ele>
        <time>2017-10-18T09:11:56Z</time>
      </trkpt>
      <trkpt lat="47.73018" lon="6.08926">
        <ele>260.27</ele>
        <time>2017-10-18T09:11:58Z</time>
      </trkpt>
      <trkpt lat="47.73014" lon="6.08919">
        <ele>260.29</ele>
        <time>2017-10-18T09:12:00Z</time>
      </trkpt>
      <trkpt lat="47.73009" lon="6.08912">
        <ele>260.32</ele>
        <time>2017-10-18T09:12:02Z</time>
      </trkpt>
      <trkpt lat="47.73005" lon="6.08906">
        <ele>260.35</ele>
        <time>2017-10-18T09:12:05Z</time>
      </trkpt>
      <trkpt lat="47.73004" lon="6.08898">
        <ele>260.38</ele>
        <time>2017-10-18T09:12:08Z</time>
      </trkpt>
      <trkpt lat="47.73004" lon="6.08887">
        <ele>260.4</ele>
        <time>2017-10-18T09:12:10Z</time>
      </trkpt>
      <trkpt lat="47.73004" lon="6.08878">
        <ele>260.41</ele>
        <time>2017-10-18T09:12:12Z</time>
      </trkpt>
      <trkpt lat="47.73007" lon="6.0887">
        <ele>260.44</ele>
        <time>2017-10-18T09:12:15Z</time>
      </trkpt>
      <trkpt lat="47.7301" lon="6.08862">
        <ele>260.46</ele>
        <time>2017-10-18T09:12:18Z</time>
      </trkpt>
      <trkpt lat="47.73012" lon="6.08855">
        <ele>260.49</ele>
        <time>2017-10-18T09:12:21Z</time>
      </trkpt>
      <trkpt lat="47.73013" lon="6.08849">
        <ele>260.52</ele>
        <time>2017-10-18T09:12:24Z</time>
      </trkpt>
      <trkpt lat="47.73014" lon="6.08842">
        <ele>260.55</ele>
        <time>2017-10-18T09:12:28Z</time>
      </trkpt>
      <trkpt lat="47.73014" lon="6.08833">
        <ele>260.59</ele>
        <time>2017-10-18T09:12:32Z</time>
      </trkpt>
      <trkpt lat="47.73016" lon="6.08826">
        <ele>260.62</ele>
        <time>2017-10-18T09:12:36Z</time>
      </trkpt>
      <trkpt lat="47.73017" lon="6.08818">
        <ele>260.65</ele>
        <time>2017-10-18T09:12:40Z</time>
      </trkpt>
      <trkpt lat="47.73017" lon="6.08808">
        <ele>260.66</ele>
        <time>2017-10-18T09:12:42Z</time>
      </trkpt>
      <trkpt lat="47.73018" lon="6.088">
        <ele>260.68</ele>
        <time>2017-10-18T09:12:45Z</time>
      </trkpt>
      <trkpt lat="47.73019" lon="6.08791">
        <ele>260.7</ele>
        <time>2017-10-18T09:12:48Z</time>
      </trkpt>
      <trkpt lat="47.7302" lon="6.08783">
        <ele>260.72</ele>
        <time>2017-10-18T09:12:51Z</time>
      </trkpt>
      <trkpt lat="47.73021" lon="6.08775">
        <ele>260.74</ele>
        <time>2017-10-18T09:12:54Z</time>
      </trkpt>
      <trkpt lat="47.73023" lon="6.08767">
        <ele>260.76</ele>
        <time>2017-10-18T09:12:57Z</time>
      </trkpt>
      <trkpt lat="47.73024" lon="6.08758">
        <ele>260.78</ele>
        <time>2017-10-18T09:13:00Z</time>
      </trkpt>
      <trkpt lat="47.73025" lon="6.08751">
        <ele>260.8</ele>
        <time>2017-10-18T09:13:04Z</time>
      </trkpt>
      <trkpt lat="47.73026" lon="6.08743">
        <ele>260.81</ele>
        <time>2017-10-18T09:13:07Z</time>
      </trkpt>
      <trkpt lat="47.73025" lon="6.08735">
        <ele>260.83</ele>
        <time>2017-10-18T09:13:11Z</time>
      </trkpt>
      <trkpt lat="47.73025" lon="6.08726">
        <ele>260.84</ele>
        <time>2017-10-18T09:13:13Z</time>
      </trkpt>
      <trkpt lat="47.73024" lon="6.08717">
        <ele>260.86</ele>
        <time>2017-10-18T09:13:15Z</time>
      </trkpt>
      <trkpt lat="47.73023" lon="6.08709">
        <ele>260.87</ele>
        <time>2017-10-18T09:13:17Z</time>
      </trkpt>
      <trkpt lat="47.73022" lon="6.08701">
        <ele>260.89</ele>
        <time>2017-10-18T09:13:20Z</time>
      </trkpt>
      <trkpt lat="47.7302" lon="6.08693">
        <ele>260.91</ele>
        <time>2017-10-18T09:13:22Z</time>
      </trkpt>
      <trkpt lat="47.73019" lon="6.08686">
        <ele>260.94</ele>
        <time>2017-10-18T09:13:25Z</time>
      </trkpt>
      <trkpt lat="47.73022" lon="6.08679">
        <ele>260.98</ele>
        <time>2017-10-18T09:13:29Z</time>
      </trkpt>
      <trkpt lat="47.73025" lon="6.08672">
        <ele>261.02</ele>
        <time>2017-10-18T09:13:33Z</time>
      </trkpt>
      <trkpt lat="47.73029" lon="6.08667">
        <ele>261.06</ele>
        <time>2017-10-18T09:13:37Z</time>
      </trkpt>
      <trkpt lat="47.73031" lon="6.08661">
        <ele>261.09</ele>
        <time>2017-10-18T09:13:40Z</time>
      </trkpt>
      <trkpt lat="47.73034" lon="6.08655">
        <ele>261.12</ele>
        <time>2017-10-18T09:13:43Z</time>
      </trkpt>
      <trkpt lat="47.73037" lon="6.08647">
        <ele>261.15</ele>
        <time>2017-10-18T09:13:46Z</time>
      </trkpt>
      <trkpt lat="47.73039" lon="6.0864">
        <ele>261.18</ele>
        <time>2017-10-18T09:13:49Z</time>
      </trkpt>
      <trkpt lat="47.7304" lon="6.08633">
        <ele>261.21</ele>
        <time>2017-10-18T09:13:52Z</time>
      </trkpt>
      <trkpt lat="47.73043" lon="6.08627">
        <ele>261.24</ele>
        <time>2017-10-18T09:13:55Z</time>
      </trkpt>
      <trkpt lat="47.73047" lon="6.08622">
        <ele>261.28</ele>
        <time>2017-10-18T09:13:58Z</time>
      </trkpt>
      <trkpt lat="47.7305" lon="6.08616">
        <ele>261.31</ele>
        <time>2017-10-18T09:14:01Z</time>
      </trkpt>
      <trkpt lat="47.73051" lon="6.0861">
        <ele>261.34</ele>
        <time>2017-10-18T09:14:03Z</time>
      </trkpt>
      <trkpt lat="47.73049" lon="6.08602">
        <ele>261.37</ele>
        <time>2017-10-18T09:14:05Z</time>
      </trkpt>
      <trkpt lat="47.73047" lon="6.08594">
        <ele>261.41</ele>
        <time>2017-10-18T09:14:07Z</time>
      </trkpt>
      <trkpt lat="47.73044" lon="6.08588">
        <ele>261.46</ele>
        <time>2017-10-18T09:14:09Z</time>
      </trkpt>
      <trkpt lat="47.73043" lon="6.08581">
        <ele>261.56</ele>
        <time>2017-10-18T09:14:13Z</time>
      </trkpt>
      <trkpt lat="47.73044" lon="6.08573">
        <ele>261.68</ele>
        <time>2017-10-18T09:14:18Z</time>
      </trkpt>
      <trkpt lat="47.73045" lon="6.08566">
        <ele>261.74</ele>
        <time>2017-10-18T09:14:21Z</time>
      </trkpt>
      <trkpt lat="47.73046" lon="6.08558">
        <ele>261.78</ele>
        <time>2017-10-18T09:14:23Z</time>
      </trkpt>
      <trkpt lat="47.73052" lon="6.08548">
        <ele>261.81</ele>
        <time>2017-10-18T09:14:25Z</time>
      </trkpt>
      <trkpt lat="47.73052" lon="6.08541">
        <ele>261.83</ele>
        <time>2017-10-18T09:14:27Z</time>
      </trkpt>
      <trkpt lat="47.73051" lon="6.08531">
        <ele>261.86</ele>
        <time>2017-10-18T09:14:29Z</time>
      </trkpt>
      <trkpt lat="47.73052" lon="6.08522">
        <ele>261.89</ele>
        <time>2017-10-18T09:14:32Z</time>
      </trkpt>
      <trkpt lat="47.7305" lon="6.08512">
        <ele>261.92</ele>
        <time>2017-10-18T09:14:35Z</time>
      </trkpt>
      <trkpt lat="47.7305" lon="6.08502">
        <ele>261.94</ele>
        <time>2017-10-18T09:14:38Z</time>
      </trkpt>
      <trkpt lat="47.73051" lon="6.08495">
        <ele>261.97</ele>
        <time>2017-10-18T09:14:42Z</time>
      </trkpt>
      <trkpt lat="47.73051" lon="6.08484">
        <ele>261.99</ele>
        <time>2017-10-18T09:14:46Z</time>
      </trkpt>
      <trkpt lat="47.7305" lon="6.08477">
        <ele>262</ele>
        <time>2017-10-18T09:14:48Z</time>
      </trkpt>
      <trkpt lat="47.73048" lon="6.08468">
        <ele>262.01</ele>
        <time>2017-10-18T09:14:50Z</time>
      </trkpt>
      <trkpt lat="47.73045" lon="6.08462">
        <ele>262.03</ele>
        <time>2017-10-18T09:14:52Z</time>
      </trkpt>
      <trkpt lat="47.73041" lon="6.08454">
        <ele>262.05</ele>
        <time>2017-10-18T09:14:55Z</time>
      </trkpt>
      <trkpt lat="47.73039" lon="6.08448">
        <ele>262.07</ele>
        <time>2017-10-18T09:15:12Z</time>
      </trkpt>
      <trkpt lat="47.73039" lon="6.08439">
        <ele>262.14</ele>
        <time>2017-10-18T09:15:19Z</time>
      </trkpt>
      <trkpt lat="47.73037" lon="6.08432">
        <ele>262.19</ele>
        <time>2017-10-18T09:15:22Z</time>
      </trkpt>
      <trkpt lat="47.73037" lon="6.08423">
        <ele>262.26</ele>
        <time>2017-10-18T09:15:26Z</time>
      </trkpt>
      <trkpt lat="47.73037" lon="6.08414">
        <ele>262.31</ele>
        <time>2017-10-18T09:15:29Z</time>
      </trkpt>
      <trkpt lat="47.73037" lon="6.08405">
        <ele>262.35</ele>
        <time>2017-10-18T09:15:32Z</time>
      </trkpt>
      <trkpt lat="47.73037" lon="6.08397">
        <ele>262.4</ele>
        <time>2017-10-18T09:15:35Z</time>
      </trkpt>
      <trkpt lat="47.73037" lon="6.08389">
        <ele>262.44</ele>
        <time>2017-10-18T09:15:38Z</time>
      </trkpt>
      <trkpt lat="47.73037" lon="6.08381">
        <ele>262.48</ele>
        <time>2017-10-18T09:15:41Z</time>
      </trkpt>
      <trkpt lat="47.73037" lon="6.08374">
        <ele>262.54</ele>
        <time>2017-10-18T09:15:45Z</time>
      </trkpt>
      <trkpt lat="47.73039" lon="6.08367">
        <ele>262.58</ele>
        <time>2017-10-18T09:15:49Z</time>
      </trkpt>
      <trkpt lat="47.73042" lon="6.08358">
        <ele>262.61</ele>
        <time>2017-10-18T09:15:52Z</time>
      </trkpt>
      <trkpt lat="47.73045" lon="6.08351">
        <ele>262.63</ele>
        <time>2017-10-18T09:15:54Z</time>
      </trkpt>
      <trkpt lat="47.73047" lon="6.08342">
        <ele>262.64</ele>
        <time>2017-10-18T09:15:56Z</time>
      </trkpt>
      <trkpt lat="47.73049" lon="6.08334">
        <ele>262.66</ele>
        <time>2017-10-18T09:15:58Z</time>
      </trkpt>
      <trkpt lat="47.7305" lon="6.08326">
        <ele>262.67</ele>
        <time>2017-10-18T09:16:00Z</time>
      </trkpt>
      <trkpt lat="47.73051" lon="6.08318">
        <ele>262.67</ele>
        <time>2017-10-18T09:16:02Z</time>
      </trkpt>
      <trkpt lat="47.73053" lon="6.0831">
        <ele>262.68</ele>
        <time>2017-10-18T09:16:04Z</time>
      </trkpt>
      <trkpt lat="47.73055" lon="6.08301">
        <ele>262.69</ele>
        <time>2017-10-18T09:16:06Z</time>
      </trkpt>
      <trkpt lat="47.73057" lon="6.08292">
        <ele>262.69</ele>
        <time>2017-10-18T09:16:08Z</time>
      </trkpt>
      <trkpt lat="47.73058" lon="6.08283">
        <ele>262.7</ele>
        <time>2017-10-18T09:16:10Z</time>
      </trkpt>
      <trkpt lat="47.73059" lon="6.08271">
        <ele>262.7</ele>
        <time>2017-10-18T09:16:12Z</time>
      </trkpt>
      <trkpt lat="47.7306" lon="6.08258">
        <ele>262.7</ele>
        <time>2017-10-18T09:16:14Z</time>
      </trkpt>
      <trkpt lat="47.73059" lon="6.08242">
        <ele>262.7</ele>
        <time>2017-10-18T09:16:15Z</time>
      </trkpt>
      <trkpt lat="47.73059" lon="6.08234">
        <ele>262.7</ele>
        <time>2017-10-18T09:16:16Z</time>
      </trkpt>
      <trkpt lat="47.7306" lon="6.08223">
        <ele>262.71</ele>
        <time>2017-10-18T09:16:18Z</time>
      </trkpt>
      <trkpt lat="47.73061" lon="6.08211">
        <ele>262.73</ele>
        <time>2017-10-18T09:16:20Z</time>
      </trkpt>
      <trkpt lat="47.73062" lon="6.08199">
        <ele>262.75</ele>
        <time>2017-10-18T09:16:22Z</time>
      </trkpt>
      <trkpt lat="47.73062" lon="6.08186">
        <ele>262.77</ele>
        <time>2017-10-18T09:16:24Z</time>
      </trkpt>
      <trkpt lat="47.73062" lon="6.08173">
        <ele>262.89</ele>
        <time>2017-10-18T09:16:26Z</time>
      </trkpt>
      <trkpt lat="47.73062" lon="6.08166">
        <ele>262.93</ele>
        <time>2017-10-18T09:16:27Z</time>
      </trkpt>
      <trkpt lat="47.73063" lon="6.08154">
        <ele>262.97</ele>
        <time>2017-10-18T09:16:29Z</time>
      </trkpt>
      <trkpt lat="47.73064" lon="6.08144">
        <ele>263.01</ele>
        <time>2017-10-18T09:16:31Z</time>
      </trkpt>
      <trkpt lat="47.73065" lon="6.08134">
        <ele>263.04</ele>
        <time>2017-10-18T09:16:33Z</time>
      </trkpt>
      <trkpt lat="47.73066" lon="6.08124">
        <ele>263.06</ele>
        <time>2017-10-18T09:16:35Z</time>
      </trkpt>
      <trkpt lat="47.73067" lon="6.08115">
        <ele>263.09</ele>
        <time>2017-10-18T09:16:37Z</time>
      </trkpt>
      <trkpt lat="47.73069" lon="6.08105">
        <ele>263.11</ele>
        <time>2017-10-18T09:16:39Z</time>
      </trkpt>
      <trkpt lat="47.7307" lon="6.08094">
        <ele>263.13</ele>
        <time>2017-10-18T09:16:41Z</time>
      </trkpt>
      <trkpt lat="47.73072" lon="6.08083">
        <ele>263.14</ele>
        <time>2017-10-18T09:16:43Z</time>
      </trkpt>
      <trkpt lat="47.73074" lon="6.08073">
        <ele>263.14</ele>
        <time>2017-10-18T09:16:45Z</time>
      </trkpt>
      <trkpt lat="47.73076" lon="6.08064">
        <ele>263.15</ele>
        <time>2017-10-18T09:16:47Z</time>
      </trkpt>
      <trkpt lat="47.73078" lon="6.08056">
        <ele>263.15</ele>
        <time>2017-10-18T09:16:49Z</time>
      </trkpt>
      <trkpt lat="47.7308" lon="6.08047">
        <ele>263.15</ele>
        <time>2017-10-18T09:16:51Z</time>
      </trkpt>
      <trkpt lat="47.73082" lon="6.08039">
        <ele>263.14</ele>
        <time>2017-10-18T09:16:53Z</time>
      </trkpt>
      <trkpt lat="47.73085" lon="6.0803">
        <ele>263.14</ele>
        <time>2017-10-18T09:16:55Z</time>
      </trkpt>
      <trkpt lat="47.73088" lon="6.08021">
        <ele>263.13</ele>
        <time>2017-10-18T09:16:57Z</time>
      </trkpt>
      <trkpt lat="47.73091" lon="6.08011">
        <ele>263.12</ele>
        <time>2017-10-18T09:16:59Z</time>
      </trkpt>
      <trkpt lat="47.73094" lon="6.08001">
        <ele>263.11</ele>
        <time>2017-10-18T09:17:01Z</time>
      </trkpt>
      <trkpt lat="47.73098" lon="6.07991">
        <ele>263.1</ele>
        <time>2017-10-18T09:17:03Z</time>
      </trkpt>
      <trkpt lat="47.73101" lon="6.07982">
        <ele>263.08</ele>
        <time>2017-10-18T09:17:05Z</time>
      </trkpt>
      <trkpt lat="47.73104" lon="6.07974">
        <ele>263.06</ele>
        <time>2017-10-18T09:17:07Z</time>
      </trkpt>
      <trkpt lat="47.73107" lon="6.07965">
        <ele>263.04</ele>
        <time>2017-10-18T09:17:09Z</time>
      </trkpt>
      <trkpt lat="47.73111" lon="6.07956">
        <ele>262.88</ele>
        <time>2017-10-18T09:17:11Z</time>
      </trkpt>
      <trkpt lat="47.73115" lon="6.07945">
        <ele>262.73</ele>
        <time>2017-10-18T09:17:13Z</time>
      </trkpt>
      <trkpt lat="47.73119" lon="6.07935">
        <ele>262.65</ele>
        <time>2017-10-18T09:17:15Z</time>
      </trkpt>
      <trkpt lat="47.73123" lon="6.07927">
        <ele>262.63</ele>
        <time>2017-10-18T09:17:17Z</time>
      </trkpt>
      <trkpt lat="47.73126" lon="6.0792">
        <ele>262.61</ele>
        <time>2017-10-18T09:17:19Z</time>
      </trkpt>
      <trkpt lat="47.73129" lon="6.07913">
        <ele>262.6</ele>
        <time>2017-10-18T09:17:21Z</time>
      </trkpt>
      <trkpt lat="47.73132" lon="6.07906">
        <ele>262.58</ele>
        <time>2017-10-18T09:17:23Z</time>
      </trkpt>
      <trkpt lat="47.73136" lon="6.07899">
        <ele>262.57</ele>
        <time>2017-10-18T09:17:25Z</time>
      </trkpt>
      <trkpt lat="47.73139" lon="6.07893">
        <ele>262.55</ele>
        <time>2017-10-18T09:17:27Z</time>
      </trkpt>
      <trkpt lat="47.73142" lon="6.07886">
        <ele>262.53</ele>
        <time>2017-10-18T09:17:29Z</time>
      </trkpt>
      <trkpt lat="47.73145" lon="6.07878">
        <ele>262.51</ele>
        <time>2017-10-18T09:17:31Z</time>
      </trkpt>
      <trkpt lat="47.73148" lon="6.0787">
        <ele>262.5</ele>
        <time>2017-10-18T09:17:33Z</time>
      </trkpt>
      <trkpt lat="47.7315" lon="6.07862">
        <ele>262.48</ele>
        <time>2017-10-18T09:17:35Z</time>
      </trkpt>
      <trkpt lat="47.73153" lon="6.07854">
        <ele>262.46</ele>
        <time>2017-10-18T09:17:37Z</time>
      </trkpt>
      <trkpt lat="47.73156" lon="6.07846">
        <ele>262.43</ele>
        <time>2017-10-18T09:17:39Z</time>
      </trkpt>
      <trkpt lat="47.73159" lon="6.07839">
        <ele>262.41</ele>
        <time>2017-10-18T09:17:41Z</time>
      </trkpt>
      <trkpt lat="47.73161" lon="6.07833">
        <ele>262.39</ele>
        <time>2017-10-18T09:17:43Z</time>
      </trkpt>
      <trkpt lat="47.73163" lon="6.07825">
        <ele>262.37</ele>
        <time>2017-10-18T09:17:45Z</time>
      </trkpt>
      <trkpt lat="47.73166" lon="6.07819">
        <ele>262.34</ele>
        <time>2017-10-18T09:17:47Z</time>
      </trkpt>
      <trkpt lat="47.73169" lon="6.07813">
        <ele>262.32</ele>
        <time>2017-10-18T09:17:49Z</time>
      </trkpt>
      <trkpt lat="47.73172" lon="6.07806">
        <ele>262.3</ele>
        <time>2017-10-18T09:17:51Z</time>
      </trkpt>
      <trkpt lat="47.73175" lon="6.07798">
        <ele>262.28</ele>
        <time>2017-10-18T09:17:53Z</time>
      </trkpt>
      <trkpt lat="47.73178" lon="6.07792">
        <ele>262.26</ele>
        <time>2017-10-18T09:17:55Z</time>
      </trkpt>
      <trkpt lat="47.73181" lon="6.07786">
        <ele>262.23</ele>
        <time>2017-10-18T09:17:57Z</time>
      </trkpt>
      <trkpt lat="47.73185" lon="6.07779">
        <ele>262.21</ele>
        <time>2017-10-18T09:17:59Z</time>
      </trkpt>
      <trkpt lat="47.73187" lon="6.07773">
        <ele>262.19</ele>
        <time>2017-10-18T09:18:01Z</time>
      </trkpt>
      <trkpt lat="47.73189" lon="6.07766">
        <ele>262.18</ele>
        <time>2017-10-18T09:18:03Z</time>
      </trkpt>
      <trkpt lat="47.73192" lon="6.0776">
        <ele>262.16</ele>
        <time>2017-10-18T09:18:05Z</time>
      </trkpt>
      <trkpt lat="47.73195" lon="6.07753">
        <ele>262.15</ele>
        <time>2017-10-18T09:18:07Z</time>
      </trkpt>
      <trkpt lat="47.73199" lon="6.07745">
        <ele>262.13</ele>
        <time>2017-10-18T09:18:09Z</time>
      </trkpt>
      <trkpt lat="47.73202" lon="6.07738">
        <ele>262.12</ele>
        <time>2017-10-18T09:18:11Z</time>
      </trkpt>
      <trkpt lat="47.73205" lon="6.07732">
        <ele>262.11</ele>
        <time>2017-10-18T09:18:13Z</time>
      </trkpt>
      <trkpt lat="47.73208" lon="6.07726">
        <ele>262.1</ele>
        <time>2017-10-18T09:18:15Z</time>
      </trkpt>
      <trkpt lat="47.73211" lon="6.07722">
        <ele>262.09</ele>
        <time>2017-10-18T09:18:17Z</time>
      </trkpt>
      <trkpt lat="47.73215" lon="6.07716">
        <ele>262.08</ele>
        <time>2017-10-18T09:18:19Z</time>
      </trkpt>
      <trkpt lat="47.73218" lon="6.07712">
        <ele>262.07</ele>
        <time>2017-10-18T09:18:21Z</time>
      </trkpt>
      <trkpt lat="47.73222" lon="6.07706">
        <ele>262.06</ele>
        <time>2017-10-18T09:18:23Z</time>
      </trkpt>
      <trkpt lat="47.73226" lon="6.077">
        <ele>262.05</ele>
        <time>2017-10-18T09:18:26Z</time>
      </trkpt>
      <trkpt lat="47.73231" lon="6.07694">
        <ele>262.04</ele>
        <time>2017-10-18T09:18:29Z</time>
      </trkpt>
      <trkpt lat="47.73233" lon="6.07687">
        <ele>262.03</ele>
        <time>2017-10-18T09:18:32Z</time>
      </trkpt>
      <trkpt lat="47.73231" lon="6.0768">
        <ele>262.03</ele>
        <time>2017-10-18T09:18:36Z</time>
      </trkpt>
      <trkpt lat="47.73227" lon="6.07676">
        <ele>262.02</ele>
        <time>2017-10-18T09:18:39Z</time>
      </trkpt>
      <trkpt lat="47.73222" lon="6.07672">
        <ele>262.02</ele>
        <time>2017-10-18T09:18:42Z</time>
      </trkpt>
      <trkpt lat="47.7322" lon="6.07665">
        <ele>262.02</ele>
        <time>2017-10-18T09:18:44Z</time>
      </trkpt>
      <trkpt lat="47.73215" lon="6.07656">
        <ele>262.02</ele>
        <time>2017-10-18T09:18:46Z</time>
      </trkpt>
      <trkpt lat="47.73208" lon="6.07647">
        <ele>262.02</ele>
        <time>2017-10-18T09:18:48Z</time>
      </trkpt>
      <trkpt lat="47.73204" lon="6.07641">
        <ele>262.02</ele>
        <time>2017-10-18T09:18:50Z</time>
      </trkpt>
      <trkpt lat="47.73199" lon="6.07636">
        <ele>262.02</ele>
        <time>2017-10-18T09:18:52Z</time>
      </trkpt>
      <trkpt lat="47.73193" lon="6.0763">
        <ele>262.03</ele>
        <time>2017-10-18T09:18:54Z</time>
      </trkpt>
      <trkpt lat="47.73189" lon="6.07624">
        <ele>262.03</ele>
        <time>2017-10-18T09:18:57Z</time>
      </trkpt>
      <trkpt lat="47.73184" lon="6.07615">
        <ele>262.04</ele>
        <time>2017-10-18T09:18:59Z</time>
      </trkpt>
      <trkpt lat="47.7318" lon="6.07608">
        <ele>262.04</ele>
        <time>2017-10-18T09:19:01Z</time>
      </trkpt>
      <trkpt lat="47.73174" lon="6.07602">
        <ele>262.04</ele>
        <time>2017-10-18T09:19:03Z</time>
      </trkpt>
      <trkpt lat="47.7317" lon="6.07592">
        <ele>262.04</ele>
        <time>2017-10-18T09:19:06Z</time>
      </trkpt>
      <trkpt lat="47.73161" lon="6.07582">
        <ele>262.01</ele>
        <time>2017-10-18T09:19:08Z</time>
      </trkpt>
      <trkpt lat="47.73155" lon="6.07575">
        <ele>261.99</ele>
        <time>2017-10-18T09:19:09Z</time>
      </trkpt>
      <trkpt lat="47.73148" lon="6.07568">
        <ele>261.96</ele>
        <time>2017-10-18T09:19:10Z</time>
      </trkpt>
      <trkpt lat="47.73138" lon="6.0756">
        <ele>261.93</ele>
        <time>2017-10-18T09:19:11Z</time>
      </trkpt>
      <trkpt lat="47.73123" lon="6.0755">
        <ele>261.9</ele>
        <time>2017-10-18T09:19:12Z</time>
      </trkpt>
      <trkpt lat="47.73116" lon="6.07542">
        <ele>261.88</ele>
        <time>2017-10-18T09:19:13Z</time>
      </trkpt>
      <trkpt lat="47.73108" lon="6.07535">
        <ele>261.86</ele>
        <time>2017-10-18T09:19:14Z</time>
      </trkpt>
      <trkpt lat="47.73102" lon="6.0753">
        <ele>261.86</ele>
        <time>2017-10-18T09:19:15Z</time>
      </trkpt>
      <trkpt lat="47.73093" lon="6.07522">
        <ele>261.85</ele>
        <time>2017-10-18T09:19:16Z</time>
      </trkpt>
      <trkpt lat="47.73087" lon="6.07514">
        <ele>261.85</ele>
        <time>2017-10-18T09:19:18Z</time>
      </trkpt>
      <trkpt lat="47.73079" lon="6.07503">
        <ele>261.85</ele>
        <time>2017-10-18T09:19:19Z</time>
      </trkpt>
      <trkpt lat="47.73075" lon="6.07498">
        <ele>261.86</ele>
        <time>2017-10-18T09:19:20Z</time>
      </trkpt>
      <trkpt lat="47.73071" lon="6.07493">
        <ele>261.86</ele>
        <time>2017-10-18T09:19:23Z</time>
      </trkpt>
      <trkpt lat="47.73068" lon="6.07487">
        <ele>261.87</ele>
        <time>2017-10-18T09:19:25Z</time>
      </trkpt>
      <trkpt lat="47.73065" lon="6.07481">
        <ele>261.87</ele>
        <time>2017-10-18T09:19:27Z</time>
      </trkpt>
      <trkpt lat="47.73062" lon="6.07475">
        <ele>261.87</ele>
        <time>2017-10-18T09:19:29Z</time>
      </trkpt>
      <trkpt lat="47.73058" lon="6.07469">
        <ele>261.87</ele>
        <time>2017-10-18T09:19:31Z</time>
      </trkpt>
      <trkpt lat="47.73055" lon="6.07463">
        <ele>261.88</ele>
        <time>2017-10-18T09:19:33Z</time>
      </trkpt>
      <trkpt lat="47.7305" lon="6.07457">
        <ele>261.88</ele>
        <time>2017-10-18T09:19:34Z</time>
      </trkpt>
      <trkpt lat="47.73047" lon="6.07451">
        <ele>261.89</ele>
        <time>2017-10-18T09:19:35Z</time>
      </trkpt>
      <trkpt lat="47.7304" lon="6.07444">
        <ele>261.89</ele>
        <time>2017-10-18T09:19:37Z</time>
      </trkpt>
      <trkpt lat="47.73034" lon="6.07437">
        <ele>261.89</ele>
        <time>2017-10-18T09:19:39Z</time>
      </trkpt>
      <trkpt lat="47.73028" lon="6.07431">
        <ele>261.89</ele>
        <time>2017-10-18T09:19:41Z</time>
      </trkpt>
      <trkpt lat="47.73021" lon="6.07424">
        <ele>261.89</ele>
        <time>2017-10-18T09:19:43Z</time>
      </trkpt>
      <trkpt lat="47.73014" lon="6.07415">
        <ele>261.9</ele>
        <time>2017-10-18T09:19:45Z</time>
      </trkpt>
      <trkpt lat="47.73009" lon="6.07407">
        <ele>261.9</ele>
        <time>2017-10-18T09:19:47Z</time>
      </trkpt>
      <trkpt lat="47.73004" lon="6.074">
        <ele>261.9</ele>
        <time>2017-10-18T09:19:49Z</time>
      </trkpt>
      <trkpt lat="47.73" lon="6.07392">
        <ele>261.9</ele>
        <time>2017-10-18T09:19:51Z</time>
      </trkpt>
      <trkpt lat="47.72996" lon="6.07387">
        <ele>261.9</ele>
        <time>2017-10-18T09:19:53Z</time>
      </trkpt>
      <trkpt lat="47.72994" lon="6.07378">
        <ele>261.9</ele>
        <time>2017-10-18T09:19:56Z</time>
      </trkpt>
      <trkpt lat="47.72994" lon="6.07371">
        <ele>261.9</ele>
        <time>2017-10-18T09:19:58Z</time>
      </trkpt>
      <trkpt lat="47.72998" lon="6.07362">
        <ele>261.9</ele>
        <time>2017-10-18T09:20:01Z</time>
      </trkpt>
      <trkpt lat="47.73" lon="6.07355">
        <ele>261.9</ele>
        <time>2017-10-18T09:20:03Z</time>
      </trkpt>
      <trkpt lat="47.73003" lon="6.07345">
        <ele>261.9</ele>
        <time>2017-10-18T09:20:05Z</time>
      </trkpt>
      <trkpt lat="47.73004" lon="6.07333">
        <ele>261.89</ele>
        <time>2017-10-18T09:20:07Z</time>
      </trkpt>
      <trkpt lat="47.73005" lon="6.07324">
        <ele>261.89</ele>
        <time>2017-10-18T09:20:09Z</time>
      </trkpt>
      <trkpt lat="47.73006" lon="6.07317">
        <ele>261.88</ele>
        <time>2017-10-18T09:20:11Z</time>
      </trkpt>
      <trkpt lat="47.73008" lon="6.07311">
        <ele>261.87</ele>
        <time>2017-10-18T09:20:13Z</time>
      </trkpt>
      <trkpt lat="47.73008" lon="6.07301">
        <ele>261.85</ele>
        <time>2017-10-18T09:20:16Z</time>
      </trkpt>
      <trkpt lat="47.7301" lon="6.07294">
        <ele>261.84</ele>
        <time>2017-10-18T09:20:18Z</time>
      </trkpt>
      <trkpt lat="47.73013" lon="6.07287">
        <ele>261.83</ele>
        <time>2017-10-18T09:20:20Z</time>
      </trkpt>
      <trkpt lat="47.73015" lon="6.07281">
        <ele>261.82</ele>
        <time>2017-10-18T09:20:22Z</time>
      </trkpt>
      <trkpt lat="47.73018" lon="6.07275">
        <ele>261.8</ele>
        <time>2017-10-18T09:20:24Z</time>
      </trkpt>
      <trkpt lat="47.73021" lon="6.07268">
        <ele>261.79</ele>
        <time>2017-10-18T09:20:26Z</time>
      </trkpt>
      <trkpt lat="47.73024" lon="6.07262">
        <ele>261.78</ele>
        <time>2017-10-18T09:20:28Z</time>
      </trkpt>
      <trkpt lat="47.73028" lon="6.07256">
        <ele>261.77</ele>
        <time>2017-10-18T09:20:30Z</time>
      </trkpt>
      <trkpt lat="47.73032" lon="6.07251">
        <ele>261.76</ele>
        <time>2017-10-18T09:20:31Z</time>
      </trkpt>
      <trkpt lat="47.73038" lon="6.07243">
        <ele>261.75</ele>
        <time>2017-10-18T09:20:33Z</time>
      </trkpt>
      <trkpt lat="47.7304" lon="6.0723">
        <ele>261.74</ele>
        <time>2017-10-18T09:20:35Z</time>
      </trkpt>
      <trkpt lat="47.7304" lon="6.07217">
        <ele>261.73</ele>
        <time>2017-10-18T09:20:37Z</time>
      </trkpt>
      <trkpt lat="47.73041" lon="6.07207">
        <ele>261.73</ele>
        <time>2017-10-18T09:20:39Z</time>
      </trkpt>
      <trkpt lat="47.73043" lon="6.07196">
        <ele>261.72</ele>
        <time>2017-10-18T09:20:41Z</time>
      </trkpt>
      <trkpt lat="47.73044" lon="6.07187">
        <ele>261.71</ele>
        <time>2017-10-18T09:20:43Z</time>
      </trkpt>
      <trkpt lat="47.73045" lon="6.07177">
        <ele>261.71</ele>
        <time>2017-10-18T09:20:45Z</time>
      </trkpt>
      <trkpt lat="47.73046" lon="6.0717">
        <ele>261.7</ele>
        <time>2017-10-18T09:20:47Z</time>
      </trkpt>
      <trkpt lat="47.73048" lon="6.07161">
        <ele>261.69</ele>
        <time>2017-10-18T09:20:49Z</time>
      </trkpt>
      <trkpt lat="47.7305" lon="6.07154">
        <ele>261.68</ele>
        <time>2017-10-18T09:20:51Z</time>
      </trkpt>
      <trkpt lat="47.73052" lon="6.07144">
        <ele>261.66</ele>
        <time>2017-10-18T09:20:54Z</time>
      </trkpt>
      <trkpt lat="47.73054" lon="6.07138">
        <ele>261.65</ele>
        <time>2017-10-18T09:20:56Z</time>
      </trkpt>
      <trkpt lat="47.73056" lon="6.07128">
        <ele>261.63</ele>
        <time>2017-10-18T09:20:59Z</time>
      </trkpt>
      <trkpt lat="47.73058" lon="6.0712">
        <ele>261.62</ele>
        <time>2017-10-18T09:21:01Z</time>
      </trkpt>
      <trkpt lat="47.7306" lon="6.07112">
        <ele>261.61</ele>
        <time>2017-10-18T09:21:03Z</time>
      </trkpt>
      <trkpt lat="47.73062" lon="6.07104">
        <ele>261.6</ele>
        <time>2017-10-18T09:21:05Z</time>
      </trkpt>
      <trkpt lat="47.73063" lon="6.07096">
        <ele>261.58</ele>
        <time>2017-10-18T09:21:07Z</time>
      </trkpt>
      <trkpt lat="47.73065" lon="6.07088">
        <ele>261.57</ele>
        <time>2017-10-18T09:21:09Z</time>
      </trkpt>
      <trkpt lat="47.73066" lon="6.0708">
        <ele>261.56</ele>
        <time>2017-10-18T09:21:11Z</time>
      </trkpt>
      <trkpt lat="47.73068" lon="6.07073">
        <ele>261.55</ele>
        <time>2017-10-18T09:21:13Z</time>
      </trkpt>
      <trkpt lat="47.73069" lon="6.07065">
        <ele>261.53</ele>
        <time>2017-10-18T09:21:15Z</time>
      </trkpt>
      <trkpt lat="47.73071" lon="6.07056">
        <ele>261.52</ele>
        <time>2017-10-18T09:21:17Z</time>
      </trkpt>
      <trkpt lat="47.73073" lon="6.07047">
        <ele>261.51</ele>
        <time>2017-10-18T09:21:19Z</time>
      </trkpt>
      <trkpt lat="47.73075" lon="6.07038">
        <ele>261.5</ele>
        <time>2017-10-18T09:21:21Z</time>
      </trkpt>
      <trkpt lat="47.73077" lon="6.07031">
        <ele>261.45</ele>
        <time>2017-10-18T09:21:22Z</time>
      </trkpt>
      <trkpt lat="47.7308" lon="6.0702">
        <ele>261.34</ele>
        <time>2017-10-18T09:21:24Z</time>
      </trkpt>
      <trkpt lat="47.73084" lon="6.07008">
        <ele>261.24</ele>
        <time>2017-10-18T09:21:26Z</time>
      </trkpt>
      <trkpt lat="47.73087" lon="6.06995">
        <ele>261.16</ele>
        <time>2017-10-18T09:21:28Z</time>
      </trkpt>
      <trkpt lat="47.7309" lon="6.06982">
        <ele>261.09</ele>
        <time>2017-10-18T09:21:30Z</time>
      </trkpt>
      <trkpt lat="47.73092" lon="6.06976">
        <ele>261.06</ele>
        <time>2017-10-18T09:21:31Z</time>
      </trkpt>
      <trkpt lat="47.73094" lon="6.06969">
        <ele>261.03</ele>
        <time>2017-10-18T09:21:32Z</time>
      </trkpt>
      <trkpt lat="47.73097" lon="6.06962">
        <ele>261</ele>
        <time>2017-10-18T09:21:33Z</time>
      </trkpt>
      <trkpt lat="47.731" lon="6.06956">
        <ele>260.97</ele>
        <time>2017-10-18T09:21:34Z</time>
      </trkpt>
      <trkpt lat="47.73103" lon="6.0695">
        <ele>260.94</ele>
        <time>2017-10-18T09:21:35Z</time>
      </trkpt>
      <trkpt lat="47.73108" lon="6.0694">
        <ele>260.87</ele>
        <time>2017-10-18T09:21:37Z</time>
      </trkpt>
      <trkpt lat="47.73111" lon="6.0693">
        <ele>260.8</ele>
        <time>2017-10-18T09:21:39Z</time>
      </trkpt>
      <trkpt lat="47.73113" lon="6.06917">
        <ele>260.72</ele>
        <time>2017-10-18T09:21:41Z</time>
      </trkpt>
      <trkpt lat="47.73113" lon="6.06904">
        <ele>260.64</ele>
        <time>2017-10-18T09:21:43Z</time>
      </trkpt>
      <trkpt lat="47.73113" lon="6.06891">
        <ele>260.56</ele>
        <time>2017-10-18T09:21:45Z</time>
      </trkpt>
      <trkpt lat="47.73112" lon="6.06881">
        <ele>260.52</ele>
        <time>2017-10-18T09:21:47Z</time>
      </trkpt>
      <trkpt lat="47.7311" lon="6.06872">
        <ele>260.5</ele>
        <time>2017-10-18T09:21:49Z</time>
      </trkpt>
      <trkpt lat="47.73109" lon="6.06863">
        <ele>260.49</ele>
        <time>2017-10-18T09:21:51Z</time>
      </trkpt>
      <trkpt lat="47.73108" lon="6.06854">
        <ele>260.48</ele>
        <time>2017-10-18T09:21:53Z</time>
      </trkpt>
      <trkpt lat="47.73106" lon="6.06845">
        <ele>260.47</ele>
        <time>2017-10-18T09:21:55Z</time>
      </trkpt>
      <trkpt lat="47.73103" lon="6.06835">
        <ele>260.45</ele>
        <time>2017-10-18T09:21:57Z</time>
      </trkpt>
      <trkpt lat="47.731" lon="6.06825">
        <ele>260.44</ele>
        <time>2017-10-18T09:21:59Z</time>
      </trkpt>
      <trkpt lat="47.73097" lon="6.06816">
        <ele>260.42</ele>
        <time>2017-10-18T09:22:01Z</time>
      </trkpt>
      <trkpt lat="47.73093" lon="6.06806">
        <ele>260.26</ele>
        <time>2017-10-18T09:22:03Z</time>
      </trkpt>
      <trkpt lat="47.73089" lon="6.06798">
        <ele>260.22</ele>
        <time>2017-10-18T09:22:05Z</time>
      </trkpt>
      <trkpt lat="47.73085" lon="6.0679">
        <ele>260.2</ele>
        <time>2017-10-18T09:22:07Z</time>
      </trkpt>
      <trkpt lat="47.73081" lon="6.06781">
        <ele>260.17</ele>
        <time>2017-10-18T09:22:09Z</time>
      </trkpt>
      <trkpt lat="47.73078" lon="6.06773">
        <ele>260.15</ele>
        <time>2017-10-18T09:22:11Z</time>
      </trkpt>
      <trkpt lat="47.73073" lon="6.06767">
        <ele>260.13</ele>
        <time>2017-10-18T09:22:13Z</time>
      </trkpt>
      <trkpt lat="47.73067" lon="6.06764">
        <ele>260.1</ele>
        <time>2017-10-18T09:22:15Z</time>
      </trkpt>
      <trkpt lat="47.7306" lon="6.06763">
        <ele>260.07</ele>
        <time>2017-10-18T09:22:17Z</time>
      </trkpt>
      <trkpt lat="47.73052" lon="6.06763">
        <ele>259.94</ele>
        <time>2017-10-18T09:22:19Z</time>
      </trkpt>
      <trkpt lat="47.73043" lon="6.06763">
        <ele>259.69</ele>
        <time>2017-10-18T09:22:21Z</time>
      </trkpt>
      <trkpt lat="47.73036" lon="6.06763">
        <ele>259.63</ele>
        <time>2017-10-18T09:22:23Z</time>
      </trkpt>
      <trkpt lat="47.73028" lon="6.06762">
        <ele>259.52</ele>
        <time>2017-10-18T09:22:25Z</time>
      </trkpt>
      <trkpt lat="47.73021" lon="6.06762">
        <ele>259.31</ele>
        <time>2017-10-18T09:22:27Z</time>
      </trkpt>
      <trkpt lat="47.73013" lon="6.06762">
        <ele>259.13</ele>
        <time>2017-10-18T09:22:29Z</time>
      </trkpt>
      <trkpt lat="47.73005" lon="6.06761">
        <ele>259.08</ele>
        <time>2017-10-18T09:22:31Z</time>
      </trkpt>
      <trkpt lat="47.72998" lon="6.06761">
        <ele>259.06</ele>
        <time>2017-10-18T09:22:33Z</time>
      </trkpt>
      <trkpt lat="47.72991" lon="6.06762">
        <ele>259.04</ele>
        <time>2017-10-18T09:22:35Z</time>
      </trkpt>
      <trkpt lat="47.72987" lon="6.06762">
        <ele>259.02</ele>
        <time>2017-10-18T09:22:37Z</time>
      </trkpt>
      <trkpt lat="47.72985" lon="6.06755">
        <ele>259</ele>
        <time>2017-10-18T09:22:39Z</time>
      </trkpt>
      <trkpt lat="47.72981" lon="6.06749">
        <ele>258.97</ele>
        <time>2017-10-18T09:22:41Z</time>
      </trkpt>
      <trkpt lat="47.72976" lon="6.06745">
        <ele>258.93</ele>
        <time>2017-10-18T09:22:44Z</time>
      </trkpt>
      <trkpt lat="47.72971" lon="6.06742">
        <ele>258.85</ele>
        <time>2017-10-18T09:22:49Z</time>
      </trkpt>
      <trkpt lat="47.72967" lon="6.06736">
        <ele>258.81</ele>
        <time>2017-10-18T09:22:53Z</time>
      </trkpt>
      <trkpt lat="47.72961" lon="6.06729">
        <ele>258.8</ele>
        <time>2017-10-18T09:22:54Z</time>
      </trkpt>
      <trkpt lat="47.72954" lon="6.06724">
        <ele>258.78</ele>
        <time>2017-10-18T09:22:55Z</time>
      </trkpt>
      <trkpt lat="47.72949" lon="6.06719">
        <ele>258.76</ele>
        <time>2017-10-18T09:22:56Z</time>
      </trkpt>
      <trkpt lat="47.72942" lon="6.06713">
        <ele>258.72</ele>
        <time>2017-10-18T09:22:58Z</time>
      </trkpt>
      <trkpt lat="47.72938" lon="6.06708">
        <ele>258.71</ele>
        <time>2017-10-18T09:22:59Z</time>
      </trkpt>
      <trkpt lat="47.72932" lon="6.06702">
        <ele>258.67</ele>
        <time>2017-10-18T09:23:01Z</time>
      </trkpt>
      <trkpt lat="47.72926" lon="6.06696">
        <ele>258.64</ele>
        <time>2017-10-18T09:23:03Z</time>
      </trkpt>
      <trkpt lat="47.72921" lon="6.06691">
        <ele>258.61</ele>
        <time>2017-10-18T09:23:05Z</time>
      </trkpt>
      <trkpt lat="47.72917" lon="6.06687">
        <ele>258.58</ele>
        <time>2017-10-18T09:23:07Z</time>
      </trkpt>
      <trkpt lat="47.72911" lon="6.06683">
        <ele>258.55</ele>
        <time>2017-10-18T09:23:09Z</time>
      </trkpt>
      <trkpt lat="47.72904" lon="6.06679">
        <ele>258.53</ele>
        <time>2017-10-18T09:23:11Z</time>
      </trkpt>
      <trkpt lat="47.72899" lon="6.06677">
        <ele>258.5</ele>
        <time>2017-10-18T09:23:13Z</time>
      </trkpt>
      <trkpt lat="47.72895" lon="6.06673">
        <ele>258.49</ele>
        <time>2017-10-18T09:23:14Z</time>
      </trkpt>
      <trkpt lat="47.72888" lon="6.0667">
        <ele>258.46</ele>
        <time>2017-10-18T09:23:16Z</time>
      </trkpt>
      <trkpt lat="47.72883" lon="6.06668">
        <ele>258.43</ele>
        <time>2017-10-18T09:23:18Z</time>
      </trkpt>
      <trkpt lat="47.72878" lon="6.06664">
        <ele>258.39</ele>
        <time>2017-10-18T09:23:21Z</time>
      </trkpt>
      <trkpt lat="47.72874" lon="6.06659">
        <ele>258.36</ele>
        <time>2017-10-18T09:23:23Z</time>
      </trkpt>
      <trkpt lat="47.72871" lon="6.06654">
        <ele>258.33</ele>
        <time>2017-10-18T09:23:25Z</time>
      </trkpt>
      <trkpt lat="47.72866" lon="6.0665">
        <ele>258.3</ele>
        <time>2017-10-18T09:23:27Z</time>
      </trkpt>
      <trkpt lat="47.7286" lon="6.06645">
        <ele>258.27</ele>
        <time>2017-10-18T09:23:29Z</time>
      </trkpt>
      <trkpt lat="47.72856" lon="6.06641">
        <ele>258.23</ele>
        <time>2017-10-18T09:23:31Z</time>
      </trkpt>
      <trkpt lat="47.72851" lon="6.06635">
        <ele>258.2</ele>
        <time>2017-10-18T09:23:33Z</time>
      </trkpt>
      <trkpt lat="47.72848" lon="6.06631">
        <ele>258.16</ele>
        <time>2017-10-18T09:23:35Z</time>
      </trkpt>
      <trkpt lat="47.72845" lon="6.06626">
        <ele>258.13</ele>
        <time>2017-10-18T09:23:37Z</time>
      </trkpt>
      <trkpt lat="47.72841" lon="6.06619">
        <ele>258.09</ele>
        <time>2017-10-18T09:23:39Z</time>
      </trkpt>
      <trkpt lat="47.72838" lon="6.06609">
        <ele>258.05</ele>
        <time>2017-10-18T09:23:41Z</time>
      </trkpt>
      <trkpt lat="47.72835" lon="6.06601">
        <ele>258.01</ele>
        <time>2017-10-18T09:23:43Z</time>
      </trkpt>
      <trkpt lat="47.72832" lon="6.06594">
        <ele>257.99</ele>
        <time>2017-10-18T09:23:44Z</time>
      </trkpt>
      <trkpt lat="47.7283" lon="6.06585">
        <ele>257.94</ele>
        <time>2017-10-18T09:23:46Z</time>
      </trkpt>
      <trkpt lat="47.72828" lon="6.06577">
        <ele>257.9</ele>
        <time>2017-10-18T09:23:48Z</time>
      </trkpt>
      <trkpt lat="47.72825" lon="6.06569">
        <ele>257.84</ele>
        <time>2017-10-18T09:23:51Z</time>
      </trkpt>
      <trkpt lat="47.72821" lon="6.06564">
        <ele>257.79</ele>
        <time>2017-10-18T09:23:53Z</time>
      </trkpt>
      <trkpt lat="47.72817" lon="6.06558">
        <ele>257.73</ele>
        <time>2017-10-18T09:23:56Z</time>
      </trkpt>
      <trkpt lat="47.72814" lon="6.06551">
        <ele>257.68</ele>
        <time>2017-10-18T09:23:58Z</time>
      </trkpt>
      <trkpt lat="47.7281" lon="6.06542">
        <ele>257.62</ele>
        <time>2017-10-18T09:24:01Z</time>
      </trkpt>
      <trkpt lat="47.72808" lon="6.06535">
        <ele>257.59</ele>
        <time>2017-10-18T09:24:02Z</time>
      </trkpt>
      <trkpt lat="47.72808" lon="6.06525">
        <ele>257.54</ele>
        <time>2017-10-18T09:24:04Z</time>
      </trkpt>
      <trkpt lat="47.7281" lon="6.06516">
        <ele>257.47</ele>
        <time>2017-10-18T09:24:07Z</time>
      </trkpt>
      <trkpt lat="47.72809" lon="6.06508">
        <ele>257.41</ele>
        <time>2017-10-18T09:24:09Z</time>
      </trkpt>
      <trkpt lat="47.72807" lon="6.06501">
        <ele>257.39</ele>
        <time>2017-10-18T09:24:10Z</time>
      </trkpt>
      <trkpt lat="47.72807" lon="6.0649">
        <ele>257.34</ele>
        <time>2017-10-18T09:24:12Z</time>
      </trkpt>
      <trkpt lat="47.72809" lon="6.06483">
        <ele>257.31</ele>
        <time>2017-10-18T09:24:13Z</time>
      </trkpt>
      <trkpt lat="47.72813" lon="6.06473">
        <ele>257.27</ele>
        <time>2017-10-18T09:24:15Z</time>
      </trkpt>
      <trkpt lat="47.72816" lon="6.06466">
        <ele>257.23</ele>
        <time>2017-10-18T09:24:17Z</time>
      </trkpt>
      <trkpt lat="47.72819" lon="6.06459">
        <ele>257.17</ele>
        <time>2017-10-18T09:24:20Z</time>
      </trkpt>
      <trkpt lat="47.72822" lon="6.06452">
        <ele>257.13</ele>
        <time>2017-10-18T09:24:22Z</time>
      </trkpt>
      <trkpt lat="47.72821" lon="6.06439">
        <ele>257.08</ele>
        <time>2017-10-18T09:24:24Z</time>
      </trkpt>
      <trkpt lat="47.72818" lon="6.06431">
        <ele>257.06</ele>
        <time>2017-10-18T09:24:25Z</time>
      </trkpt>
      <trkpt lat="47.72815" lon="6.06426">
        <ele>257.04</ele>
        <time>2017-10-18T09:24:26Z</time>
      </trkpt>
      <trkpt lat="47.72811" lon="6.0642">
        <ele>257</ele>
        <time>2017-10-18T09:24:28Z</time>
      </trkpt>
      <trkpt lat="47.72808" lon="6.0641">
        <ele>256.95</ele>
        <time>2017-10-18T09:24:30Z</time>
      </trkpt>
      <trkpt lat="47.72808" lon="6.064">
        <ele>256.87</ele>
        <time>2017-10-18T09:24:34Z</time>
      </trkpt>
      <trkpt lat="47.72807" lon="6.06389">
        <ele>256.83</ele>
        <time>2017-10-18T09:24:36Z</time>
      </trkpt>
      <trkpt lat="47.72801" lon="6.06384">
        <ele>256.77</ele>
        <time>2017-10-18T09:24:38Z</time>
      </trkpt>
      <trkpt lat="47.72795" lon="6.0638">
        <ele>256.72</ele>
        <time>2017-10-18T09:24:40Z</time>
      </trkpt>
      <trkpt lat="47.72791" lon="6.06384">
        <ele>256.64</ele>
        <time>2017-10-18T09:24:43Z</time>
      </trkpt>
      <trkpt lat="47.72788" lon="6.0639">
        <ele>256.56</ele>
        <time>2017-10-18T09:24:46Z</time>
      </trkpt>
      <trkpt lat="47.72783" lon="6.06394">
        <ele>256.46</ele>
        <time>2017-10-18T09:24:50Z</time>
      </trkpt>
      <trkpt lat="47.72779" lon="6.06398">
        <ele>256.39</ele>
        <time>2017-10-18T09:24:53Z</time>
      </trkpt>
      <trkpt lat="47.72773" lon="6.06399">
        <ele>256.32</ele>
        <time>2017-10-18T09:24:56Z</time>
      </trkpt>
      <trkpt lat="47.72768" lon="6.064">
        <ele>256.28</ele>
        <time>2017-10-18T09:24:58Z</time>
      </trkpt>
      <trkpt lat="47.72763" lon="6.06401">
        <ele>256.23</ele>
        <time>2017-10-18T09:25:00Z</time>
      </trkpt>
      <trkpt lat="47.72757" lon="6.06401">
        <ele>256.19</ele>
        <time>2017-10-18T09:25:02Z</time>
      </trkpt>
      <trkpt lat="47.72752" lon="6.064">
        <ele>256.12</ele>
        <time>2017-10-18T09:25:05Z</time>
      </trkpt>
      <trkpt lat="47.72745" lon="6.06397">
        <ele>256.05</ele>
        <time>2017-10-18T09:25:08Z</time>
      </trkpt>
      <trkpt lat="47.7274" lon="6.06395">
        <ele>255.99</ele>
        <time>2017-10-18T09:25:11Z</time>
      </trkpt>
      <trkpt lat="47.72735" lon="6.06393">
        <ele>255.9</ele>
        <time>2017-10-18T09:25:15Z</time>
      </trkpt>
      <trkpt lat="47.7273" lon="6.06392">
        <ele>255.8</ele>
        <time>2017-10-18T09:25:19Z</time>
      </trkpt>
      <trkpt lat="47.72725" lon="6.06392">
        <ele>255.7</ele>
        <time>2017-10-18T09:25:23Z</time>
      </trkpt>
      <trkpt lat="47.72721" lon="6.06391">
        <ele>255.59</ele>
        <time>2017-10-18T09:25:27Z</time>
      </trkpt>
      <trkpt lat="47.72716" lon="6.06391">
        <ele>255.51</ele>
        <time>2017-10-18T09:25:30Z</time>
      </trkpt>
      <trkpt lat="47.7271" lon="6.0639">
        <ele>255.4</ele>
        <time>2017-10-18T09:25:34Z</time>
      </trkpt>
      <trkpt lat="47.72705" lon="6.06389">
        <ele>255.28</ele>
        <time>2017-10-18T09:25:38Z</time>
      </trkpt>
      <trkpt lat="47.727" lon="6.06388">
        <ele>255.19</ele>
        <time>2017-10-18T09:25:41Z</time>
      </trkpt>
      <trkpt lat="47.72695" lon="6.06385">
        <ele>255.09</ele>
        <time>2017-10-18T09:25:44Z</time>
      </trkpt>
      <trkpt lat="47.7269" lon="6.06382">
        <ele>254.99</ele>
        <time>2017-10-18T09:25:47Z</time>
      </trkpt>
      <trkpt lat="47.72685" lon="6.06379">
        <ele>254.9</ele>
        <time>2017-10-18T09:25:50Z</time>
      </trkpt>
      <trkpt lat="47.72681" lon="6.06375">
        <ele>254.8</ele>
        <time>2017-10-18T09:25:53Z</time>
      </trkpt>
      <trkpt lat="47.72676" lon="6.06372">
        <ele>254.71</ele>
        <time>2017-10-18T09:25:56Z</time>
      </trkpt>
      <trkpt lat="47.72671" lon="6.06369">
        <ele>254.62</ele>
        <time>2017-10-18T09:25:59Z</time>
      </trkpt>
      <trkpt lat="47.72666" lon="6.06366">
        <ele>254.53</ele>
        <time>2017-10-18T09:26:02Z</time>
      </trkpt>
      <trkpt lat="47.72662" lon="6.06363">
        <ele>254.44</ele>
        <time>2017-10-18T09:26:05Z</time>
      </trkpt>
      <trkpt lat="47.72657" lon="6.06361">
        <ele>254.35</ele>
        <time>2017-10-18T09:26:08Z</time>
      </trkpt>
      <trkpt lat="47.72653" lon="6.06358">
        <ele>254.23</ele>
        <time>2017-10-18T09:26:12Z</time>
      </trkpt>
      <trkpt lat="47.72649" lon="6.06354">
        <ele>254.12</ele>
        <time>2017-10-18T09:26:16Z</time>
      </trkpt>
      <trkpt lat="47.72644" lon="6.06351">
        <ele>254.03</ele>
        <time>2017-10-18T09:26:19Z</time>
      </trkpt>
      <trkpt lat="47.7264" lon="6.06347">
        <ele>253.88</ele>
        <time>2017-10-18T09:26:24Z</time>
      </trkpt>
      <trkpt lat="47.72636" lon="6.06341">
        <ele>253.75</ele>
        <time>2017-10-18T09:26:29Z</time>
      </trkpt>
      <trkpt lat="47.72631" lon="6.06335">
        <ele>253.64</ele>
        <time>2017-10-18T09:26:33Z</time>
      </trkpt>
      <trkpt lat="47.72627" lon="6.0633">
        <ele>253.56</ele>
        <time>2017-10-18T09:26:36Z</time>
      </trkpt>
      <trkpt lat="47.72623" lon="6.06325">
        <ele>253.45</ele>
        <time>2017-10-18T09:26:40Z</time>
      </trkpt>
      <trkpt lat="47.72618" lon="6.06321">
        <ele>253.38</ele>
        <time>2017-10-18T09:26:43Z</time>
      </trkpt>
      <trkpt lat="47.72614" lon="6.06317">
        <ele>253.33</ele>
        <time>2017-10-18T09:26:45Z</time>
      </trkpt>
      <trkpt lat="47.7261" lon="6.06311">
        <ele>253.25</ele>
        <time>2017-10-18T09:26:48Z</time>
      </trkpt>
      <trkpt lat="47.72608" lon="6.06304">
        <ele>253.18</ele>
        <time>2017-10-18T09:26:51Z</time>
      </trkpt>
      <trkpt lat="47.72604" lon="6.063">
        <ele>253.08</ele>
        <time>2017-10-18T09:27:10Z</time>
      </trkpt>
      <trkpt lat="47.72599" lon="6.06299">
        <ele>252.88</ele>
        <time>2017-10-18T09:27:25Z</time>
      </trkpt>
      <trkpt lat="47.72593" lon="6.06295">
        <ele>252.8</ele>
        <time>2017-10-18T09:27:29Z</time>
      </trkpt>
      <trkpt lat="47.72587" lon="6.0629">
        <ele>252.74</ele>
        <time>2017-10-18T09:27:32Z</time>
      </trkpt>
      <trkpt lat="47.72583" lon="6.06286">
        <ele>252.71</ele>
        <time>2017-10-18T09:27:34Z</time>
      </trkpt>
      <trkpt lat="47.72579" lon="6.06281">
        <ele>252.67</ele>
        <time>2017-10-18T09:27:36Z</time>
      </trkpt>
      <trkpt lat="47.72573" lon="6.06275">
        <ele>252.62</ele>
        <time>2017-10-18T09:27:39Z</time>
      </trkpt>
      <trkpt lat="47.72568" lon="6.06271">
        <ele>252.59</ele>
        <time>2017-10-18T09:27:41Z</time>
      </trkpt>
      <trkpt lat="47.72563" lon="6.06268">
        <ele>252.56</ele>
        <time>2017-10-18T09:27:43Z</time>
      </trkpt>
      <trkpt lat="47.72558" lon="6.06263">
        <ele>252.52</ele>
        <time>2017-10-18T09:27:45Z</time>
      </trkpt>
      <trkpt lat="47.72551" lon="6.06258">
        <ele>252.49</ele>
        <time>2017-10-18T09:27:47Z</time>
      </trkpt>
      <trkpt lat="47.72545" lon="6.06253">
        <ele>252.46</ele>
        <time>2017-10-18T09:27:49Z</time>
      </trkpt>
      <trkpt lat="47.72538" lon="6.06248">
        <ele>252.42</ele>
        <time>2017-10-18T09:27:51Z</time>
      </trkpt>
      <trkpt lat="47.72531" lon="6.06243">
        <ele>252.39</ele>
        <time>2017-10-18T09:27:53Z</time>
      </trkpt>
      <trkpt lat="47.72522" lon="6.06237">
        <ele>252.13</ele>
        <time>2017-10-18T09:27:55Z</time>
      </trkpt>
      <trkpt lat="47.72517" lon="6.06234">
        <ele>252.01</ele>
        <time>2017-10-18T09:27:56Z</time>
      </trkpt>
      <trkpt lat="47.72512" lon="6.06231">
        <ele>251.92</ele>
        <time>2017-10-18T09:27:57Z</time>
      </trkpt>
      <trkpt lat="47.72503" lon="6.06227">
        <ele>251.75</ele>
        <time>2017-10-18T09:27:59Z</time>
      </trkpt>
      <trkpt lat="47.72499" lon="6.06224">
        <ele>251.69</ele>
        <time>2017-10-18T09:28:00Z</time>
      </trkpt>
      <trkpt lat="47.72494" lon="6.06221">
        <ele>251.62</ele>
        <time>2017-10-18T09:28:01Z</time>
      </trkpt>
      <trkpt lat="47.7249" lon="6.06218">
        <ele>251.57</ele>
        <time>2017-10-18T09:28:02Z</time>
      </trkpt>
      <trkpt lat="47.72486" lon="6.06215">
        <ele>251.53</ele>
        <time>2017-10-18T09:28:03Z</time>
      </trkpt>
      <trkpt lat="47.72481" lon="6.06213">
        <ele>251.49</ele>
        <time>2017-10-18T09:28:04Z</time>
      </trkpt>
      <trkpt lat="47.72477" lon="6.06211">
        <ele>251.45</ele>
        <time>2017-10-18T09:28:05Z</time>
      </trkpt>
      <trkpt lat="47.72469" lon="6.06208">
        <ele>251.39</ele>
        <time>2017-10-18T09:28:07Z</time>
      </trkpt>
      <trkpt lat="47.72461" lon="6.06204">
        <ele>251.32</ele>
        <time>2017-10-18T09:28:09Z</time>
      </trkpt>
      <trkpt lat="47.72453" lon="6.062">
        <ele>251.25</ele>
        <time>2017-10-18T09:28:11Z</time>
      </trkpt>
      <trkpt lat="47.72445" lon="6.06195">
        <ele>251.19</ele>
        <time>2017-10-18T09:28:13Z</time>
      </trkpt>
      <trkpt lat="47.72439" lon="6.06191">
        <ele>251.18</ele>
        <time>2017-10-18T09:28:15Z</time>
      </trkpt>
      <trkpt lat="47.72433" lon="6.06187">
        <ele>251.17</ele>
        <time>2017-10-18T09:28:17Z</time>
      </trkpt>
      <trkpt lat="47.72427" lon="6.06183">
        <ele>251.17</ele>
        <time>2017-10-18T09:28:19Z</time>
      </trkpt>
      <trkpt lat="47.7242" lon="6.06178">
        <ele>251.12</ele>
        <time>2017-10-18T09:28:21Z</time>
      </trkpt>
      <trkpt lat="47.72416" lon="6.06175">
        <ele>251.09</ele>
        <time>2017-10-18T09:28:22Z</time>
      </trkpt>
      <trkpt lat="47.72412" lon="6.06171">
        <ele>251.06</ele>
        <time>2017-10-18T09:28:23Z</time>
      </trkpt>
      <trkpt lat="47.72408" lon="6.06169">
        <ele>251.04</ele>
        <time>2017-10-18T09:28:24Z</time>
      </trkpt>
      <trkpt lat="47.72404" lon="6.06166">
        <ele>251.02</ele>
        <time>2017-10-18T09:28:25Z</time>
      </trkpt>
      <trkpt lat="47.72399" lon="6.06163">
        <ele>251</ele>
        <time>2017-10-18T09:28:26Z</time>
      </trkpt>
      <trkpt lat="47.72394" lon="6.0616">
        <ele>250.99</ele>
        <time>2017-10-18T09:28:27Z</time>
      </trkpt>
      <trkpt lat="47.7239" lon="6.06157">
        <ele>250.99</ele>
        <time>2017-10-18T09:28:28Z</time>
      </trkpt>
      <trkpt lat="47.72385" lon="6.06154">
        <ele>250.98</ele>
        <time>2017-10-18T09:28:29Z</time>
      </trkpt>
      <trkpt lat="47.72377" lon="6.06149">
        <ele>250.98</ele>
        <time>2017-10-18T09:28:31Z</time>
      </trkpt>
      <trkpt lat="47.7237" lon="6.06147">
        <ele>250.98</ele>
        <time>2017-10-18T09:28:33Z</time>
      </trkpt>
      <trkpt lat="47.72363" lon="6.06146">
        <ele>250.98</ele>
        <time>2017-10-18T09:28:35Z</time>
      </trkpt>
      <trkpt lat="47.72357" lon="6.06144">
        <ele>250.98</ele>
        <time>2017-10-18T09:28:37Z</time>
      </trkpt>
      <trkpt lat="47.72351" lon="6.06143">
        <ele>250.98</ele>
        <time>2017-10-18T09:28:39Z</time>
      </trkpt>
      <trkpt lat="47.72345" lon="6.06141">
        <ele>250.98</ele>
        <time>2017-10-18T09:28:41Z</time>
      </trkpt>
      <trkpt lat="47.72339" lon="6.0614">
        <ele>250.98</ele>
        <time>2017-10-18T09:28:43Z</time>
      </trkpt>
      <trkpt lat="47.72333" lon="6.0614">
        <ele>250.98</ele>
        <time>2017-10-18T09:28:45Z</time>
      </trkpt>
      <trkpt lat="47.72326" lon="6.06141">
        <ele>250.98</ele>
        <time>2017-10-18T09:28:47Z</time>
      </trkpt>
      <trkpt lat="47.72318" lon="6.0614">
        <ele>250.95</ele>
        <time>2017-10-18T09:28:49Z</time>
      </trkpt>
      <trkpt lat="47.72314" lon="6.06139">
        <ele>250.95</ele>
        <time>2017-10-18T09:28:50Z</time>
      </trkpt>
      <trkpt lat="47.72309" lon="6.06138">
        <ele>250.95</ele>
        <time>2017-10-18T09:28:51Z</time>
      </trkpt>
      <trkpt lat="47.72302" lon="6.06137">
        <ele>250.95</ele>
        <time>2017-10-18T09:28:53Z</time>
      </trkpt>
      <trkpt lat="47.72295" lon="6.06135">
        <ele>250.94</ele>
        <time>2017-10-18T09:28:55Z</time>
      </trkpt>
      <trkpt lat="47.72287" lon="6.06136">
        <ele>250.94</ele>
        <time>2017-10-18T09:28:57Z</time>
      </trkpt>
      <trkpt lat="47.72279" lon="6.06139">
        <ele>250.94</ele>
        <time>2017-10-18T09:28:59Z</time>
      </trkpt>
      <trkpt lat="47.72273" lon="6.06143">
        <ele>250.94</ele>
        <time>2017-10-18T09:29:01Z</time>
      </trkpt>
      <trkpt lat="47.72269" lon="6.06146">
        <ele>250.94</ele>
        <time>2017-10-18T09:29:03Z</time>
      </trkpt>
      <trkpt lat="47.72264" lon="6.0615">
        <ele>250.93</ele>
        <time>2017-10-18T09:29:06Z</time>
      </trkpt>
      <trkpt lat="47.7226" lon="6.06152">
        <ele>250.93</ele>
        <time>2017-10-18T09:29:08Z</time>
      </trkpt>
      <trkpt lat="47.72259" lon="6.06159">
        <ele>250.9</ele>
        <time>2017-10-18T09:29:28Z</time>
      </trkpt>
      <trkpt lat="47.72258" lon="6.06166">
        <ele>250.94</ele>
        <time>2017-10-18T09:29:45Z</time>
      </trkpt>
      <trkpt lat="47.72254" lon="6.06161">
        <ele>251.07</ele>
        <time>2017-10-18T09:30:22Z</time>
      </trkpt>
      <trkpt lat="47.72248" lon="6.0616">
        <ele>251.09</ele>
        <time>2017-10-18T09:30:25Z</time>
      </trkpt>
      <trkpt lat="47.72243" lon="6.06159">
        <ele>251.11</ele>
        <time>2017-10-18T09:30:28Z</time>
      </trkpt>
      <trkpt lat="47.72238" lon="6.06157">
        <ele>251.13</ele>
        <time>2017-10-18T09:30:31Z</time>
      </trkpt>
      <trkpt lat="47.72233" lon="6.06158">
        <ele>251.14</ele>
        <time>2017-10-18T09:30:35Z</time>
      </trkpt>
      <trkpt lat="47.72229" lon="6.06156">
        <ele>251.15</ele>
        <time>2017-10-18T09:30:38Z</time>
      </trkpt>
      <trkpt lat="47.72223" lon="6.06151">
        <ele>251.16</ele>
        <time>2017-10-18T09:30:40Z</time>
      </trkpt>
      <trkpt lat="47.72217" lon="6.06147">
        <ele>251.16</ele>
        <time>2017-10-18T09:30:42Z</time>
      </trkpt>
      <trkpt lat="47.72213" lon="6.06145">
        <ele>251.17</ele>
        <time>2017-10-18T09:30:44Z</time>
      </trkpt>
      <trkpt lat="47.72208" lon="6.06147">
        <ele>251.2</ele>
        <time>2017-10-18T09:30:51Z</time>
      </trkpt>
      <trkpt lat="47.72202" lon="6.06144">
        <ele>251.2</ele>
        <time>2017-10-18T09:30:55Z</time>
      </trkpt>
      <trkpt lat="47.72196" lon="6.0614">
        <ele>251.2</ele>
        <time>2017-10-18T09:30:57Z</time>
      </trkpt>
      <trkpt lat="47.72191" lon="6.06135">
        <ele>251.2</ele>
        <time>2017-10-18T09:30:58Z</time>
      </trkpt>
      <trkpt lat="47.72184" lon="6.06127">
        <ele>251.2</ele>
        <time>2017-10-18T09:31:00Z</time>
      </trkpt>
      <trkpt lat="47.72175" lon="6.06117">
        <ele>251.2</ele>
        <time>2017-10-18T09:31:01Z</time>
      </trkpt>
      <trkpt lat="47.72167" lon="6.0611">
        <ele>251.19</ele>
        <time>2017-10-18T09:31:04Z</time>
      </trkpt>
      <trkpt lat="47.72164" lon="6.06106">
        <ele>251.19</ele>
        <time>2017-10-18T09:31:05Z</time>
      </trkpt>
      <trkpt lat="47.7216" lon="6.06101">
        <ele>251.19</ele>
        <time>2017-10-18T09:31:07Z</time>
      </trkpt>
      <trkpt lat="47.72156" lon="6.06096">
        <ele>251.18</ele>
        <time>2017-10-18T09:31:09Z</time>
      </trkpt>
      <trkpt lat="47.72152" lon="6.06092">
        <ele>251.17</ele>
        <time>2017-10-18T09:31:12Z</time>
      </trkpt>
      <trkpt lat="47.7215" lon="6.06084">
        <ele>251.15</ele>
        <time>2017-10-18T09:31:18Z</time>
      </trkpt>
      <trkpt lat="47.72148" lon="6.06078">
        <ele>251.13</ele>
        <time>2017-10-18T09:31:22Z</time>
      </trkpt>
      <trkpt lat="47.72143" lon="6.06073">
        <ele>251.12</ele>
        <time>2017-10-18T09:31:25Z</time>
      </trkpt>
      <trkpt lat="47.72141" lon="6.06067">
        <ele>251.11</ele>
        <time>2017-10-18T09:31:28Z</time>
      </trkpt>
      <trkpt lat="47.72137" lon="6.06061">
        <ele>251.1</ele>
        <time>2017-10-18T09:31:31Z</time>
      </trkpt>
      <trkpt lat="47.72133" lon="6.06059">
        <ele>251.09</ele>
        <time>2017-10-18T09:31:34Z</time>
      </trkpt>
      <trkpt lat="47.72128" lon="6.06059">
        <ele>251.07</ele>
        <time>2017-10-18T09:31:44Z</time>
      </trkpt>
      <trkpt lat="47.72122" lon="6.06051">
        <ele>251.07</ele>
        <time>2017-10-18T09:31:46Z</time>
      </trkpt>
      <trkpt lat="47.72115" lon="6.06043">
        <ele>251.07</ele>
        <time>2017-10-18T09:31:48Z</time>
      </trkpt>
      <trkpt lat="47.7211" lon="6.06039">
        <ele>251.06</ele>
        <time>2017-10-18T09:31:51Z</time>
      </trkpt>
      <trkpt lat="47.72105" lon="6.06036">
        <ele>251.06</ele>
        <time>2017-10-18T09:31:55Z</time>
      </trkpt>
      <trkpt lat="47.72098" lon="6.0603">
        <ele>251.07</ele>
        <time>2017-10-18T09:31:59Z</time>
      </trkpt>
      <trkpt lat="47.72094" lon="6.06022">
        <ele>251.07</ele>
        <time>2017-10-18T09:32:01Z</time>
      </trkpt>
      <trkpt lat="47.72089" lon="6.06018">
        <ele>251.07</ele>
        <time>2017-10-18T09:32:04Z</time>
      </trkpt>
      <trkpt lat="47.72085" lon="6.06013">
        <ele>251.07</ele>
        <time>2017-10-18T09:32:08Z</time>
      </trkpt>
      <trkpt lat="47.72081" lon="6.0601">
        <ele>251.07</ele>
        <time>2017-10-18T09:32:14Z</time>
      </trkpt>
      <trkpt lat="47.72077" lon="6.06007">
        <ele>251.05</ele>
        <time>2017-10-18T09:32:30Z</time>
      </trkpt>
      <trkpt lat="47.72072" lon="6.06002">
        <ele>251.05</ele>
        <time>2017-10-18T09:32:32Z</time>
      </trkpt>
      <trkpt lat="47.72068" lon="6.06">
        <ele>251.04</ele>
        <time>2017-10-18T09:32:33Z</time>
      </trkpt>
      <trkpt lat="47.72057" lon="6.05996">
        <ele>251.04</ele>
        <time>2017-10-18T09:32:34Z</time>
      </trkpt>
      <trkpt lat="47.72049" lon="6.05991">
        <ele>251.03</ele>
        <time>2017-10-18T09:32:35Z</time>
      </trkpt>
      <trkpt lat="47.72041" lon="6.05989">
        <ele>251.02</ele>
        <time>2017-10-18T09:32:36Z</time>
      </trkpt>
      <trkpt lat="47.72033" lon="6.05982">
        <ele>251.01</ele>
        <time>2017-10-18T09:32:37Z</time>
      </trkpt>
      <trkpt lat="47.72026" lon="6.05976">
        <ele>251</ele>
        <time>2017-10-18T09:32:38Z</time>
      </trkpt>
      <trkpt lat="47.72013" lon="6.05964">
        <ele>250.99</ele>
        <time>2017-10-18T09:32:39Z</time>
      </trkpt>
      <trkpt lat="47.72006" lon="6.05958">
        <ele>250.98</ele>
        <time>2017-10-18T09:32:40Z</time>
      </trkpt>
      <trkpt lat="47.72001" lon="6.05955">
        <ele>250.97</ele>
        <time>2017-10-18T09:32:41Z</time>
      </trkpt>
      <trkpt lat="47.71996" lon="6.05951">
        <ele>250.96</ele>
        <time>2017-10-18T09:32:42Z</time>
      </trkpt>
      <trkpt lat="47.71991" lon="6.05948">
        <ele>250.93</ele>
        <time>2017-10-18T09:32:44Z</time>
      </trkpt>
      <trkpt lat="47.71987" lon="6.05944">
        <ele>250.9</ele>
        <time>2017-10-18T09:32:47Z</time>
      </trkpt>
      <trkpt lat="47.71981" lon="6.05938">
        <ele>250.87</ele>
        <time>2017-10-18T09:32:50Z</time>
      </trkpt>
      <trkpt lat="47.71976" lon="6.05933">
        <ele>250.85</ele>
        <time>2017-10-18T09:32:52Z</time>
      </trkpt>
      <trkpt lat="47.7197" lon="6.05931">
        <ele>250.83</ele>
        <time>2017-10-18T09:32:55Z</time>
      </trkpt>
      <trkpt lat="47.71966" lon="6.0593">
        <ele>250.78</ele>
        <time>2017-10-18T09:33:36Z</time>
      </trkpt>
      <trkpt lat="47.71961" lon="6.0593">
        <ele>250.78</ele>
        <time>2017-10-18T09:33:42Z</time>
      </trkpt>
      <trkpt lat="47.71954" lon="6.0593">
        <ele>250.77</ele>
        <time>2017-10-18T09:33:45Z</time>
      </trkpt>
      <trkpt lat="47.71949" lon="6.0593">
        <ele>250.77</ele>
        <time>2017-10-18T09:33:47Z</time>
      </trkpt>
      <trkpt lat="47.71943" lon="6.05931">
        <ele>250.76</ele>
        <time>2017-10-18T09:33:50Z</time>
      </trkpt>
      <trkpt lat="47.71939" lon="6.05931">
        <ele>250.76</ele>
        <time>2017-10-18T09:33:52Z</time>
      </trkpt>
      <trkpt lat="47.71934" lon="6.05929">
        <ele>250.76</ele>
        <time>2017-10-18T09:33:54Z</time>
      </trkpt>
      <trkpt lat="47.71928" lon="6.05925">
        <ele>250.76</ele>
        <time>2017-10-18T09:33:56Z</time>
      </trkpt>
      <trkpt lat="47.71922" lon="6.05919">
        <ele>250.76</ele>
        <time>2017-10-18T09:33:58Z</time>
      </trkpt>
      <trkpt lat="47.71917" lon="6.05915">
        <ele>250.75</ele>
        <time>2017-10-18T09:34:00Z</time>
      </trkpt>
      <trkpt lat="47.7191" lon="6.05909">
        <ele>250.75</ele>
        <time>2017-10-18T09:34:02Z</time>
      </trkpt>
      <trkpt lat="47.71904" lon="6.05905">
        <ele>250.75</ele>
        <time>2017-10-18T09:34:04Z</time>
      </trkpt>
      <trkpt lat="47.719" lon="6.05902">
        <ele>250.76</ele>
        <time>2017-10-18T09:34:07Z</time>
      </trkpt>
      <trkpt lat="47.71895" lon="6.05898">
        <ele>250.76</ele>
        <time>2017-10-18T09:34:10Z</time>
      </trkpt>
      <trkpt lat="47.71891" lon="6.05894">
        <ele>250.76</ele>
        <time>2017-10-18T09:34:12Z</time>
      </trkpt>
      <trkpt lat="47.71887" lon="6.0589">
        <ele>250.76</ele>
        <time>2017-10-18T09:34:14Z</time>
      </trkpt>
      <trkpt lat="47.71881" lon="6.05881">
        <ele>250.76</ele>
        <time>2017-10-18T09:34:16Z</time>
      </trkpt>
      <trkpt lat="47.71876" lon="6.05875">
        <ele>250.75</ele>
        <time>2017-10-18T09:34:17Z</time>
      </trkpt>
      <trkpt lat="47.71871" lon="6.0587">
        <ele>250.75</ele>
        <time>2017-10-18T09:34:18Z</time>
      </trkpt>
      <trkpt lat="47.71865" lon="6.05862">
        <ele>250.75</ele>
        <time>2017-10-18T09:34:20Z</time>
      </trkpt>
      <trkpt lat="47.71859" lon="6.05852">
        <ele>250.74</ele>
        <time>2017-10-18T09:34:22Z</time>
      </trkpt>
      <trkpt lat="47.71854" lon="6.05845">
        <ele>250.74</ele>
        <time>2017-10-18T09:34:25Z</time>
      </trkpt>
      <trkpt lat="47.71849" lon="6.05838">
        <ele>250.74</ele>
        <time>2017-10-18T09:34:27Z</time>
      </trkpt>
      <trkpt lat="47.71843" lon="6.0583">
        <ele>250.74</ele>
        <time>2017-10-18T09:34:29Z</time>
      </trkpt>
      <trkpt lat="47.71838" lon="6.05824">
        <ele>250.74</ele>
        <time>2017-10-18T09:34:31Z</time>
      </trkpt>
      <trkpt lat="47.71834" lon="6.0582">
        <ele>250.74</ele>
        <time>2017-10-18T09:34:33Z</time>
      </trkpt>
      <trkpt lat="47.71829" lon="6.05817">
        <ele>250.74</ele>
        <time>2017-10-18T09:34:35Z</time>
      </trkpt>
      <trkpt lat="47.71825" lon="6.05817">
        <ele>250.74</ele>
        <time>2017-10-18T09:34:38Z</time>
      </trkpt>
      <trkpt lat="47.7182" lon="6.05814">
        <ele>250.75</ele>
        <time>2017-10-18T09:34:40Z</time>
      </trkpt>
      <trkpt lat="47.71814" lon="6.05811">
        <ele>250.75</ele>
        <time>2017-10-18T09:34:42Z</time>
      </trkpt>
      <trkpt lat="47.71806" lon="6.05808">
        <ele>250.75</ele>
        <time>2017-10-18T09:34:45Z</time>
      </trkpt>
      <trkpt lat="47.71802" lon="6.05805">
        <ele>250.76</ele>
        <time>2017-10-18T09:34:47Z</time>
      </trkpt>
      <trkpt lat="47.71797" lon="6.058">
        <ele>250.76</ele>
        <time>2017-10-18T09:34:49Z</time>
      </trkpt>
      <trkpt lat="47.71793" lon="6.05797">
        <ele>250.76</ele>
        <time>2017-10-18T09:34:51Z</time>
      </trkpt>
      <trkpt lat="47.71788" lon="6.05794">
        <ele>250.77</ele>
        <time>2017-10-18T09:34:54Z</time>
      </trkpt>
      <trkpt lat="47.71782" lon="6.05792">
        <ele>250.76</ele>
        <time>2017-10-18T09:35:03Z</time>
      </trkpt>
      <trkpt lat="47.71777" lon="6.0579">
        <ele>250.75</ele>
        <time>2017-10-18T09:35:05Z</time>
      </trkpt>
      <trkpt lat="47.71771" lon="6.05789">
        <ele>250.74</ele>
        <time>2017-10-18T09:35:07Z</time>
      </trkpt>
      <trkpt lat="47.71767" lon="6.05788">
        <ele>250.72</ele>
        <time>2017-10-18T09:35:10Z</time>
      </trkpt>
      <trkpt lat="47.71761" lon="6.05784">
        <ele>250.71</ele>
        <time>2017-10-18T09:35:12Z</time>
      </trkpt>
      <trkpt lat="47.71756" lon="6.05782">
        <ele>250.7</ele>
        <time>2017-10-18T09:35:14Z</time>
      </trkpt>
      <trkpt lat="47.7175" lon="6.05778">
        <ele>250.69</ele>
        <time>2017-10-18T09:35:16Z</time>
      </trkpt>
      <trkpt lat="47.71744" lon="6.05778">
        <ele>250.68</ele>
        <time>2017-10-18T09:35:18Z</time>
      </trkpt>
      <trkpt lat="47.71737" lon="6.05777">
        <ele>250.66</ele>
        <time>2017-10-18T09:35:21Z</time>
      </trkpt>
      <trkpt lat="47.71731" lon="6.05777">
        <ele>250.66</ele>
        <time>2017-10-18T09:35:22Z</time>
      </trkpt>
      <trkpt lat="47.71725" lon="6.05775">
        <ele>250.64</ele>
        <time>2017-10-18T09:35:25Z</time>
      </trkpt>
      <trkpt lat="47.71718" lon="6.05772">
        <ele>250.63</ele>
        <time>2017-10-18T09:35:27Z</time>
      </trkpt>
      <trkpt lat="47.71712" lon="6.0577">
        <ele>250.63</ele>
        <time>2017-10-18T09:35:28Z</time>
      </trkpt>
      <trkpt lat="47.71708" lon="6.05768">
        <ele>250.62</ele>
        <time>2017-10-18T09:35:29Z</time>
      </trkpt>
      <trkpt lat="47.71701" lon="6.05766">
        <ele>250.62</ele>
        <time>2017-10-18T09:35:30Z</time>
      </trkpt>
      <trkpt lat="47.71695" lon="6.05763">
        <ele>250.61</ele>
        <time>2017-10-18T09:35:31Z</time>
      </trkpt>
      <trkpt lat="47.71689" lon="6.05761">
        <ele>250.61</ele>
        <time>2017-10-18T09:35:32Z</time>
      </trkpt>
      <trkpt lat="47.71682" lon="6.05754">
        <ele>250.6</ele>
        <time>2017-10-18T09:35:34Z</time>
      </trkpt>
      <trkpt lat="47.71678" lon="6.0575">
        <ele>250.6</ele>
        <time>2017-10-18T09:35:35Z</time>
      </trkpt>
      <trkpt lat="47.7167" lon="6.05743">
        <ele>250.59</ele>
        <time>2017-10-18T09:35:37Z</time>
      </trkpt>
      <trkpt lat="47.71662" lon="6.05745">
        <ele>250.58</ele>
        <time>2017-10-18T09:35:39Z</time>
      </trkpt>
      <trkpt lat="47.71655" lon="6.05745">
        <ele>250.58</ele>
        <time>2017-10-18T09:35:41Z</time>
      </trkpt>
      <trkpt lat="47.71649" lon="6.05743">
        <ele>250.58</ele>
        <time>2017-10-18T09:35:43Z</time>
      </trkpt>
      <trkpt lat="47.71642" lon="6.0574">
        <ele>250.58</ele>
        <time>2017-10-18T09:35:45Z</time>
      </trkpt>
      <trkpt lat="47.71637" lon="6.05738">
        <ele>250.58</ele>
        <time>2017-10-18T09:35:47Z</time>
      </trkpt>
      <trkpt lat="47.71629" lon="6.05739">
        <ele>250.58</ele>
        <time>2017-10-18T09:35:49Z</time>
      </trkpt>
      <trkpt lat="47.71623" lon="6.05739">
        <ele>250.58</ele>
        <time>2017-10-18T09:35:51Z</time>
      </trkpt>
      <trkpt lat="47.71615" lon="6.0574">
        <ele>250.58</ele>
        <time>2017-10-18T09:35:53Z</time>
      </trkpt>
      <trkpt lat="47.7161" lon="6.0574">
        <ele>250.58</ele>
        <time>2017-10-18T09:35:55Z</time>
      </trkpt>
      <trkpt lat="47.71603" lon="6.05739">
        <ele>250.59</ele>
        <time>2017-10-18T09:35:57Z</time>
      </trkpt>
      <trkpt lat="47.71597" lon="6.05739">
        <ele>250.59</ele>
        <time>2017-10-18T09:35:59Z</time>
      </trkpt>
      <trkpt lat="47.71589" lon="6.05736">
        <ele>250.6</ele>
        <time>2017-10-18T09:36:01Z</time>
      </trkpt>
      <trkpt lat="47.71584" lon="6.05735">
        <ele>250.6</ele>
        <time>2017-10-18T09:36:03Z</time>
      </trkpt>
      <trkpt lat="47.71578" lon="6.05734">
        <ele>250.61</ele>
        <time>2017-10-18T09:36:05Z</time>
      </trkpt>
      <trkpt lat="47.71574" lon="6.05733">
        <ele>250.62</ele>
        <time>2017-10-18T09:36:07Z</time>
      </trkpt>
      <trkpt lat="47.71569" lon="6.05731">
        <ele>250.63</ele>
        <time>2017-10-18T09:36:09Z</time>
      </trkpt>
      <trkpt lat="47.71565" lon="6.0573">
        <ele>250.64</ele>
        <time>2017-10-18T09:36:11Z</time>
      </trkpt>
      <trkpt lat="47.71559" lon="6.05731">
        <ele>250.64</ele>
        <time>2017-10-18T09:36:13Z</time>
      </trkpt>
      <trkpt lat="47.71555" lon="6.05731">
        <ele>250.65</ele>
        <time>2017-10-18T09:36:15Z</time>
      </trkpt>
      <trkpt lat="47.7155" lon="6.0573">
        <ele>250.66</ele>
        <time>2017-10-18T09:36:17Z</time>
      </trkpt>
      <trkpt lat="47.71544" lon="6.05729">
        <ele>250.67</ele>
        <time>2017-10-18T09:36:20Z</time>
      </trkpt>
      <trkpt lat="47.71538" lon="6.05729">
        <ele>250.68</ele>
        <time>2017-10-18T09:36:23Z</time>
      </trkpt>
      <trkpt lat="47.71533" lon="6.0573">
        <ele>250.68</ele>
        <time>2017-10-18T09:36:26Z</time>
      </trkpt>
      <trkpt lat="47.71528" lon="6.05728">
        <ele>250.69</ele>
        <time>2017-10-18T09:36:28Z</time>
      </trkpt>
      <trkpt lat="47.71523" lon="6.05728">
        <ele>250.69</ele>
        <time>2017-10-18T09:36:30Z</time>
      </trkpt>
      <trkpt lat="47.71517" lon="6.05727">
        <ele>250.7</ele>
        <time>2017-10-18T09:36:32Z</time>
      </trkpt>
      <trkpt lat="47.71512" lon="6.05725">
        <ele>250.71</ele>
        <time>2017-10-18T09:36:34Z</time>
      </trkpt>
      <trkpt lat="47.71507" lon="6.05722">
        <ele>250.71</ele>
        <time>2017-10-18T09:36:36Z</time>
      </trkpt>
      <trkpt lat="47.71502" lon="6.0572">
        <ele>250.72</ele>
        <time>2017-10-18T09:36:38Z</time>
      </trkpt>
      <trkpt lat="47.71496" lon="6.05716">
        <ele>250.73</ele>
        <time>2017-10-18T09:36:40Z</time>
      </trkpt>
      <trkpt lat="47.71491" lon="6.05712">
        <ele>250.74</ele>
        <time>2017-10-18T09:36:43Z</time>
      </trkpt>
      <trkpt lat="47.71487" lon="6.05709">
        <ele>250.75</ele>
        <time>2017-10-18T09:36:45Z</time>
      </trkpt>
      <trkpt lat="47.7148" lon="6.05704">
        <ele>250.77</ele>
        <time>2017-10-18T09:36:47Z</time>
      </trkpt>
      <trkpt lat="47.71476" lon="6.057">
        <ele>250.78</ele>
        <time>2017-10-18T09:36:48Z</time>
      </trkpt>
      <trkpt lat="47.71469" lon="6.05693">
        <ele>250.79</ele>
        <time>2017-10-18T09:36:50Z</time>
      </trkpt>
      <trkpt lat="47.71463" lon="6.05687">
        <ele>250.81</ele>
        <time>2017-10-18T09:36:52Z</time>
      </trkpt>
      <trkpt lat="47.71459" lon="6.05684">
        <ele>250.82</ele>
        <time>2017-10-18T09:36:54Z</time>
      </trkpt>
      <trkpt lat="47.71454" lon="6.0568">
        <ele>250.83</ele>
        <time>2017-10-18T09:36:56Z</time>
      </trkpt>
      <trkpt lat="47.71449" lon="6.05676">
        <ele>250.84</ele>
        <time>2017-10-18T09:36:58Z</time>
      </trkpt>
      <trkpt lat="47.71444" lon="6.05671">
        <ele>250.85</ele>
        <time>2017-10-18T09:37:00Z</time>
      </trkpt>
      <trkpt lat="47.7144" lon="6.05667">
        <ele>250.86</ele>
        <time>2017-10-18T09:37:02Z</time>
      </trkpt>
      <trkpt lat="47.71435" lon="6.05663">
        <ele>250.88</ele>
        <time>2017-10-18T09:37:08Z</time>
      </trkpt>
      <trkpt lat="47.71431" lon="6.05659">
        <ele>250.89</ele>
        <time>2017-10-18T09:37:11Z</time>
      </trkpt>
      <trkpt lat="47.71427" lon="6.05654">
        <ele>250.91</ele>
        <time>2017-10-18T09:37:15Z</time>
      </trkpt>
      <trkpt lat="47.71423" lon="6.0565">
        <ele>250.92</ele>
        <time>2017-10-18T09:37:17Z</time>
      </trkpt>
      <trkpt lat="47.7142" lon="6.05645">
        <ele>250.93</ele>
        <time>2017-10-18T09:37:19Z</time>
      </trkpt>
      <trkpt lat="47.71414" lon="6.05642">
        <ele>250.95</ele>
        <time>2017-10-18T09:37:22Z</time>
      </trkpt>
      <trkpt lat="47.71409" lon="6.05638">
        <ele>250.96</ele>
        <time>2017-10-18T09:37:24Z</time>
      </trkpt>
      <trkpt lat="47.71404" lon="6.05635">
        <ele>250.98</ele>
        <time>2017-10-18T09:37:28Z</time>
      </trkpt>
      <trkpt lat="47.71399" lon="6.05631">
        <ele>251</ele>
        <time>2017-10-18T09:37:31Z</time>
      </trkpt>
      <trkpt lat="47.71395" lon="6.05627">
        <ele>251.02</ele>
        <time>2017-10-18T09:37:33Z</time>
      </trkpt>
      <trkpt lat="47.7139" lon="6.05624">
        <ele>251.06</ele>
        <time>2017-10-18T09:37:36Z</time>
      </trkpt>
      <trkpt lat="47.71386" lon="6.05621">
        <ele>251.08</ele>
        <time>2017-10-18T09:37:38Z</time>
      </trkpt>
      <trkpt lat="47.71381" lon="6.05616">
        <ele>251.1</ele>
        <time>2017-10-18T09:37:40Z</time>
      </trkpt>
      <trkpt lat="47.7137" lon="6.05606">
        <ele>251.12</ele>
        <time>2017-10-18T09:37:42Z</time>
      </trkpt>
      <trkpt lat="47.71363" lon="6.05601">
        <ele>251.14</ele>
        <time>2017-10-18T09:37:44Z</time>
      </trkpt>
      <trkpt lat="47.71359" lon="6.05597">
        <ele>251.16</ele>
        <time>2017-10-18T09:37:46Z</time>
      </trkpt>
      <trkpt lat="47.71355" lon="6.05595">
        <ele>251.19</ele>
        <time>2017-10-18T09:37:48Z</time>
      </trkpt>
      <trkpt lat="47.71351" lon="6.05591">
        <ele>251.22</ele>
        <time>2017-10-18T09:37:51Z</time>
      </trkpt>
      <trkpt lat="47.71346" lon="6.05589">
        <ele>251.28</ele>
        <time>2017-10-18T09:37:55Z</time>
      </trkpt>
      <trkpt lat="47.7134" lon="6.05586">
        <ele>251.33</ele>
        <time>2017-10-18T09:37:59Z</time>
      </trkpt>
      <trkpt lat="47.71336" lon="6.05584">
        <ele>251.38</ele>
        <time>2017-10-18T09:38:02Z</time>
      </trkpt>
      <trkpt lat="47.71331" lon="6.0558">
        <ele>251.41</ele>
        <time>2017-10-18T09:38:04Z</time>
      </trkpt>
      <trkpt lat="47.71326" lon="6.05576">
        <ele>251.44</ele>
        <time>2017-10-18T09:38:06Z</time>
      </trkpt>
      <trkpt lat="47.71322" lon="6.05573">
        <ele>251.5</ele>
        <time>2017-10-18T09:38:10Z</time>
      </trkpt>
      <trkpt lat="47.71318" lon="6.05569">
        <ele>251.55</ele>
        <time>2017-10-18T09:38:13Z</time>
      </trkpt>
      <trkpt lat="47.71313" lon="6.05573">
        <ele>251.64</ele>
        <time>2017-10-18T09:38:18Z</time>
      </trkpt>
      <trkpt lat="47.71307" lon="6.05572">
        <ele>251.69</ele>
        <time>2017-10-18T09:38:21Z</time>
      </trkpt>
      <trkpt lat="47.71301" lon="6.05566">
        <ele>251.73</ele>
        <time>2017-10-18T09:38:23Z</time>
      </trkpt>
      <trkpt lat="47.71296" lon="6.05571">
        <ele>251.79</ele>
        <time>2017-10-18T09:38:27Z</time>
      </trkpt>
      <trkpt lat="47.71278" lon="6.05551">
        <ele>251.81</ele>
        <time>2017-10-18T09:38:28Z</time>
      </trkpt>
      <trkpt lat="47.71272" lon="6.05547">
        <ele>251.83</ele>
        <time>2017-10-18T09:38:29Z</time>
      </trkpt>
      <trkpt lat="47.71267" lon="6.05544">
        <ele>251.9</ele>
        <time>2017-10-18T09:38:32Z</time>
      </trkpt>
      <trkpt lat="47.71262" lon="6.05544">
        <ele>252.04</ele>
        <time>2017-10-18T09:38:37Z</time>
      </trkpt>
      <trkpt lat="47.71257" lon="6.05541">
        <ele>252.14</ele>
        <time>2017-10-18T09:38:41Z</time>
      </trkpt>
      <trkpt lat="47.71252" lon="6.05538">
        <ele>252.28</ele>
        <time>2017-10-18T09:38:47Z</time>
      </trkpt>
      <trkpt lat="47.71247" lon="6.05536">
        <ele>252.4</ele>
        <time>2017-10-18T09:38:52Z</time>
      </trkpt>
      <trkpt lat="47.71242" lon="6.05534">
        <ele>252.53</ele>
        <time>2017-10-18T09:38:58Z</time>
      </trkpt>
      <trkpt lat="47.71238" lon="6.05532">
        <ele>252.65</ele>
        <time>2017-10-18T09:39:06Z</time>
      </trkpt>
      <trkpt lat="47.71233" lon="6.05532">
        <ele>252.71</ele>
        <time>2017-10-18T09:39:09Z</time>
      </trkpt>
      <trkpt lat="47.71228" lon="6.05531">
        <ele>252.77</ele>
        <time>2017-10-18T09:39:12Z</time>
      </trkpt>
      <trkpt lat="47.71221" lon="6.05525">
        <ele>252.82</ele>
        <time>2017-10-18T09:39:15Z</time>
      </trkpt>
      <trkpt lat="47.71215" lon="6.05519">
        <ele>252.86</ele>
        <time>2017-10-18T09:39:17Z</time>
      </trkpt>
      <trkpt lat="47.7121" lon="6.05521">
        <ele>252.91</ele>
        <time>2017-10-18T09:39:20Z</time>
      </trkpt>
      <trkpt lat="47.71204" lon="6.05521">
        <ele>253</ele>
        <time>2017-10-18T09:39:25Z</time>
      </trkpt>
      <trkpt lat="47.71199" lon="6.0552">
        <ele>253.05</ele>
        <time>2017-10-18T09:39:28Z</time>
      </trkpt>
      <trkpt lat="47.71193" lon="6.05515">
        <ele>253.09</ele>
        <time>2017-10-18T09:39:30Z</time>
      </trkpt>
      <trkpt lat="47.71188" lon="6.05512">
        <ele>253.13</ele>
        <time>2017-10-18T09:39:32Z</time>
      </trkpt>
      <trkpt lat="47.71184" lon="6.05508">
        <ele>253.17</ele>
        <time>2017-10-18T09:39:34Z</time>
      </trkpt>
      <trkpt lat="47.7118" lon="6.05506">
        <ele>253.23</ele>
        <time>2017-10-18T09:39:37Z</time>
      </trkpt>
      <trkpt lat="47.71176" lon="6.05502">
        <ele>253.27</ele>
        <time>2017-10-18T09:39:43Z</time>
      </trkpt>
      <trkpt lat="47.71168" lon="6.05505">
        <ele>253.43</ele>
        <time>2017-10-18T09:39:55Z</time>
      </trkpt>
      <trkpt lat="47.71162" lon="6.05504">
        <ele>253.54</ele>
        <time>2017-10-18T09:39:57Z</time>
      </trkpt>
      <trkpt lat="47.71157" lon="6.05503">
        <ele>253.7</ele>
        <time>2017-10-18T09:40:00Z</time>
      </trkpt>
      <trkpt lat="47.71152" lon="6.05504">
        <ele>253.88</ele>
        <time>2017-10-18T09:40:03Z</time>
      </trkpt>
      <trkpt lat="47.71147" lon="6.05506">
        <ele>254.06</ele>
        <time>2017-10-18T09:40:06Z</time>
      </trkpt>
      <trkpt lat="47.7114" lon="6.05507">
        <ele>254.24</ele>
        <time>2017-10-18T09:40:09Z</time>
      </trkpt>
      <trkpt lat="47.71133" lon="6.05507">
        <ele>254.43</ele>
        <time>2017-10-18T09:40:12Z</time>
      </trkpt>
      <trkpt lat="47.71127" lon="6.0551">
        <ele>254.61</ele>
        <time>2017-10-18T09:40:15Z</time>
      </trkpt>
      <trkpt lat="47.7112" lon="6.05511">
        <ele>254.79</ele>
        <time>2017-10-18T09:40:18Z</time>
      </trkpt>
      <trkpt lat="47.71116" lon="6.05512">
        <ele>254.91</ele>
        <time>2017-10-18T09:40:20Z</time>
      </trkpt>
      <trkpt lat="47.71111" lon="6.05512">
        <ele>255.03</ele>
        <time>2017-10-18T09:40:22Z</time>
      </trkpt>
      <trkpt lat="47.71106" lon="6.05513">
        <ele>255.15</ele>
        <time>2017-10-18T09:40:24Z</time>
      </trkpt>
      <trkpt lat="47.711" lon="6.05514">
        <ele>255.33</ele>
        <time>2017-10-18T09:40:27Z</time>
      </trkpt>
      <trkpt lat="47.71095" lon="6.05515">
        <ele>255.44</ele>
        <time>2017-10-18T09:40:29Z</time>
      </trkpt>
      <trkpt lat="47.7109" lon="6.05515">
        <ele>255.56</ele>
        <time>2017-10-18T09:40:31Z</time>
      </trkpt>
      <trkpt lat="47.71085" lon="6.05516">
        <ele>255.68</ele>
        <time>2017-10-18T09:40:33Z</time>
      </trkpt>
      <trkpt lat="47.7108" lon="6.05517">
        <ele>255.79</ele>
        <time>2017-10-18T09:40:35Z</time>
      </trkpt>
      <trkpt lat="47.71075" lon="6.05517">
        <ele>255.91</ele>
        <time>2017-10-18T09:40:37Z</time>
      </trkpt>
      <trkpt lat="47.7107" lon="6.05518">
        <ele>256.02</ele>
        <time>2017-10-18T09:40:39Z</time>
      </trkpt>
      <trkpt lat="47.71065" lon="6.0552">
        <ele>256.14</ele>
        <time>2017-10-18T09:40:41Z</time>
      </trkpt>
      <trkpt lat="47.7106" lon="6.05522">
        <ele>256.25</ele>
        <time>2017-10-18T09:40:43Z</time>
      </trkpt>
      <trkpt lat="47.71056" lon="6.05524">
        <ele>256.37</ele>
        <time>2017-10-18T09:40:45Z</time>
      </trkpt>
      <trkpt lat="47.7105" lon="6.05525">
        <ele>256.48</ele>
        <time>2017-10-18T09:40:47Z</time>
      </trkpt>
      <trkpt lat="47.71045" lon="6.05525">
        <ele>256.59</ele>
        <time>2017-10-18T09:40:49Z</time>
      </trkpt>
      <trkpt lat="47.71038" lon="6.05525">
        <ele>256.7</ele>
        <time>2017-10-18T09:40:51Z</time>
      </trkpt>
      <trkpt lat="47.71032" lon="6.05525">
        <ele>256.8</ele>
        <time>2017-10-18T09:40:53Z</time>
      </trkpt>
      <trkpt lat="47.71024" lon="6.05522">
        <ele>256.91</ele>
        <time>2017-10-18T09:40:55Z</time>
      </trkpt>
      <trkpt lat="47.71017" lon="6.0552">
        <ele>257.01</ele>
        <time>2017-10-18T09:40:57Z</time>
      </trkpt>
      <trkpt lat="47.71011" lon="6.05518">
        <ele>257.16</ele>
        <time>2017-10-18T09:41:00Z</time>
      </trkpt>
      <trkpt lat="47.71004" lon="6.05517">
        <ele>257.26</ele>
        <time>2017-10-18T09:41:02Z</time>
      </trkpt>
      <trkpt lat="47.70997" lon="6.05514">
        <ele>257.36</ele>
        <time>2017-10-18T09:41:04Z</time>
      </trkpt>
      <trkpt lat="47.7099" lon="6.05512">
        <ele>257.46</ele>
        <time>2017-10-18T09:41:06Z</time>
      </trkpt>
      <trkpt lat="47.70983" lon="6.0551">
        <ele>258.22</ele>
        <time>2017-10-18T09:41:08Z</time>
      </trkpt>
      <trkpt lat="47.70973" lon="6.05508">
        <ele>258.86</ele>
        <time>2017-10-18T09:41:10Z</time>
      </trkpt>
      <trkpt lat="47.70968" lon="6.05507">
        <ele>259.1</ele>
        <time>2017-10-18T09:41:11Z</time>
      </trkpt>
      <trkpt lat="47.70962" lon="6.05506">
        <ele>259.31</ele>
        <time>2017-10-18T09:41:12Z</time>
      </trkpt>
      <trkpt lat="47.70957" lon="6.05504">
        <ele>259.48</ele>
        <time>2017-10-18T09:41:13Z</time>
      </trkpt>
      <trkpt lat="47.70952" lon="6.05503">
        <ele>259.62</ele>
        <time>2017-10-18T09:41:14Z</time>
      </trkpt>
      <trkpt lat="47.70947" lon="6.05501">
        <ele>259.73</ele>
        <time>2017-10-18T09:41:15Z</time>
      </trkpt>
      <trkpt lat="47.70942" lon="6.05499">
        <ele>259.82</ele>
        <time>2017-10-18T09:41:16Z</time>
      </trkpt>
      <trkpt lat="47.70936" lon="6.05498">
        <ele>259.89</ele>
        <time>2017-10-18T09:41:17Z</time>
      </trkpt>
      <trkpt lat="47.70931" lon="6.05496">
        <ele>259.96</ele>
        <time>2017-10-18T09:41:18Z</time>
      </trkpt>
      <trkpt lat="47.70926" lon="6.05494">
        <ele>260.01</ele>
        <time>2017-10-18T09:41:19Z</time>
      </trkpt>
      <trkpt lat="47.7092" lon="6.05491">
        <ele>260.06</ele>
        <time>2017-10-18T09:41:20Z</time>
      </trkpt>
      <trkpt lat="47.70915" lon="6.05488">
        <ele>260.09</ele>
        <time>2017-10-18T09:41:21Z</time>
      </trkpt>
      <trkpt lat="47.70909" lon="6.05486">
        <ele>260.12</ele>
        <time>2017-10-18T09:41:22Z</time>
      </trkpt>
      <trkpt lat="47.70903" lon="6.05483">
        <ele>260.15</ele>
        <time>2017-10-18T09:41:23Z</time>
      </trkpt>
      <trkpt lat="47.70898" lon="6.0548">
        <ele>260.17</ele>
        <time>2017-10-18T09:41:24Z</time>
      </trkpt>
      <trkpt lat="47.70893" lon="6.05477">
        <ele>260.2</ele>
        <time>2017-10-18T09:41:25Z</time>
      </trkpt>
      <trkpt lat="47.70888" lon="6.05475">
        <ele>260.22</ele>
        <time>2017-10-18T09:41:26Z</time>
      </trkpt>
      <trkpt lat="47.70884" lon="6.05472">
        <ele>260.24</ele>
        <time>2017-10-18T09:41:27Z</time>
      </trkpt>
      <trkpt lat="47.70879" lon="6.05469">
        <ele>260.26</ele>
        <time>2017-10-18T09:41:28Z</time>
      </trkpt>
      <trkpt lat="47.70871" lon="6.05465">
        <ele>260.31</ele>
        <time>2017-10-18T09:41:30Z</time>
      </trkpt>
      <trkpt lat="47.70863" lon="6.0546">
        <ele>260.34</ele>
        <time>2017-10-18T09:41:32Z</time>
      </trkpt>
      <trkpt lat="47.70859" lon="6.05457">
        <ele>260.35</ele>
        <time>2017-10-18T09:41:33Z</time>
      </trkpt>
      <trkpt lat="47.70854" lon="6.05454">
        <ele>260.36</ele>
        <time>2017-10-18T09:41:34Z</time>
      </trkpt>
      <trkpt lat="47.70849" lon="6.0545">
        <ele>260.36</ele>
        <time>2017-10-18T09:41:35Z</time>
      </trkpt>
      <trkpt lat="47.70844" lon="6.05447">
        <ele>260.36</ele>
        <time>2017-10-18T09:41:36Z</time>
      </trkpt>
      <trkpt lat="47.70838" lon="6.05444">
        <ele>260.35</ele>
        <time>2017-10-18T09:41:37Z</time>
      </trkpt>
      <trkpt lat="47.70832" lon="6.05442">
        <ele>260.34</ele>
        <time>2017-10-18T09:41:38Z</time>
      </trkpt>
      <trkpt lat="47.70826" lon="6.0544">
        <ele>260.33</ele>
        <time>2017-10-18T09:41:39Z</time>
      </trkpt>
      <trkpt lat="47.70819" lon="6.05436">
        <ele>260.32</ele>
        <time>2017-10-18T09:41:40Z</time>
      </trkpt>
      <trkpt lat="47.70813" lon="6.05433">
        <ele>260.31</ele>
        <time>2017-10-18T09:41:41Z</time>
      </trkpt>
      <trkpt lat="47.70806" lon="6.05429">
        <ele>260.3</ele>
        <time>2017-10-18T09:41:42Z</time>
      </trkpt>
      <trkpt lat="47.708" lon="6.05425">
        <ele>260.29</ele>
        <time>2017-10-18T09:41:43Z</time>
      </trkpt>
      <trkpt lat="47.70793" lon="6.0542">
        <ele>260.26</ele>
        <time>2017-10-18T09:41:44Z</time>
      </trkpt>
      <trkpt lat="47.70787" lon="6.05418">
        <ele>260.24</ele>
        <time>2017-10-18T09:41:45Z</time>
      </trkpt>
      <trkpt lat="47.7078" lon="6.05417">
        <ele>260.2</ele>
        <time>2017-10-18T09:41:46Z</time>
      </trkpt>
      <trkpt lat="47.70773" lon="6.05416">
        <ele>260.17</ele>
        <time>2017-10-18T09:41:47Z</time>
      </trkpt>
      <trkpt lat="47.70766" lon="6.05415">
        <ele>260.13</ele>
        <time>2017-10-18T09:41:48Z</time>
      </trkpt>
      <trkpt lat="47.7076" lon="6.05414">
        <ele>260.1</ele>
        <time>2017-10-18T09:41:49Z</time>
      </trkpt>
      <trkpt lat="47.70754" lon="6.05414">
        <ele>260.05</ele>
        <time>2017-10-18T09:41:50Z</time>
      </trkpt>
      <trkpt lat="47.70749" lon="6.05413">
        <ele>260</ele>
        <time>2017-10-18T09:41:51Z</time>
      </trkpt>
      <trkpt lat="47.70743" lon="6.05413">
        <ele>259.96</ele>
        <time>2017-10-18T09:41:52Z</time>
      </trkpt>
      <trkpt lat="47.70737" lon="6.05413">
        <ele>259.97</ele>
        <time>2017-10-18T09:41:53Z</time>
      </trkpt>
      <trkpt lat="47.70733" lon="6.05413">
        <ele>260</ele>
        <time>2017-10-18T09:41:54Z</time>
      </trkpt>
      <trkpt lat="47.70728" lon="6.05413">
        <ele>260.02</ele>
        <time>2017-10-18T09:41:55Z</time>
      </trkpt>
      <trkpt lat="47.7072" lon="6.05413">
        <ele>260.04</ele>
        <time>2017-10-18T09:41:57Z</time>
      </trkpt>
      <trkpt lat="47.70713" lon="6.05412">
        <ele>260.03</ele>
        <time>2017-10-18T09:41:59Z</time>
      </trkpt>
      <trkpt lat="47.70707" lon="6.05412">
        <ele>260.03</ele>
        <time>2017-10-18T09:42:01Z</time>
      </trkpt>
      <trkpt lat="47.70702" lon="6.05412">
        <ele>260.01</ele>
        <time>2017-10-18T09:42:03Z</time>
      </trkpt>
      <trkpt lat="47.70696" lon="6.05412">
        <ele>259.99</ele>
        <time>2017-10-18T09:42:05Z</time>
      </trkpt>
      <trkpt lat="47.70691" lon="6.05413">
        <ele>259.97</ele>
        <time>2017-10-18T09:42:07Z</time>
      </trkpt>
      <trkpt lat="47.70686" lon="6.05412">
        <ele>259.93</ele>
        <time>2017-10-18T09:42:09Z</time>
      </trkpt>
      <trkpt lat="47.7068" lon="6.05412">
        <ele>259.88</ele>
        <time>2017-10-18T09:42:11Z</time>
      </trkpt>
      <trkpt lat="47.70674" lon="6.05412">
        <ele>259.82</ele>
        <time>2017-10-18T09:42:13Z</time>
      </trkpt>
      <trkpt lat="47.70668" lon="6.05411">
        <ele>259.76</ele>
        <time>2017-10-18T09:42:15Z</time>
      </trkpt>
      <trkpt lat="47.70662" lon="6.0541">
        <ele>259.68</ele>
        <time>2017-10-18T09:42:17Z</time>
      </trkpt>
      <trkpt lat="47.70657" lon="6.05408">
        <ele>259.6</ele>
        <time>2017-10-18T09:42:19Z</time>
      </trkpt>
      <trkpt lat="47.70652" lon="6.05408">
        <ele>259.5</ele>
        <time>2017-10-18T09:42:21Z</time>
      </trkpt>
      <trkpt lat="47.70646" lon="6.05407">
        <ele>259.33</ele>
        <time>2017-10-18T09:42:24Z</time>
      </trkpt>
      <trkpt lat="47.7064" lon="6.05407">
        <ele>259.15</ele>
        <time>2017-10-18T09:42:27Z</time>
      </trkpt>
      <trkpt lat="47.70633" lon="6.05406">
        <ele>258.95</ele>
        <time>2017-10-18T09:42:30Z</time>
      </trkpt>
      <trkpt lat="47.70627" lon="6.05404">
        <ele>258.81</ele>
        <time>2017-10-18T09:42:32Z</time>
      </trkpt>
      <trkpt lat="47.70621" lon="6.05401">
        <ele>258.67</ele>
        <time>2017-10-18T09:42:34Z</time>
      </trkpt>
      <trkpt lat="47.70614" lon="6.05397">
        <ele>258.54</ele>
        <time>2017-10-18T09:42:36Z</time>
      </trkpt>
      <trkpt lat="47.70609" lon="6.05395">
        <ele>258.4</ele>
        <time>2017-10-18T09:42:38Z</time>
      </trkpt>
      <trkpt lat="47.70604" lon="6.05393">
        <ele>258.27</ele>
        <time>2017-10-18T09:42:40Z</time>
      </trkpt>
      <trkpt lat="47.70597" lon="6.05391">
        <ele>258.13</ele>
        <time>2017-10-18T09:42:42Z</time>
      </trkpt>
      <trkpt lat="47.70592" lon="6.05389">
        <ele>258.01</ele>
        <time>2017-10-18T09:42:44Z</time>
      </trkpt>
      <trkpt lat="47.70586" lon="6.05386">
        <ele>257.89</ele>
        <time>2017-10-18T09:42:46Z</time>
      </trkpt>
      <trkpt lat="47.70581" lon="6.05383">
        <ele>257.78</ele>
        <time>2017-10-18T09:42:48Z</time>
      </trkpt>
      <trkpt lat="47.70576" lon="6.05382">
        <ele>257.68</ele>
        <time>2017-10-18T09:42:50Z</time>
      </trkpt>
      <trkpt lat="47.70572" lon="6.05381">
        <ele>257.58</ele>
        <time>2017-10-18T09:42:52Z</time>
      </trkpt>
      <trkpt lat="47.70566" lon="6.05381">
        <ele>257.45</ele>
        <time>2017-10-18T09:42:55Z</time>
      </trkpt>
      <trkpt lat="47.70559" lon="6.0538">
        <ele>257.29</ele>
        <time>2017-10-18T09:42:59Z</time>
      </trkpt>
      <trkpt lat="47.70552" lon="6.05377">
        <ele>257.22</ele>
        <time>2017-10-18T09:43:01Z</time>
      </trkpt>
      <trkpt lat="47.70546" lon="6.05375">
        <ele>257.15</ele>
        <time>2017-10-18T09:43:03Z</time>
      </trkpt>
      <trkpt lat="47.70539" lon="6.0537">
        <ele>257.09</ele>
        <time>2017-10-18T09:43:05Z</time>
      </trkpt>
      <trkpt lat="47.70532" lon="6.05367">
        <ele>257.03</ele>
        <time>2017-10-18T09:43:07Z</time>
      </trkpt>
      <trkpt lat="47.70526" lon="6.05365">
        <ele>256.97</ele>
        <time>2017-10-18T09:43:09Z</time>
      </trkpt>
      <trkpt lat="47.70521" lon="6.05362">
        <ele>256.93</ele>
        <time>2017-10-18T09:43:11Z</time>
      </trkpt>
      <trkpt lat="47.70515" lon="6.05359">
        <ele>256.89</ele>
        <time>2017-10-18T09:43:13Z</time>
      </trkpt>
      <trkpt lat="47.70508" lon="6.05355">
        <ele>256.86</ele>
        <time>2017-10-18T09:43:15Z</time>
      </trkpt>
      <trkpt lat="47.70503" lon="6.05352">
        <ele>256.83</ele>
        <time>2017-10-18T09:43:17Z</time>
      </trkpt>
      <trkpt lat="47.70497" lon="6.05349">
        <ele>256.81</ele>
        <time>2017-10-18T09:43:19Z</time>
      </trkpt>
      <trkpt lat="47.70492" lon="6.05344">
        <ele>256.8</ele>
        <time>2017-10-18T09:43:21Z</time>
      </trkpt>
      <trkpt lat="47.70486" lon="6.05339">
        <ele>256.79</ele>
        <time>2017-10-18T09:43:23Z</time>
      </trkpt>
      <trkpt lat="47.70481" lon="6.05334">
        <ele>256.78</ele>
        <time>2017-10-18T09:43:25Z</time>
      </trkpt>
      <trkpt lat="47.70476" lon="6.05328">
        <ele>256.78</ele>
        <time>2017-10-18T09:43:27Z</time>
      </trkpt>
      <trkpt lat="47.70471" lon="6.05323">
        <ele>256.79</ele>
        <time>2017-10-18T09:43:29Z</time>
      </trkpt>
      <trkpt lat="47.70466" lon="6.05318">
        <ele>256.79</ele>
        <time>2017-10-18T09:43:31Z</time>
      </trkpt>
      <trkpt lat="47.70461" lon="6.05311">
        <ele>256.8</ele>
        <time>2017-10-18T09:43:33Z</time>
      </trkpt>
      <trkpt lat="47.70455" lon="6.05305">
        <ele>256.82</ele>
        <time>2017-10-18T09:43:35Z</time>
      </trkpt>
      <trkpt lat="47.70449" lon="6.05301">
        <ele>256.84</ele>
        <time>2017-10-18T09:43:37Z</time>
      </trkpt>
      <trkpt lat="47.70444" lon="6.05299">
        <ele>256.86</ele>
        <time>2017-10-18T09:43:39Z</time>
      </trkpt>
      <trkpt lat="47.70438" lon="6.05297">
        <ele>256.89</ele>
        <time>2017-10-18T09:43:41Z</time>
      </trkpt>
      <trkpt lat="47.70432" lon="6.05296">
        <ele>256.91</ele>
        <time>2017-10-18T09:43:43Z</time>
      </trkpt>
      <trkpt lat="47.70426" lon="6.05294">
        <ele>257.02</ele>
        <time>2017-10-18T09:43:45Z</time>
      </trkpt>
      <trkpt lat="47.70418" lon="6.05292">
        <ele>257.08</ele>
        <time>2017-10-18T09:43:47Z</time>
      </trkpt>
      <trkpt lat="47.70411" lon="6.05289">
        <ele>257.2</ele>
        <time>2017-10-18T09:43:49Z</time>
      </trkpt>
      <trkpt lat="47.70404" lon="6.05286">
        <ele>257.3</ele>
        <time>2017-10-18T09:43:51Z</time>
      </trkpt>
      <trkpt lat="47.70396" lon="6.05284">
        <ele>257.41</ele>
        <time>2017-10-18T09:43:53Z</time>
      </trkpt>
      <trkpt lat="47.70389" lon="6.05282">
        <ele>257.48</ele>
        <time>2017-10-18T09:43:55Z</time>
      </trkpt>
      <trkpt lat="47.70382" lon="6.0528">
        <ele>257.56</ele>
        <time>2017-10-18T09:43:57Z</time>
      </trkpt>
      <trkpt lat="47.70374" lon="6.05278">
        <ele>257.69</ele>
        <time>2017-10-18T09:43:59Z</time>
      </trkpt>
      <trkpt lat="47.70365" lon="6.05276">
        <ele>257.79</ele>
        <time>2017-10-18T09:44:01Z</time>
      </trkpt>
      <trkpt lat="47.7036" lon="6.05276">
        <ele>257.82</ele>
        <time>2017-10-18T09:44:02Z</time>
      </trkpt>
      <trkpt lat="47.70352" lon="6.05276">
        <ele>257.86</ele>
        <time>2017-10-18T09:44:04Z</time>
      </trkpt>
      <trkpt lat="47.70345" lon="6.05275">
        <ele>257.87</ele>
        <time>2017-10-18T09:44:06Z</time>
      </trkpt>
      <trkpt lat="47.70337" lon="6.05273">
        <ele>257.88</ele>
        <time>2017-10-18T09:44:08Z</time>
      </trkpt>
      <trkpt lat="47.70328" lon="6.05273">
        <ele>257.89</ele>
        <time>2017-10-18T09:44:10Z</time>
      </trkpt>
      <trkpt lat="47.70319" lon="6.05272">
        <ele>257.87</ele>
        <time>2017-10-18T09:44:12Z</time>
      </trkpt>
      <trkpt lat="47.7031" lon="6.05272">
        <ele>257.83</ele>
        <time>2017-10-18T09:44:14Z</time>
      </trkpt>
      <trkpt lat="47.70305" lon="6.05271">
        <ele>257.8</ele>
        <time>2017-10-18T09:44:15Z</time>
      </trkpt>
      <trkpt lat="47.70298" lon="6.05272">
        <ele>257.78</ele>
        <time>2017-10-18T09:44:17Z</time>
      </trkpt>
      <trkpt lat="47.70292" lon="6.05273">
        <ele>257.77</ele>
        <time>2017-10-18T09:44:19Z</time>
      </trkpt>
      <trkpt lat="47.70284" lon="6.05274">
        <ele>257.71</ele>
        <time>2017-10-18T09:44:21Z</time>
      </trkpt>
      <trkpt lat="47.70279" lon="6.05273">
        <ele>257.65</ele>
        <time>2017-10-18T09:44:22Z</time>
      </trkpt>
      <trkpt lat="47.70273" lon="6.05274">
        <ele>257.6</ele>
        <time>2017-10-18T09:44:23Z</time>
      </trkpt>
      <trkpt lat="47.70267" lon="6.05274">
        <ele>257.55</ele>
        <time>2017-10-18T09:44:24Z</time>
      </trkpt>
      <trkpt lat="47.70259" lon="6.05274">
        <ele>257.5</ele>
        <time>2017-10-18T09:44:25Z</time>
      </trkpt>
      <trkpt lat="47.70251" lon="6.05275">
        <ele>257.46</ele>
        <time>2017-10-18T09:44:26Z</time>
      </trkpt>
      <trkpt lat="47.70244" lon="6.05277">
        <ele>257.41</ele>
        <time>2017-10-18T09:44:27Z</time>
      </trkpt>
      <trkpt lat="47.70239" lon="6.05279">
        <ele>257.36</ele>
        <time>2017-10-18T09:44:28Z</time>
      </trkpt>
      <trkpt lat="47.70233" lon="6.05283">
        <ele>257.31</ele>
        <time>2017-10-18T09:44:29Z</time>
      </trkpt>
      <trkpt lat="47.70228" lon="6.05286">
        <ele>257.27</ele>
        <time>2017-10-18T09:44:30Z</time>
      </trkpt>
      <trkpt lat="47.70221" lon="6.05289">
        <ele>257.24</ele>
        <time>2017-10-18T09:44:31Z</time>
      </trkpt>
      <trkpt lat="47.70215" lon="6.05292">
        <ele>257.21</ele>
        <time>2017-10-18T09:44:32Z</time>
      </trkpt>
      <trkpt lat="47.70208" lon="6.053">
        <ele>257.16</ele>
        <time>2017-10-18T09:44:33Z</time>
      </trkpt>
      <trkpt lat="47.70201" lon="6.05308">
        <ele>257.07</ele>
        <time>2017-10-18T09:44:34Z</time>
      </trkpt>
      <trkpt lat="47.70195" lon="6.05315">
        <ele>256.95</ele>
        <time>2017-10-18T09:44:35Z</time>
      </trkpt>
      <trkpt lat="47.70188" lon="6.05322">
        <ele>256.8</ele>
        <time>2017-10-18T09:44:36Z</time>
      </trkpt>
      <trkpt lat="47.70182" lon="6.05327">
        <ele>256.63</ele>
        <time>2017-10-18T09:44:37Z</time>
      </trkpt>
      <trkpt lat="47.70176" lon="6.05332">
        <ele>256.45</ele>
        <time>2017-10-18T09:44:38Z</time>
      </trkpt>
      <trkpt lat="47.70171" lon="6.05336">
        <ele>256.26</ele>
        <time>2017-10-18T09:44:39Z</time>
      </trkpt>
      <trkpt lat="47.70165" lon="6.05341">
        <ele>256.08</ele>
        <time>2017-10-18T09:44:40Z</time>
      </trkpt>
      <trkpt lat="47.7016" lon="6.05344">
        <ele>255.9</ele>
        <time>2017-10-18T09:44:41Z</time>
      </trkpt>
      <trkpt lat="47.70155" lon="6.05346">
        <ele>255.73</ele>
        <time>2017-10-18T09:44:42Z</time>
      </trkpt>
      <trkpt lat="47.7015" lon="6.05348">
        <ele>255.56</ele>
        <time>2017-10-18T09:44:43Z</time>
      </trkpt>
      <trkpt lat="47.70145" lon="6.05351">
        <ele>255.38</ele>
        <time>2017-10-18T09:44:44Z</time>
      </trkpt>
      <trkpt lat="47.70137" lon="6.05355">
        <ele>255.04</ele>
        <time>2017-10-18T09:44:46Z</time>
      </trkpt>
      <trkpt lat="47.70129" lon="6.05358">
        <ele>254.83</ele>
        <time>2017-10-18T09:44:48Z</time>
      </trkpt>
      <trkpt lat="47.70124" lon="6.05361">
        <ele>254.72</ele>
        <time>2017-10-18T09:44:49Z</time>
      </trkpt>
      <trkpt lat="47.70118" lon="6.05363">
        <ele>254.61</ele>
        <time>2017-10-18T09:44:50Z</time>
      </trkpt>
      <trkpt lat="47.70112" lon="6.05366">
        <ele>254.52</ele>
        <time>2017-10-18T09:44:51Z</time>
      </trkpt>
      <trkpt lat="47.70106" lon="6.05368">
        <ele>254.45</ele>
        <time>2017-10-18T09:44:52Z</time>
      </trkpt>
      <trkpt lat="47.701" lon="6.05371">
        <ele>254.38</ele>
        <time>2017-10-18T09:44:53Z</time>
      </trkpt>
      <trkpt lat="47.70095" lon="6.05373">
        <ele>254.29</ele>
        <time>2017-10-18T09:44:54Z</time>
      </trkpt>
      <trkpt lat="47.70089" lon="6.05375">
        <ele>254.19</ele>
        <time>2017-10-18T09:44:55Z</time>
      </trkpt>
      <trkpt lat="47.70084" lon="6.05376">
        <ele>254.09</ele>
        <time>2017-10-18T09:44:56Z</time>
      </trkpt>
      <trkpt lat="47.70079" lon="6.05378">
        <ele>254.03</ele>
        <time>2017-10-18T09:44:57Z</time>
      </trkpt>
      <trkpt lat="47.70074" lon="6.0538">
        <ele>253.96</ele>
        <time>2017-10-18T09:44:58Z</time>
      </trkpt>
      <trkpt lat="47.70067" lon="6.05382">
        <ele>253.91</ele>
        <time>2017-10-18T09:45:00Z</time>
      </trkpt>
      <trkpt lat="47.70062" lon="6.05381">
        <ele>253.87</ele>
        <time>2017-10-18T09:45:02Z</time>
      </trkpt>
      <trkpt lat="47.70055" lon="6.05381">
        <ele>253.84</ele>
        <time>2017-10-18T09:45:04Z</time>
      </trkpt>
      <trkpt lat="47.70047" lon="6.05381">
        <ele>253.79</ele>
        <time>2017-10-18T09:45:06Z</time>
      </trkpt>
      <trkpt lat="47.70041" lon="6.0538">
        <ele>253.75</ele>
        <time>2017-10-18T09:45:08Z</time>
      </trkpt>
      <trkpt lat="47.70035" lon="6.05379">
        <ele>253.7</ele>
        <time>2017-10-18T09:45:10Z</time>
      </trkpt>
      <trkpt lat="47.70029" lon="6.0538">
        <ele>253.64</ele>
        <time>2017-10-18T09:45:12Z</time>
      </trkpt>
      <trkpt lat="47.70024" lon="6.05379">
        <ele>253.58</ele>
        <time>2017-10-18T09:45:14Z</time>
      </trkpt>
      <trkpt lat="47.70019" lon="6.05379">
        <ele>253.51</ele>
        <time>2017-10-18T09:45:16Z</time>
      </trkpt>
      <trkpt lat="47.70014" lon="6.05379">
        <ele>253.44</ele>
        <time>2017-10-18T09:45:18Z</time>
      </trkpt>
      <trkpt lat="47.70008" lon="6.05379">
        <ele>253.37</ele>
        <time>2017-10-18T09:45:20Z</time>
      </trkpt>
      <trkpt lat="47.70001" lon="6.05379">
        <ele>253.31</ele>
        <time>2017-10-18T09:45:22Z</time>
      </trkpt>
      <trkpt lat="47.69995" lon="6.05379">
        <ele>253.26</ele>
        <time>2017-10-18T09:45:24Z</time>
      </trkpt>
      <trkpt lat="47.69989" lon="6.0538">
        <ele>253.21</ele>
        <time>2017-10-18T09:45:26Z</time>
      </trkpt>
      <trkpt lat="47.69982" lon="6.05382">
        <ele>253.17</ele>
        <time>2017-10-18T09:45:28Z</time>
      </trkpt>
      <trkpt lat="47.69975" lon="6.05383">
        <ele>253.14</ele>
        <time>2017-10-18T09:45:30Z</time>
      </trkpt>
      <trkpt lat="47.6997" lon="6.05384">
        <ele>253.1</ele>
        <time>2017-10-18T09:45:32Z</time>
      </trkpt>
      <trkpt lat="47.69964" lon="6.05386">
        <ele>253.07</ele>
        <time>2017-10-18T09:45:34Z</time>
      </trkpt>
      <trkpt lat="47.69958" lon="6.05388">
        <ele>253.04</ele>
        <time>2017-10-18T09:45:36Z</time>
      </trkpt>
      <trkpt lat="47.69952" lon="6.05391">
        <ele>253.02</ele>
        <time>2017-10-18T09:45:38Z</time>
      </trkpt>
      <trkpt lat="47.69946" lon="6.05394">
        <ele>252.99</ele>
        <time>2017-10-18T09:45:40Z</time>
      </trkpt>
      <trkpt lat="47.6994" lon="6.05397">
        <ele>252.97</ele>
        <time>2017-10-18T09:45:42Z</time>
      </trkpt>
      <trkpt lat="47.69935" lon="6.05399">
        <ele>252.93</ele>
        <time>2017-10-18T09:45:44Z</time>
      </trkpt>
      <trkpt lat="47.69929" lon="6.05401">
        <ele>252.9</ele>
        <time>2017-10-18T09:45:46Z</time>
      </trkpt>
      <trkpt lat="47.69921" lon="6.05404">
        <ele>252.65</ele>
        <time>2017-10-18T09:45:48Z</time>
      </trkpt>
      <trkpt lat="47.69913" lon="6.05408">
        <ele>252.43</ele>
        <time>2017-10-18T09:45:50Z</time>
      </trkpt>
      <trkpt lat="47.69908" lon="6.0541">
        <ele>252.33</ele>
        <time>2017-10-18T09:45:51Z</time>
      </trkpt>
      <trkpt lat="47.69903" lon="6.05413">
        <ele>252.19</ele>
        <time>2017-10-18T09:45:52Z</time>
      </trkpt>
      <trkpt lat="47.69898" lon="6.05415">
        <ele>252.05</ele>
        <time>2017-10-18T09:45:53Z</time>
      </trkpt>
      <trkpt lat="47.69892" lon="6.05418">
        <ele>251.91</ele>
        <time>2017-10-18T09:45:54Z</time>
      </trkpt>
      <trkpt lat="47.69886" lon="6.05421">
        <ele>251.78</ele>
        <time>2017-10-18T09:45:55Z</time>
      </trkpt>
      <trkpt lat="47.6988" lon="6.05424">
        <ele>251.65</ele>
        <time>2017-10-18T09:45:56Z</time>
      </trkpt>
      <trkpt lat="47.69873" lon="6.05428">
        <ele>251.51</ele>
        <time>2017-10-18T09:45:57Z</time>
      </trkpt>
      <trkpt lat="47.69866" lon="6.05432">
        <ele>251.4</ele>
        <time>2017-10-18T09:45:58Z</time>
      </trkpt>
      <trkpt lat="47.69859" lon="6.05437">
        <ele>251.29</ele>
        <time>2017-10-18T09:45:59Z</time>
      </trkpt>
      <trkpt lat="47.69852" lon="6.05441">
        <ele>251.17</ele>
        <time>2017-10-18T09:46:00Z</time>
      </trkpt>
      <trkpt lat="47.69843" lon="6.05445">
        <ele>251.04</ele>
        <time>2017-10-18T09:46:01Z</time>
      </trkpt>
      <trkpt lat="47.69834" lon="6.05448">
        <ele>250.91</ele>
        <time>2017-10-18T09:46:02Z</time>
      </trkpt>
      <trkpt lat="47.69825" lon="6.05449">
        <ele>250.76</ele>
        <time>2017-10-18T09:46:03Z</time>
      </trkpt>
      <trkpt lat="47.69815" lon="6.05449">
        <ele>250.54</ele>
        <time>2017-10-18T09:46:04Z</time>
      </trkpt>
      <trkpt lat="47.69805" lon="6.05449">
        <ele>250.32</ele>
        <time>2017-10-18T09:46:05Z</time>
      </trkpt>
      <trkpt lat="47.69796" lon="6.05449">
        <ele>250.11</ele>
        <time>2017-10-18T09:46:06Z</time>
      </trkpt>
      <trkpt lat="47.69788" lon="6.05451">
        <ele>249.95</ele>
        <time>2017-10-18T09:46:07Z</time>
      </trkpt>
      <trkpt lat="47.6978" lon="6.05453">
        <ele>249.84</ele>
        <time>2017-10-18T09:46:08Z</time>
      </trkpt>
      <trkpt lat="47.69773" lon="6.05458">
        <ele>249.77</ele>
        <time>2017-10-18T09:46:09Z</time>
      </trkpt>
      <trkpt lat="47.69767" lon="6.05464">
        <ele>249.69</ele>
        <time>2017-10-18T09:46:10Z</time>
      </trkpt>
      <trkpt lat="47.69762" lon="6.0547">
        <ele>249.64</ele>
        <time>2017-10-18T09:46:11Z</time>
      </trkpt>
      <trkpt lat="47.69757" lon="6.05477">
        <ele>249.6</ele>
        <time>2017-10-18T09:46:12Z</time>
      </trkpt>
      <trkpt lat="47.69753" lon="6.05484">
        <ele>249.59</ele>
        <time>2017-10-18T09:46:13Z</time>
      </trkpt>
      <trkpt lat="47.69749" lon="6.0549">
        <ele>249.59</ele>
        <time>2017-10-18T09:46:14Z</time>
      </trkpt>
      <trkpt lat="47.69746" lon="6.05496">
        <ele>249.59</ele>
        <time>2017-10-18T09:46:15Z</time>
      </trkpt>
      <trkpt lat="47.69742" lon="6.05501">
        <ele>249.57</ele>
        <time>2017-10-18T09:46:16Z</time>
      </trkpt>
      <trkpt lat="47.69737" lon="6.0551">
        <ele>249.55</ele>
        <time>2017-10-18T09:46:18Z</time>
      </trkpt>
      <trkpt lat="47.69733" lon="6.05517">
        <ele>249.53</ele>
        <time>2017-10-18T09:46:20Z</time>
      </trkpt>
      <trkpt lat="47.69728" lon="6.05522">
        <ele>249.5</ele>
        <time>2017-10-18T09:46:22Z</time>
      </trkpt>
      <trkpt lat="47.69722" lon="6.05529">
        <ele>249.48</ele>
        <time>2017-10-18T09:46:24Z</time>
      </trkpt>
      <trkpt lat="47.69718" lon="6.05535">
        <ele>249.45</ele>
        <time>2017-10-18T09:46:26Z</time>
      </trkpt>
      <trkpt lat="47.69713" lon="6.05539">
        <ele>249.4</ele>
        <time>2017-10-18T09:46:28Z</time>
      </trkpt>
      <trkpt lat="47.69709" lon="6.05544">
        <ele>249.34</ele>
        <time>2017-10-18T09:46:30Z</time>
      </trkpt>
      <trkpt lat="47.69705" lon="6.05549">
        <ele>249.27</ele>
        <time>2017-10-18T09:46:32Z</time>
      </trkpt>
      <trkpt lat="47.69701" lon="6.05553">
        <ele>249.2</ele>
        <time>2017-10-18T09:46:34Z</time>
      </trkpt>
      <trkpt lat="47.69697" lon="6.05558">
        <ele>249.13</ele>
        <time>2017-10-18T09:46:36Z</time>
      </trkpt>
      <trkpt lat="47.69693" lon="6.05562">
        <ele>249.06</ele>
        <time>2017-10-18T09:46:38Z</time>
      </trkpt>
      <trkpt lat="47.69688" lon="6.05566">
        <ele>248.98</ele>
        <time>2017-10-18T09:46:40Z</time>
      </trkpt>
      <trkpt lat="47.69683" lon="6.0557">
        <ele>248.91</ele>
        <time>2017-10-18T09:46:42Z</time>
      </trkpt>
      <trkpt lat="47.69678" lon="6.05574">
        <ele>248.83</ele>
        <time>2017-10-18T09:46:44Z</time>
      </trkpt>
      <trkpt lat="47.69672" lon="6.05578">
        <ele>248.76</ele>
        <time>2017-10-18T09:46:46Z</time>
      </trkpt>
      <trkpt lat="47.69666" lon="6.05581">
        <ele>248.7</ele>
        <time>2017-10-18T09:46:48Z</time>
      </trkpt>
      <trkpt lat="47.69659" lon="6.05584">
        <ele>248.65</ele>
        <time>2017-10-18T09:46:50Z</time>
      </trkpt>
      <trkpt lat="47.69652" lon="6.05585">
        <ele>248.6</ele>
        <time>2017-10-18T09:46:52Z</time>
      </trkpt>
      <trkpt lat="47.69647" lon="6.05585">
        <ele>248.56</ele>
        <time>2017-10-18T09:46:54Z</time>
      </trkpt>
      <trkpt lat="47.69641" lon="6.05584">
        <ele>248.53</ele>
        <time>2017-10-18T09:46:56Z</time>
      </trkpt>
      <trkpt lat="47.69634" lon="6.05581">
        <ele>248.49</ele>
        <time>2017-10-18T09:46:58Z</time>
      </trkpt>
      <trkpt lat="47.69628" lon="6.05579">
        <ele>248.46</ele>
        <time>2017-10-18T09:47:00Z</time>
      </trkpt>
      <trkpt lat="47.69622" lon="6.05575">
        <ele>248.43</ele>
        <time>2017-10-18T09:47:02Z</time>
      </trkpt>
      <trkpt lat="47.69617" lon="6.05572">
        <ele>248.41</ele>
        <time>2017-10-18T09:47:04Z</time>
      </trkpt>
      <trkpt lat="47.69611" lon="6.05567">
        <ele>248.39</ele>
        <time>2017-10-18T09:47:06Z</time>
      </trkpt>
      <trkpt lat="47.69606" lon="6.05563">
        <ele>248.37</ele>
        <time>2017-10-18T09:47:08Z</time>
      </trkpt>
      <trkpt lat="47.696" lon="6.05558">
        <ele>248.36</ele>
        <time>2017-10-18T09:47:10Z</time>
      </trkpt>
      <trkpt lat="47.69595" lon="6.05553">
        <ele>248.35</ele>
        <time>2017-10-18T09:47:12Z</time>
      </trkpt>
      <trkpt lat="47.69591" lon="6.05549">
        <ele>248.34</ele>
        <time>2017-10-18T09:47:14Z</time>
      </trkpt>
      <trkpt lat="47.69586" lon="6.05545">
        <ele>248.34</ele>
        <time>2017-10-18T09:47:16Z</time>
      </trkpt>
      <trkpt lat="47.69581" lon="6.05542">
        <ele>248.33</ele>
        <time>2017-10-18T09:47:18Z</time>
      </trkpt>
      <trkpt lat="47.69576" lon="6.05538">
        <ele>248.33</ele>
        <time>2017-10-18T09:47:20Z</time>
      </trkpt>
      <trkpt lat="47.69571" lon="6.05536">
        <ele>248.33</ele>
        <time>2017-10-18T09:47:22Z</time>
      </trkpt>
      <trkpt lat="47.69567" lon="6.05534">
        <ele>248.33</ele>
        <time>2017-10-18T09:47:24Z</time>
      </trkpt>
      <trkpt lat="47.69562" lon="6.05533">
        <ele>248.33</ele>
        <time>2017-10-18T09:47:26Z</time>
      </trkpt>
      <trkpt lat="47.69556" lon="6.05533">
        <ele>248.33</ele>
        <time>2017-10-18T09:47:29Z</time>
      </trkpt>
      <trkpt lat="47.6955" lon="6.05532">
        <ele>248.34</ele>
        <time>2017-10-18T09:47:32Z</time>
      </trkpt>
      <trkpt lat="47.69545" lon="6.05531">
        <ele>248.36</ele>
        <time>2017-10-18T09:47:36Z</time>
      </trkpt>
      <trkpt lat="47.6954" lon="6.0553">
        <ele>248.39</ele>
        <time>2017-10-18T09:47:40Z</time>
      </trkpt>
      <trkpt lat="47.69535" lon="6.05529">
        <ele>248.43</ele>
        <time>2017-10-18T09:47:44Z</time>
      </trkpt>
      <trkpt lat="47.6953" lon="6.05529">
        <ele>248.47</ele>
        <time>2017-10-18T09:47:47Z</time>
      </trkpt>
      <trkpt lat="47.69524" lon="6.05528">
        <ele>248.51</ele>
        <time>2017-10-18T09:47:50Z</time>
      </trkpt>
      <trkpt lat="47.69519" lon="6.05524">
        <ele>248.54</ele>
        <time>2017-10-18T09:47:52Z</time>
      </trkpt>
      <trkpt lat="47.69514" lon="6.05518">
        <ele>248.65</ele>
        <time>2017-10-18T09:47:54Z</time>
      </trkpt>
      <trkpt lat="47.69507" lon="6.05512">
        <ele>248.84</ele>
        <time>2017-10-18T09:47:56Z</time>
      </trkpt>
      <trkpt lat="47.695" lon="6.05506">
        <ele>248.98</ele>
        <time>2017-10-18T09:47:58Z</time>
      </trkpt>
      <trkpt lat="47.69495" lon="6.05502">
        <ele>249.03</ele>
        <time>2017-10-18T09:47:59Z</time>
      </trkpt>
      <trkpt lat="47.69491" lon="6.05498">
        <ele>249.08</ele>
        <time>2017-10-18T09:48:00Z</time>
      </trkpt>
      <trkpt lat="47.69486" lon="6.05495">
        <ele>249.12</ele>
        <time>2017-10-18T09:48:01Z</time>
      </trkpt>
      <trkpt lat="47.69481" lon="6.05491">
        <ele>249.15</ele>
        <time>2017-10-18T09:48:02Z</time>
      </trkpt>
      <trkpt lat="47.69476" lon="6.05486">
        <ele>249.18</ele>
        <time>2017-10-18T09:48:03Z</time>
      </trkpt>
      <trkpt lat="47.69471" lon="6.05482">
        <ele>249.21</ele>
        <time>2017-10-18T09:48:04Z</time>
      </trkpt>
      <trkpt lat="47.69465" lon="6.05477">
        <ele>249.22</ele>
        <time>2017-10-18T09:48:05Z</time>
      </trkpt>
      <trkpt lat="47.6946" lon="6.05472">
        <ele>249.24</ele>
        <time>2017-10-18T09:48:06Z</time>
      </trkpt>
      <trkpt lat="47.69454" lon="6.05468">
        <ele>249.24</ele>
        <time>2017-10-18T09:48:07Z</time>
      </trkpt>
      <trkpt lat="47.69448" lon="6.05463">
        <ele>249.24</ele>
        <time>2017-10-18T09:48:08Z</time>
      </trkpt>
      <trkpt lat="47.69443" lon="6.05458">
        <ele>249.24</ele>
        <time>2017-10-18T09:48:09Z</time>
      </trkpt>
      <trkpt lat="47.69437" lon="6.05453">
        <ele>249.24</ele>
        <time>2017-10-18T09:48:10Z</time>
      </trkpt>
      <trkpt lat="47.69432" lon="6.05448">
        <ele>249.23</ele>
        <time>2017-10-18T09:48:11Z</time>
      </trkpt>
      <trkpt lat="47.69427" lon="6.05443">
        <ele>249.21</ele>
        <time>2017-10-18T09:48:12Z</time>
      </trkpt>
      <trkpt lat="47.69422" lon="6.05439">
        <ele>249.19</ele>
        <time>2017-10-18T09:48:13Z</time>
      </trkpt>
      <trkpt lat="47.69416" lon="6.05435">
        <ele>249.19</ele>
        <time>2017-10-18T09:48:14Z</time>
      </trkpt>
      <trkpt lat="47.69411" lon="6.05431">
        <ele>249.14</ele>
        <time>2017-10-18T09:48:15Z</time>
      </trkpt>
      <trkpt lat="47.69406" lon="6.05426">
        <ele>249.1</ele>
        <time>2017-10-18T09:48:16Z</time>
      </trkpt>
      <trkpt lat="47.694" lon="6.05421">
        <ele>249.06</ele>
        <time>2017-10-18T09:48:17Z</time>
      </trkpt>
      <trkpt lat="47.69394" lon="6.05417">
        <ele>249.02</ele>
        <time>2017-10-18T09:48:18Z</time>
      </trkpt>
      <trkpt lat="47.69388" lon="6.05413">
        <ele>248.97</ele>
        <time>2017-10-18T09:48:19Z</time>
      </trkpt>
      <trkpt lat="47.69382" lon="6.05409">
        <ele>248.91</ele>
        <time>2017-10-18T09:48:20Z</time>
      </trkpt>
      <trkpt lat="47.69376" lon="6.05405">
        <ele>248.85</ele>
        <time>2017-10-18T09:48:21Z</time>
      </trkpt>
      <trkpt lat="47.69371" lon="6.05401">
        <ele>248.82</ele>
        <time>2017-10-18T09:48:22Z</time>
      </trkpt>
      <trkpt lat="47.69366" lon="6.05397">
        <ele>248.83</ele>
        <time>2017-10-18T09:48:23Z</time>
      </trkpt>
      <trkpt lat="47.6936" lon="6.05393">
        <ele>248.85</ele>
        <time>2017-10-18T09:48:24Z</time>
      </trkpt>
      <trkpt lat="47.69355" lon="6.05389">
        <ele>248.88</ele>
        <time>2017-10-18T09:48:25Z</time>
      </trkpt>
      <trkpt lat="47.69349" lon="6.05385">
        <ele>248.91</ele>
        <time>2017-10-18T09:48:26Z</time>
      </trkpt>
      <trkpt lat="47.69344" lon="6.05381">
        <ele>248.94</ele>
        <time>2017-10-18T09:48:27Z</time>
      </trkpt>
      <trkpt lat="47.69338" lon="6.05376">
        <ele>248.95</ele>
        <time>2017-10-18T09:48:28Z</time>
      </trkpt>
      <trkpt lat="47.69333" lon="6.05372">
        <ele>248.95</ele>
        <time>2017-10-18T09:48:29Z</time>
      </trkpt>
      <trkpt lat="47.69327" lon="6.05368">
        <ele>248.94</ele>
        <time>2017-10-18T09:48:30Z</time>
      </trkpt>
      <trkpt lat="47.69322" lon="6.05362">
        <ele>248.93</ele>
        <time>2017-10-18T09:48:31Z</time>
      </trkpt>
      <trkpt lat="47.69317" lon="6.05357">
        <ele>248.91</ele>
        <time>2017-10-18T09:48:32Z</time>
      </trkpt>
      <trkpt lat="47.69312" lon="6.05352">
        <ele>248.89</ele>
        <time>2017-10-18T09:48:33Z</time>
      </trkpt>
      <trkpt lat="47.69307" lon="6.05348">
        <ele>248.85</ele>
        <time>2017-10-18T09:48:34Z</time>
      </trkpt>
      <trkpt lat="47.69301" lon="6.05344">
        <ele>248.82</ele>
        <time>2017-10-18T09:48:35Z</time>
      </trkpt>
      <trkpt lat="47.69296" lon="6.0534">
        <ele>248.8</ele>
        <time>2017-10-18T09:48:36Z</time>
      </trkpt>
      <trkpt lat="47.69291" lon="6.05335">
        <ele>248.79</ele>
        <time>2017-10-18T09:48:37Z</time>
      </trkpt>
      <trkpt lat="47.69285" lon="6.05331">
        <ele>248.75</ele>
        <time>2017-10-18T09:48:38Z</time>
      </trkpt>
      <trkpt lat="47.6928" lon="6.05326">
        <ele>248.71</ele>
        <time>2017-10-18T09:48:39Z</time>
      </trkpt>
      <trkpt lat="47.69275" lon="6.05322">
        <ele>248.67</ele>
        <time>2017-10-18T09:48:40Z</time>
      </trkpt>
      <trkpt lat="47.6927" lon="6.05317">
        <ele>248.63</ele>
        <time>2017-10-18T09:48:41Z</time>
      </trkpt>
      <trkpt lat="47.69265" lon="6.05313">
        <ele>248.61</ele>
        <time>2017-10-18T09:48:42Z</time>
      </trkpt>
      <trkpt lat="47.69261" lon="6.05308">
        <ele>248.57</ele>
        <time>2017-10-18T09:48:43Z</time>
      </trkpt>
      <trkpt lat="47.69256" lon="6.05303">
        <ele>248.5</ele>
        <time>2017-10-18T09:48:44Z</time>
      </trkpt>
      <trkpt lat="47.69251" lon="6.05298">
        <ele>248.46</ele>
        <time>2017-10-18T09:48:45Z</time>
      </trkpt>
      <trkpt lat="47.69247" lon="6.05293">
        <ele>248.44</ele>
        <time>2017-10-18T09:48:46Z</time>
      </trkpt>
      <trkpt lat="47.69242" lon="6.05288">
        <ele>248.46</ele>
        <time>2017-10-18T09:48:47Z</time>
      </trkpt>
      <trkpt lat="47.69238" lon="6.05283">
        <ele>248.53</ele>
        <time>2017-10-18T09:48:48Z</time>
      </trkpt>
      <trkpt lat="47.69234" lon="6.05278">
        <ele>248.59</ele>
        <time>2017-10-18T09:48:49Z</time>
      </trkpt>
      <trkpt lat="47.69229" lon="6.05273">
        <ele>248.67</ele>
        <time>2017-10-18T09:48:50Z</time>
      </trkpt>
      <trkpt lat="47.69225" lon="6.05268">
        <ele>248.78</ele>
        <time>2017-10-18T09:48:51Z</time>
      </trkpt>
      <trkpt lat="47.69221" lon="6.05264">
        <ele>248.9</ele>
        <time>2017-10-18T09:48:52Z</time>
      </trkpt>
      <trkpt lat="47.69217" lon="6.05259">
        <ele>248.98</ele>
        <time>2017-10-18T09:48:53Z</time>
      </trkpt>
      <trkpt lat="47.69212" lon="6.05254">
        <ele>249.09</ele>
        <time>2017-10-18T09:48:54Z</time>
      </trkpt>
      <trkpt lat="47.69208" lon="6.05249">
        <ele>249.16</ele>
        <time>2017-10-18T09:48:55Z</time>
      </trkpt>
      <trkpt lat="47.69203" lon="6.05245">
        <ele>249.19</ele>
        <time>2017-10-18T09:48:56Z</time>
      </trkpt>
      <trkpt lat="47.69199" lon="6.05241">
        <ele>249.2</ele>
        <time>2017-10-18T09:48:57Z</time>
      </trkpt>
      <trkpt lat="47.69194" lon="6.05236">
        <ele>249.17</ele>
        <time>2017-10-18T09:48:58Z</time>
      </trkpt>
      <trkpt lat="47.6919" lon="6.0523">
        <ele>249.11</ele>
        <time>2017-10-18T09:48:59Z</time>
      </trkpt>
      <trkpt lat="47.69185" lon="6.05225">
        <ele>249.01</ele>
        <time>2017-10-18T09:49:00Z</time>
      </trkpt>
      <trkpt lat="47.6918" lon="6.0522">
        <ele>248.94</ele>
        <time>2017-10-18T09:49:01Z</time>
      </trkpt>
      <trkpt lat="47.69176" lon="6.05215">
        <ele>248.86</ele>
        <time>2017-10-18T09:49:02Z</time>
      </trkpt>
      <trkpt lat="47.69171" lon="6.0521">
        <ele>248.79</ele>
        <time>2017-10-18T09:49:03Z</time>
      </trkpt>
      <trkpt lat="47.69166" lon="6.05205">
        <ele>248.72</ele>
        <time>2017-10-18T09:49:04Z</time>
      </trkpt>
      <trkpt lat="47.69162" lon="6.052">
        <ele>248.63</ele>
        <time>2017-10-18T09:49:05Z</time>
      </trkpt>
      <trkpt lat="47.69157" lon="6.05195">
        <ele>248.54</ele>
        <time>2017-10-18T09:49:06Z</time>
      </trkpt>
      <trkpt lat="47.69153" lon="6.05191">
        <ele>248.44</ele>
        <time>2017-10-18T09:49:07Z</time>
      </trkpt>
      <trkpt lat="47.69149" lon="6.05187">
        <ele>248.36</ele>
        <time>2017-10-18T09:49:08Z</time>
      </trkpt>
      <trkpt lat="47.69145" lon="6.05183">
        <ele>248.28</ele>
        <time>2017-10-18T09:49:09Z</time>
      </trkpt>
      <trkpt lat="47.69141" lon="6.05179">
        <ele>248.23</ele>
        <time>2017-10-18T09:49:10Z</time>
      </trkpt>
      <trkpt lat="47.69136" lon="6.05176">
        <ele>248.18</ele>
        <time>2017-10-18T09:49:11Z</time>
      </trkpt>
      <trkpt lat="47.69132" lon="6.05172">
        <ele>248.16</ele>
        <time>2017-10-18T09:49:12Z</time>
      </trkpt>
      <trkpt lat="47.69128" lon="6.05168">
        <ele>248.16</ele>
        <time>2017-10-18T09:49:13Z</time>
      </trkpt>
      <trkpt lat="47.69124" lon="6.05165">
        <ele>248.18</ele>
        <time>2017-10-18T09:49:14Z</time>
      </trkpt>
      <trkpt lat="47.6912" lon="6.05161">
        <ele>248.21</ele>
        <time>2017-10-18T09:49:15Z</time>
      </trkpt>
      <trkpt lat="47.69112" lon="6.05155">
        <ele>248.29</ele>
        <time>2017-10-18T09:49:17Z</time>
      </trkpt>
      <trkpt lat="47.69104" lon="6.0515">
        <ele>248.34</ele>
        <time>2017-10-18T09:49:19Z</time>
      </trkpt>
      <trkpt lat="47.691" lon="6.05146">
        <ele>248.36</ele>
        <time>2017-10-18T09:49:20Z</time>
      </trkpt>
      <trkpt lat="47.69095" lon="6.05143">
        <ele>248.36</ele>
        <time>2017-10-18T09:49:21Z</time>
      </trkpt>
      <trkpt lat="47.69091" lon="6.0514">
        <ele>248.33</ele>
        <time>2017-10-18T09:49:22Z</time>
      </trkpt>
      <trkpt lat="47.69087" lon="6.05137">
        <ele>248.26</ele>
        <time>2017-10-18T09:49:23Z</time>
      </trkpt>
      <trkpt lat="47.69082" lon="6.05133">
        <ele>248.17</ele>
        <time>2017-10-18T09:49:24Z</time>
      </trkpt>
      <trkpt lat="47.69077" lon="6.05129">
        <ele>248.05</ele>
        <time>2017-10-18T09:49:25Z</time>
      </trkpt>
      <trkpt lat="47.69072" lon="6.05126">
        <ele>247.93</ele>
        <time>2017-10-18T09:49:26Z</time>
      </trkpt>
      <trkpt lat="47.69067" lon="6.05121">
        <ele>247.8</ele>
        <time>2017-10-18T09:49:27Z</time>
      </trkpt>
      <trkpt lat="47.69061" lon="6.05117">
        <ele>247.66</ele>
        <time>2017-10-18T09:49:28Z</time>
      </trkpt>
      <trkpt lat="47.69055" lon="6.05113">
        <ele>247.51</ele>
        <time>2017-10-18T09:49:29Z</time>
      </trkpt>
      <trkpt lat="47.69049" lon="6.05108">
        <ele>247.22</ele>
        <time>2017-10-18T09:49:30Z</time>
      </trkpt>
      <trkpt lat="47.69042" lon="6.05104">
        <ele>246.92</ele>
        <time>2017-10-18T09:49:31Z</time>
      </trkpt>
      <trkpt lat="47.69036" lon="6.05099">
        <ele>246.63</ele>
        <time>2017-10-18T09:49:32Z</time>
      </trkpt>
      <trkpt lat="47.69028" lon="6.05094">
        <ele>246.36</ele>
        <time>2017-10-18T09:49:33Z</time>
      </trkpt>
      <trkpt lat="47.69021" lon="6.0509">
        <ele>246.07</ele>
        <time>2017-10-18T09:49:34Z</time>
      </trkpt>
      <trkpt lat="47.69013" lon="6.05086">
        <ele>245.76</ele>
        <time>2017-10-18T09:49:35Z</time>
      </trkpt>
      <trkpt lat="47.69005" lon="6.0508">
        <ele>245.46</ele>
        <time>2017-10-18T09:49:36Z</time>
      </trkpt>
      <trkpt lat="47.68997" lon="6.05075">
        <ele>245.16</ele>
        <time>2017-10-18T09:49:37Z</time>
      </trkpt>
      <trkpt lat="47.68989" lon="6.0507">
        <ele>244.84</ele>
        <time>2017-10-18T09:49:38Z</time>
      </trkpt>
      <trkpt lat="47.6898" lon="6.05065">
        <ele>244.51</ele>
        <time>2017-10-18T09:49:39Z</time>
      </trkpt>
      <trkpt lat="47.68971" lon="6.0506">
        <ele>244.17</ele>
        <time>2017-10-18T09:49:40Z</time>
      </trkpt>
      <trkpt lat="47.68962" lon="6.05054">
        <ele>243.79</ele>
        <time>2017-10-18T09:49:41Z</time>
      </trkpt>
      <trkpt lat="47.68953" lon="6.05048">
        <ele>243.39</ele>
        <time>2017-10-18T09:49:42Z</time>
      </trkpt>
      <trkpt lat="47.68944" lon="6.05042">
        <ele>242.99</ele>
        <time>2017-10-18T09:49:43Z</time>
      </trkpt>
      <trkpt lat="47.68935" lon="6.05035">
        <ele>242.61</ele>
        <time>2017-10-18T09:49:44Z</time>
      </trkpt>
      <trkpt lat="47.68926" lon="6.05028">
        <ele>242.28</ele>
        <time>2017-10-18T09:49:45Z</time>
      </trkpt>
      <trkpt lat="47.68917" lon="6.05021">
        <ele>241.97</ele>
        <time>2017-10-18T09:49:46Z</time>
      </trkpt>
      <trkpt lat="47.68908" lon="6.05012">
        <ele>241.62</ele>
        <time>2017-10-18T09:49:47Z</time>
      </trkpt>
      <trkpt lat="47.689" lon="6.05004">
        <ele>241.25</ele>
        <time>2017-10-18T09:49:48Z</time>
      </trkpt>
      <trkpt lat="47.68893" lon="6.04996">
        <ele>240.88</ele>
        <time>2017-10-18T09:49:49Z</time>
      </trkpt>
      <trkpt lat="47.68886" lon="6.04986">
        <ele>240.52</ele>
        <time>2017-10-18T09:49:50Z</time>
      </trkpt>
      <trkpt lat="47.68879" lon="6.04976">
        <ele>240.17</ele>
        <time>2017-10-18T09:49:51Z</time>
      </trkpt>
      <trkpt lat="47.68873" lon="6.04965">
        <ele>239.86</ele>
        <time>2017-10-18T09:49:52Z</time>
      </trkpt>
      <trkpt lat="47.68867" lon="6.04954">
        <ele>239.46</ele>
        <time>2017-10-18T09:49:53Z</time>
      </trkpt>
      <trkpt lat="47.68862" lon="6.04943">
        <ele>239.05</ele>
        <time>2017-10-18T09:49:54Z</time>
      </trkpt>
      <trkpt lat="47.68856" lon="6.04932">
        <ele>238.68</ele>
        <time>2017-10-18T09:49:55Z</time>
      </trkpt>
      <trkpt lat="47.68851" lon="6.04923">
        <ele>238.33</ele>
        <time>2017-10-18T09:49:56Z</time>
      </trkpt>
      <trkpt lat="47.68847" lon="6.04914">
        <ele>237.96</ele>
        <time>2017-10-18T09:49:57Z</time>
      </trkpt>
      <trkpt lat="47.68843" lon="6.04906">
        <ele>237.52</ele>
        <time>2017-10-18T09:49:58Z</time>
      </trkpt>
      <trkpt lat="47.68839" lon="6.04899">
        <ele>237.16</ele>
        <time>2017-10-18T09:49:59Z</time>
      </trkpt>
      <trkpt lat="47.68836" lon="6.04894">
        <ele>236.86</ele>
        <time>2017-10-18T09:50:00Z</time>
      </trkpt>
      <trkpt lat="47.6883" lon="6.04887">
        <ele>236.63</ele>
        <time>2017-10-18T09:50:02Z</time>
      </trkpt>
      <trkpt lat="47.68825" lon="6.04879">
        <ele>236.57</ele>
        <time>2017-10-18T09:50:04Z</time>
      </trkpt>
      <trkpt lat="47.6882" lon="6.04873">
        <ele>236.61</ele>
        <time>2017-10-18T09:50:17Z</time>
      </trkpt>
      <trkpt lat="47.68815" lon="6.0487">
        <ele>236.6</ele>
        <time>2017-10-18T09:50:19Z</time>
      </trkpt>
      <trkpt lat="47.68808" lon="6.04871">
        <ele>236.57</ele>
        <time>2017-10-18T09:50:21Z</time>
      </trkpt>
      <trkpt lat="47.68802" lon="6.04874">
        <ele>236.55</ele>
        <time>2017-10-18T09:50:23Z</time>
      </trkpt>
      <trkpt lat="47.68796" lon="6.04875">
        <ele>236.52</ele>
        <time>2017-10-18T09:50:25Z</time>
      </trkpt>
      <trkpt lat="47.68789" lon="6.04876">
        <ele>236.46</ele>
        <time>2017-10-18T09:50:27Z</time>
      </trkpt>
      <trkpt lat="47.68783" lon="6.04873">
        <ele>236.4</ele>
        <time>2017-10-18T09:50:29Z</time>
      </trkpt>
      <trkpt lat="47.6878" lon="6.04863">
        <ele>236.1</ele>
        <time>2017-10-18T09:50:31Z</time>
      </trkpt>
      <trkpt lat="47.68778" lon="6.04857">
        <ele>235.77</ele>
        <time>2017-10-18T09:50:32Z</time>
      </trkpt>
      <trkpt lat="47.68776" lon="6.04851">
        <ele>235.49</ele>
        <time>2017-10-18T09:50:33Z</time>
      </trkpt>
      <trkpt lat="47.68772" lon="6.0484">
        <ele>235.34</ele>
        <time>2017-10-18T09:50:35Z</time>
      </trkpt>
      <trkpt lat="47.6877" lon="6.0483">
        <ele>235.29</ele>
        <time>2017-10-18T09:50:37Z</time>
      </trkpt>
      <trkpt lat="47.68767" lon="6.04821">
        <ele>235.25</ele>
        <time>2017-10-18T09:50:39Z</time>
      </trkpt>
      <trkpt lat="47.68765" lon="6.04812">
        <ele>235.21</ele>
        <time>2017-10-18T09:50:41Z</time>
      </trkpt>
      <trkpt lat="47.68763" lon="6.04805">
        <ele>235.18</ele>
        <time>2017-10-18T09:50:43Z</time>
      </trkpt>
      <trkpt lat="47.68761" lon="6.04797">
        <ele>235.14</ele>
        <time>2017-10-18T09:50:45Z</time>
      </trkpt>
      <trkpt lat="47.68758" lon="6.04789">
        <ele>235.1</ele>
        <time>2017-10-18T09:50:47Z</time>
      </trkpt>
      <trkpt lat="47.68754" lon="6.04779">
        <ele>234.91</ele>
        <time>2017-10-18T09:50:49Z</time>
      </trkpt>
      <trkpt lat="47.68752" lon="6.04773">
        <ele>234.73</ele>
        <time>2017-10-18T09:50:50Z</time>
      </trkpt>
      <trkpt lat="47.68751" lon="6.04761">
        <ele>234.49</ele>
        <time>2017-10-18T09:50:52Z</time>
      </trkpt>
      <trkpt lat="47.68748" lon="6.04751">
        <ele>234.35</ele>
        <time>2017-10-18T09:50:54Z</time>
      </trkpt>
      <trkpt lat="47.68746" lon="6.04741">
        <ele>234.28</ele>
        <time>2017-10-18T09:50:56Z</time>
      </trkpt>
      <trkpt lat="47.68743" lon="6.04731">
        <ele>234.14</ele>
        <time>2017-10-18T09:50:58Z</time>
      </trkpt>
      <trkpt lat="47.6874" lon="6.0472">
        <ele>233.95</ele>
        <time>2017-10-18T09:51:00Z</time>
      </trkpt>
      <trkpt lat="47.68736" lon="6.04711">
        <ele>233.87</ele>
        <time>2017-10-18T09:51:02Z</time>
      </trkpt>
      <trkpt lat="47.68733" lon="6.04701">
        <ele>233.8</ele>
        <time>2017-10-18T09:51:04Z</time>
      </trkpt>
      <trkpt lat="47.68729" lon="6.04692">
        <ele>233.78</ele>
        <time>2017-10-18T09:51:06Z</time>
      </trkpt>
      <trkpt lat="47.68725" lon="6.04684">
        <ele>233.76</ele>
        <time>2017-10-18T09:51:08Z</time>
      </trkpt>
      <trkpt lat="47.6872" lon="6.04675">
        <ele>233.58</ele>
        <time>2017-10-18T09:51:10Z</time>
      </trkpt>
      <trkpt lat="47.68716" lon="6.04666">
        <ele>233.39</ele>
        <time>2017-10-18T09:51:12Z</time>
      </trkpt>
      <trkpt lat="47.68711" lon="6.04655">
        <ele>233.13</ele>
        <time>2017-10-18T09:51:14Z</time>
      </trkpt>
      <trkpt lat="47.68706" lon="6.04645">
        <ele>232.98</ele>
        <time>2017-10-18T09:51:16Z</time>
      </trkpt>
      <trkpt lat="47.687" lon="6.04636">
        <ele>232.95</ele>
        <time>2017-10-18T09:51:18Z</time>
      </trkpt>
      <trkpt lat="47.68695" lon="6.04626">
        <ele>232.81</ele>
        <time>2017-10-18T09:51:20Z</time>
      </trkpt>
      <trkpt lat="47.68693" lon="6.0462">
        <ele>232.76</ele>
        <time>2017-10-18T09:51:21Z</time>
      </trkpt>
      <trkpt lat="47.6869" lon="6.04614">
        <ele>232.72</ele>
        <time>2017-10-18T09:51:22Z</time>
      </trkpt>
      <trkpt lat="47.68685" lon="6.04603">
        <ele>232.66</ele>
        <time>2017-10-18T09:51:24Z</time>
      </trkpt>
      <trkpt lat="47.68683" lon="6.04596">
        <ele>232.65</ele>
        <time>2017-10-18T09:51:25Z</time>
      </trkpt>
      <trkpt lat="47.68679" lon="6.04584">
        <ele>232.61</ele>
        <time>2017-10-18T09:51:27Z</time>
      </trkpt>
      <trkpt lat="47.68676" lon="6.04579">
        <ele>232.59</ele>
        <time>2017-10-18T09:51:28Z</time>
      </trkpt>
      <trkpt lat="47.68674" lon="6.04573">
        <ele>232.58</ele>
        <time>2017-10-18T09:51:29Z</time>
      </trkpt>
      <trkpt lat="47.68669" lon="6.04563">
        <ele>232.56</ele>
        <time>2017-10-18T09:51:31Z</time>
      </trkpt>
      <trkpt lat="47.68666" lon="6.04558">
        <ele>232.55</ele>
        <time>2017-10-18T09:51:32Z</time>
      </trkpt>
      <trkpt lat="47.68662" lon="6.04553">
        <ele>232.53</ele>
        <time>2017-10-18T09:51:33Z</time>
      </trkpt>
      <trkpt lat="47.68658" lon="6.04549">
        <ele>232.51</ele>
        <time>2017-10-18T09:51:34Z</time>
      </trkpt>
      <trkpt lat="47.68651" lon="6.04543">
        <ele>232.46</ele>
        <time>2017-10-18T09:51:36Z</time>
      </trkpt>
      <trkpt lat="47.68644" lon="6.04538">
        <ele>232.44</ele>
        <time>2017-10-18T09:51:38Z</time>
      </trkpt>
      <trkpt lat="47.68639" lon="6.04534">
        <ele>232.43</ele>
        <time>2017-10-18T09:51:40Z</time>
      </trkpt>
      <trkpt lat="47.68632" lon="6.04531">
        <ele>232.39</ele>
        <time>2017-10-18T09:51:42Z</time>
      </trkpt>
      <trkpt lat="47.68625" lon="6.04535">
        <ele>232.37</ele>
        <time>2017-10-18T09:51:44Z</time>
      </trkpt>
      <trkpt lat="47.68623" lon="6.04543">
        <ele>232.34</ele>
        <time>2017-10-18T09:51:48Z</time>
      </trkpt>
      <trkpt lat="47.68622" lon="6.04549">
        <ele>232.26</ele>
        <time>2017-10-18T09:51:58Z</time>
      </trkpt>
    </trkseg>
  </trk>
</gpx>